<?xml version="1.0" encoding="UTF-8" standalone="no" ?>
<gpx xmlns="http://www.topografix.com/GPX/1/1" xmlns:xsi="http://www.w3.org/2001/XMLSchema-instance" xsi:schemaLocation="http://www.topografix.com/GPX/1/1 http://www.topografix.com/GPX/1/1/gpx.xsd" version="1.1" creator="VisuGPX - https://www.visugpx.com">
  <metadata>
    <name>Boucle vers Limonest </name>
  </metadata>
  <trk>
    <name><![CDATA[Enregistré le 18 sept. 2022 14:19:06]]></name>
    <trkseg>
      <trkpt lat="45.8331" lon="4.71">
        <ele>304.95897</ele>
        <time>2022-09-18T12:19:08.434Z</time>
      </trkpt>
      <trkpt lat="45.83312" lon="4.70999">
        <ele>304.94011</ele>
        <time>2022-09-18T12:19:14.000Z</time>
      </trkpt>
      <trkpt lat="45.83316" lon="4.70998">
        <ele>304.94853</ele>
        <time>2022-09-18T12:19:19.000Z</time>
      </trkpt>
      <trkpt lat="45.83319" lon="4.70997">
        <ele>304.9792</ele>
        <time>2022-09-18T12:19:20.000Z</time>
      </trkpt>
      <trkpt lat="45.83321" lon="4.70997">
        <ele>305.01209</ele>
        <time>2022-09-18T12:19:21.000Z</time>
      </trkpt>
      <trkpt lat="45.83324" lon="4.70996">
        <ele>305.05638</ele>
        <time>2022-09-18T12:19:22.000Z</time>
      </trkpt>
      <trkpt lat="45.83326" lon="4.70996">
        <ele>305.10089</ele>
        <time>2022-09-18T12:19:23.000Z</time>
      </trkpt>
      <trkpt lat="45.83329" lon="4.70995">
        <ele>305.13966</ele>
        <time>2022-09-18T12:19:24.000Z</time>
      </trkpt>
      <trkpt lat="45.83332" lon="4.70994">
        <ele>305.16873</ele>
        <time>2022-09-18T12:19:25.000Z</time>
      </trkpt>
      <trkpt lat="45.83335" lon="4.70993">
        <ele>305.19837</ele>
        <time>2022-09-18T12:19:26.000Z</time>
      </trkpt>
      <trkpt lat="45.83339" lon="4.70993">
        <ele>305.23764</ele>
        <time>2022-09-18T12:19:27.000Z</time>
      </trkpt>
      <trkpt lat="45.83343" lon="4.70992">
        <ele>305.28039</ele>
        <time>2022-09-18T12:19:28.000Z</time>
      </trkpt>
      <trkpt lat="45.83348" lon="4.70993">
        <ele>305.31603</ele>
        <time>2022-09-18T12:19:29.000Z</time>
      </trkpt>
      <trkpt lat="45.83352" lon="4.70993">
        <ele>305.34287</ele>
        <time>2022-09-18T12:19:30.000Z</time>
      </trkpt>
      <trkpt lat="45.83356" lon="4.70994">
        <ele>305.35823</ele>
        <time>2022-09-18T12:19:31.000Z</time>
      </trkpt>
      <trkpt lat="45.83361" lon="4.70994">
        <ele>305.37132</ele>
        <time>2022-09-18T12:19:32.000Z</time>
      </trkpt>
      <trkpt lat="45.83366" lon="4.70995">
        <ele>305.36739</ele>
        <time>2022-09-18T12:19:33.000Z</time>
      </trkpt>
      <trkpt lat="45.83371" lon="4.70997">
        <ele>305.34233</ele>
        <time>2022-09-18T12:19:34.000Z</time>
      </trkpt>
      <trkpt lat="45.83375" lon="4.70997">
        <ele>305.2991</ele>
        <time>2022-09-18T12:19:35.000Z</time>
      </trkpt>
      <trkpt lat="45.8338" lon="4.70998">
        <ele>305.23738</ele>
        <time>2022-09-18T12:19:36.000Z</time>
      </trkpt>
      <trkpt lat="45.83384" lon="4.70998">
        <ele>305.15816</ele>
        <time>2022-09-18T12:19:37.000Z</time>
      </trkpt>
      <trkpt lat="45.83389" lon="4.70998">
        <ele>305.08268</ele>
        <time>2022-09-18T12:19:38.000Z</time>
      </trkpt>
      <trkpt lat="45.83393" lon="4.70997">
        <ele>304.99904</ele>
        <time>2022-09-18T12:19:39.000Z</time>
      </trkpt>
      <trkpt lat="45.83396" lon="4.70996">
        <ele>304.91451</ele>
        <time>2022-09-18T12:19:40.000Z</time>
      </trkpt>
      <trkpt lat="45.83399" lon="4.70995">
        <ele>304.80836</ele>
        <time>2022-09-18T12:19:41.000Z</time>
      </trkpt>
      <trkpt lat="45.83403" lon="4.70995">
        <ele>304.66017</ele>
        <time>2022-09-18T12:19:42.000Z</time>
      </trkpt>
      <trkpt lat="45.83407" lon="4.70994">
        <ele>304.47427</ele>
        <time>2022-09-18T12:19:43.000Z</time>
      </trkpt>
      <trkpt lat="45.83411" lon="4.70994">
        <ele>304.24935</ele>
        <time>2022-09-18T12:19:44.000Z</time>
      </trkpt>
      <trkpt lat="45.83416" lon="4.70994">
        <ele>304.0208</ele>
        <time>2022-09-18T12:19:45.000Z</time>
      </trkpt>
      <trkpt lat="45.83421" lon="4.70995">
        <ele>303.77119</ele>
        <time>2022-09-18T12:19:46.000Z</time>
      </trkpt>
      <trkpt lat="45.83426" lon="4.70996">
        <ele>303.55751</ele>
        <time>2022-09-18T12:19:47.000Z</time>
      </trkpt>
      <trkpt lat="45.83432" lon="4.70994">
        <ele>303.37136</ele>
        <time>2022-09-18T12:19:48.000Z</time>
      </trkpt>
      <trkpt lat="45.83437" lon="4.70994">
        <ele>303.18871</ele>
        <time>2022-09-18T12:19:49.000Z</time>
      </trkpt>
      <trkpt lat="45.83443" lon="4.70996">
        <ele>302.97184</ele>
        <time>2022-09-18T12:19:50.000Z</time>
      </trkpt>
      <trkpt lat="45.8345" lon="4.70995">
        <ele>302.77904</ele>
        <time>2022-09-18T12:19:51.000Z</time>
      </trkpt>
      <trkpt lat="45.83456" lon="4.70994">
        <ele>302.61863</ele>
        <time>2022-09-18T12:19:52.000Z</time>
      </trkpt>
      <trkpt lat="45.83464" lon="4.70995">
        <ele>302.37423</ele>
        <time>2022-09-18T12:19:53.000Z</time>
      </trkpt>
      <trkpt lat="45.83471" lon="4.70994">
        <ele>302.0693</ele>
        <time>2022-09-18T12:19:54.000Z</time>
      </trkpt>
      <trkpt lat="45.83477" lon="4.70993">
        <ele>301.76156</ele>
        <time>2022-09-18T12:19:55.000Z</time>
      </trkpt>
      <trkpt lat="45.83485" lon="4.70994">
        <ele>301.30901</ele>
        <time>2022-09-18T12:19:56.000Z</time>
      </trkpt>
      <trkpt lat="45.83492" lon="4.70993">
        <ele>300.90726</ele>
        <time>2022-09-18T12:19:57.000Z</time>
      </trkpt>
      <trkpt lat="45.83499" lon="4.70994">
        <ele>300.34971</ele>
        <time>2022-09-18T12:19:58.000Z</time>
      </trkpt>
      <trkpt lat="45.83507" lon="4.70994">
        <ele>299.85121</ele>
        <time>2022-09-18T12:19:59.000Z</time>
      </trkpt>
      <trkpt lat="45.83512" lon="4.70997">
        <ele>299.54146</ele>
        <time>2022-09-18T12:20:00.000Z</time>
      </trkpt>
      <trkpt lat="45.83518" lon="4.71">
        <ele>299.29634</ele>
        <time>2022-09-18T12:20:01.000Z</time>
      </trkpt>
      <trkpt lat="45.83524" lon="4.71005">
        <ele>299.155</ele>
        <time>2022-09-18T12:20:02.000Z</time>
      </trkpt>
      <trkpt lat="45.83529" lon="4.7101">
        <ele>299.03702</ele>
        <time>2022-09-18T12:20:03.000Z</time>
      </trkpt>
      <trkpt lat="45.83537" lon="4.71013">
        <ele>298.85645</ele>
        <time>2022-09-18T12:20:04.000Z</time>
      </trkpt>
      <trkpt lat="45.8354" lon="4.71015">
        <ele>298.75784</ele>
        <time>2022-09-18T12:20:05.000Z</time>
      </trkpt>
      <trkpt lat="45.83545" lon="4.7102">
        <ele>298.58292</ele>
        <time>2022-09-18T12:20:06.000Z</time>
      </trkpt>
      <trkpt lat="45.83549" lon="4.71022">
        <ele>298.45799</ele>
        <time>2022-09-18T12:20:07.000Z</time>
      </trkpt>
      <trkpt lat="45.83554" lon="4.71028">
        <ele>298.23061</ele>
        <time>2022-09-18T12:20:08.000Z</time>
      </trkpt>
      <trkpt lat="45.83558" lon="4.71031">
        <ele>298.11031</ele>
        <time>2022-09-18T12:20:09.000Z</time>
      </trkpt>
      <trkpt lat="45.83564" lon="4.71034">
        <ele>298.03473</ele>
        <time>2022-09-18T12:20:10.000Z</time>
      </trkpt>
      <trkpt lat="45.83569" lon="4.71038">
        <ele>297.94559</ele>
        <time>2022-09-18T12:20:11.000Z</time>
      </trkpt>
      <trkpt lat="45.83573" lon="4.71043">
        <ele>297.80303</ele>
        <time>2022-09-18T12:20:12.000Z</time>
      </trkpt>
      <trkpt lat="45.83579" lon="4.71046">
        <ele>297.61176</ele>
        <time>2022-09-18T12:20:13.000Z</time>
      </trkpt>
      <trkpt lat="45.83584" lon="4.71049">
        <ele>297.3635</ele>
        <time>2022-09-18T12:20:14.000Z</time>
      </trkpt>
      <trkpt lat="45.83589" lon="4.71051">
        <ele>297.12768</ele>
        <time>2022-09-18T12:20:15.000Z</time>
      </trkpt>
      <trkpt lat="45.83594" lon="4.71054">
        <ele>296.86934</ele>
        <time>2022-09-18T12:20:16.000Z</time>
      </trkpt>
      <trkpt lat="45.836" lon="4.71059">
        <ele>296.53801</ele>
        <time>2022-09-18T12:20:17.000Z</time>
      </trkpt>
      <trkpt lat="45.83605" lon="4.71065">
        <ele>296.28607</ele>
        <time>2022-09-18T12:20:18.000Z</time>
      </trkpt>
      <trkpt lat="45.83612" lon="4.71071">
        <ele>296.04572</ele>
        <time>2022-09-18T12:20:19.000Z</time>
      </trkpt>
      <trkpt lat="45.83615" lon="4.71078">
        <ele>295.8377</ele>
        <time>2022-09-18T12:20:20.000Z</time>
      </trkpt>
      <trkpt lat="45.83621" lon="4.71083">
        <ele>295.54915</ele>
        <time>2022-09-18T12:20:21.000Z</time>
      </trkpt>
      <trkpt lat="45.83625" lon="4.71088">
        <ele>295.24845</ele>
        <time>2022-09-18T12:20:22.000Z</time>
      </trkpt>
      <trkpt lat="45.83631" lon="4.71093">
        <ele>294.85458</ele>
        <time>2022-09-18T12:20:23.000Z</time>
      </trkpt>
      <trkpt lat="45.83637" lon="4.71099">
        <ele>294.45348</ele>
        <time>2022-09-18T12:20:24.000Z</time>
      </trkpt>
      <trkpt lat="45.83642" lon="4.71103">
        <ele>294.14074</ele>
        <time>2022-09-18T12:20:25.000Z</time>
      </trkpt>
      <trkpt lat="45.83647" lon="4.71107">
        <ele>293.76814</ele>
        <time>2022-09-18T12:20:26.000Z</time>
      </trkpt>
      <trkpt lat="45.83654" lon="4.71113">
        <ele>293.2294</ele>
        <time>2022-09-18T12:20:27.000Z</time>
      </trkpt>
      <trkpt lat="45.8366" lon="4.71119">
        <ele>292.79676</ele>
        <time>2022-09-18T12:20:28.000Z</time>
      </trkpt>
      <trkpt lat="45.83665" lon="4.71123">
        <ele>292.49157</ele>
        <time>2022-09-18T12:20:29.000Z</time>
      </trkpt>
      <trkpt lat="45.83672" lon="4.7113">
        <ele>292.16247</ele>
        <time>2022-09-18T12:20:30.000Z</time>
      </trkpt>
      <trkpt lat="45.83677" lon="4.71135">
        <ele>291.87145</ele>
        <time>2022-09-18T12:20:31.000Z</time>
      </trkpt>
      <trkpt lat="45.83684" lon="4.71141">
        <ele>291.57643</ele>
        <time>2022-09-18T12:20:32.000Z</time>
      </trkpt>
      <trkpt lat="45.8369" lon="4.71144">
        <ele>291.3553</ele>
        <time>2022-09-18T12:20:33.000Z</time>
      </trkpt>
      <trkpt lat="45.83695" lon="4.71147">
        <ele>291.17074</ele>
        <time>2022-09-18T12:20:34.000Z</time>
      </trkpt>
      <trkpt lat="45.83698" lon="4.71153">
        <ele>291.02199</ele>
        <time>2022-09-18T12:20:35.000Z</time>
      </trkpt>
      <trkpt lat="45.83697" lon="4.71157">
        <ele>290.95216</ele>
        <time>2022-09-18T12:20:36.000Z</time>
      </trkpt>
      <trkpt lat="45.83696" lon="4.71162">
        <ele>290.8836</ele>
        <time>2022-09-18T12:20:37.000Z</time>
      </trkpt>
      <trkpt lat="45.83695" lon="4.71167">
        <ele>290.78882</ele>
        <time>2022-09-18T12:20:38.000Z</time>
      </trkpt>
      <trkpt lat="45.83692" lon="4.71173">
        <ele>290.71054</ele>
        <time>2022-09-18T12:20:39.000Z</time>
      </trkpt>
      <trkpt lat="45.83688" lon="4.71179">
        <ele>290.70867</ele>
        <time>2022-09-18T12:20:40.000Z</time>
      </trkpt>
      <trkpt lat="45.83686" lon="4.71184">
        <ele>290.64627</ele>
        <time>2022-09-18T12:20:41.000Z</time>
      </trkpt>
      <trkpt lat="45.83685" lon="4.7119">
        <ele>290.52216</ele>
        <time>2022-09-18T12:20:42.000Z</time>
      </trkpt>
      <trkpt lat="45.83683" lon="4.71198">
        <ele>290.41266</ele>
        <time>2022-09-18T12:20:43.000Z</time>
      </trkpt>
      <trkpt lat="45.83682" lon="4.71203">
        <ele>290.34721</ele>
        <time>2022-09-18T12:20:44.000Z</time>
      </trkpt>
      <trkpt lat="45.83679" lon="4.7121">
        <ele>290.28483</ele>
        <time>2022-09-18T12:20:45.000Z</time>
      </trkpt>
      <trkpt lat="45.83678" lon="4.71216">
        <ele>290.18994</ele>
        <time>2022-09-18T12:20:46.000Z</time>
      </trkpt>
      <trkpt lat="45.83676" lon="4.71225">
        <ele>290.0261</ele>
        <time>2022-09-18T12:20:47.000Z</time>
      </trkpt>
      <trkpt lat="45.83675" lon="4.71233">
        <ele>289.89274</ele>
        <time>2022-09-18T12:20:48.000Z</time>
      </trkpt>
      <trkpt lat="45.83674" lon="4.71238">
        <ele>289.81196</ele>
        <time>2022-09-18T12:20:49.000Z</time>
      </trkpt>
      <trkpt lat="45.83672" lon="4.71244">
        <ele>289.75353</ele>
        <time>2022-09-18T12:20:50.000Z</time>
      </trkpt>
      <trkpt lat="45.83671" lon="4.71251">
        <ele>289.72371</ele>
        <time>2022-09-18T12:20:51.000Z</time>
      </trkpt>
      <trkpt lat="45.83673" lon="4.71258">
        <ele>289.47833</ele>
        <time>2022-09-18T12:20:52.000Z</time>
      </trkpt>
      <trkpt lat="45.83669" lon="4.71261">
        <ele>289.66063</ele>
        <time>2022-09-18T12:20:53.000Z</time>
      </trkpt>
      <trkpt lat="45.83667" lon="4.71266">
        <ele>289.74143</ele>
        <time>2022-09-18T12:20:54.000Z</time>
      </trkpt>
      <trkpt lat="45.83663" lon="4.71273">
        <ele>289.92763</ele>
        <time>2022-09-18T12:20:55.000Z</time>
      </trkpt>
      <trkpt lat="45.83663" lon="4.71281">
        <ele>289.87876</ele>
        <time>2022-09-18T12:20:56.000Z</time>
      </trkpt>
      <trkpt lat="45.83663" lon="4.71288">
        <ele>289.78443</ele>
        <time>2022-09-18T12:20:57.000Z</time>
      </trkpt>
      <trkpt lat="45.83663" lon="4.71296">
        <ele>289.74299</ele>
        <time>2022-09-18T12:20:58.000Z</time>
      </trkpt>
      <trkpt lat="45.83661" lon="4.71302">
        <ele>289.75013</ele>
        <time>2022-09-18T12:20:59.000Z</time>
      </trkpt>
      <trkpt lat="45.83661" lon="4.71308">
        <ele>289.69881</ele>
        <time>2022-09-18T12:21:00.000Z</time>
      </trkpt>
      <trkpt lat="45.8366" lon="4.71315">
        <ele>289.7287</ele>
        <time>2022-09-18T12:21:01.000Z</time>
      </trkpt>
      <trkpt lat="45.83658" lon="4.7132">
        <ele>289.72983</ele>
        <time>2022-09-18T12:21:02.000Z</time>
      </trkpt>
      <trkpt lat="45.83658" lon="4.71326">
        <ele>289.6422</ele>
        <time>2022-09-18T12:21:03.000Z</time>
      </trkpt>
      <trkpt lat="45.83655" lon="4.7133">
        <ele>289.7345</ele>
        <time>2022-09-18T12:21:04.000Z</time>
      </trkpt>
      <trkpt lat="45.8365" lon="4.71338">
        <ele>289.74858</ele>
        <time>2022-09-18T12:21:05.000Z</time>
      </trkpt>
      <trkpt lat="45.83649" lon="4.71347">
        <ele>289.55045</ele>
        <time>2022-09-18T12:21:06.000Z</time>
      </trkpt>
      <trkpt lat="45.83649" lon="4.71356">
        <ele>289.38382</ele>
        <time>2022-09-18T12:21:07.000Z</time>
      </trkpt>
      <trkpt lat="45.83648" lon="4.71362">
        <ele>289.32216</ele>
        <time>2022-09-18T12:21:08.000Z</time>
      </trkpt>
      <trkpt lat="45.83648" lon="4.71369">
        <ele>289.27948</ele>
        <time>2022-09-18T12:21:09.000Z</time>
      </trkpt>
      <trkpt lat="45.83648" lon="4.71376">
        <ele>289.24531</ele>
        <time>2022-09-18T12:21:10.000Z</time>
      </trkpt>
      <trkpt lat="45.83648" lon="4.71383">
        <ele>289.20724</ele>
        <time>2022-09-18T12:21:11.000Z</time>
      </trkpt>
      <trkpt lat="45.83645" lon="4.7139">
        <ele>289.33626</ele>
        <time>2022-09-18T12:21:12.000Z</time>
      </trkpt>
      <trkpt lat="45.83643" lon="4.71396">
        <ele>289.34595</ele>
        <time>2022-09-18T12:21:13.000Z</time>
      </trkpt>
      <trkpt lat="45.83641" lon="4.71403">
        <ele>289.40268</ele>
        <time>2022-09-18T12:21:14.000Z</time>
      </trkpt>
      <trkpt lat="45.83638" lon="4.7141">
        <ele>289.44854</ele>
        <time>2022-09-18T12:21:15.000Z</time>
      </trkpt>
      <trkpt lat="45.83637" lon="4.71416">
        <ele>289.41062</ele>
        <time>2022-09-18T12:21:16.000Z</time>
      </trkpt>
      <trkpt lat="45.83634" lon="4.71423">
        <ele>289.434</ele>
        <time>2022-09-18T12:21:17.000Z</time>
      </trkpt>
      <trkpt lat="45.8363" lon="4.7143">
        <ele>289.46455</ele>
        <time>2022-09-18T12:21:18.000Z</time>
      </trkpt>
      <trkpt lat="45.83628" lon="4.71437">
        <ele>289.49651</ele>
        <time>2022-09-18T12:21:19.000Z</time>
      </trkpt>
      <trkpt lat="45.83626" lon="4.71444">
        <ele>289.54301</ele>
        <time>2022-09-18T12:21:20.000Z</time>
      </trkpt>
      <trkpt lat="45.83625" lon="4.71451">
        <ele>289.5563</ele>
        <time>2022-09-18T12:21:21.000Z</time>
      </trkpt>
      <trkpt lat="45.83623" lon="4.71459">
        <ele>289.58852</ele>
        <time>2022-09-18T12:21:22.000Z</time>
      </trkpt>
      <trkpt lat="45.83621" lon="4.71465">
        <ele>289.63127</ele>
        <time>2022-09-18T12:21:23.000Z</time>
      </trkpt>
      <trkpt lat="45.83618" lon="4.71469">
        <ele>289.72648</ele>
        <time>2022-09-18T12:21:24.000Z</time>
      </trkpt>
      <trkpt lat="45.83615" lon="4.71475">
        <ele>289.74544</ele>
        <time>2022-09-18T12:21:25.000Z</time>
      </trkpt>
      <trkpt lat="45.83611" lon="4.71481">
        <ele>289.71651</ele>
        <time>2022-09-18T12:21:26.000Z</time>
      </trkpt>
      <trkpt lat="45.8361" lon="4.71483">
        <ele>289.70706</ele>
        <time>2022-09-18T12:21:27.000Z</time>
      </trkpt>
      <trkpt lat="45.83608" lon="4.71485">
        <ele>289.70184</ele>
        <time>2022-09-18T12:21:28.000Z</time>
      </trkpt>
      <trkpt lat="45.83605" lon="4.71488">
        <ele>289.66511</ele>
        <time>2022-09-18T12:21:29.000Z</time>
      </trkpt>
      <trkpt lat="45.83603" lon="4.7149">
        <ele>289.64033</ele>
        <time>2022-09-18T12:21:30.000Z</time>
      </trkpt>
      <trkpt lat="45.83602" lon="4.71493">
        <ele>289.52611</ele>
        <time>2022-09-18T12:21:31.000Z</time>
      </trkpt>
      <trkpt lat="45.83603" lon="4.71497">
        <ele>289.25775</ele>
        <time>2022-09-18T12:21:35.000Z</time>
      </trkpt>
      <trkpt lat="45.83603" lon="4.715">
        <ele>289.07012</ele>
        <time>2022-09-18T12:21:36.000Z</time>
      </trkpt>
      <trkpt lat="45.83605" lon="4.71505">
        <ele>288.73515</ele>
        <time>2022-09-18T12:21:37.000Z</time>
      </trkpt>
      <trkpt lat="45.83607" lon="4.7151">
        <ele>288.38427</ele>
        <time>2022-09-18T12:21:38.000Z</time>
      </trkpt>
      <trkpt lat="45.83609" lon="4.71515">
        <ele>288.01847</ele>
        <time>2022-09-18T12:21:39.000Z</time>
      </trkpt>
      <trkpt lat="45.83612" lon="4.71521">
        <ele>287.65129</ele>
        <time>2022-09-18T12:21:40.000Z</time>
      </trkpt>
      <trkpt lat="45.83614" lon="4.71527">
        <ele>287.3323</ele>
        <time>2022-09-18T12:21:41.000Z</time>
      </trkpt>
      <trkpt lat="45.83616" lon="4.71533">
        <ele>287.0384</ele>
        <time>2022-09-18T12:21:42.000Z</time>
      </trkpt>
      <trkpt lat="45.83617" lon="4.71538">
        <ele>286.74384</ele>
        <time>2022-09-18T12:21:43.000Z</time>
      </trkpt>
      <trkpt lat="45.83618" lon="4.71542">
        <ele>286.43681</ele>
        <time>2022-09-18T12:21:44.000Z</time>
      </trkpt>
      <trkpt lat="45.83618" lon="4.71547">
        <ele>286.06201</ele>
        <time>2022-09-18T12:21:45.000Z</time>
      </trkpt>
      <trkpt lat="45.83617" lon="4.71551">
        <ele>285.65925</ele>
        <time>2022-09-18T12:21:46.000Z</time>
      </trkpt>
      <trkpt lat="45.83617" lon="4.71554">
        <ele>285.25177</ele>
        <time>2022-09-18T12:21:47.000Z</time>
      </trkpt>
      <trkpt lat="45.83616" lon="4.71558">
        <ele>284.74818</ele>
        <time>2022-09-18T12:21:48.000Z</time>
      </trkpt>
      <trkpt lat="45.83615" lon="4.71563">
        <ele>284.14376</ele>
        <time>2022-09-18T12:21:49.000Z</time>
      </trkpt>
      <trkpt lat="45.83614" lon="4.71567">
        <ele>283.43419</ele>
        <time>2022-09-18T12:21:50.000Z</time>
      </trkpt>
      <trkpt lat="45.83613" lon="4.71571">
        <ele>282.77035</ele>
        <time>2022-09-18T12:21:51.000Z</time>
      </trkpt>
      <trkpt lat="45.83612" lon="4.71574">
        <ele>282.19101</ele>
        <time>2022-09-18T12:21:52.000Z</time>
      </trkpt>
      <trkpt lat="45.83611" lon="4.71577">
        <ele>281.65798</ele>
        <time>2022-09-18T12:21:53.000Z</time>
      </trkpt>
      <trkpt lat="45.83611" lon="4.71581">
        <ele>281.00481</ele>
        <time>2022-09-18T12:21:54.000Z</time>
      </trkpt>
      <trkpt lat="45.83611" lon="4.71584">
        <ele>280.52593</ele>
        <time>2022-09-18T12:21:55.000Z</time>
      </trkpt>
      <trkpt lat="45.83612" lon="4.71587">
        <ele>280.1004</ele>
        <time>2022-09-18T12:21:57.000Z</time>
      </trkpt>
      <trkpt lat="45.83613" lon="4.7159">
        <ele>279.81603</ele>
        <time>2022-09-18T12:21:59.000Z</time>
      </trkpt>
      <trkpt lat="45.83613" lon="4.71596">
        <ele>278.87018</ele>
        <time>2022-09-18T12:22:01.000Z</time>
      </trkpt>
      <trkpt lat="45.83615" lon="4.71598">
        <ele>278.78749</ele>
        <time>2022-09-18T12:22:17.000Z</time>
      </trkpt>
      <trkpt lat="45.83616" lon="4.71602">
        <ele>278.28699</ele>
        <time>2022-09-18T12:22:18.000Z</time>
      </trkpt>
      <trkpt lat="45.83617" lon="4.71606">
        <ele>277.6403</ele>
        <time>2022-09-18T12:22:20.000Z</time>
      </trkpt>
      <trkpt lat="45.83618" lon="4.71609">
        <ele>277.26256</ele>
        <time>2022-09-18T12:22:21.000Z</time>
      </trkpt>
      <trkpt lat="45.83619" lon="4.71613">
        <ele>276.75193</ele>
        <time>2022-09-18T12:22:22.000Z</time>
      </trkpt>
      <trkpt lat="45.83621" lon="4.71617">
        <ele>276.2705</ele>
        <time>2022-09-18T12:22:23.000Z</time>
      </trkpt>
      <trkpt lat="45.83622" lon="4.71621">
        <ele>275.65735</ele>
        <time>2022-09-18T12:22:24.000Z</time>
      </trkpt>
      <trkpt lat="45.83624" lon="4.71625">
        <ele>274.92838</ele>
        <time>2022-09-18T12:22:25.000Z</time>
      </trkpt>
      <trkpt lat="45.83625" lon="4.71629">
        <ele>274.18297</ele>
        <time>2022-09-18T12:22:26.000Z</time>
      </trkpt>
      <trkpt lat="45.83627" lon="4.71632">
        <ele>273.47276</ele>
        <time>2022-09-18T12:22:27.000Z</time>
      </trkpt>
      <trkpt lat="45.83629" lon="4.71635">
        <ele>273.05574</ele>
        <time>2022-09-18T12:22:28.000Z</time>
      </trkpt>
      <trkpt lat="45.83631" lon="4.71638">
        <ele>272.47924</ele>
        <time>2022-09-18T12:22:29.000Z</time>
      </trkpt>
      <trkpt lat="45.83633" lon="4.71641">
        <ele>271.89535</ele>
        <time>2022-09-18T12:22:30.000Z</time>
      </trkpt>
      <trkpt lat="45.83635" lon="4.71644">
        <ele>271.26864</ele>
        <time>2022-09-18T12:22:31.000Z</time>
      </trkpt>
      <trkpt lat="45.83637" lon="4.71646">
        <ele>270.86243</ele>
        <time>2022-09-18T12:22:32.000Z</time>
      </trkpt>
      <trkpt lat="45.8364" lon="4.71648">
        <ele>270.44496</ele>
        <time>2022-09-18T12:22:34.000Z</time>
      </trkpt>
      <trkpt lat="45.83642" lon="4.71648">
        <ele>270.446</ele>
        <time>2022-09-18T12:22:36.000Z</time>
      </trkpt>
      <trkpt lat="45.83645" lon="4.71649">
        <ele>270.20667</ele>
        <time>2022-09-18T12:22:38.000Z</time>
      </trkpt>
      <trkpt lat="45.83648" lon="4.71649">
        <ele>269.93147</ele>
        <time>2022-09-18T12:22:39.000Z</time>
      </trkpt>
      <trkpt lat="45.8365" lon="4.7165">
        <ele>269.60463</ele>
        <time>2022-09-18T12:22:40.000Z</time>
      </trkpt>
      <trkpt lat="45.83653" lon="4.7165">
        <ele>269.42348</ele>
        <time>2022-09-18T12:22:41.000Z</time>
      </trkpt>
      <trkpt lat="45.83655" lon="4.71651">
        <ele>269.19074</ele>
        <time>2022-09-18T12:22:42.000Z</time>
      </trkpt>
      <trkpt lat="45.83658" lon="4.71651">
        <ele>268.99479</ele>
        <time>2022-09-18T12:22:43.000Z</time>
      </trkpt>
      <trkpt lat="45.83661" lon="4.71651">
        <ele>268.77091</ele>
        <time>2022-09-18T12:22:44.000Z</time>
      </trkpt>
      <trkpt lat="45.83663" lon="4.7165">
        <ele>268.72236</ele>
        <time>2022-09-18T12:22:45.000Z</time>
      </trkpt>
      <trkpt lat="45.83666" lon="4.71649">
        <ele>268.71805</ele>
        <time>2022-09-18T12:22:46.000Z</time>
      </trkpt>
      <trkpt lat="45.83669" lon="4.71648">
        <ele>268.61676</ele>
        <time>2022-09-18T12:22:47.000Z</time>
      </trkpt>
      <trkpt lat="45.83671" lon="4.71647">
        <ele>268.42255</ele>
        <time>2022-09-18T12:22:48.000Z</time>
      </trkpt>
      <trkpt lat="45.83675" lon="4.71646">
        <ele>268.20122</ele>
        <time>2022-09-18T12:22:49.000Z</time>
      </trkpt>
      <trkpt lat="45.83677" lon="4.71645">
        <ele>268.0269</ele>
        <time>2022-09-18T12:22:50.000Z</time>
      </trkpt>
      <trkpt lat="45.83679" lon="4.71645">
        <ele>267.84323</ele>
        <time>2022-09-18T12:22:51.000Z</time>
      </trkpt>
      <trkpt lat="45.83683" lon="4.71644">
        <ele>267.20613</ele>
        <time>2022-09-18T12:22:53.000Z</time>
      </trkpt>
      <trkpt lat="45.83687" lon="4.71644">
        <ele>266.16852</ele>
        <time>2022-09-18T12:22:54.000Z</time>
      </trkpt>
      <trkpt lat="45.83692" lon="4.7165">
        <ele>263.20433</ele>
        <time>2022-09-18T12:22:55.000Z</time>
      </trkpt>
      <trkpt lat="45.83696" lon="4.71656">
        <ele>260.73374</ele>
        <time>2022-09-18T12:22:56.000Z</time>
      </trkpt>
      <trkpt lat="45.837" lon="4.71664">
        <ele>258.60641</ele>
        <time>2022-09-18T12:22:57.000Z</time>
      </trkpt>
      <trkpt lat="45.83703" lon="4.71672">
        <ele>257.2395</ele>
        <time>2022-09-18T12:22:58.000Z</time>
      </trkpt>
      <trkpt lat="45.83707" lon="4.71679">
        <ele>256.6817</ele>
        <time>2022-09-18T12:22:59.000Z</time>
      </trkpt>
      <trkpt lat="45.83712" lon="4.71688">
        <ele>256.82667</ele>
        <time>2022-09-18T12:23:00.000Z</time>
      </trkpt>
      <trkpt lat="45.83717" lon="4.7169">
        <ele>257.10076</ele>
        <time>2022-09-18T12:23:01.000Z</time>
      </trkpt>
      <trkpt lat="45.83721" lon="4.71692">
        <ele>257.35897</ele>
        <time>2022-09-18T12:23:02.000Z</time>
      </trkpt>
      <trkpt lat="45.83726" lon="4.7169">
        <ele>257.24984</ele>
        <time>2022-09-18T12:23:03.000Z</time>
      </trkpt>
      <trkpt lat="45.83732" lon="4.71691">
        <ele>257.61228</ele>
        <time>2022-09-18T12:23:04.000Z</time>
      </trkpt>
      <trkpt lat="45.83736" lon="4.71691">
        <ele>257.73189</ele>
        <time>2022-09-18T12:23:05.000Z</time>
      </trkpt>
      <trkpt lat="45.8374" lon="4.7169">
        <ele>257.80516</ele>
        <time>2022-09-18T12:23:06.000Z</time>
      </trkpt>
      <trkpt lat="45.83743" lon="4.71692">
        <ele>258.19363</ele>
        <time>2022-09-18T12:23:07.000Z</time>
      </trkpt>
      <trkpt lat="45.83746" lon="4.71691">
        <ele>258.27086</ele>
        <time>2022-09-18T12:23:08.000Z</time>
      </trkpt>
      <trkpt lat="45.83749" lon="4.71691">
        <ele>258.45055</ele>
        <time>2022-09-18T12:23:09.000Z</time>
      </trkpt>
      <trkpt lat="45.83752" lon="4.71692">
        <ele>258.6971</ele>
        <time>2022-09-18T12:23:10.000Z</time>
      </trkpt>
      <trkpt lat="45.83755" lon="4.71692">
        <ele>258.93179</ele>
        <time>2022-09-18T12:23:11.000Z</time>
      </trkpt>
      <trkpt lat="45.83757" lon="4.71693">
        <ele>259.27954</ele>
        <time>2022-09-18T12:23:12.000Z</time>
      </trkpt>
      <trkpt lat="45.83759" lon="4.71693">
        <ele>259.47483</ele>
        <time>2022-09-18T12:23:13.000Z</time>
      </trkpt>
      <trkpt lat="45.83762" lon="4.71693">
        <ele>259.61583</ele>
        <time>2022-09-18T12:23:14.000Z</time>
      </trkpt>
      <trkpt lat="45.83765" lon="4.71693">
        <ele>259.73726</ele>
        <time>2022-09-18T12:23:15.000Z</time>
      </trkpt>
      <trkpt lat="45.83767" lon="4.71693">
        <ele>259.94231</ele>
        <time>2022-09-18T12:23:16.000Z</time>
      </trkpt>
      <trkpt lat="45.8377" lon="4.71693">
        <ele>260.1323</ele>
        <time>2022-09-18T12:23:17.000Z</time>
      </trkpt>
      <trkpt lat="45.83773" lon="4.71694">
        <ele>260.48612</ele>
        <time>2022-09-18T12:23:18.000Z</time>
      </trkpt>
      <trkpt lat="45.83776" lon="4.71695">
        <ele>260.88581</ele>
        <time>2022-09-18T12:23:19.000Z</time>
      </trkpt>
      <trkpt lat="45.83778" lon="4.71696">
        <ele>261.17596</ele>
        <time>2022-09-18T12:23:20.000Z</time>
      </trkpt>
      <trkpt lat="45.83781" lon="4.71696">
        <ele>261.42879</ele>
        <time>2022-09-18T12:23:21.000Z</time>
      </trkpt>
      <trkpt lat="45.83783" lon="4.71698">
        <ele>261.86119</ele>
        <time>2022-09-18T12:23:22.000Z</time>
      </trkpt>
      <trkpt lat="45.83786" lon="4.71699">
        <ele>262.30182</ele>
        <time>2022-09-18T12:23:23.000Z</time>
      </trkpt>
      <trkpt lat="45.83788" lon="4.717">
        <ele>262.78026</ele>
        <time>2022-09-18T12:23:24.000Z</time>
      </trkpt>
      <trkpt lat="45.83791" lon="4.71701">
        <ele>263.06654</ele>
        <time>2022-09-18T12:23:25.000Z</time>
      </trkpt>
      <trkpt lat="45.83792" lon="4.71701">
        <ele>263.1527</ele>
        <time>2022-09-18T12:23:26.000Z</time>
      </trkpt>
      <trkpt lat="45.83795" lon="4.71701">
        <ele>263.31588</ele>
        <time>2022-09-18T12:23:27.000Z</time>
      </trkpt>
      <trkpt lat="45.83798" lon="4.71702">
        <ele>263.58413</ele>
        <time>2022-09-18T12:23:28.000Z</time>
      </trkpt>
      <trkpt lat="45.83801" lon="4.71702">
        <ele>263.84827</ele>
        <time>2022-09-18T12:23:29.000Z</time>
      </trkpt>
      <trkpt lat="45.83804" lon="4.71704">
        <ele>264.44393</ele>
        <time>2022-09-18T12:23:30.000Z</time>
      </trkpt>
      <trkpt lat="45.83807" lon="4.71706">
        <ele>265.01548</ele>
        <time>2022-09-18T12:23:31.000Z</time>
      </trkpt>
      <trkpt lat="45.83809" lon="4.71708">
        <ele>265.48671</ele>
        <time>2022-09-18T12:23:32.000Z</time>
      </trkpt>
      <trkpt lat="45.83813" lon="4.71711">
        <ele>266.31247</ele>
        <time>2022-09-18T12:23:34.000Z</time>
      </trkpt>
      <trkpt lat="45.83816" lon="4.71712">
        <ele>266.7073</ele>
        <time>2022-09-18T12:23:35.000Z</time>
      </trkpt>
      <trkpt lat="45.83818" lon="4.71713">
        <ele>266.99721</ele>
        <time>2022-09-18T12:23:36.000Z</time>
      </trkpt>
      <trkpt lat="45.83821" lon="4.71715">
        <ele>267.39689</ele>
        <time>2022-09-18T12:23:37.000Z</time>
      </trkpt>
      <trkpt lat="45.83822" lon="4.71717">
        <ele>267.82086</ele>
        <time>2022-09-18T12:23:38.000Z</time>
      </trkpt>
      <trkpt lat="45.83824" lon="4.71718">
        <ele>268.25291</ele>
        <time>2022-09-18T12:23:39.000Z</time>
      </trkpt>
      <trkpt lat="45.83827" lon="4.7172">
        <ele>268.75515</ele>
        <time>2022-09-18T12:23:41.000Z</time>
      </trkpt>
      <trkpt lat="45.83829" lon="4.7172">
        <ele>268.78883</ele>
        <time>2022-09-18T12:23:42.000Z</time>
      </trkpt>
      <trkpt lat="45.83832" lon="4.71721">
        <ele>269.07362</ele>
        <time>2022-09-18T12:23:44.000Z</time>
      </trkpt>
      <trkpt lat="45.83834" lon="4.71723">
        <ele>269.42959</ele>
        <time>2022-09-18T12:23:45.000Z</time>
      </trkpt>
      <trkpt lat="45.83836" lon="4.71724">
        <ele>269.74833</ele>
        <time>2022-09-18T12:23:46.000Z</time>
      </trkpt>
      <trkpt lat="45.83839" lon="4.71725">
        <ele>269.84568</ele>
        <time>2022-09-18T12:23:47.000Z</time>
      </trkpt>
      <trkpt lat="45.83841" lon="4.71725">
        <ele>269.87674</ele>
        <time>2022-09-18T12:23:48.000Z</time>
      </trkpt>
      <trkpt lat="45.83843" lon="4.71725">
        <ele>269.8894</ele>
        <time>2022-09-18T12:23:50.000Z</time>
      </trkpt>
      <trkpt lat="45.83846" lon="4.71726">
        <ele>269.91442</ele>
        <time>2022-09-18T12:23:51.000Z</time>
      </trkpt>
      <trkpt lat="45.83848" lon="4.71726">
        <ele>269.83292</ele>
        <time>2022-09-18T12:23:52.000Z</time>
      </trkpt>
      <trkpt lat="45.8385" lon="4.71726">
        <ele>269.75341</ele>
        <time>2022-09-18T12:23:53.000Z</time>
      </trkpt>
      <trkpt lat="45.83852" lon="4.71726">
        <ele>269.76067</ele>
        <time>2022-09-18T12:23:54.000Z</time>
      </trkpt>
      <trkpt lat="45.83854" lon="4.71726">
        <ele>269.72901</ele>
        <time>2022-09-18T12:23:55.000Z</time>
      </trkpt>
      <trkpt lat="45.83856" lon="4.71727">
        <ele>269.85953</ele>
        <time>2022-09-18T12:23:56.000Z</time>
      </trkpt>
      <trkpt lat="45.83858" lon="4.71728">
        <ele>270.02054</ele>
        <time>2022-09-18T12:23:57.000Z</time>
      </trkpt>
      <trkpt lat="45.83861" lon="4.71729">
        <ele>270.24557</ele>
        <time>2022-09-18T12:23:59.000Z</time>
      </trkpt>
      <trkpt lat="45.83865" lon="4.71729">
        <ele>270.10997</ele>
        <time>2022-09-18T12:24:01.000Z</time>
      </trkpt>
      <trkpt lat="45.83867" lon="4.7173">
        <ele>270.06716</ele>
        <time>2022-09-18T12:24:02.000Z</time>
      </trkpt>
      <trkpt lat="45.83869" lon="4.7173">
        <ele>270.16723</ele>
        <time>2022-09-18T12:24:03.000Z</time>
      </trkpt>
      <trkpt lat="45.83871" lon="4.71731">
        <ele>270.28962</ele>
        <time>2022-09-18T12:24:04.000Z</time>
      </trkpt>
      <trkpt lat="45.83873" lon="4.71731">
        <ele>270.3687</ele>
        <time>2022-09-18T12:24:05.000Z</time>
      </trkpt>
      <trkpt lat="45.83875" lon="4.71732">
        <ele>270.50236</ele>
        <time>2022-09-18T12:24:06.000Z</time>
      </trkpt>
      <trkpt lat="45.83878" lon="4.71733">
        <ele>270.75212</ele>
        <time>2022-09-18T12:24:08.000Z</time>
      </trkpt>
      <trkpt lat="45.83881" lon="4.71734">
        <ele>270.89829</ele>
        <time>2022-09-18T12:24:10.000Z</time>
      </trkpt>
      <trkpt lat="45.83883" lon="4.71736">
        <ele>271.32845</ele>
        <time>2022-09-18T12:24:12.000Z</time>
      </trkpt>
      <trkpt lat="45.83886" lon="4.71738">
        <ele>271.74333</ele>
        <time>2022-09-18T12:24:14.000Z</time>
      </trkpt>
      <trkpt lat="45.83889" lon="4.7174">
        <ele>272.08218</ele>
        <time>2022-09-18T12:24:16.000Z</time>
      </trkpt>
      <trkpt lat="45.83892" lon="4.7174">
        <ele>272.12576</ele>
        <time>2022-09-18T12:24:18.000Z</time>
      </trkpt>
      <trkpt lat="45.83894" lon="4.71742">
        <ele>272.49551</ele>
        <time>2022-09-18T12:24:21.000Z</time>
      </trkpt>
      <trkpt lat="45.83891" lon="4.7174">
        <ele>272.22282</ele>
        <time>2022-09-18T12:24:25.000Z</time>
      </trkpt>
      <trkpt lat="45.83889" lon="4.71739">
        <ele>271.84946</ele>
        <time>2022-09-18T12:24:26.000Z</time>
      </trkpt>
      <trkpt lat="45.83887" lon="4.71737">
        <ele>271.37107</ele>
        <time>2022-09-18T12:24:27.000Z</time>
      </trkpt>
      <trkpt lat="45.83884" lon="4.71735">
        <ele>270.92588</ele>
        <time>2022-09-18T12:24:28.000Z</time>
      </trkpt>
      <trkpt lat="45.83881" lon="4.71733">
        <ele>270.64465</ele>
        <time>2022-09-18T12:24:29.000Z</time>
      </trkpt>
      <trkpt lat="45.83878" lon="4.71732">
        <ele>270.44471</ele>
        <time>2022-09-18T12:24:30.000Z</time>
      </trkpt>
      <trkpt lat="45.83875" lon="4.71731">
        <ele>270.31514</ele>
        <time>2022-09-18T12:24:31.000Z</time>
      </trkpt>
      <trkpt lat="45.83872" lon="4.7173">
        <ele>270.13765</ele>
        <time>2022-09-18T12:24:32.000Z</time>
      </trkpt>
      <trkpt lat="45.83869" lon="4.71729">
        <ele>269.94165</ele>
        <time>2022-09-18T12:24:33.000Z</time>
      </trkpt>
      <trkpt lat="45.83865" lon="4.71728">
        <ele>269.82111</ele>
        <time>2022-09-18T12:24:34.000Z</time>
      </trkpt>
      <trkpt lat="45.83863" lon="4.71728">
        <ele>269.8538</ele>
        <time>2022-09-18T12:24:35.000Z</time>
      </trkpt>
      <trkpt lat="45.83861" lon="4.71728">
        <ele>269.81864</ele>
        <time>2022-09-18T12:24:37.000Z</time>
      </trkpt>
      <trkpt lat="45.83861" lon="4.71725">
        <ele>269.05486</ele>
        <time>2022-09-18T12:24:41.000Z</time>
      </trkpt>
      <trkpt lat="45.83864" lon="4.71724">
        <ele>268.54031</ele>
        <time>2022-09-18T12:24:43.000Z</time>
      </trkpt>
      <trkpt lat="45.83866" lon="4.71723">
        <ele>268.35332</ele>
        <time>2022-09-18T12:24:44.000Z</time>
      </trkpt>
      <trkpt lat="45.83868" lon="4.71724">
        <ele>268.46386</ele>
        <time>2022-09-18T12:24:45.000Z</time>
      </trkpt>
      <trkpt lat="45.83871" lon="4.71725">
        <ele>268.63195</ele>
        <time>2022-09-18T12:24:46.000Z</time>
      </trkpt>
      <trkpt lat="45.83873" lon="4.71726">
        <ele>268.80242</ele>
        <time>2022-09-18T12:24:47.000Z</time>
      </trkpt>
      <trkpt lat="45.83875" lon="4.71726">
        <ele>268.96087</ele>
        <time>2022-09-18T12:24:48.000Z</time>
      </trkpt>
      <trkpt lat="45.83877" lon="4.71727">
        <ele>269.02571</ele>
        <time>2022-09-18T12:24:49.000Z</time>
      </trkpt>
      <trkpt lat="45.83879" lon="4.71727">
        <ele>268.99088</ele>
        <time>2022-09-18T12:24:50.000Z</time>
      </trkpt>
      <trkpt lat="45.83882" lon="4.71727">
        <ele>268.81459</ele>
        <time>2022-09-18T12:24:51.000Z</time>
      </trkpt>
      <trkpt lat="45.83884" lon="4.71728">
        <ele>268.9205</ele>
        <time>2022-09-18T12:24:52.000Z</time>
      </trkpt>
      <trkpt lat="45.83886" lon="4.71729">
        <ele>269.19413</ele>
        <time>2022-09-18T12:24:53.000Z</time>
      </trkpt>
      <trkpt lat="45.83888" lon="4.71731">
        <ele>269.64992</ele>
        <time>2022-09-18T12:24:54.000Z</time>
      </trkpt>
      <trkpt lat="45.8389" lon="4.71733">
        <ele>270.21904</ele>
        <time>2022-09-18T12:24:55.000Z</time>
      </trkpt>
      <trkpt lat="45.83892" lon="4.71735">
        <ele>270.75107</ele>
        <time>2022-09-18T12:24:56.000Z</time>
      </trkpt>
      <trkpt lat="45.83894" lon="4.71737">
        <ele>271.22694</ele>
        <time>2022-09-18T12:24:57.000Z</time>
      </trkpt>
      <trkpt lat="45.83896" lon="4.71738">
        <ele>271.58853</ele>
        <time>2022-09-18T12:24:58.000Z</time>
      </trkpt>
      <trkpt lat="45.83898" lon="4.7174">
        <ele>271.92993</ele>
        <time>2022-09-18T12:24:59.000Z</time>
      </trkpt>
      <trkpt lat="45.839" lon="4.71741">
        <ele>272.18178</ele>
        <time>2022-09-18T12:25:00.000Z</time>
      </trkpt>
      <trkpt lat="45.83903" lon="4.71742">
        <ele>272.38428</ele>
        <time>2022-09-18T12:25:01.000Z</time>
      </trkpt>
      <trkpt lat="45.83906" lon="4.71744">
        <ele>272.55713</ele>
        <time>2022-09-18T12:25:02.000Z</time>
      </trkpt>
      <trkpt lat="45.83909" lon="4.71745">
        <ele>272.72809</ele>
        <time>2022-09-18T12:25:03.000Z</time>
      </trkpt>
      <trkpt lat="45.83913" lon="4.71746">
        <ele>272.90588</ele>
        <time>2022-09-18T12:25:04.000Z</time>
      </trkpt>
      <trkpt lat="45.83916" lon="4.71748">
        <ele>273.10088</ele>
        <time>2022-09-18T12:25:05.000Z</time>
      </trkpt>
      <trkpt lat="45.8392" lon="4.71749">
        <ele>273.19675</ele>
        <time>2022-09-18T12:25:06.000Z</time>
      </trkpt>
      <trkpt lat="45.83923" lon="4.71751">
        <ele>273.24086</ele>
        <time>2022-09-18T12:25:07.000Z</time>
      </trkpt>
      <trkpt lat="45.83927" lon="4.71753">
        <ele>273.08894</ele>
        <time>2022-09-18T12:25:08.000Z</time>
      </trkpt>
      <trkpt lat="45.8393" lon="4.71755">
        <ele>272.81103</ele>
        <time>2022-09-18T12:25:09.000Z</time>
      </trkpt>
      <trkpt lat="45.83933" lon="4.71757">
        <ele>272.49219</ele>
        <time>2022-09-18T12:25:10.000Z</time>
      </trkpt>
      <trkpt lat="45.83936" lon="4.7176">
        <ele>272.20182</ele>
        <time>2022-09-18T12:25:11.000Z</time>
      </trkpt>
      <trkpt lat="45.83939" lon="4.71764">
        <ele>272.07853</ele>
        <time>2022-09-18T12:25:12.000Z</time>
      </trkpt>
      <trkpt lat="45.83942" lon="4.71768">
        <ele>272.21149</ele>
        <time>2022-09-18T12:25:13.000Z</time>
      </trkpt>
      <trkpt lat="45.83944" lon="4.71772">
        <ele>272.48426</ele>
        <time>2022-09-18T12:25:14.000Z</time>
      </trkpt>
      <trkpt lat="45.83945" lon="4.71777">
        <ele>272.88539</ele>
        <time>2022-09-18T12:25:15.000Z</time>
      </trkpt>
      <trkpt lat="45.83946" lon="4.71781">
        <ele>273.32454</ele>
        <time>2022-09-18T12:25:16.000Z</time>
      </trkpt>
      <trkpt lat="45.83947" lon="4.71786">
        <ele>273.73229</ele>
        <time>2022-09-18T12:25:17.000Z</time>
      </trkpt>
      <trkpt lat="45.83948" lon="4.71792">
        <ele>274.07449</ele>
        <time>2022-09-18T12:25:18.000Z</time>
      </trkpt>
      <trkpt lat="45.83949" lon="4.71798">
        <ele>274.23542</ele>
        <time>2022-09-18T12:25:19.000Z</time>
      </trkpt>
      <trkpt lat="45.8395" lon="4.71803">
        <ele>274.28644</ele>
        <time>2022-09-18T12:25:20.000Z</time>
      </trkpt>
      <trkpt lat="45.83952" lon="4.71808">
        <ele>274.24535</ele>
        <time>2022-09-18T12:25:21.000Z</time>
      </trkpt>
      <trkpt lat="45.83955" lon="4.71814">
        <ele>274.22667</ele>
        <time>2022-09-18T12:25:22.000Z</time>
      </trkpt>
      <trkpt lat="45.8396" lon="4.71822">
        <ele>274.08709</ele>
        <time>2022-09-18T12:25:23.000Z</time>
      </trkpt>
      <trkpt lat="45.83961" lon="4.71826">
        <ele>274.24592</ele>
        <time>2022-09-18T12:25:24.000Z</time>
      </trkpt>
      <trkpt lat="45.83964" lon="4.7183">
        <ele>274.1914</ele>
        <time>2022-09-18T12:25:25.000Z</time>
      </trkpt>
      <trkpt lat="45.83966" lon="4.71836">
        <ele>274.72106</ele>
        <time>2022-09-18T12:25:26.000Z</time>
      </trkpt>
      <trkpt lat="45.83971" lon="4.71842">
        <ele>274.77471</ele>
        <time>2022-09-18T12:25:27.000Z</time>
      </trkpt>
      <trkpt lat="45.83973" lon="4.71846">
        <ele>274.82259</ele>
        <time>2022-09-18T12:25:28.000Z</time>
      </trkpt>
      <trkpt lat="45.83977" lon="4.7185">
        <ele>274.7778</ele>
        <time>2022-09-18T12:25:29.000Z</time>
      </trkpt>
      <trkpt lat="45.8398" lon="4.71854">
        <ele>274.73833</ele>
        <time>2022-09-18T12:25:30.000Z</time>
      </trkpt>
      <trkpt lat="45.83982" lon="4.71857">
        <ele>274.73116</ele>
        <time>2022-09-18T12:25:31.000Z</time>
      </trkpt>
      <trkpt lat="45.83984" lon="4.71861">
        <ele>274.73336</ele>
        <time>2022-09-18T12:25:32.000Z</time>
      </trkpt>
      <trkpt lat="45.83987" lon="4.71865">
        <ele>274.84596</ele>
        <time>2022-09-18T12:25:33.000Z</time>
      </trkpt>
      <trkpt lat="45.83991" lon="4.71869">
        <ele>274.75936</ele>
        <time>2022-09-18T12:25:34.000Z</time>
      </trkpt>
      <trkpt lat="45.83993" lon="4.71874">
        <ele>274.90715</ele>
        <time>2022-09-18T12:25:35.000Z</time>
      </trkpt>
      <trkpt lat="45.83997" lon="4.71878">
        <ele>274.70182</ele>
        <time>2022-09-18T12:25:36.000Z</time>
      </trkpt>
      <trkpt lat="45.83999" lon="4.71882">
        <ele>274.74127</ele>
        <time>2022-09-18T12:25:37.000Z</time>
      </trkpt>
      <trkpt lat="45.84001" lon="4.71886">
        <ele>274.74322</ele>
        <time>2022-09-18T12:25:38.000Z</time>
      </trkpt>
      <trkpt lat="45.84002" lon="4.71889">
        <ele>274.75928</ele>
        <time>2022-09-18T12:25:39.000Z</time>
      </trkpt>
      <trkpt lat="45.84003" lon="4.71892">
        <ele>274.77303</ele>
        <time>2022-09-18T12:25:40.000Z</time>
      </trkpt>
      <trkpt lat="45.84003" lon="4.71896">
        <ele>274.75554</ele>
        <time>2022-09-18T12:25:41.000Z</time>
      </trkpt>
      <trkpt lat="45.84004" lon="4.71899">
        <ele>274.74327</ele>
        <time>2022-09-18T12:25:42.000Z</time>
      </trkpt>
      <trkpt lat="45.84004" lon="4.71903">
        <ele>274.72028</ele>
        <time>2022-09-18T12:25:43.000Z</time>
      </trkpt>
      <trkpt lat="45.84004" lon="4.71907">
        <ele>274.68498</ele>
        <time>2022-09-18T12:25:44.000Z</time>
      </trkpt>
      <trkpt lat="45.84004" lon="4.71912">
        <ele>274.63515</ele>
        <time>2022-09-18T12:25:45.000Z</time>
      </trkpt>
      <trkpt lat="45.84004" lon="4.71916">
        <ele>274.57386</ele>
        <time>2022-09-18T12:25:46.000Z</time>
      </trkpt>
      <trkpt lat="45.84004" lon="4.7192">
        <ele>274.42339</ele>
        <time>2022-09-18T12:25:47.000Z</time>
      </trkpt>
      <trkpt lat="45.84004" lon="4.71925">
        <ele>274.19449</ele>
        <time>2022-09-18T12:25:48.000Z</time>
      </trkpt>
      <trkpt lat="45.84004" lon="4.71929">
        <ele>273.92415</ele>
        <time>2022-09-18T12:25:49.000Z</time>
      </trkpt>
      <trkpt lat="45.84004" lon="4.71934">
        <ele>273.61958</ele>
        <time>2022-09-18T12:25:50.000Z</time>
      </trkpt>
      <trkpt lat="45.84004" lon="4.71939">
        <ele>273.27328</ele>
        <time>2022-09-18T12:25:51.000Z</time>
      </trkpt>
      <trkpt lat="45.84004" lon="4.71944">
        <ele>272.90323</ele>
        <time>2022-09-18T12:25:52.000Z</time>
      </trkpt>
      <trkpt lat="45.84005" lon="4.71952">
        <ele>272.41786</ele>
        <time>2022-09-18T12:25:53.000Z</time>
      </trkpt>
      <trkpt lat="45.84005" lon="4.71959">
        <ele>272.01635</ele>
        <time>2022-09-18T12:25:54.000Z</time>
      </trkpt>
      <trkpt lat="45.84006" lon="4.71967">
        <ele>271.56332</ele>
        <time>2022-09-18T12:25:55.000Z</time>
      </trkpt>
      <trkpt lat="45.84006" lon="4.71975">
        <ele>271.07157</ele>
        <time>2022-09-18T12:25:56.000Z</time>
      </trkpt>
      <trkpt lat="45.84007" lon="4.71983">
        <ele>270.65059</ele>
        <time>2022-09-18T12:25:57.000Z</time>
      </trkpt>
      <trkpt lat="45.84007" lon="4.71991">
        <ele>270.22429</ele>
        <time>2022-09-18T12:25:58.000Z</time>
      </trkpt>
      <trkpt lat="45.84007" lon="4.71999">
        <ele>269.92066</ele>
        <time>2022-09-18T12:25:59.000Z</time>
      </trkpt>
      <trkpt lat="45.84008" lon="4.72007">
        <ele>269.56314</ele>
        <time>2022-09-18T12:26:00.000Z</time>
      </trkpt>
      <trkpt lat="45.84008" lon="4.72015">
        <ele>269.28628</ele>
        <time>2022-09-18T12:26:01.000Z</time>
      </trkpt>
      <trkpt lat="45.8401" lon="4.72025">
        <ele>268.93261</ele>
        <time>2022-09-18T12:26:02.000Z</time>
      </trkpt>
      <trkpt lat="45.84012" lon="4.72035">
        <ele>268.59665</ele>
        <time>2022-09-18T12:26:03.000Z</time>
      </trkpt>
      <trkpt lat="45.84012" lon="4.72043">
        <ele>268.41996</ele>
        <time>2022-09-18T12:26:04.000Z</time>
      </trkpt>
      <trkpt lat="45.84013" lon="4.72051">
        <ele>268.26721</ele>
        <time>2022-09-18T12:26:05.000Z</time>
      </trkpt>
      <trkpt lat="45.84013" lon="4.72058">
        <ele>268.18093</ele>
        <time>2022-09-18T12:26:06.000Z</time>
      </trkpt>
      <trkpt lat="45.84014" lon="4.72065">
        <ele>268.12224</ele>
        <time>2022-09-18T12:26:07.000Z</time>
      </trkpt>
      <trkpt lat="45.84015" lon="4.72073">
        <ele>268.10655</ele>
        <time>2022-09-18T12:26:08.000Z</time>
      </trkpt>
      <trkpt lat="45.84015" lon="4.7208">
        <ele>268.11638</ele>
        <time>2022-09-18T12:26:09.000Z</time>
      </trkpt>
      <trkpt lat="45.84016" lon="4.72087">
        <ele>268.1062</ele>
        <time>2022-09-18T12:26:10.000Z</time>
      </trkpt>
      <trkpt lat="45.84016" lon="4.72094">
        <ele>268.18571</ele>
        <time>2022-09-18T12:26:11.000Z</time>
      </trkpt>
      <trkpt lat="45.84017" lon="4.72102">
        <ele>268.32037</ele>
        <time>2022-09-18T12:26:12.000Z</time>
      </trkpt>
      <trkpt lat="45.84016" lon="4.72109">
        <ele>268.50789</ele>
        <time>2022-09-18T12:26:13.000Z</time>
      </trkpt>
      <trkpt lat="45.84017" lon="4.72114">
        <ele>268.72175</ele>
        <time>2022-09-18T12:26:14.000Z</time>
      </trkpt>
      <trkpt lat="45.84017" lon="4.7212">
        <ele>268.99621</ele>
        <time>2022-09-18T12:26:15.000Z</time>
      </trkpt>
      <trkpt lat="45.84019" lon="4.72127">
        <ele>269.3577</ele>
        <time>2022-09-18T12:26:16.000Z</time>
      </trkpt>
      <trkpt lat="45.84018" lon="4.72133">
        <ele>269.65135</ele>
        <time>2022-09-18T12:26:17.000Z</time>
      </trkpt>
      <trkpt lat="45.84018" lon="4.72138">
        <ele>269.879</ele>
        <time>2022-09-18T12:26:18.000Z</time>
      </trkpt>
      <trkpt lat="45.84018" lon="4.72144">
        <ele>270.05479</ele>
        <time>2022-09-18T12:26:19.000Z</time>
      </trkpt>
      <trkpt lat="45.84018" lon="4.7215">
        <ele>270.16184</ele>
        <time>2022-09-18T12:26:20.000Z</time>
      </trkpt>
      <trkpt lat="45.84018" lon="4.72156">
        <ele>270.25551</ele>
        <time>2022-09-18T12:26:21.000Z</time>
      </trkpt>
      <trkpt lat="45.84016" lon="4.7216">
        <ele>270.2922</ele>
        <time>2022-09-18T12:26:22.000Z</time>
      </trkpt>
      <trkpt lat="45.84013" lon="4.72162">
        <ele>270.27542</ele>
        <time>2022-09-18T12:26:23.000Z</time>
      </trkpt>
      <trkpt lat="45.84008" lon="4.72165">
        <ele>270.2381</ele>
        <time>2022-09-18T12:26:24.000Z</time>
      </trkpt>
      <trkpt lat="45.84004" lon="4.72166">
        <ele>270.20358</ele>
        <time>2022-09-18T12:26:25.000Z</time>
      </trkpt>
      <trkpt lat="45.84" lon="4.72166">
        <ele>270.16188</ele>
        <time>2022-09-18T12:26:26.000Z</time>
      </trkpt>
      <trkpt lat="45.83995" lon="4.72166">
        <ele>270.12093</ele>
        <time>2022-09-18T12:26:27.000Z</time>
      </trkpt>
      <trkpt lat="45.83991" lon="4.72166">
        <ele>270.07214</ele>
        <time>2022-09-18T12:26:28.000Z</time>
      </trkpt>
      <trkpt lat="45.83985" lon="4.72162">
        <ele>269.8769</ele>
        <time>2022-09-18T12:26:29.000Z</time>
      </trkpt>
      <trkpt lat="45.83981" lon="4.72161">
        <ele>269.79571</ele>
        <time>2022-09-18T12:26:30.000Z</time>
      </trkpt>
      <trkpt lat="45.83977" lon="4.72161">
        <ele>269.75747</ele>
        <time>2022-09-18T12:26:31.000Z</time>
      </trkpt>
      <trkpt lat="45.83972" lon="4.7216">
        <ele>269.68309</ele>
        <time>2022-09-18T12:26:32.000Z</time>
      </trkpt>
      <trkpt lat="45.83967" lon="4.72161">
        <ele>269.67881</ele>
        <time>2022-09-18T12:26:33.000Z</time>
      </trkpt>
      <trkpt lat="45.83963" lon="4.7216">
        <ele>269.65566</ele>
        <time>2022-09-18T12:26:34.000Z</time>
      </trkpt>
      <trkpt lat="45.83958" lon="4.72158">
        <ele>269.64749</ele>
        <time>2022-09-18T12:26:35.000Z</time>
      </trkpt>
      <trkpt lat="45.83954" lon="4.72158">
        <ele>269.65297</ele>
        <time>2022-09-18T12:26:36.000Z</time>
      </trkpt>
      <trkpt lat="45.8395" lon="4.72157">
        <ele>269.6604</ele>
        <time>2022-09-18T12:26:37.000Z</time>
      </trkpt>
      <trkpt lat="45.83946" lon="4.72158">
        <ele>269.67224</ele>
        <time>2022-09-18T12:26:38.000Z</time>
      </trkpt>
      <trkpt lat="45.83943" lon="4.72158">
        <ele>269.67089</ele>
        <time>2022-09-18T12:26:39.000Z</time>
      </trkpt>
      <trkpt lat="45.83939" lon="4.72157">
        <ele>269.66155</ele>
        <time>2022-09-18T12:26:40.000Z</time>
      </trkpt>
      <trkpt lat="45.83937" lon="4.72159">
        <ele>269.64528</ele>
        <time>2022-09-18T12:26:42.000Z</time>
      </trkpt>
      <trkpt lat="45.83935" lon="4.72157">
        <ele>269.64141</ele>
        <time>2022-09-18T12:26:44.000Z</time>
      </trkpt>
      <trkpt lat="45.83933" lon="4.72154">
        <ele>269.65265</ele>
        <time>2022-09-18T12:26:46.000Z</time>
      </trkpt>
      <trkpt lat="45.8393" lon="4.72153">
        <ele>269.6605</ele>
        <time>2022-09-18T12:26:48.000Z</time>
      </trkpt>
      <trkpt lat="45.83928" lon="4.72155">
        <ele>269.6372</ele>
        <time>2022-09-18T12:26:50.000Z</time>
      </trkpt>
      <trkpt lat="45.83927" lon="4.72159">
        <ele>269.59798</ele>
        <time>2022-09-18T12:26:51.000Z</time>
      </trkpt>
      <trkpt lat="45.83929" lon="4.72163">
        <ele>269.55887</ele>
        <time>2022-09-18T12:26:52.000Z</time>
      </trkpt>
      <trkpt lat="45.83932" lon="4.72167">
        <ele>269.55131</ele>
        <time>2022-09-18T12:26:53.000Z</time>
      </trkpt>
      <trkpt lat="45.83936" lon="4.72171">
        <ele>269.57273</ele>
        <time>2022-09-18T12:26:54.000Z</time>
      </trkpt>
      <trkpt lat="45.8394" lon="4.72175">
        <ele>269.59589</ele>
        <time>2022-09-18T12:26:55.000Z</time>
      </trkpt>
      <trkpt lat="45.83944" lon="4.7218">
        <ele>269.60636</ele>
        <time>2022-09-18T12:26:56.000Z</time>
      </trkpt>
      <trkpt lat="45.83947" lon="4.72184">
        <ele>269.60853</ele>
        <time>2022-09-18T12:26:57.000Z</time>
      </trkpt>
      <trkpt lat="45.8395" lon="4.72188">
        <ele>269.61742</ele>
        <time>2022-09-18T12:26:58.000Z</time>
      </trkpt>
      <trkpt lat="45.83953" lon="4.72193">
        <ele>269.63706</ele>
        <time>2022-09-18T12:26:59.000Z</time>
      </trkpt>
      <trkpt lat="45.83956" lon="4.72198">
        <ele>269.66998</ele>
        <time>2022-09-18T12:27:00.000Z</time>
      </trkpt>
      <trkpt lat="45.83959" lon="4.72203">
        <ele>269.71028</ele>
        <time>2022-09-18T12:27:01.000Z</time>
      </trkpt>
      <trkpt lat="45.83961" lon="4.72208">
        <ele>269.73066</ele>
        <time>2022-09-18T12:27:02.000Z</time>
      </trkpt>
      <trkpt lat="45.83964" lon="4.72213">
        <ele>269.73548</ele>
        <time>2022-09-18T12:27:03.000Z</time>
      </trkpt>
      <trkpt lat="45.83967" lon="4.72218">
        <ele>269.73389</ele>
        <time>2022-09-18T12:27:04.000Z</time>
      </trkpt>
      <trkpt lat="45.8397" lon="4.72221">
        <ele>269.77264</ele>
        <time>2022-09-18T12:27:05.000Z</time>
      </trkpt>
      <trkpt lat="45.83972" lon="4.72227">
        <ele>269.74323</ele>
        <time>2022-09-18T12:27:06.000Z</time>
      </trkpt>
      <trkpt lat="45.83975" lon="4.72232">
        <ele>269.75722</ele>
        <time>2022-09-18T12:27:07.000Z</time>
      </trkpt>
      <trkpt lat="45.83977" lon="4.72237">
        <ele>269.74467</ele>
        <time>2022-09-18T12:27:08.000Z</time>
      </trkpt>
      <trkpt lat="45.83981" lon="4.72243">
        <ele>269.71022</ele>
        <time>2022-09-18T12:27:09.000Z</time>
      </trkpt>
      <trkpt lat="45.83983" lon="4.72249">
        <ele>269.61541</ele>
        <time>2022-09-18T12:27:10.000Z</time>
      </trkpt>
      <trkpt lat="45.83985" lon="4.72254">
        <ele>269.48789</ele>
        <time>2022-09-18T12:27:11.000Z</time>
      </trkpt>
      <trkpt lat="45.83988" lon="4.72259">
        <ele>269.39817</ele>
        <time>2022-09-18T12:27:12.000Z</time>
      </trkpt>
      <trkpt lat="45.8399" lon="4.72265">
        <ele>269.27111</ele>
        <time>2022-09-18T12:27:13.000Z</time>
      </trkpt>
      <trkpt lat="45.83993" lon="4.7227">
        <ele>269.23489</ele>
        <time>2022-09-18T12:27:14.000Z</time>
      </trkpt>
      <trkpt lat="45.83995" lon="4.72276">
        <ele>269.20026</ele>
        <time>2022-09-18T12:27:15.000Z</time>
      </trkpt>
      <trkpt lat="45.84" lon="4.72283">
        <ele>269.10825</ele>
        <time>2022-09-18T12:27:16.000Z</time>
      </trkpt>
      <trkpt lat="45.84003" lon="4.7229">
        <ele>268.89809</ele>
        <time>2022-09-18T12:27:17.000Z</time>
      </trkpt>
      <trkpt lat="45.84005" lon="4.72295">
        <ele>268.65049</ele>
        <time>2022-09-18T12:27:18.000Z</time>
      </trkpt>
      <trkpt lat="45.84006" lon="4.72301">
        <ele>268.3685</ele>
        <time>2022-09-18T12:27:19.000Z</time>
      </trkpt>
      <trkpt lat="45.8401" lon="4.72306">
        <ele>268.08585</ele>
        <time>2022-09-18T12:27:20.000Z</time>
      </trkpt>
      <trkpt lat="45.84012" lon="4.7231">
        <ele>267.83876</ele>
        <time>2022-09-18T12:27:21.000Z</time>
      </trkpt>
      <trkpt lat="45.84011" lon="4.72317">
        <ele>267.43958</ele>
        <time>2022-09-18T12:27:22.000Z</time>
      </trkpt>
      <trkpt lat="45.84011" lon="4.72321">
        <ele>267.24021</ele>
        <time>2022-09-18T12:27:23.000Z</time>
      </trkpt>
      <trkpt lat="45.84011" lon="4.72325">
        <ele>266.95192</ele>
        <time>2022-09-18T12:27:24.000Z</time>
      </trkpt>
      <trkpt lat="45.84003" lon="4.72326">
        <ele>267.17512</ele>
        <time>2022-09-18T12:27:25.000Z</time>
      </trkpt>
      <trkpt lat="45.84001" lon="4.7233">
        <ele>267.01045</ele>
        <time>2022-09-18T12:27:26.000Z</time>
      </trkpt>
      <trkpt lat="45.83997" lon="4.72334">
        <ele>266.90123</ele>
        <time>2022-09-18T12:27:27.000Z</time>
      </trkpt>
      <trkpt lat="45.83994" lon="4.72337">
        <ele>266.78386</ele>
        <time>2022-09-18T12:27:28.000Z</time>
      </trkpt>
      <trkpt lat="45.83991" lon="4.7234">
        <ele>266.6831</ele>
        <time>2022-09-18T12:27:29.000Z</time>
      </trkpt>
      <trkpt lat="45.83987" lon="4.72343">
        <ele>266.57178</ele>
        <time>2022-09-18T12:27:30.000Z</time>
      </trkpt>
      <trkpt lat="45.83983" lon="4.72345">
        <ele>266.42824</ele>
        <time>2022-09-18T12:27:31.000Z</time>
      </trkpt>
      <trkpt lat="45.83979" lon="4.72346">
        <ele>266.25048</ele>
        <time>2022-09-18T12:27:32.000Z</time>
      </trkpt>
      <trkpt lat="45.83975" lon="4.72347">
        <ele>266.0489</ele>
        <time>2022-09-18T12:27:33.000Z</time>
      </trkpt>
      <trkpt lat="45.83971" lon="4.72348">
        <ele>265.77331</ele>
        <time>2022-09-18T12:27:34.000Z</time>
      </trkpt>
      <trkpt lat="45.83964" lon="4.72349">
        <ele>265.39226</ele>
        <time>2022-09-18T12:27:35.000Z</time>
      </trkpt>
      <trkpt lat="45.8396" lon="4.72354">
        <ele>264.86811</ele>
        <time>2022-09-18T12:27:36.000Z</time>
      </trkpt>
      <trkpt lat="45.83955" lon="4.72354">
        <ele>264.73914</ele>
        <time>2022-09-18T12:27:37.000Z</time>
      </trkpt>
      <trkpt lat="45.83949" lon="4.72359">
        <ele>264.30476</ele>
        <time>2022-09-18T12:27:38.000Z</time>
      </trkpt>
      <trkpt lat="45.83943" lon="4.72364">
        <ele>263.86682</ele>
        <time>2022-09-18T12:27:39.000Z</time>
      </trkpt>
      <trkpt lat="45.83938" lon="4.72368">
        <ele>263.357</ele>
        <time>2022-09-18T12:27:40.000Z</time>
      </trkpt>
      <trkpt lat="45.83931" lon="4.72373">
        <ele>262.65758</ele>
        <time>2022-09-18T12:27:41.000Z</time>
      </trkpt>
      <trkpt lat="45.83926" lon="4.72377">
        <ele>261.89671</ele>
        <time>2022-09-18T12:27:42.000Z</time>
      </trkpt>
      <trkpt lat="45.83919" lon="4.7238">
        <ele>261.19922</ele>
        <time>2022-09-18T12:27:43.000Z</time>
      </trkpt>
      <trkpt lat="45.83914" lon="4.72384">
        <ele>260.58308</ele>
        <time>2022-09-18T12:27:44.000Z</time>
      </trkpt>
      <trkpt lat="45.83906" lon="4.72388">
        <ele>259.95655</ele>
        <time>2022-09-18T12:27:45.000Z</time>
      </trkpt>
      <trkpt lat="45.83898" lon="4.72392">
        <ele>259.40121</ele>
        <time>2022-09-18T12:27:46.000Z</time>
      </trkpt>
      <trkpt lat="45.83893" lon="4.72398">
        <ele>258.72335</ele>
        <time>2022-09-18T12:27:47.000Z</time>
      </trkpt>
      <trkpt lat="45.83885" lon="4.72402">
        <ele>257.86653</ele>
        <time>2022-09-18T12:27:48.000Z</time>
      </trkpt>
      <trkpt lat="45.83876" lon="4.72404">
        <ele>257.17684</ele>
        <time>2022-09-18T12:27:49.000Z</time>
      </trkpt>
      <trkpt lat="45.83869" lon="4.72407">
        <ele>256.75089</ele>
        <time>2022-09-18T12:27:50.000Z</time>
      </trkpt>
      <trkpt lat="45.83863" lon="4.72412">
        <ele>256.43798</ele>
        <time>2022-09-18T12:27:51.000Z</time>
      </trkpt>
      <trkpt lat="45.83856" lon="4.72416">
        <ele>256.28641</ele>
        <time>2022-09-18T12:27:52.000Z</time>
      </trkpt>
      <trkpt lat="45.8385" lon="4.7242">
        <ele>256.21372</ele>
        <time>2022-09-18T12:27:53.000Z</time>
      </trkpt>
      <trkpt lat="45.83846" lon="4.72426">
        <ele>256.11028</ele>
        <time>2022-09-18T12:27:54.000Z</time>
      </trkpt>
      <trkpt lat="45.83842" lon="4.72432">
        <ele>256.0806</ele>
        <time>2022-09-18T12:27:55.000Z</time>
      </trkpt>
      <trkpt lat="45.83839" lon="4.72438">
        <ele>255.99325</ele>
        <time>2022-09-18T12:27:56.000Z</time>
      </trkpt>
      <trkpt lat="45.83837" lon="4.72444">
        <ele>255.86716</ele>
        <time>2022-09-18T12:27:57.000Z</time>
      </trkpt>
      <trkpt lat="45.83836" lon="4.7245">
        <ele>255.69329</ele>
        <time>2022-09-18T12:27:58.000Z</time>
      </trkpt>
      <trkpt lat="45.83837" lon="4.72455">
        <ele>255.49837</ele>
        <time>2022-09-18T12:27:59.000Z</time>
      </trkpt>
      <trkpt lat="45.83837" lon="4.72462">
        <ele>255.21795</ele>
        <time>2022-09-18T12:28:00.000Z</time>
      </trkpt>
      <trkpt lat="45.83838" lon="4.72467">
        <ele>254.96829</ele>
        <time>2022-09-18T12:28:01.000Z</time>
      </trkpt>
      <trkpt lat="45.83838" lon="4.72473">
        <ele>254.74972</ele>
        <time>2022-09-18T12:28:02.000Z</time>
      </trkpt>
      <trkpt lat="45.83838" lon="4.72479">
        <ele>254.52144</ele>
        <time>2022-09-18T12:28:03.000Z</time>
      </trkpt>
      <trkpt lat="45.83839" lon="4.72487">
        <ele>254.24044</ele>
        <time>2022-09-18T12:28:04.000Z</time>
      </trkpt>
      <trkpt lat="45.8384" lon="4.72494">
        <ele>253.98444</ele>
        <time>2022-09-18T12:28:05.000Z</time>
      </trkpt>
      <trkpt lat="45.8384" lon="4.72502">
        <ele>253.71958</ele>
        <time>2022-09-18T12:28:06.000Z</time>
      </trkpt>
      <trkpt lat="45.8384" lon="4.72509">
        <ele>253.48194</ele>
        <time>2022-09-18T12:28:07.000Z</time>
      </trkpt>
      <trkpt lat="45.83839" lon="4.72518">
        <ele>253.23586</ele>
        <time>2022-09-18T12:28:08.000Z</time>
      </trkpt>
      <trkpt lat="45.83837" lon="4.72522">
        <ele>253.08664</ele>
        <time>2022-09-18T12:28:09.000Z</time>
      </trkpt>
      <trkpt lat="45.83838" lon="4.72532">
        <ele>252.90923</ele>
        <time>2022-09-18T12:28:10.000Z</time>
      </trkpt>
      <trkpt lat="45.83837" lon="4.72536">
        <ele>252.83054</ele>
        <time>2022-09-18T12:28:11.000Z</time>
      </trkpt>
      <trkpt lat="45.83835" lon="4.72544">
        <ele>252.72026</ele>
        <time>2022-09-18T12:28:12.000Z</time>
      </trkpt>
      <trkpt lat="45.83834" lon="4.72549">
        <ele>252.64825</ele>
        <time>2022-09-18T12:28:13.000Z</time>
      </trkpt>
      <trkpt lat="45.83832" lon="4.72555">
        <ele>252.58137</ele>
        <time>2022-09-18T12:28:14.000Z</time>
      </trkpt>
      <trkpt lat="45.83831" lon="4.7256">
        <ele>252.53297</ele>
        <time>2022-09-18T12:28:15.000Z</time>
      </trkpt>
      <trkpt lat="45.8383" lon="4.72565">
        <ele>252.48121</ele>
        <time>2022-09-18T12:28:16.000Z</time>
      </trkpt>
      <trkpt lat="45.83828" lon="4.72568">
        <ele>252.48375</ele>
        <time>2022-09-18T12:28:17.000Z</time>
      </trkpt>
      <trkpt lat="45.83827" lon="4.72572">
        <ele>252.46315</ele>
        <time>2022-09-18T12:28:18.000Z</time>
      </trkpt>
      <trkpt lat="45.83826" lon="4.72578">
        <ele>252.47133</ele>
        <time>2022-09-18T12:28:20.000Z</time>
      </trkpt>
      <trkpt lat="45.83825" lon="4.72581">
        <ele>252.49221</ele>
        <time>2022-09-18T12:28:21.000Z</time>
      </trkpt>
      <trkpt lat="45.83823" lon="4.72585">
        <ele>252.52919</ele>
        <time>2022-09-18T12:28:22.000Z</time>
      </trkpt>
      <trkpt lat="45.83822" lon="4.72588">
        <ele>252.59762</ele>
        <time>2022-09-18T12:28:23.000Z</time>
      </trkpt>
      <trkpt lat="45.8382" lon="4.72592">
        <ele>252.67903</ele>
        <time>2022-09-18T12:28:24.000Z</time>
      </trkpt>
      <trkpt lat="45.83819" lon="4.72595">
        <ele>252.78417</ele>
        <time>2022-09-18T12:28:25.000Z</time>
      </trkpt>
      <trkpt lat="45.83817" lon="4.72599">
        <ele>252.9012</ele>
        <time>2022-09-18T12:28:26.000Z</time>
      </trkpt>
      <trkpt lat="45.83816" lon="4.72602">
        <ele>253.0025</ele>
        <time>2022-09-18T12:28:27.000Z</time>
      </trkpt>
      <trkpt lat="45.83814" lon="4.72605">
        <ele>253.12125</ele>
        <time>2022-09-18T12:28:28.000Z</time>
      </trkpt>
      <trkpt lat="45.83812" lon="4.72608">
        <ele>253.25268</ele>
        <time>2022-09-18T12:28:29.000Z</time>
      </trkpt>
      <trkpt lat="45.8381" lon="4.7261">
        <ele>253.39315</ele>
        <time>2022-09-18T12:28:30.000Z</time>
      </trkpt>
      <trkpt lat="45.83808" lon="4.72612">
        <ele>253.52947</ele>
        <time>2022-09-18T12:28:31.000Z</time>
      </trkpt>
      <trkpt lat="45.83806" lon="4.72614">
        <ele>253.66025</ele>
        <time>2022-09-18T12:28:32.000Z</time>
      </trkpt>
      <trkpt lat="45.83803" lon="4.72615">
        <ele>253.80042</ele>
        <time>2022-09-18T12:28:33.000Z</time>
      </trkpt>
      <trkpt lat="45.83801" lon="4.72616">
        <ele>253.92908</ele>
        <time>2022-09-18T12:28:34.000Z</time>
      </trkpt>
      <trkpt lat="45.83799" lon="4.72618">
        <ele>254.0595</ele>
        <time>2022-09-18T12:28:35.000Z</time>
      </trkpt>
      <trkpt lat="45.83796" lon="4.72619">
        <ele>254.22407</ele>
        <time>2022-09-18T12:28:36.000Z</time>
      </trkpt>
      <trkpt lat="45.83793" lon="4.7262">
        <ele>254.38405</ele>
        <time>2022-09-18T12:28:37.000Z</time>
      </trkpt>
      <trkpt lat="45.8379" lon="4.72621">
        <ele>254.52289</ele>
        <time>2022-09-18T12:28:38.000Z</time>
      </trkpt>
      <trkpt lat="45.83788" lon="4.72622">
        <ele>254.6589</ele>
        <time>2022-09-18T12:28:39.000Z</time>
      </trkpt>
      <trkpt lat="45.83786" lon="4.72623">
        <ele>254.79525</ele>
        <time>2022-09-18T12:28:40.000Z</time>
      </trkpt>
      <trkpt lat="45.83784" lon="4.72624">
        <ele>254.89815</ele>
        <time>2022-09-18T12:28:41.000Z</time>
      </trkpt>
      <trkpt lat="45.83782" lon="4.72625">
        <ele>254.99448</ele>
        <time>2022-09-18T12:28:42.000Z</time>
      </trkpt>
      <trkpt lat="45.83779" lon="4.72626">
        <ele>255.18257</ele>
        <time>2022-09-18T12:28:44.000Z</time>
      </trkpt>
      <trkpt lat="45.83776" lon="4.72627">
        <ele>255.34006</ele>
        <time>2022-09-18T12:28:46.000Z</time>
      </trkpt>
      <trkpt lat="45.83773" lon="4.72629">
        <ele>255.4908</ele>
        <time>2022-09-18T12:28:48.000Z</time>
      </trkpt>
      <trkpt lat="45.83771" lon="4.72629">
        <ele>255.59122</ele>
        <time>2022-09-18T12:28:50.000Z</time>
      </trkpt>
      <trkpt lat="45.83768" lon="4.72631">
        <ele>255.71471</ele>
        <time>2022-09-18T12:28:52.000Z</time>
      </trkpt>
      <trkpt lat="45.83769" lon="4.72628">
        <ele>255.64517</ele>
        <time>2022-09-18T12:29:09.000Z</time>
      </trkpt>
      <trkpt lat="45.83771" lon="4.72628">
        <ele>255.54539</ele>
        <time>2022-09-18T12:29:10.000Z</time>
      </trkpt>
      <trkpt lat="45.83775" lon="4.72626">
        <ele>255.37075</ele>
        <time>2022-09-18T12:29:12.000Z</time>
      </trkpt>
      <trkpt lat="45.83777" lon="4.72625">
        <ele>255.26504</ele>
        <time>2022-09-18T12:29:13.000Z</time>
      </trkpt>
      <trkpt lat="45.83779" lon="4.72625">
        <ele>255.13497</ele>
        <time>2022-09-18T12:29:14.000Z</time>
      </trkpt>
      <trkpt lat="45.83782" lon="4.72625">
        <ele>254.98849</ele>
        <time>2022-09-18T12:29:15.000Z</time>
      </trkpt>
      <trkpt lat="45.83785" lon="4.72624">
        <ele>254.81989</ele>
        <time>2022-09-18T12:29:16.000Z</time>
      </trkpt>
      <trkpt lat="45.83789" lon="4.72623">
        <ele>254.6097</ele>
        <time>2022-09-18T12:29:17.000Z</time>
      </trkpt>
      <trkpt lat="45.83792" lon="4.72621">
        <ele>254.42335</ele>
        <time>2022-09-18T12:29:18.000Z</time>
      </trkpt>
      <trkpt lat="45.83795" lon="4.72619">
        <ele>254.25857</ele>
        <time>2022-09-18T12:29:19.000Z</time>
      </trkpt>
      <trkpt lat="45.83798" lon="4.72617">
        <ele>254.11066</ele>
        <time>2022-09-18T12:29:20.000Z</time>
      </trkpt>
      <trkpt lat="45.838" lon="4.72615">
        <ele>253.95226</ele>
        <time>2022-09-18T12:29:21.000Z</time>
      </trkpt>
      <trkpt lat="45.83803" lon="4.72613">
        <ele>253.81553</ele>
        <time>2022-09-18T12:29:22.000Z</time>
      </trkpt>
      <trkpt lat="45.83805" lon="4.72611">
        <ele>253.68181</ele>
        <time>2022-09-18T12:29:23.000Z</time>
      </trkpt>
      <trkpt lat="45.83807" lon="4.72609">
        <ele>253.55391</ele>
        <time>2022-09-18T12:29:24.000Z</time>
      </trkpt>
      <trkpt lat="45.83809" lon="4.72606">
        <ele>253.41502</ele>
        <time>2022-09-18T12:29:25.000Z</time>
      </trkpt>
      <trkpt lat="45.83811" lon="4.72603">
        <ele>253.27365</ele>
        <time>2022-09-18T12:29:26.000Z</time>
      </trkpt>
      <trkpt lat="45.83812" lon="4.72599">
        <ele>253.13804</ele>
        <time>2022-09-18T12:29:27.000Z</time>
      </trkpt>
      <trkpt lat="45.83814" lon="4.72595">
        <ele>253.01354</ele>
        <time>2022-09-18T12:29:28.000Z</time>
      </trkpt>
      <trkpt lat="45.83815" lon="4.72591">
        <ele>252.89179</ele>
        <time>2022-09-18T12:29:29.000Z</time>
      </trkpt>
      <trkpt lat="45.83817" lon="4.72586">
        <ele>252.77547</ele>
        <time>2022-09-18T12:29:30.000Z</time>
      </trkpt>
      <trkpt lat="45.83819" lon="4.72582">
        <ele>252.68883</ele>
        <time>2022-09-18T12:29:31.000Z</time>
      </trkpt>
      <trkpt lat="45.8382" lon="4.72577">
        <ele>252.62975</ele>
        <time>2022-09-18T12:29:32.000Z</time>
      </trkpt>
      <trkpt lat="45.83822" lon="4.72573">
        <ele>252.59089</ele>
        <time>2022-09-18T12:29:33.000Z</time>
      </trkpt>
      <trkpt lat="45.83823" lon="4.72569">
        <ele>252.57156</ele>
        <time>2022-09-18T12:29:34.000Z</time>
      </trkpt>
      <trkpt lat="45.83825" lon="4.72566">
        <ele>252.57013</ele>
        <time>2022-09-18T12:29:35.000Z</time>
      </trkpt>
      <trkpt lat="45.83826" lon="4.72563">
        <ele>252.57531</ele>
        <time>2022-09-18T12:29:36.000Z</time>
      </trkpt>
      <trkpt lat="45.83827" lon="4.7256">
        <ele>252.59073</ele>
        <time>2022-09-18T12:29:37.000Z</time>
      </trkpt>
      <trkpt lat="45.83828" lon="4.72556">
        <ele>252.61804</ele>
        <time>2022-09-18T12:29:38.000Z</time>
      </trkpt>
      <trkpt lat="45.83828" lon="4.72553">
        <ele>252.65256</ele>
        <time>2022-09-18T12:29:39.000Z</time>
      </trkpt>
      <trkpt lat="45.83829" lon="4.72549">
        <ele>252.68354</ele>
        <time>2022-09-18T12:29:40.000Z</time>
      </trkpt>
      <trkpt lat="45.8383" lon="4.72546">
        <ele>252.70931</ele>
        <time>2022-09-18T12:29:41.000Z</time>
      </trkpt>
      <trkpt lat="45.8383" lon="4.72543">
        <ele>252.73677</ele>
        <time>2022-09-18T12:29:42.000Z</time>
      </trkpt>
      <trkpt lat="45.83831" lon="4.72539">
        <ele>252.77156</ele>
        <time>2022-09-18T12:29:43.000Z</time>
      </trkpt>
      <trkpt lat="45.83831" lon="4.72535">
        <ele>252.81552</ele>
        <time>2022-09-18T12:29:44.000Z</time>
      </trkpt>
      <trkpt lat="45.83832" lon="4.72531">
        <ele>252.87005</ele>
        <time>2022-09-18T12:29:45.000Z</time>
      </trkpt>
      <trkpt lat="45.83833" lon="4.72528">
        <ele>252.93075</ele>
        <time>2022-09-18T12:29:46.000Z</time>
      </trkpt>
      <trkpt lat="45.83833" lon="4.72524">
        <ele>253.00809</ele>
        <time>2022-09-18T12:29:47.000Z</time>
      </trkpt>
      <trkpt lat="45.83834" lon="4.7252">
        <ele>253.09696</ele>
        <time>2022-09-18T12:29:48.000Z</time>
      </trkpt>
      <trkpt lat="45.83834" lon="4.72518">
        <ele>253.17405</ele>
        <time>2022-09-18T12:29:49.000Z</time>
      </trkpt>
      <trkpt lat="45.83836" lon="4.72517">
        <ele>253.20237</ele>
        <time>2022-09-18T12:29:57.000Z</time>
      </trkpt>
      <trkpt lat="45.83836" lon="4.7252">
        <ele>253.12434</ele>
        <time>2022-09-18T12:30:04.000Z</time>
      </trkpt>
      <trkpt lat="45.83837" lon="4.72518">
        <ele>253.19603</ele>
        <time>2022-09-18T12:30:11.000Z</time>
      </trkpt>
      <trkpt lat="45.83839" lon="4.72516">
        <ele>253.26974</ele>
        <time>2022-09-18T12:34:12.000Z</time>
      </trkpt>
      <trkpt lat="45.83838" lon="4.72519">
        <ele>253.18456</ele>
        <time>2022-09-18T12:34:17.000Z</time>
      </trkpt>
      <trkpt lat="45.83838" lon="4.72522">
        <ele>253.09789</ele>
        <time>2022-09-18T12:34:19.000Z</time>
      </trkpt>
      <trkpt lat="45.83837" lon="4.72526">
        <ele>253.0143</ele>
        <time>2022-09-18T12:34:21.000Z</time>
      </trkpt>
      <trkpt lat="45.83837" lon="4.7253">
        <ele>252.92055</ele>
        <time>2022-09-18T12:34:23.000Z</time>
      </trkpt>
      <trkpt lat="45.83836" lon="4.72536">
        <ele>252.83072</ele>
        <time>2022-09-18T12:34:25.000Z</time>
      </trkpt>
      <trkpt lat="45.83836" lon="4.72539">
        <ele>252.78859</ele>
        <time>2022-09-18T12:34:26.000Z</time>
      </trkpt>
      <trkpt lat="45.83835" lon="4.72541">
        <ele>252.74813</ele>
        <time>2022-09-18T12:34:27.000Z</time>
      </trkpt>
      <trkpt lat="45.83835" lon="4.72544">
        <ele>252.71255</ele>
        <time>2022-09-18T12:34:28.000Z</time>
      </trkpt>
      <trkpt lat="45.83834" lon="4.72547">
        <ele>252.68292</ele>
        <time>2022-09-18T12:34:29.000Z</time>
      </trkpt>
      <trkpt lat="45.83833" lon="4.72551">
        <ele>252.63812</ele>
        <time>2022-09-18T12:34:31.000Z</time>
      </trkpt>
      <trkpt lat="45.83833" lon="4.72555">
        <ele>252.5766</ele>
        <time>2022-09-18T12:34:33.000Z</time>
      </trkpt>
      <trkpt lat="45.83832" lon="4.72558">
        <ele>252.53475</ele>
        <time>2022-09-18T12:34:34.000Z</time>
      </trkpt>
      <trkpt lat="45.83832" lon="4.72562">
        <ele>252.48524</ele>
        <time>2022-09-18T12:34:35.000Z</time>
      </trkpt>
      <trkpt lat="45.83831" lon="4.72567">
        <ele>252.43677</ele>
        <time>2022-09-18T12:34:36.000Z</time>
      </trkpt>
      <trkpt lat="45.8383" lon="4.72571">
        <ele>252.39875</ele>
        <time>2022-09-18T12:34:37.000Z</time>
      </trkpt>
      <trkpt lat="45.83829" lon="4.72575">
        <ele>252.38261</ele>
        <time>2022-09-18T12:34:38.000Z</time>
      </trkpt>
      <trkpt lat="45.83828" lon="4.7258">
        <ele>252.38369</ele>
        <time>2022-09-18T12:34:39.000Z</time>
      </trkpt>
      <trkpt lat="45.83826" lon="4.72585">
        <ele>252.41436</ele>
        <time>2022-09-18T12:34:40.000Z</time>
      </trkpt>
      <trkpt lat="45.83825" lon="4.7259">
        <ele>252.46988</ele>
        <time>2022-09-18T12:34:41.000Z</time>
      </trkpt>
      <trkpt lat="45.83824" lon="4.72594">
        <ele>252.54396</ele>
        <time>2022-09-18T12:34:42.000Z</time>
      </trkpt>
      <trkpt lat="45.83822" lon="4.72598">
        <ele>252.65266</ele>
        <time>2022-09-18T12:34:43.000Z</time>
      </trkpt>
      <trkpt lat="45.83819" lon="4.72601">
        <ele>252.82753</ele>
        <time>2022-09-18T12:34:44.000Z</time>
      </trkpt>
      <trkpt lat="45.83816" lon="4.72605">
        <ele>253.04766</ele>
        <time>2022-09-18T12:34:45.000Z</time>
      </trkpt>
      <trkpt lat="45.83812" lon="4.72608">
        <ele>253.27652</ele>
        <time>2022-09-18T12:34:46.000Z</time>
      </trkpt>
      <trkpt lat="45.83809" lon="4.72611">
        <ele>253.47439</ele>
        <time>2022-09-18T12:34:47.000Z</time>
      </trkpt>
      <trkpt lat="45.83806" lon="4.72613">
        <ele>253.64779</ele>
        <time>2022-09-18T12:34:48.000Z</time>
      </trkpt>
      <trkpt lat="45.83803" lon="4.72614">
        <ele>253.78127</ele>
        <time>2022-09-18T12:34:49.000Z</time>
      </trkpt>
      <trkpt lat="45.838" lon="4.72616">
        <ele>253.94782</ele>
        <time>2022-09-18T12:34:50.000Z</time>
      </trkpt>
      <trkpt lat="45.83796" lon="4.72618">
        <ele>254.18296</ele>
        <time>2022-09-18T12:34:51.000Z</time>
      </trkpt>
      <trkpt lat="45.83792" lon="4.72619">
        <ele>254.4067</ele>
        <time>2022-09-18T12:34:52.000Z</time>
      </trkpt>
      <trkpt lat="45.83788" lon="4.7262">
        <ele>254.64358</ele>
        <time>2022-09-18T12:34:53.000Z</time>
      </trkpt>
      <trkpt lat="45.83784" lon="4.72621">
        <ele>254.85788</ele>
        <time>2022-09-18T12:34:54.000Z</time>
      </trkpt>
      <trkpt lat="45.83781" lon="4.72622">
        <ele>255.01075</ele>
        <time>2022-09-18T12:34:55.000Z</time>
      </trkpt>
      <trkpt lat="45.83779" lon="4.72624">
        <ele>255.15777</ele>
        <time>2022-09-18T12:34:56.000Z</time>
      </trkpt>
      <trkpt lat="45.83776" lon="4.72627">
        <ele>255.33113</ele>
        <time>2022-09-18T12:34:57.000Z</time>
      </trkpt>
      <trkpt lat="45.83772" lon="4.7263">
        <ele>255.51721</ele>
        <time>2022-09-18T12:34:58.000Z</time>
      </trkpt>
      <trkpt lat="45.83769" lon="4.72632">
        <ele>255.68858</ele>
        <time>2022-09-18T12:34:59.000Z</time>
      </trkpt>
      <trkpt lat="45.83766" lon="4.72634">
        <ele>255.8323</ele>
        <time>2022-09-18T12:35:00.000Z</time>
      </trkpt>
      <trkpt lat="45.83763" lon="4.72635">
        <ele>255.98738</ele>
        <time>2022-09-18T12:35:01.000Z</time>
      </trkpt>
      <trkpt lat="45.8376" lon="4.72635">
        <ele>256.1522</ele>
        <time>2022-09-18T12:35:02.000Z</time>
      </trkpt>
      <trkpt lat="45.83757" lon="4.72636">
        <ele>256.32517</ele>
        <time>2022-09-18T12:35:03.000Z</time>
      </trkpt>
      <trkpt lat="45.83753" lon="4.72636">
        <ele>256.50707</ele>
        <time>2022-09-18T12:35:04.000Z</time>
      </trkpt>
      <trkpt lat="45.8375" lon="4.72637">
        <ele>256.71544</ele>
        <time>2022-09-18T12:35:05.000Z</time>
      </trkpt>
      <trkpt lat="45.83746" lon="4.72638">
        <ele>256.94049</ele>
        <time>2022-09-18T12:35:06.000Z</time>
      </trkpt>
      <trkpt lat="45.83742" lon="4.7264">
        <ele>257.18386</ele>
        <time>2022-09-18T12:35:07.000Z</time>
      </trkpt>
      <trkpt lat="45.83738" lon="4.72641">
        <ele>257.41296</ele>
        <time>2022-09-18T12:35:08.000Z</time>
      </trkpt>
      <trkpt lat="45.83735" lon="4.72642">
        <ele>257.57792</ele>
        <time>2022-09-18T12:35:09.000Z</time>
      </trkpt>
      <trkpt lat="45.83732" lon="4.72644">
        <ele>257.73945</ele>
        <time>2022-09-18T12:35:10.000Z</time>
      </trkpt>
      <trkpt lat="45.83729" lon="4.72647">
        <ele>257.90468</ele>
        <time>2022-09-18T12:35:11.000Z</time>
      </trkpt>
      <trkpt lat="45.83726" lon="4.72649">
        <ele>258.05742</ele>
        <time>2022-09-18T12:35:12.000Z</time>
      </trkpt>
      <trkpt lat="45.83723" lon="4.72651">
        <ele>258.20543</ele>
        <time>2022-09-18T12:35:13.000Z</time>
      </trkpt>
      <trkpt lat="45.8372" lon="4.72653">
        <ele>258.35974</ele>
        <time>2022-09-18T12:35:14.000Z</time>
      </trkpt>
      <trkpt lat="45.83718" lon="4.72656">
        <ele>258.51963</ele>
        <time>2022-09-18T12:35:15.000Z</time>
      </trkpt>
      <trkpt lat="45.83715" lon="4.72658">
        <ele>258.7167</ele>
        <time>2022-09-18T12:35:16.000Z</time>
      </trkpt>
      <trkpt lat="45.83712" lon="4.7266">
        <ele>258.92686</ele>
        <time>2022-09-18T12:35:17.000Z</time>
      </trkpt>
      <trkpt lat="45.83709" lon="4.72662">
        <ele>259.16759</ele>
        <time>2022-09-18T12:35:18.000Z</time>
      </trkpt>
      <trkpt lat="45.83705" lon="4.72664">
        <ele>259.41247</ele>
        <time>2022-09-18T12:35:19.000Z</time>
      </trkpt>
      <trkpt lat="45.83702" lon="4.72666">
        <ele>259.62755</ele>
        <time>2022-09-18T12:35:20.000Z</time>
      </trkpt>
      <trkpt lat="45.83699" lon="4.72668">
        <ele>259.82033</ele>
        <time>2022-09-18T12:35:21.000Z</time>
      </trkpt>
      <trkpt lat="45.83696" lon="4.72669">
        <ele>259.98663</ele>
        <time>2022-09-18T12:35:22.000Z</time>
      </trkpt>
      <trkpt lat="45.83693" lon="4.7267">
        <ele>260.1577</ele>
        <time>2022-09-18T12:35:23.000Z</time>
      </trkpt>
      <trkpt lat="45.8369" lon="4.72671">
        <ele>260.33297</ele>
        <time>2022-09-18T12:35:24.000Z</time>
      </trkpt>
      <trkpt lat="45.83686" lon="4.72671">
        <ele>260.51449</ele>
        <time>2022-09-18T12:35:25.000Z</time>
      </trkpt>
      <trkpt lat="45.83683" lon="4.72672">
        <ele>260.68974</ele>
        <time>2022-09-18T12:35:26.000Z</time>
      </trkpt>
      <trkpt lat="45.8368" lon="4.72672">
        <ele>260.84828</ele>
        <time>2022-09-18T12:35:27.000Z</time>
      </trkpt>
      <trkpt lat="45.83678" lon="4.72673">
        <ele>261.00915</ele>
        <time>2022-09-18T12:35:28.000Z</time>
      </trkpt>
      <trkpt lat="45.83674" lon="4.72674">
        <ele>261.19487</ele>
        <time>2022-09-18T12:35:29.000Z</time>
      </trkpt>
      <trkpt lat="45.83671" lon="4.72674">
        <ele>261.38982</ele>
        <time>2022-09-18T12:35:30.000Z</time>
      </trkpt>
      <trkpt lat="45.83668" lon="4.72674">
        <ele>261.56531</ele>
        <time>2022-09-18T12:35:31.000Z</time>
      </trkpt>
      <trkpt lat="45.83665" lon="4.72675">
        <ele>261.74011</ele>
        <time>2022-09-18T12:35:32.000Z</time>
      </trkpt>
      <trkpt lat="45.83662" lon="4.72676">
        <ele>261.89333</ele>
        <time>2022-09-18T12:35:33.000Z</time>
      </trkpt>
      <trkpt lat="45.83659" lon="4.72677">
        <ele>262.06165</ele>
        <time>2022-09-18T12:35:34.000Z</time>
      </trkpt>
      <trkpt lat="45.83655" lon="4.72679">
        <ele>262.26253</ele>
        <time>2022-09-18T12:35:35.000Z</time>
      </trkpt>
      <trkpt lat="45.8365" lon="4.72681">
        <ele>262.4984</ele>
        <time>2022-09-18T12:35:36.000Z</time>
      </trkpt>
      <trkpt lat="45.83647" lon="4.72682">
        <ele>262.70665</ele>
        <time>2022-09-18T12:35:37.000Z</time>
      </trkpt>
      <trkpt lat="45.83644" lon="4.72683">
        <ele>262.89279</ele>
        <time>2022-09-18T12:35:38.000Z</time>
      </trkpt>
      <trkpt lat="45.83641" lon="4.72685">
        <ele>263.07954</ele>
        <time>2022-09-18T12:35:39.000Z</time>
      </trkpt>
      <trkpt lat="45.83638" lon="4.72687">
        <ele>263.28491</ele>
        <time>2022-09-18T12:35:40.000Z</time>
      </trkpt>
      <trkpt lat="45.83635" lon="4.7269">
        <ele>263.45693</ele>
        <time>2022-09-18T12:35:41.000Z</time>
      </trkpt>
      <trkpt lat="45.83632" lon="4.72692">
        <ele>263.61174</ele>
        <time>2022-09-18T12:35:42.000Z</time>
      </trkpt>
      <trkpt lat="45.83629" lon="4.72695">
        <ele>263.734</ele>
        <time>2022-09-18T12:35:43.000Z</time>
      </trkpt>
      <trkpt lat="45.83626" lon="4.72698">
        <ele>263.79935</ele>
        <time>2022-09-18T12:35:44.000Z</time>
      </trkpt>
      <trkpt lat="45.83623" lon="4.72701">
        <ele>263.82856</ele>
        <time>2022-09-18T12:35:45.000Z</time>
      </trkpt>
      <trkpt lat="45.8362" lon="4.72704">
        <ele>263.86123</ele>
        <time>2022-09-18T12:35:46.000Z</time>
      </trkpt>
      <trkpt lat="45.83618" lon="4.72706">
        <ele>263.92703</ele>
        <time>2022-09-18T12:35:47.000Z</time>
      </trkpt>
      <trkpt lat="45.83616" lon="4.72708">
        <ele>264.02819</ele>
        <time>2022-09-18T12:35:48.000Z</time>
      </trkpt>
      <trkpt lat="45.83613" lon="4.72709">
        <ele>264.1301</ele>
        <time>2022-09-18T12:35:49.000Z</time>
      </trkpt>
      <trkpt lat="45.8361" lon="4.7271">
        <ele>264.27504</ele>
        <time>2022-09-18T12:35:50.000Z</time>
      </trkpt>
      <trkpt lat="45.83607" lon="4.72712">
        <ele>264.41628</ele>
        <time>2022-09-18T12:35:51.000Z</time>
      </trkpt>
      <trkpt lat="45.83604" lon="4.72713">
        <ele>264.51926</ele>
        <time>2022-09-18T12:35:52.000Z</time>
      </trkpt>
      <trkpt lat="45.83602" lon="4.72714">
        <ele>264.62703</ele>
        <time>2022-09-18T12:35:53.000Z</time>
      </trkpt>
      <trkpt lat="45.83599" lon="4.72716">
        <ele>264.73326</ele>
        <time>2022-09-18T12:35:54.000Z</time>
      </trkpt>
      <trkpt lat="45.83597" lon="4.72717">
        <ele>264.80421</ele>
        <time>2022-09-18T12:35:55.000Z</time>
      </trkpt>
      <trkpt lat="45.83594" lon="4.72719">
        <ele>264.80049</ele>
        <time>2022-09-18T12:35:56.000Z</time>
      </trkpt>
      <trkpt lat="45.83592" lon="4.72721">
        <ele>264.82522</ele>
        <time>2022-09-18T12:35:57.000Z</time>
      </trkpt>
      <trkpt lat="45.83589" lon="4.72723">
        <ele>264.77131</ele>
        <time>2022-09-18T12:35:58.000Z</time>
      </trkpt>
      <trkpt lat="45.83586" lon="4.72726">
        <ele>264.69695</ele>
        <time>2022-09-18T12:35:59.000Z</time>
      </trkpt>
      <trkpt lat="45.83583" lon="4.72729">
        <ele>264.61112</ele>
        <time>2022-09-18T12:36:00.000Z</time>
      </trkpt>
      <trkpt lat="45.83579" lon="4.72731">
        <ele>264.58666</ele>
        <time>2022-09-18T12:36:01.000Z</time>
      </trkpt>
      <trkpt lat="45.83575" lon="4.72733">
        <ele>264.60265</ele>
        <time>2022-09-18T12:36:02.000Z</time>
      </trkpt>
      <trkpt lat="45.83572" lon="4.72735">
        <ele>264.66152</ele>
        <time>2022-09-18T12:36:03.000Z</time>
      </trkpt>
      <trkpt lat="45.83568" lon="4.72737">
        <ele>264.76</ele>
        <time>2022-09-18T12:36:04.000Z</time>
      </trkpt>
      <trkpt lat="45.83564" lon="4.72739">
        <ele>264.89583</ele>
        <time>2022-09-18T12:36:05.000Z</time>
      </trkpt>
      <trkpt lat="45.8356" lon="4.72741">
        <ele>265.04424</ele>
        <time>2022-09-18T12:36:06.000Z</time>
      </trkpt>
      <trkpt lat="45.83555" lon="4.72742">
        <ele>265.14442</ele>
        <time>2022-09-18T12:36:07.000Z</time>
      </trkpt>
      <trkpt lat="45.83551" lon="4.72745">
        <ele>265.03472</ele>
        <time>2022-09-18T12:36:08.000Z</time>
      </trkpt>
      <trkpt lat="45.83548" lon="4.72747">
        <ele>264.96892</ele>
        <time>2022-09-18T12:36:09.000Z</time>
      </trkpt>
      <trkpt lat="45.83544" lon="4.72749">
        <ele>264.75663</ele>
        <time>2022-09-18T12:36:10.000Z</time>
      </trkpt>
      <trkpt lat="45.8354" lon="4.72753">
        <ele>264.40961</ele>
        <time>2022-09-18T12:36:11.000Z</time>
      </trkpt>
      <trkpt lat="45.83537" lon="4.72755">
        <ele>264.27491</ele>
        <time>2022-09-18T12:36:12.000Z</time>
      </trkpt>
      <trkpt lat="45.83533" lon="4.72757">
        <ele>264.22206</ele>
        <time>2022-09-18T12:36:13.000Z</time>
      </trkpt>
      <trkpt lat="45.83529" lon="4.72758">
        <ele>264.31363</ele>
        <time>2022-09-18T12:36:14.000Z</time>
      </trkpt>
      <trkpt lat="45.83526" lon="4.72759">
        <ele>264.50967</ele>
        <time>2022-09-18T12:36:15.000Z</time>
      </trkpt>
      <trkpt lat="45.83521" lon="4.72759">
        <ele>264.76</ele>
        <time>2022-09-18T12:36:16.000Z</time>
      </trkpt>
      <trkpt lat="45.83517" lon="4.7276">
        <ele>264.89644</ele>
        <time>2022-09-18T12:36:17.000Z</time>
      </trkpt>
      <trkpt lat="45.83513" lon="4.72761">
        <ele>265.07476</ele>
        <time>2022-09-18T12:36:18.000Z</time>
      </trkpt>
      <trkpt lat="45.83509" lon="4.72762">
        <ele>265.20784</ele>
        <time>2022-09-18T12:36:19.000Z</time>
      </trkpt>
      <trkpt lat="45.83505" lon="4.72764">
        <ele>265.29127</ele>
        <time>2022-09-18T12:36:20.000Z</time>
      </trkpt>
      <trkpt lat="45.83501" lon="4.72765">
        <ele>265.35282</ele>
        <time>2022-09-18T12:36:21.000Z</time>
      </trkpt>
      <trkpt lat="45.83497" lon="4.72767">
        <ele>265.40225</ele>
        <time>2022-09-18T12:36:22.000Z</time>
      </trkpt>
      <trkpt lat="45.83494" lon="4.72768">
        <ele>265.4781</ele>
        <time>2022-09-18T12:36:23.000Z</time>
      </trkpt>
      <trkpt lat="45.8349" lon="4.7277">
        <ele>265.40934</ele>
        <time>2022-09-18T12:36:24.000Z</time>
      </trkpt>
      <trkpt lat="45.83486" lon="4.72772">
        <ele>265.36589</ele>
        <time>2022-09-18T12:36:25.000Z</time>
      </trkpt>
      <trkpt lat="45.83483" lon="4.72773">
        <ele>265.47944</ele>
        <time>2022-09-18T12:36:26.000Z</time>
      </trkpt>
      <trkpt lat="45.8348" lon="4.72774">
        <ele>265.61708</ele>
        <time>2022-09-18T12:36:27.000Z</time>
      </trkpt>
      <trkpt lat="45.83476" lon="4.72775">
        <ele>265.83694</ele>
        <time>2022-09-18T12:36:28.000Z</time>
      </trkpt>
      <trkpt lat="45.83472" lon="4.72776">
        <ele>266.05631</ele>
        <time>2022-09-18T12:36:29.000Z</time>
      </trkpt>
      <trkpt lat="45.83467" lon="4.72778">
        <ele>266.25459</ele>
        <time>2022-09-18T12:36:30.000Z</time>
      </trkpt>
      <trkpt lat="45.83462" lon="4.7278">
        <ele>266.44369</ele>
        <time>2022-09-18T12:36:31.000Z</time>
      </trkpt>
      <trkpt lat="45.83458" lon="4.72782">
        <ele>266.6734</ele>
        <time>2022-09-18T12:36:32.000Z</time>
      </trkpt>
      <trkpt lat="45.83454" lon="4.72784">
        <ele>266.9383</ele>
        <time>2022-09-18T12:36:33.000Z</time>
      </trkpt>
      <trkpt lat="45.83449" lon="4.72785">
        <ele>267.26728</ele>
        <time>2022-09-18T12:36:34.000Z</time>
      </trkpt>
      <trkpt lat="45.83443" lon="4.72786">
        <ele>267.91135</ele>
        <time>2022-09-18T12:36:35.000Z</time>
      </trkpt>
      <trkpt lat="45.83436" lon="4.72789">
        <ele>268.4002</ele>
        <time>2022-09-18T12:36:37.000Z</time>
      </trkpt>
      <trkpt lat="45.83432" lon="4.72791">
        <ele>268.598</ele>
        <time>2022-09-18T12:36:38.000Z</time>
      </trkpt>
      <trkpt lat="45.83431" lon="4.72796">
        <ele>268.46037</ele>
        <time>2022-09-18T12:36:39.000Z</time>
      </trkpt>
      <trkpt lat="45.83434" lon="4.72801">
        <ele>268.03367</ele>
        <time>2022-09-18T12:36:40.000Z</time>
      </trkpt>
      <trkpt lat="45.83433" lon="4.72806">
        <ele>267.87467</ele>
        <time>2022-09-18T12:36:41.000Z</time>
      </trkpt>
      <trkpt lat="45.83431" lon="4.72809">
        <ele>267.84908</ele>
        <time>2022-09-18T12:36:42.000Z</time>
      </trkpt>
      <trkpt lat="45.83429" lon="4.72815">
        <ele>267.82129</ele>
        <time>2022-09-18T12:36:43.000Z</time>
      </trkpt>
      <trkpt lat="45.83429" lon="4.72819">
        <ele>267.64993</ele>
        <time>2022-09-18T12:36:44.000Z</time>
      </trkpt>
      <trkpt lat="45.83429" lon="4.72822">
        <ele>267.59693</ele>
        <time>2022-09-18T12:36:45.000Z</time>
      </trkpt>
      <trkpt lat="45.83429" lon="4.72827">
        <ele>267.51527</ele>
        <time>2022-09-18T12:36:46.000Z</time>
      </trkpt>
      <trkpt lat="45.83429" lon="4.72832">
        <ele>267.40046</ele>
        <time>2022-09-18T12:36:47.000Z</time>
      </trkpt>
      <trkpt lat="45.8343" lon="4.72838">
        <ele>267.32352</ele>
        <time>2022-09-18T12:36:48.000Z</time>
      </trkpt>
      <trkpt lat="45.8343" lon="4.72841">
        <ele>267.32193</ele>
        <time>2022-09-18T12:36:49.000Z</time>
      </trkpt>
      <trkpt lat="45.8343" lon="4.72844">
        <ele>267.33217</ele>
        <time>2022-09-18T12:36:50.000Z</time>
      </trkpt>
      <trkpt lat="45.8343" lon="4.72847">
        <ele>267.34176</ele>
        <time>2022-09-18T12:36:51.000Z</time>
      </trkpt>
      <trkpt lat="45.83431" lon="4.72851">
        <ele>267.3251</ele>
        <time>2022-09-18T12:36:52.000Z</time>
      </trkpt>
      <trkpt lat="45.83432" lon="4.72856">
        <ele>267.32969</ele>
        <time>2022-09-18T12:36:53.000Z</time>
      </trkpt>
      <trkpt lat="45.83433" lon="4.7286">
        <ele>267.39663</ele>
        <time>2022-09-18T12:36:54.000Z</time>
      </trkpt>
      <trkpt lat="45.83435" lon="4.72866">
        <ele>267.56189</ele>
        <time>2022-09-18T12:36:55.000Z</time>
      </trkpt>
      <trkpt lat="45.83435" lon="4.72871">
        <ele>267.81465</ele>
        <time>2022-09-18T12:36:56.000Z</time>
      </trkpt>
      <trkpt lat="45.83436" lon="4.72875">
        <ele>268.0763</ele>
        <time>2022-09-18T12:36:57.000Z</time>
      </trkpt>
      <trkpt lat="45.83437" lon="4.72879">
        <ele>268.34966</ele>
        <time>2022-09-18T12:36:58.000Z</time>
      </trkpt>
      <trkpt lat="45.83437" lon="4.72884">
        <ele>268.6921</ele>
        <time>2022-09-18T12:36:59.000Z</time>
      </trkpt>
      <trkpt lat="45.83438" lon="4.72888">
        <ele>269.03955</ele>
        <time>2022-09-18T12:37:00.000Z</time>
      </trkpt>
      <trkpt lat="45.83438" lon="4.72892">
        <ele>269.38076</ele>
        <time>2022-09-18T12:37:01.000Z</time>
      </trkpt>
      <trkpt lat="45.83439" lon="4.72896">
        <ele>269.75279</ele>
        <time>2022-09-18T12:37:02.000Z</time>
      </trkpt>
      <trkpt lat="45.8344" lon="4.729">
        <ele>270.18565</ele>
        <time>2022-09-18T12:37:03.000Z</time>
      </trkpt>
      <trkpt lat="45.83441" lon="4.72904">
        <ele>270.6699</ele>
        <time>2022-09-18T12:37:04.000Z</time>
      </trkpt>
      <trkpt lat="45.83443" lon="4.72909">
        <ele>271.22828</ele>
        <time>2022-09-18T12:37:05.000Z</time>
      </trkpt>
      <trkpt lat="45.83444" lon="4.72913">
        <ele>271.70961</ele>
        <time>2022-09-18T12:37:06.000Z</time>
      </trkpt>
      <trkpt lat="45.83445" lon="4.72916">
        <ele>272.1104</ele>
        <time>2022-09-18T12:37:07.000Z</time>
      </trkpt>
      <trkpt lat="45.83447" lon="4.7292">
        <ele>272.5498</ele>
        <time>2022-09-18T12:37:08.000Z</time>
      </trkpt>
      <trkpt lat="45.83448" lon="4.72924">
        <ele>272.93835</ele>
        <time>2022-09-18T12:37:09.000Z</time>
      </trkpt>
      <trkpt lat="45.8345" lon="4.72929">
        <ele>273.29093</ele>
        <time>2022-09-18T12:37:10.000Z</time>
      </trkpt>
      <trkpt lat="45.83452" lon="4.72933">
        <ele>273.62862</ele>
        <time>2022-09-18T12:37:11.000Z</time>
      </trkpt>
      <trkpt lat="45.83454" lon="4.72938">
        <ele>274.01035</ele>
        <time>2022-09-18T12:37:12.000Z</time>
      </trkpt>
      <trkpt lat="45.83456" lon="4.72943">
        <ele>274.31703</ele>
        <time>2022-09-18T12:37:13.000Z</time>
      </trkpt>
      <trkpt lat="45.83457" lon="4.72947">
        <ele>274.59131</ele>
        <time>2022-09-18T12:37:14.000Z</time>
      </trkpt>
      <trkpt lat="45.83457" lon="4.72952">
        <ele>274.91987</ele>
        <time>2022-09-18T12:37:15.000Z</time>
      </trkpt>
      <trkpt lat="45.83459" lon="4.72956">
        <ele>275.13596</ele>
        <time>2022-09-18T12:37:16.000Z</time>
      </trkpt>
      <trkpt lat="45.8346" lon="4.7296">
        <ele>275.28181</ele>
        <time>2022-09-18T12:37:17.000Z</time>
      </trkpt>
      <trkpt lat="45.83461" lon="4.72964">
        <ele>275.41391</ele>
        <time>2022-09-18T12:37:18.000Z</time>
      </trkpt>
      <trkpt lat="45.83463" lon="4.72968">
        <ele>275.49927</ele>
        <time>2022-09-18T12:37:19.000Z</time>
      </trkpt>
      <trkpt lat="45.83465" lon="4.72972">
        <ele>275.62887</ele>
        <time>2022-09-18T12:37:20.000Z</time>
      </trkpt>
      <trkpt lat="45.83466" lon="4.72976">
        <ele>275.73122</ele>
        <time>2022-09-18T12:37:21.000Z</time>
      </trkpt>
      <trkpt lat="45.83468" lon="4.72982">
        <ele>275.86046</ele>
        <time>2022-09-18T12:37:22.000Z</time>
      </trkpt>
      <trkpt lat="45.8347" lon="4.7299">
        <ele>275.95698</ele>
        <time>2022-09-18T12:37:23.000Z</time>
      </trkpt>
      <trkpt lat="45.83472" lon="4.72997">
        <ele>276.04698</ele>
        <time>2022-09-18T12:37:24.000Z</time>
      </trkpt>
      <trkpt lat="45.83473" lon="4.73002">
        <ele>276.15057</ele>
        <time>2022-09-18T12:37:25.000Z</time>
      </trkpt>
      <trkpt lat="45.83474" lon="4.73007">
        <ele>276.25827</ele>
        <time>2022-09-18T12:37:26.000Z</time>
      </trkpt>
      <trkpt lat="45.83475" lon="4.73011">
        <ele>276.3046</ele>
        <time>2022-09-18T12:37:27.000Z</time>
      </trkpt>
      <trkpt lat="45.83477" lon="4.73016">
        <ele>276.32543</ele>
        <time>2022-09-18T12:37:28.000Z</time>
      </trkpt>
      <trkpt lat="45.8348" lon="4.73019">
        <ele>276.32854</ele>
        <time>2022-09-18T12:37:29.000Z</time>
      </trkpt>
      <trkpt lat="45.83481" lon="4.73023">
        <ele>276.3499</ele>
        <time>2022-09-18T12:37:30.000Z</time>
      </trkpt>
      <trkpt lat="45.83482" lon="4.73026">
        <ele>276.36871</ele>
        <time>2022-09-18T12:37:31.000Z</time>
      </trkpt>
      <trkpt lat="45.83484" lon="4.73029">
        <ele>276.31428</ele>
        <time>2022-09-18T12:37:32.000Z</time>
      </trkpt>
      <trkpt lat="45.83487" lon="4.73033">
        <ele>276.2282</ele>
        <time>2022-09-18T12:37:33.000Z</time>
      </trkpt>
      <trkpt lat="45.8349" lon="4.73036">
        <ele>276.17297</ele>
        <time>2022-09-18T12:37:34.000Z</time>
      </trkpt>
      <trkpt lat="45.83492" lon="4.73038">
        <ele>276.14267</ele>
        <time>2022-09-18T12:37:35.000Z</time>
      </trkpt>
      <trkpt lat="45.83494" lon="4.73041">
        <ele>276.14073</ele>
        <time>2022-09-18T12:37:36.000Z</time>
      </trkpt>
      <trkpt lat="45.83497" lon="4.73043">
        <ele>276.19938</ele>
        <time>2022-09-18T12:37:37.000Z</time>
      </trkpt>
      <trkpt lat="45.835" lon="4.73046">
        <ele>276.31946</ele>
        <time>2022-09-18T12:37:38.000Z</time>
      </trkpt>
      <trkpt lat="45.83503" lon="4.73048">
        <ele>276.49642</ele>
        <time>2022-09-18T12:37:39.000Z</time>
      </trkpt>
      <trkpt lat="45.83506" lon="4.7305">
        <ele>276.72088</ele>
        <time>2022-09-18T12:37:40.000Z</time>
      </trkpt>
      <trkpt lat="45.83508" lon="4.73053">
        <ele>276.95336</ele>
        <time>2022-09-18T12:37:41.000Z</time>
      </trkpt>
      <trkpt lat="45.83511" lon="4.73055">
        <ele>277.22309</ele>
        <time>2022-09-18T12:37:42.000Z</time>
      </trkpt>
      <trkpt lat="45.83515" lon="4.73056">
        <ele>277.5358</ele>
        <time>2022-09-18T12:37:43.000Z</time>
      </trkpt>
      <trkpt lat="45.83519" lon="4.73058">
        <ele>277.81804</ele>
        <time>2022-09-18T12:37:44.000Z</time>
      </trkpt>
      <trkpt lat="45.83522" lon="4.73059">
        <ele>278.08676</ele>
        <time>2022-09-18T12:37:45.000Z</time>
      </trkpt>
      <trkpt lat="45.83526" lon="4.73059">
        <ele>278.29761</ele>
        <time>2022-09-18T12:37:46.000Z</time>
      </trkpt>
      <trkpt lat="45.8353" lon="4.73059">
        <ele>278.54874</ele>
        <time>2022-09-18T12:37:47.000Z</time>
      </trkpt>
      <trkpt lat="45.83534" lon="4.73059">
        <ele>278.90224</ele>
        <time>2022-09-18T12:37:48.000Z</time>
      </trkpt>
      <trkpt lat="45.83537" lon="4.73059">
        <ele>279.18244</ele>
        <time>2022-09-18T12:37:49.000Z</time>
      </trkpt>
      <trkpt lat="45.8354" lon="4.73059">
        <ele>279.43938</ele>
        <time>2022-09-18T12:37:50.000Z</time>
      </trkpt>
      <trkpt lat="45.83544" lon="4.73058">
        <ele>279.65582</ele>
        <time>2022-09-18T12:37:51.000Z</time>
      </trkpt>
      <trkpt lat="45.83547" lon="4.73057">
        <ele>279.83621</ele>
        <time>2022-09-18T12:37:52.000Z</time>
      </trkpt>
      <trkpt lat="45.83551" lon="4.73057">
        <ele>279.98179</ele>
        <time>2022-09-18T12:37:53.000Z</time>
      </trkpt>
      <trkpt lat="45.83554" lon="4.73057">
        <ele>280.16882</ele>
        <time>2022-09-18T12:37:54.000Z</time>
      </trkpt>
      <trkpt lat="45.83559" lon="4.73057">
        <ele>280.36913</ele>
        <time>2022-09-18T12:37:55.000Z</time>
      </trkpt>
      <trkpt lat="45.83569" lon="4.73062">
        <ele>280.72492</ele>
        <time>2022-09-18T12:37:56.000Z</time>
      </trkpt>
      <trkpt lat="45.83572" lon="4.7306">
        <ele>280.70061</ele>
        <time>2022-09-18T12:37:58.000Z</time>
      </trkpt>
      <trkpt lat="45.83577" lon="4.73058">
        <ele>280.64119</ele>
        <time>2022-09-18T12:37:59.000Z</time>
      </trkpt>
      <trkpt lat="45.83582" lon="4.73056">
        <ele>280.52672</ele>
        <time>2022-09-18T12:38:00.000Z</time>
      </trkpt>
      <trkpt lat="45.83589" lon="4.73054">
        <ele>280.24623</ele>
        <time>2022-09-18T12:38:01.000Z</time>
      </trkpt>
      <trkpt lat="45.83591" lon="4.73058">
        <ele>280.20198</ele>
        <time>2022-09-18T12:38:02.000Z</time>
      </trkpt>
      <trkpt lat="45.83594" lon="4.73055">
        <ele>280.0659</ele>
        <time>2022-09-18T12:38:03.000Z</time>
      </trkpt>
      <trkpt lat="45.83598" lon="4.73051">
        <ele>279.77751</ele>
        <time>2022-09-18T12:38:04.000Z</time>
      </trkpt>
      <trkpt lat="45.83604" lon="4.73049">
        <ele>279.4302</ele>
        <time>2022-09-18T12:38:05.000Z</time>
      </trkpt>
      <trkpt lat="45.83607" lon="4.73049">
        <ele>279.19849</ele>
        <time>2022-09-18T12:38:06.000Z</time>
      </trkpt>
      <trkpt lat="45.83611" lon="4.73046">
        <ele>278.84956</ele>
        <time>2022-09-18T12:38:07.000Z</time>
      </trkpt>
      <trkpt lat="45.83615" lon="4.73045">
        <ele>278.51441</ele>
        <time>2022-09-18T12:38:08.000Z</time>
      </trkpt>
      <trkpt lat="45.83618" lon="4.73043">
        <ele>278.20545</ele>
        <time>2022-09-18T12:38:09.000Z</time>
      </trkpt>
      <trkpt lat="45.83621" lon="4.73041">
        <ele>277.95032</ele>
        <time>2022-09-18T12:38:10.000Z</time>
      </trkpt>
      <trkpt lat="45.83624" lon="4.73039">
        <ele>277.68829</ele>
        <time>2022-09-18T12:38:11.000Z</time>
      </trkpt>
      <trkpt lat="45.83626" lon="4.73038">
        <ele>277.47037</ele>
        <time>2022-09-18T12:38:12.000Z</time>
      </trkpt>
      <trkpt lat="45.83628" lon="4.73037">
        <ele>277.26876</ele>
        <time>2022-09-18T12:38:13.000Z</time>
      </trkpt>
      <trkpt lat="45.8363" lon="4.73036">
        <ele>277.07343</ele>
        <time>2022-09-18T12:38:14.000Z</time>
      </trkpt>
      <trkpt lat="45.83632" lon="4.73035">
        <ele>276.83417</ele>
        <time>2022-09-18T12:38:15.000Z</time>
      </trkpt>
      <trkpt lat="45.83635" lon="4.73034">
        <ele>276.58977</ele>
        <time>2022-09-18T12:38:16.000Z</time>
      </trkpt>
      <trkpt lat="45.83637" lon="4.73033">
        <ele>276.36484</ele>
        <time>2022-09-18T12:38:17.000Z</time>
      </trkpt>
      <trkpt lat="45.83639" lon="4.73032">
        <ele>276.10882</ele>
        <time>2022-09-18T12:38:18.000Z</time>
      </trkpt>
      <trkpt lat="45.83642" lon="4.73031">
        <ele>275.80278</ele>
        <time>2022-09-18T12:38:19.000Z</time>
      </trkpt>
      <trkpt lat="45.83645" lon="4.7303">
        <ele>275.42454</ele>
        <time>2022-09-18T12:38:20.000Z</time>
      </trkpt>
      <trkpt lat="45.83648" lon="4.7303">
        <ele>275.05334</ele>
        <time>2022-09-18T12:38:21.000Z</time>
      </trkpt>
      <trkpt lat="45.8365" lon="4.73029">
        <ele>274.70036</ele>
        <time>2022-09-18T12:38:22.000Z</time>
      </trkpt>
      <trkpt lat="45.83653" lon="4.73029">
        <ele>274.32858</ele>
        <time>2022-09-18T12:38:23.000Z</time>
      </trkpt>
      <trkpt lat="45.83655" lon="4.73029">
        <ele>274.01852</ele>
        <time>2022-09-18T12:38:24.000Z</time>
      </trkpt>
      <trkpt lat="45.83658" lon="4.73028">
        <ele>273.71314</ele>
        <time>2022-09-18T12:38:25.000Z</time>
      </trkpt>
      <trkpt lat="45.83661" lon="4.73028">
        <ele>273.30313</ele>
        <time>2022-09-18T12:38:26.000Z</time>
      </trkpt>
      <trkpt lat="45.83664" lon="4.73027">
        <ele>272.90632</ele>
        <time>2022-09-18T12:38:27.000Z</time>
      </trkpt>
      <trkpt lat="45.83667" lon="4.73027">
        <ele>272.45797</ele>
        <time>2022-09-18T12:38:28.000Z</time>
      </trkpt>
      <trkpt lat="45.8367" lon="4.73026">
        <ele>272.03312</ele>
        <time>2022-09-18T12:38:29.000Z</time>
      </trkpt>
      <trkpt lat="45.83673" lon="4.73026">
        <ele>271.59163</ele>
        <time>2022-09-18T12:38:30.000Z</time>
      </trkpt>
      <trkpt lat="45.83677" lon="4.73024">
        <ele>271.07736</ele>
        <time>2022-09-18T12:38:31.000Z</time>
      </trkpt>
      <trkpt lat="45.83681" lon="4.73023">
        <ele>270.5623</ele>
        <time>2022-09-18T12:38:32.000Z</time>
      </trkpt>
      <trkpt lat="45.83685" lon="4.73023">
        <ele>270.07159</ele>
        <time>2022-09-18T12:38:33.000Z</time>
      </trkpt>
      <trkpt lat="45.83688" lon="4.73023">
        <ele>269.62185</ele>
        <time>2022-09-18T12:38:34.000Z</time>
      </trkpt>
      <trkpt lat="45.83691" lon="4.73024">
        <ele>269.2236</ele>
        <time>2022-09-18T12:38:35.000Z</time>
      </trkpt>
      <trkpt lat="45.83694" lon="4.73023">
        <ele>268.85801</ele>
        <time>2022-09-18T12:38:36.000Z</time>
      </trkpt>
      <trkpt lat="45.83697" lon="4.73022">
        <ele>268.52509</ele>
        <time>2022-09-18T12:38:37.000Z</time>
      </trkpt>
      <trkpt lat="45.837" lon="4.73021">
        <ele>268.15587</ele>
        <time>2022-09-18T12:38:38.000Z</time>
      </trkpt>
      <trkpt lat="45.83704" lon="4.7302">
        <ele>267.71371</ele>
        <time>2022-09-18T12:38:39.000Z</time>
      </trkpt>
      <trkpt lat="45.83708" lon="4.73019">
        <ele>267.3291</ele>
        <time>2022-09-18T12:38:40.000Z</time>
      </trkpt>
      <trkpt lat="45.83712" lon="4.73019">
        <ele>266.97603</ele>
        <time>2022-09-18T12:38:41.000Z</time>
      </trkpt>
      <trkpt lat="45.83714" lon="4.73019">
        <ele>266.76298</ele>
        <time>2022-09-18T12:38:42.000Z</time>
      </trkpt>
      <trkpt lat="45.83717" lon="4.73018">
        <ele>266.50275</ele>
        <time>2022-09-18T12:38:46.000Z</time>
      </trkpt>
      <trkpt lat="45.83719" lon="4.73018">
        <ele>266.33085</ele>
        <time>2022-09-18T12:38:48.000Z</time>
      </trkpt>
      <trkpt lat="45.83721" lon="4.73018">
        <ele>266.1693</ele>
        <time>2022-09-18T12:38:56.000Z</time>
      </trkpt>
      <trkpt lat="45.83723" lon="4.7302">
        <ele>266.03018</ele>
        <time>2022-09-18T12:39:41.000Z</time>
      </trkpt>
      <trkpt lat="45.83727" lon="4.73027">
        <ele>265.92195</ele>
        <time>2022-09-18T12:39:42.000Z</time>
      </trkpt>
      <trkpt lat="45.83729" lon="4.73032">
        <ele>265.94497</ele>
        <time>2022-09-18T12:39:43.000Z</time>
      </trkpt>
      <trkpt lat="45.83731" lon="4.73037">
        <ele>266.02461</ele>
        <time>2022-09-18T12:39:44.000Z</time>
      </trkpt>
      <trkpt lat="45.83733" lon="4.73043">
        <ele>266.19172</ele>
        <time>2022-09-18T12:39:45.000Z</time>
      </trkpt>
      <trkpt lat="45.83734" lon="4.73049">
        <ele>266.43574</ele>
        <time>2022-09-18T12:39:46.000Z</time>
      </trkpt>
      <trkpt lat="45.83735" lon="4.73055">
        <ele>266.70261</ele>
        <time>2022-09-18T12:39:47.000Z</time>
      </trkpt>
      <trkpt lat="45.83734" lon="4.7306">
        <ele>266.96375</ele>
        <time>2022-09-18T12:39:48.000Z</time>
      </trkpt>
      <trkpt lat="45.83734" lon="4.73065">
        <ele>267.28753</ele>
        <time>2022-09-18T12:39:49.000Z</time>
      </trkpt>
      <trkpt lat="45.83734" lon="4.73069">
        <ele>267.65178</ele>
        <time>2022-09-18T12:39:50.000Z</time>
      </trkpt>
      <trkpt lat="45.83736" lon="4.73074">
        <ele>268.14664</ele>
        <time>2022-09-18T12:39:51.000Z</time>
      </trkpt>
      <trkpt lat="45.83738" lon="4.73078">
        <ele>268.75612</ele>
        <time>2022-09-18T12:39:52.000Z</time>
      </trkpt>
      <trkpt lat="45.8374" lon="4.73082">
        <ele>269.35065</ele>
        <time>2022-09-18T12:39:53.000Z</time>
      </trkpt>
      <trkpt lat="45.83742" lon="4.73085">
        <ele>269.94252</ele>
        <time>2022-09-18T12:39:54.000Z</time>
      </trkpt>
      <trkpt lat="45.83744" lon="4.73089">
        <ele>270.52783</ele>
        <time>2022-09-18T12:39:55.000Z</time>
      </trkpt>
      <trkpt lat="45.83746" lon="4.73091">
        <ele>271.03993</ele>
        <time>2022-09-18T12:39:56.000Z</time>
      </trkpt>
      <trkpt lat="45.83747" lon="4.73094">
        <ele>271.54787</ele>
        <time>2022-09-18T12:39:57.000Z</time>
      </trkpt>
      <trkpt lat="45.83749" lon="4.73096">
        <ele>272.05632</ele>
        <time>2022-09-18T12:39:58.000Z</time>
      </trkpt>
      <trkpt lat="45.83752" lon="4.73099">
        <ele>272.63572</ele>
        <time>2022-09-18T12:39:59.000Z</time>
      </trkpt>
      <trkpt lat="45.83754" lon="4.73102">
        <ele>273.12928</ele>
        <time>2022-09-18T12:40:00.000Z</time>
      </trkpt>
      <trkpt lat="45.83755" lon="4.73104">
        <ele>273.49741</ele>
        <time>2022-09-18T12:40:01.000Z</time>
      </trkpt>
      <trkpt lat="45.83757" lon="4.73106">
        <ele>273.90619</ele>
        <time>2022-09-18T12:40:02.000Z</time>
      </trkpt>
      <trkpt lat="45.8376" lon="4.73109">
        <ele>274.41185</ele>
        <time>2022-09-18T12:40:03.000Z</time>
      </trkpt>
      <trkpt lat="45.83762" lon="4.73113">
        <ele>274.98036</ele>
        <time>2022-09-18T12:40:04.000Z</time>
      </trkpt>
      <trkpt lat="45.83764" lon="4.73116">
        <ele>275.49758</ele>
        <time>2022-09-18T12:40:05.000Z</time>
      </trkpt>
      <trkpt lat="45.83766" lon="4.7312">
        <ele>276.02642</ele>
        <time>2022-09-18T12:40:06.000Z</time>
      </trkpt>
      <trkpt lat="45.83767" lon="4.73124">
        <ele>276.51926</ele>
        <time>2022-09-18T12:40:07.000Z</time>
      </trkpt>
      <trkpt lat="45.83769" lon="4.73128">
        <ele>276.99926</ele>
        <time>2022-09-18T12:40:08.000Z</time>
      </trkpt>
      <trkpt lat="45.8377" lon="4.73132">
        <ele>277.42693</ele>
        <time>2022-09-18T12:40:09.000Z</time>
      </trkpt>
      <trkpt lat="45.83771" lon="4.73137">
        <ele>277.84939</ele>
        <time>2022-09-18T12:40:10.000Z</time>
      </trkpt>
      <trkpt lat="45.83773" lon="4.73141">
        <ele>278.27308</ele>
        <time>2022-09-18T12:40:11.000Z</time>
      </trkpt>
      <trkpt lat="45.83774" lon="4.73146">
        <ele>278.6626</ele>
        <time>2022-09-18T12:40:12.000Z</time>
      </trkpt>
      <trkpt lat="45.83775" lon="4.7315">
        <ele>278.98871</ele>
        <time>2022-09-18T12:40:13.000Z</time>
      </trkpt>
      <trkpt lat="45.83776" lon="4.73154">
        <ele>279.28507</ele>
        <time>2022-09-18T12:40:14.000Z</time>
      </trkpt>
      <trkpt lat="45.83777" lon="4.73158">
        <ele>279.55437</ele>
        <time>2022-09-18T12:40:15.000Z</time>
      </trkpt>
      <trkpt lat="45.83777" lon="4.73162">
        <ele>279.7756</ele>
        <time>2022-09-18T12:40:16.000Z</time>
      </trkpt>
      <trkpt lat="45.83777" lon="4.73166">
        <ele>279.96564</ele>
        <time>2022-09-18T12:40:17.000Z</time>
      </trkpt>
      <trkpt lat="45.83775" lon="4.73171">
        <ele>280.12246</ele>
        <time>2022-09-18T12:40:18.000Z</time>
      </trkpt>
      <trkpt lat="45.83773" lon="4.73175">
        <ele>280.24496</ele>
        <time>2022-09-18T12:40:19.000Z</time>
      </trkpt>
      <trkpt lat="45.8377" lon="4.73178">
        <ele>280.35795</ele>
        <time>2022-09-18T12:40:20.000Z</time>
      </trkpt>
      <trkpt lat="45.83768" lon="4.73182">
        <ele>280.45933</ele>
        <time>2022-09-18T12:40:21.000Z</time>
      </trkpt>
      <trkpt lat="45.83766" lon="4.73186">
        <ele>280.54494</ele>
        <time>2022-09-18T12:40:22.000Z</time>
      </trkpt>
      <trkpt lat="45.83762" lon="4.7319">
        <ele>280.61079</ele>
        <time>2022-09-18T12:40:23.000Z</time>
      </trkpt>
      <trkpt lat="45.83759" lon="4.73194">
        <ele>280.65651</ele>
        <time>2022-09-18T12:40:24.000Z</time>
      </trkpt>
      <trkpt lat="45.83756" lon="4.73198">
        <ele>280.68111</ele>
        <time>2022-09-18T12:40:25.000Z</time>
      </trkpt>
      <trkpt lat="45.83753" lon="4.73202">
        <ele>280.6894</ele>
        <time>2022-09-18T12:40:26.000Z</time>
      </trkpt>
      <trkpt lat="45.8375" lon="4.73206">
        <ele>280.69841</ele>
        <time>2022-09-18T12:40:27.000Z</time>
      </trkpt>
      <trkpt lat="45.83747" lon="4.73209">
        <ele>280.71628</ele>
        <time>2022-09-18T12:40:28.000Z</time>
      </trkpt>
      <trkpt lat="45.83744" lon="4.73213">
        <ele>280.75442</ele>
        <time>2022-09-18T12:40:29.000Z</time>
      </trkpt>
      <trkpt lat="45.83742" lon="4.73216">
        <ele>280.80757</ele>
        <time>2022-09-18T12:40:30.000Z</time>
      </trkpt>
      <trkpt lat="45.83739" lon="4.73219">
        <ele>280.8757</ele>
        <time>2022-09-18T12:40:31.000Z</time>
      </trkpt>
      <trkpt lat="45.83737" lon="4.73222">
        <ele>280.95991</ele>
        <time>2022-09-18T12:40:32.000Z</time>
      </trkpt>
      <trkpt lat="45.83734" lon="4.73225">
        <ele>281.05267</ele>
        <time>2022-09-18T12:40:33.000Z</time>
      </trkpt>
      <trkpt lat="45.83732" lon="4.73228">
        <ele>281.15248</ele>
        <time>2022-09-18T12:40:34.000Z</time>
      </trkpt>
      <trkpt lat="45.83729" lon="4.73231">
        <ele>281.27708</ele>
        <time>2022-09-18T12:40:35.000Z</time>
      </trkpt>
      <trkpt lat="45.83726" lon="4.73235">
        <ele>281.42703</ele>
        <time>2022-09-18T12:40:36.000Z</time>
      </trkpt>
      <trkpt lat="45.83723" lon="4.73239">
        <ele>281.60388</ele>
        <time>2022-09-18T12:40:37.000Z</time>
      </trkpt>
      <trkpt lat="45.8372" lon="4.73243">
        <ele>281.80762</ele>
        <time>2022-09-18T12:40:38.000Z</time>
      </trkpt>
      <trkpt lat="45.83717" lon="4.73246">
        <ele>281.99808</ele>
        <time>2022-09-18T12:40:39.000Z</time>
      </trkpt>
      <trkpt lat="45.83714" lon="4.7325">
        <ele>282.18383</ele>
        <time>2022-09-18T12:40:40.000Z</time>
      </trkpt>
      <trkpt lat="45.8371" lon="4.73254">
        <ele>282.38228</ele>
        <time>2022-09-18T12:40:41.000Z</time>
      </trkpt>
      <trkpt lat="45.83707" lon="4.73258">
        <ele>282.5857</ele>
        <time>2022-09-18T12:40:42.000Z</time>
      </trkpt>
      <trkpt lat="45.83703" lon="4.73261">
        <ele>282.77514</ele>
        <time>2022-09-18T12:40:43.000Z</time>
      </trkpt>
      <trkpt lat="45.837" lon="4.73266">
        <ele>283.00503</ele>
        <time>2022-09-18T12:40:44.000Z</time>
      </trkpt>
      <trkpt lat="45.83696" lon="4.7327">
        <ele>283.22922</ele>
        <time>2022-09-18T12:40:45.000Z</time>
      </trkpt>
      <trkpt lat="45.83693" lon="4.73275">
        <ele>283.44736</ele>
        <time>2022-09-18T12:40:46.000Z</time>
      </trkpt>
      <trkpt lat="45.8369" lon="4.7328">
        <ele>283.66473</ele>
        <time>2022-09-18T12:40:47.000Z</time>
      </trkpt>
      <trkpt lat="45.83686" lon="4.73284">
        <ele>283.87559</ele>
        <time>2022-09-18T12:40:48.000Z</time>
      </trkpt>
      <trkpt lat="45.83683" lon="4.7329">
        <ele>284.11039</ele>
        <time>2022-09-18T12:40:49.000Z</time>
      </trkpt>
      <trkpt lat="45.8368" lon="4.73295">
        <ele>284.31089</ele>
        <time>2022-09-18T12:40:50.000Z</time>
      </trkpt>
      <trkpt lat="45.83677" lon="4.73301">
        <ele>284.47503</ele>
        <time>2022-09-18T12:40:51.000Z</time>
      </trkpt>
      <trkpt lat="45.83674" lon="4.73308">
        <ele>284.63705</ele>
        <time>2022-09-18T12:40:52.000Z</time>
      </trkpt>
      <trkpt lat="45.83667" lon="4.73318">
        <ele>285.03862</ele>
        <time>2022-09-18T12:40:53.000Z</time>
      </trkpt>
      <trkpt lat="45.83665" lon="4.73321">
        <ele>285.22926</ele>
        <time>2022-09-18T12:40:54.000Z</time>
      </trkpt>
      <trkpt lat="45.83663" lon="4.73328">
        <ele>285.31694</ele>
        <time>2022-09-18T12:40:55.000Z</time>
      </trkpt>
      <trkpt lat="45.83662" lon="4.73333">
        <ele>285.37222</ele>
        <time>2022-09-18T12:40:56.000Z</time>
      </trkpt>
      <trkpt lat="45.8366" lon="4.73339">
        <ele>285.42468</ele>
        <time>2022-09-18T12:40:57.000Z</time>
      </trkpt>
      <trkpt lat="45.83658" lon="4.73343">
        <ele>285.47777</ele>
        <time>2022-09-18T12:40:58.000Z</time>
      </trkpt>
      <trkpt lat="45.83656" lon="4.73348">
        <ele>285.56197</ele>
        <time>2022-09-18T12:40:59.000Z</time>
      </trkpt>
      <trkpt lat="45.83656" lon="4.73355">
        <ele>285.50641</ele>
        <time>2022-09-18T12:41:00.000Z</time>
      </trkpt>
      <trkpt lat="45.83655" lon="4.73362">
        <ele>285.54321</ele>
        <time>2022-09-18T12:41:01.000Z</time>
      </trkpt>
      <trkpt lat="45.83655" lon="4.7337">
        <ele>285.54812</ele>
        <time>2022-09-18T12:41:02.000Z</time>
      </trkpt>
      <trkpt lat="45.83656" lon="4.73375">
        <ele>285.48784</ele>
        <time>2022-09-18T12:41:03.000Z</time>
      </trkpt>
      <trkpt lat="45.83656" lon="4.73382">
        <ele>285.48734</ele>
        <time>2022-09-18T12:41:04.000Z</time>
      </trkpt>
      <trkpt lat="45.83656" lon="4.73388">
        <ele>285.53444</ele>
        <time>2022-09-18T12:41:05.000Z</time>
      </trkpt>
      <trkpt lat="45.83658" lon="4.73394">
        <ele>285.55382</ele>
        <time>2022-09-18T12:41:06.000Z</time>
      </trkpt>
      <trkpt lat="45.83658" lon="4.73401">
        <ele>285.66905</ele>
        <time>2022-09-18T12:41:07.000Z</time>
      </trkpt>
      <trkpt lat="45.8366" lon="4.73408">
        <ele>285.75129</ele>
        <time>2022-09-18T12:41:08.000Z</time>
      </trkpt>
      <trkpt lat="45.83662" lon="4.73417">
        <ele>285.93542</ele>
        <time>2022-09-18T12:41:09.000Z</time>
      </trkpt>
      <trkpt lat="45.83664" lon="4.73426">
        <ele>286.20711</ele>
        <time>2022-09-18T12:41:10.000Z</time>
      </trkpt>
      <trkpt lat="45.83665" lon="4.73436">
        <ele>286.54555</ele>
        <time>2022-09-18T12:41:11.000Z</time>
      </trkpt>
      <trkpt lat="45.83666" lon="4.73446">
        <ele>286.90546</ele>
        <time>2022-09-18T12:41:12.000Z</time>
      </trkpt>
      <trkpt lat="45.83666" lon="4.73457">
        <ele>287.44607</ele>
        <time>2022-09-18T12:41:13.000Z</time>
      </trkpt>
      <trkpt lat="45.83667" lon="4.73466">
        <ele>287.88742</ele>
        <time>2022-09-18T12:41:14.000Z</time>
      </trkpt>
      <trkpt lat="45.8367" lon="4.73472">
        <ele>288.17322</ele>
        <time>2022-09-18T12:41:15.000Z</time>
      </trkpt>
      <trkpt lat="45.83673" lon="4.7348">
        <ele>288.46454</ele>
        <time>2022-09-18T12:41:16.000Z</time>
      </trkpt>
      <trkpt lat="45.83676" lon="4.73485">
        <ele>288.62303</ele>
        <time>2022-09-18T12:41:17.000Z</time>
      </trkpt>
      <trkpt lat="45.83679" lon="4.73491">
        <ele>288.7817</ele>
        <time>2022-09-18T12:41:18.000Z</time>
      </trkpt>
      <trkpt lat="45.83682" lon="4.73497">
        <ele>288.86191</ele>
        <time>2022-09-18T12:41:19.000Z</time>
      </trkpt>
      <trkpt lat="45.83686" lon="4.73503">
        <ele>288.85745</ele>
        <time>2022-09-18T12:41:20.000Z</time>
      </trkpt>
      <trkpt lat="45.83688" lon="4.7351">
        <ele>288.94011</ele>
        <time>2022-09-18T12:41:21.000Z</time>
      </trkpt>
      <trkpt lat="45.8369" lon="4.73517">
        <ele>289.00529</ele>
        <time>2022-09-18T12:41:22.000Z</time>
      </trkpt>
      <trkpt lat="45.83692" lon="4.73524">
        <ele>289.08799</ele>
        <time>2022-09-18T12:41:23.000Z</time>
      </trkpt>
      <trkpt lat="45.83694" lon="4.73531">
        <ele>289.19396</ele>
        <time>2022-09-18T12:41:24.000Z</time>
      </trkpt>
      <trkpt lat="45.83695" lon="4.73538">
        <ele>289.32609</ele>
        <time>2022-09-18T12:41:25.000Z</time>
      </trkpt>
      <trkpt lat="45.83698" lon="4.73544">
        <ele>289.32599</ele>
        <time>2022-09-18T12:41:26.000Z</time>
      </trkpt>
      <trkpt lat="45.83699" lon="4.73551">
        <ele>289.35052</ele>
        <time>2022-09-18T12:41:27.000Z</time>
      </trkpt>
      <trkpt lat="45.83699" lon="4.73554">
        <ele>289.37281</ele>
        <time>2022-09-18T12:41:28.000Z</time>
      </trkpt>
      <trkpt lat="45.83702" lon="4.73563">
        <ele>289.22153</ele>
        <time>2022-09-18T12:41:29.000Z</time>
      </trkpt>
      <trkpt lat="45.83705" lon="4.73568">
        <ele>289.06169</ele>
        <time>2022-09-18T12:41:30.000Z</time>
      </trkpt>
      <trkpt lat="45.83708" lon="4.73575">
        <ele>288.93031</ele>
        <time>2022-09-18T12:41:31.000Z</time>
      </trkpt>
      <trkpt lat="45.83711" lon="4.73581">
        <ele>288.73496</ele>
        <time>2022-09-18T12:41:32.000Z</time>
      </trkpt>
      <trkpt lat="45.83714" lon="4.73584">
        <ele>288.58807</ele>
        <time>2022-09-18T12:41:33.000Z</time>
      </trkpt>
      <trkpt lat="45.83716" lon="4.73579">
        <ele>288.4136</ele>
        <time>2022-09-18T12:41:34.000Z</time>
      </trkpt>
      <trkpt lat="45.83718" lon="4.7358">
        <ele>288.2637</ele>
        <time>2022-09-18T12:41:35.000Z</time>
      </trkpt>
      <trkpt lat="45.83722" lon="4.73577">
        <ele>287.97816</ele>
        <time>2022-09-18T12:41:36.000Z</time>
      </trkpt>
      <trkpt lat="45.83725" lon="4.73576">
        <ele>287.75027</ele>
        <time>2022-09-18T12:41:37.000Z</time>
      </trkpt>
      <trkpt lat="45.83727" lon="4.73574">
        <ele>287.57913</ele>
        <time>2022-09-18T12:41:38.000Z</time>
      </trkpt>
      <trkpt lat="45.8373" lon="4.73573">
        <ele>287.36799</ele>
        <time>2022-09-18T12:41:39.000Z</time>
      </trkpt>
      <trkpt lat="45.83733" lon="4.73573">
        <ele>287.22075</ele>
        <time>2022-09-18T12:41:40.000Z</time>
      </trkpt>
      <trkpt lat="45.83737" lon="4.73572">
        <ele>286.97006</ele>
        <time>2022-09-18T12:41:41.000Z</time>
      </trkpt>
      <trkpt lat="45.8374" lon="4.73574">
        <ele>286.80282</ele>
        <time>2022-09-18T12:41:42.000Z</time>
      </trkpt>
      <trkpt lat="45.83742" lon="4.73576">
        <ele>286.66622</ele>
        <time>2022-09-18T12:41:43.000Z</time>
      </trkpt>
      <trkpt lat="45.83745" lon="4.73579">
        <ele>286.49833</ele>
        <time>2022-09-18T12:41:44.000Z</time>
      </trkpt>
      <trkpt lat="45.83747" lon="4.73582">
        <ele>286.37291</ele>
        <time>2022-09-18T12:41:45.000Z</time>
      </trkpt>
      <trkpt lat="45.83749" lon="4.73584">
        <ele>286.23111</ele>
        <time>2022-09-18T12:41:46.000Z</time>
      </trkpt>
      <trkpt lat="45.83752" lon="4.73586">
        <ele>286.0376</ele>
        <time>2022-09-18T12:41:47.000Z</time>
      </trkpt>
      <trkpt lat="45.83756" lon="4.73587">
        <ele>285.79644</ele>
        <time>2022-09-18T12:41:48.000Z</time>
      </trkpt>
      <trkpt lat="45.8376" lon="4.73586">
        <ele>285.53527</ele>
        <time>2022-09-18T12:41:49.000Z</time>
      </trkpt>
      <trkpt lat="45.83764" lon="4.73585">
        <ele>285.29683</ele>
        <time>2022-09-18T12:41:50.000Z</time>
      </trkpt>
      <trkpt lat="45.83768" lon="4.73583">
        <ele>285.09371</ele>
        <time>2022-09-18T12:41:51.000Z</time>
      </trkpt>
      <trkpt lat="45.83772" lon="4.7358">
        <ele>284.85925</ele>
        <time>2022-09-18T12:41:52.000Z</time>
      </trkpt>
      <trkpt lat="45.83775" lon="4.73578">
        <ele>284.66769</ele>
        <time>2022-09-18T12:41:53.000Z</time>
      </trkpt>
      <trkpt lat="45.83777" lon="4.73576">
        <ele>284.5658</ele>
        <time>2022-09-18T12:41:54.000Z</time>
      </trkpt>
      <trkpt lat="45.8378" lon="4.73575">
        <ele>284.36626</ele>
        <time>2022-09-18T12:41:56.000Z</time>
      </trkpt>
      <trkpt lat="45.83782" lon="4.73575">
        <ele>284.24753</ele>
        <time>2022-09-18T12:41:57.000Z</time>
      </trkpt>
      <trkpt lat="45.83784" lon="4.73575">
        <ele>284.15091</ele>
        <time>2022-09-18T12:41:58.000Z</time>
      </trkpt>
      <trkpt lat="45.83787" lon="4.73574">
        <ele>284.02318</ele>
        <time>2022-09-18T12:42:00.000Z</time>
      </trkpt>
      <trkpt lat="45.8379" lon="4.73574">
        <ele>283.89117</ele>
        <time>2022-09-18T12:42:02.000Z</time>
      </trkpt>
      <trkpt lat="45.83792" lon="4.73574">
        <ele>283.80094</ele>
        <time>2022-09-18T12:42:03.000Z</time>
      </trkpt>
      <trkpt lat="45.83794" lon="4.73574">
        <ele>283.72934</ele>
        <time>2022-09-18T12:42:04.000Z</time>
      </trkpt>
      <trkpt lat="45.83796" lon="4.73574">
        <ele>283.65606</ele>
        <time>2022-09-18T12:42:06.000Z</time>
      </trkpt>
      <trkpt lat="45.83798" lon="4.73573">
        <ele>283.57052</ele>
        <time>2022-09-18T12:42:10.000Z</time>
      </trkpt>
      <trkpt lat="45.83799" lon="4.73572">
        <ele>283.47718</ele>
        <time>2022-09-18T12:42:13.000Z</time>
      </trkpt>
      <trkpt lat="45.83801" lon="4.7357">
        <ele>283.38593</ele>
        <time>2022-09-18T12:42:15.000Z</time>
      </trkpt>
      <trkpt lat="45.83801" lon="4.7357">
        <ele>283.38593</ele>
        <time>2022-09-18T12:42:15.000Z</time>
      </trkpt>
      <trkpt lat="45.83803" lon="4.73569">
        <ele>283.27438</ele>
        <time>2022-09-18T12:42:16.000Z</time>
      </trkpt>
      <trkpt lat="45.83805" lon="4.73569">
        <ele>283.17427</ele>
        <time>2022-09-18T12:42:18.000Z</time>
      </trkpt>
      <trkpt lat="45.83805" lon="4.73572">
        <ele>283.2482</ele>
        <time>2022-09-18T12:42:24.000Z</time>
      </trkpt>
      <trkpt lat="45.83807" lon="4.73571">
        <ele>283.1538</ele>
        <time>2022-09-18T12:42:46.000Z</time>
      </trkpt>
      <trkpt lat="45.83809" lon="4.73571">
        <ele>283.05167</ele>
        <time>2022-09-18T12:42:47.000Z</time>
      </trkpt>
      <trkpt lat="45.83812" lon="4.73572">
        <ele>282.91655</ele>
        <time>2022-09-18T12:42:48.000Z</time>
      </trkpt>
      <trkpt lat="45.83816" lon="4.73572">
        <ele>282.76985</ele>
        <time>2022-09-18T12:42:49.000Z</time>
      </trkpt>
      <trkpt lat="45.8382" lon="4.73571">
        <ele>282.61463</ele>
        <time>2022-09-18T12:42:50.000Z</time>
      </trkpt>
      <trkpt lat="45.83824" lon="4.73571">
        <ele>282.44477</ele>
        <time>2022-09-18T12:42:51.000Z</time>
      </trkpt>
      <trkpt lat="45.83828" lon="4.73569">
        <ele>282.23553</ele>
        <time>2022-09-18T12:42:52.000Z</time>
      </trkpt>
      <trkpt lat="45.83832" lon="4.73566">
        <ele>281.97956</ele>
        <time>2022-09-18T12:42:53.000Z</time>
      </trkpt>
      <trkpt lat="45.83836" lon="4.73561">
        <ele>281.67298</ele>
        <time>2022-09-18T12:42:54.000Z</time>
      </trkpt>
      <trkpt lat="45.83839" lon="4.73556">
        <ele>281.39908</ele>
        <time>2022-09-18T12:42:55.000Z</time>
      </trkpt>
      <trkpt lat="45.83843" lon="4.7355">
        <ele>281.17715</ele>
        <time>2022-09-18T12:42:56.000Z</time>
      </trkpt>
      <trkpt lat="45.83846" lon="4.73544">
        <ele>280.96361</ele>
        <time>2022-09-18T12:42:57.000Z</time>
      </trkpt>
      <trkpt lat="45.83851" lon="4.73536">
        <ele>280.68904</ele>
        <time>2022-09-18T12:42:58.000Z</time>
      </trkpt>
      <trkpt lat="45.83855" lon="4.73532">
        <ele>280.5413</ele>
        <time>2022-09-18T12:42:59.000Z</time>
      </trkpt>
      <trkpt lat="45.8386" lon="4.73527">
        <ele>280.39857</ele>
        <time>2022-09-18T12:43:00.000Z</time>
      </trkpt>
      <trkpt lat="45.83864" lon="4.73522">
        <ele>280.26889</ele>
        <time>2022-09-18T12:43:01.000Z</time>
      </trkpt>
      <trkpt lat="45.83869" lon="4.73515">
        <ele>280.07554</ele>
        <time>2022-09-18T12:43:02.000Z</time>
      </trkpt>
      <trkpt lat="45.83873" lon="4.73511">
        <ele>279.85084</ele>
        <time>2022-09-18T12:43:03.000Z</time>
      </trkpt>
      <trkpt lat="45.83877" lon="4.73508">
        <ele>279.63546</ele>
        <time>2022-09-18T12:43:04.000Z</time>
      </trkpt>
      <trkpt lat="45.8388" lon="4.73505">
        <ele>279.42083</ele>
        <time>2022-09-18T12:43:05.000Z</time>
      </trkpt>
      <trkpt lat="45.83883" lon="4.73503">
        <ele>279.22</ele>
        <time>2022-09-18T12:43:06.000Z</time>
      </trkpt>
      <trkpt lat="45.83887" lon="4.73501">
        <ele>278.95834</ele>
        <time>2022-09-18T12:43:07.000Z</time>
      </trkpt>
      <trkpt lat="45.83886" lon="4.73504">
        <ele>279.08633</ele>
        <time>2022-09-18T12:43:08.000Z</time>
      </trkpt>
      <trkpt lat="45.83891" lon="4.73507">
        <ele>278.87847</ele>
        <time>2022-09-18T12:43:10.000Z</time>
      </trkpt>
      <trkpt lat="45.83894" lon="4.7351">
        <ele>278.70188</ele>
        <time>2022-09-18T12:43:12.000Z</time>
      </trkpt>
      <trkpt lat="45.83896" lon="4.73511">
        <ele>278.60915</ele>
        <time>2022-09-18T12:43:13.000Z</time>
      </trkpt>
      <trkpt lat="45.83897" lon="4.73513">
        <ele>278.54022</ele>
        <time>2022-09-18T12:43:14.000Z</time>
      </trkpt>
      <trkpt lat="45.83899" lon="4.73515">
        <ele>278.48792</ele>
        <time>2022-09-18T12:43:15.000Z</time>
      </trkpt>
      <trkpt lat="45.83901" lon="4.73517">
        <ele>278.4784</ele>
        <time>2022-09-18T12:43:16.000Z</time>
      </trkpt>
      <trkpt lat="45.83903" lon="4.73519">
        <ele>278.50609</ele>
        <time>2022-09-18T12:43:17.000Z</time>
      </trkpt>
      <trkpt lat="45.83906" lon="4.7352">
        <ele>278.59759</ele>
        <time>2022-09-18T12:43:19.000Z</time>
      </trkpt>
      <trkpt lat="45.8391" lon="4.7352">
        <ele>278.67503</ele>
        <time>2022-09-18T12:43:21.000Z</time>
      </trkpt>
      <trkpt lat="45.83911" lon="4.73518">
        <ele>278.70354</ele>
        <time>2022-09-18T12:43:22.000Z</time>
      </trkpt>
      <trkpt lat="45.83914" lon="4.73515">
        <ele>278.72805</ele>
        <time>2022-09-18T12:43:24.000Z</time>
      </trkpt>
      <trkpt lat="45.83916" lon="4.73513">
        <ele>278.71459</ele>
        <time>2022-09-18T12:43:25.000Z</time>
      </trkpt>
      <trkpt lat="45.83918" lon="4.73512">
        <ele>278.7107</ele>
        <time>2022-09-18T12:43:26.000Z</time>
      </trkpt>
      <trkpt lat="45.8392" lon="4.73511">
        <ele>278.72402</ele>
        <time>2022-09-18T12:43:27.000Z</time>
      </trkpt>
      <trkpt lat="45.83921" lon="4.73512">
        <ele>278.76291</ele>
        <time>2022-09-18T12:43:28.000Z</time>
      </trkpt>
      <trkpt lat="45.83923" lon="4.73513">
        <ele>278.81082</ele>
        <time>2022-09-18T12:43:29.000Z</time>
      </trkpt>
      <trkpt lat="45.83926" lon="4.73515">
        <ele>278.8418</ele>
        <time>2022-09-18T12:43:30.000Z</time>
      </trkpt>
      <trkpt lat="45.83929" lon="4.73515">
        <ele>278.82097</ele>
        <time>2022-09-18T12:43:31.000Z</time>
      </trkpt>
      <trkpt lat="45.83931" lon="4.73515">
        <ele>278.75194</ele>
        <time>2022-09-18T12:43:32.000Z</time>
      </trkpt>
      <trkpt lat="45.83934" lon="4.73513">
        <ele>278.63899</ele>
        <time>2022-09-18T12:43:33.000Z</time>
      </trkpt>
      <trkpt lat="45.83937" lon="4.73511">
        <ele>278.5232</ele>
        <time>2022-09-18T12:43:34.000Z</time>
      </trkpt>
      <trkpt lat="45.8394" lon="4.73509">
        <ele>278.42952</ele>
        <time>2022-09-18T12:43:35.000Z</time>
      </trkpt>
      <trkpt lat="45.83943" lon="4.73506">
        <ele>278.35458</ele>
        <time>2022-09-18T12:43:36.000Z</time>
      </trkpt>
      <trkpt lat="45.83946" lon="4.73503">
        <ele>278.28362</ele>
        <time>2022-09-18T12:43:37.000Z</time>
      </trkpt>
      <trkpt lat="45.83949" lon="4.73499">
        <ele>278.19613</ele>
        <time>2022-09-18T12:43:38.000Z</time>
      </trkpt>
      <trkpt lat="45.83952" lon="4.73495">
        <ele>278.0824</ele>
        <time>2022-09-18T12:43:39.000Z</time>
      </trkpt>
      <trkpt lat="45.83955" lon="4.73491">
        <ele>277.9316</ele>
        <time>2022-09-18T12:43:40.000Z</time>
      </trkpt>
      <trkpt lat="45.83959" lon="4.73487">
        <ele>277.75756</ele>
        <time>2022-09-18T12:43:41.000Z</time>
      </trkpt>
      <trkpt lat="45.83962" lon="4.73483">
        <ele>277.59763</ele>
        <time>2022-09-18T12:43:42.000Z</time>
      </trkpt>
      <trkpt lat="45.83965" lon="4.7348">
        <ele>277.43628</ele>
        <time>2022-09-18T12:43:43.000Z</time>
      </trkpt>
      <trkpt lat="45.83968" lon="4.73475">
        <ele>277.28968</ele>
        <time>2022-09-18T12:43:44.000Z</time>
      </trkpt>
      <trkpt lat="45.83971" lon="4.73472">
        <ele>277.1396</ele>
        <time>2022-09-18T12:43:45.000Z</time>
      </trkpt>
      <trkpt lat="45.83975" lon="4.73471">
        <ele>276.95233</ele>
        <time>2022-09-18T12:43:46.000Z</time>
      </trkpt>
      <trkpt lat="45.83978" lon="4.73473">
        <ele>276.713</ele>
        <time>2022-09-18T12:43:47.000Z</time>
      </trkpt>
      <trkpt lat="45.83982" lon="4.73479">
        <ele>276.4571</ele>
        <time>2022-09-18T12:43:48.000Z</time>
      </trkpt>
      <trkpt lat="45.83983" lon="4.73492">
        <ele>276.29514</ele>
        <time>2022-09-18T12:43:49.000Z</time>
      </trkpt>
      <trkpt lat="45.83985" lon="4.73497">
        <ele>276.14149</ele>
        <time>2022-09-18T12:43:50.000Z</time>
      </trkpt>
      <trkpt lat="45.83987" lon="4.73502">
        <ele>275.98139</ele>
        <time>2022-09-18T12:43:51.000Z</time>
      </trkpt>
      <trkpt lat="45.83989" lon="4.73508">
        <ele>275.79916</ele>
        <time>2022-09-18T12:43:52.000Z</time>
      </trkpt>
      <trkpt lat="45.83992" lon="4.73515">
        <ele>275.50289</ele>
        <time>2022-09-18T12:43:53.000Z</time>
      </trkpt>
      <trkpt lat="45.83996" lon="4.73522">
        <ele>275.11532</ele>
        <time>2022-09-18T12:43:54.000Z</time>
      </trkpt>
      <trkpt lat="45.84" lon="4.73529">
        <ele>274.64791</ele>
        <time>2022-09-18T12:43:55.000Z</time>
      </trkpt>
      <trkpt lat="45.84003" lon="4.73535">
        <ele>274.20636</ele>
        <time>2022-09-18T12:43:56.000Z</time>
      </trkpt>
      <trkpt lat="45.84006" lon="4.73543">
        <ele>273.78361</ele>
        <time>2022-09-18T12:43:57.000Z</time>
      </trkpt>
      <trkpt lat="45.84006" lon="4.73552">
        <ele>273.48727</ele>
        <time>2022-09-18T12:43:58.000Z</time>
      </trkpt>
      <trkpt lat="45.84007" lon="4.73562">
        <ele>273.19396</ele>
        <time>2022-09-18T12:43:59.000Z</time>
      </trkpt>
      <trkpt lat="45.84008" lon="4.73569">
        <ele>273.02503</ele>
        <time>2022-09-18T12:44:00.000Z</time>
      </trkpt>
      <trkpt lat="45.84011" lon="4.73575">
        <ele>272.80105</ele>
        <time>2022-09-18T12:44:01.000Z</time>
      </trkpt>
      <trkpt lat="45.84012" lon="4.73582">
        <ele>272.59236</ele>
        <time>2022-09-18T12:44:02.000Z</time>
      </trkpt>
      <trkpt lat="45.84012" lon="4.73589">
        <ele>272.33867</ele>
        <time>2022-09-18T12:44:03.000Z</time>
      </trkpt>
      <trkpt lat="45.8401" lon="4.73597">
        <ele>272.03489</ele>
        <time>2022-09-18T12:44:04.000Z</time>
      </trkpt>
      <trkpt lat="45.84007" lon="4.73604">
        <ele>271.48258</ele>
        <time>2022-09-18T12:44:05.000Z</time>
      </trkpt>
      <trkpt lat="45.84003" lon="4.73612">
        <ele>270.71997</ele>
        <time>2022-09-18T12:44:06.000Z</time>
      </trkpt>
      <trkpt lat="45.83998" lon="4.73618">
        <ele>270.02519</ele>
        <time>2022-09-18T12:44:07.000Z</time>
      </trkpt>
      <trkpt lat="45.83993" lon="4.73623">
        <ele>269.61309</ele>
        <time>2022-09-18T12:44:08.000Z</time>
      </trkpt>
      <trkpt lat="45.83988" lon="4.73628">
        <ele>269.66881</ele>
        <time>2022-09-18T12:44:09.000Z</time>
      </trkpt>
      <trkpt lat="45.83984" lon="4.73632">
        <ele>269.86962</ele>
        <time>2022-09-18T12:44:10.000Z</time>
      </trkpt>
      <trkpt lat="45.83979" lon="4.73635">
        <ele>270.03158</ele>
        <time>2022-09-18T12:44:11.000Z</time>
      </trkpt>
      <trkpt lat="45.83975" lon="4.73639">
        <ele>269.85961</ele>
        <time>2022-09-18T12:44:12.000Z</time>
      </trkpt>
      <trkpt lat="45.83972" lon="4.73641">
        <ele>269.59534</ele>
        <time>2022-09-18T12:44:13.000Z</time>
      </trkpt>
      <trkpt lat="45.83969" lon="4.73644">
        <ele>269.24738</ele>
        <time>2022-09-18T12:44:14.000Z</time>
      </trkpt>
      <trkpt lat="45.83967" lon="4.73647">
        <ele>268.98242</ele>
        <time>2022-09-18T12:44:15.000Z</time>
      </trkpt>
      <trkpt lat="45.83964" lon="4.73651">
        <ele>268.74603</ele>
        <time>2022-09-18T12:44:16.000Z</time>
      </trkpt>
      <trkpt lat="45.83962" lon="4.73654">
        <ele>268.79916</ele>
        <time>2022-09-18T12:44:17.000Z</time>
      </trkpt>
      <trkpt lat="45.83959" lon="4.73657">
        <ele>269.06436</ele>
        <time>2022-09-18T12:44:18.000Z</time>
      </trkpt>
      <trkpt lat="45.8396" lon="4.73659">
        <ele>268.6939</ele>
        <time>2022-09-18T12:44:20.000Z</time>
      </trkpt>
      <trkpt lat="45.83963" lon="4.73662">
        <ele>268.04753</ele>
        <time>2022-09-18T12:44:21.000Z</time>
      </trkpt>
      <trkpt lat="45.83965" lon="4.73662">
        <ele>267.80417</ele>
        <time>2022-09-18T12:44:22.000Z</time>
      </trkpt>
      <trkpt lat="45.83967" lon="4.73662">
        <ele>267.66756</ele>
        <time>2022-09-18T12:44:23.000Z</time>
      </trkpt>
      <trkpt lat="45.83969" lon="4.73662">
        <ele>267.61119</ele>
        <time>2022-09-18T12:44:24.000Z</time>
      </trkpt>
      <trkpt lat="45.83972" lon="4.73663">
        <ele>267.70958</ele>
        <time>2022-09-18T12:44:25.000Z</time>
      </trkpt>
      <trkpt lat="45.83975" lon="4.73664">
        <ele>267.90037</ele>
        <time>2022-09-18T12:44:26.000Z</time>
      </trkpt>
      <trkpt lat="45.83977" lon="4.73666">
        <ele>268.01884</ele>
        <time>2022-09-18T12:44:27.000Z</time>
      </trkpt>
      <trkpt lat="45.83977" lon="4.73669">
        <ele>267.92674</ele>
        <time>2022-09-18T12:44:28.000Z</time>
      </trkpt>
      <trkpt lat="45.83976" lon="4.73673">
        <ele>267.69561</ele>
        <time>2022-09-18T12:44:29.000Z</time>
      </trkpt>
      <trkpt lat="45.83974" lon="4.73676">
        <ele>267.49651</ele>
        <time>2022-09-18T12:44:30.000Z</time>
      </trkpt>
      <trkpt lat="45.83972" lon="4.73678">
        <ele>267.37563</ele>
        <time>2022-09-18T12:44:31.000Z</time>
      </trkpt>
      <trkpt lat="45.83975" lon="4.73681">
        <ele>267.46999</ele>
        <time>2022-09-18T12:44:33.000Z</time>
      </trkpt>
      <trkpt lat="45.83977" lon="4.7368">
        <ele>267.6963</ele>
        <time>2022-09-18T12:44:34.000Z</time>
      </trkpt>
      <trkpt lat="45.8398" lon="4.73677">
        <ele>267.98223</ele>
        <time>2022-09-18T12:44:35.000Z</time>
      </trkpt>
      <trkpt lat="45.83982" lon="4.73675">
        <ele>268.27736</ele>
        <time>2022-09-18T12:44:36.000Z</time>
      </trkpt>
      <trkpt lat="45.83985" lon="4.73674">
        <ele>268.54058</ele>
        <time>2022-09-18T12:44:37.000Z</time>
      </trkpt>
      <trkpt lat="45.83987" lon="4.73672">
        <ele>268.73233</ele>
        <time>2022-09-18T12:44:38.000Z</time>
      </trkpt>
      <trkpt lat="45.8399" lon="4.73671">
        <ele>268.83671</ele>
        <time>2022-09-18T12:44:39.000Z</time>
      </trkpt>
      <trkpt lat="45.83993" lon="4.7367">
        <ele>268.90236</ele>
        <time>2022-09-18T12:44:40.000Z</time>
      </trkpt>
      <trkpt lat="45.83995" lon="4.73669">
        <ele>268.93941</ele>
        <time>2022-09-18T12:44:41.000Z</time>
      </trkpt>
      <trkpt lat="45.83997" lon="4.73668">
        <ele>268.98506</ele>
        <time>2022-09-18T12:44:42.000Z</time>
      </trkpt>
      <trkpt lat="45.83999" lon="4.73666">
        <ele>269.04963</ele>
        <time>2022-09-18T12:44:43.000Z</time>
      </trkpt>
      <trkpt lat="45.84002" lon="4.73665">
        <ele>269.07604</ele>
        <time>2022-09-18T12:44:44.000Z</time>
      </trkpt>
      <trkpt lat="45.84004" lon="4.73665">
        <ele>269.03152</ele>
        <time>2022-09-18T12:44:45.000Z</time>
      </trkpt>
      <trkpt lat="45.84007" lon="4.73665">
        <ele>268.88289</ele>
        <time>2022-09-18T12:44:46.000Z</time>
      </trkpt>
      <trkpt lat="45.84009" lon="4.73665">
        <ele>268.68685</ele>
        <time>2022-09-18T12:44:47.000Z</time>
      </trkpt>
      <trkpt lat="45.84012" lon="4.73666">
        <ele>268.47865</ele>
        <time>2022-09-18T12:44:48.000Z</time>
      </trkpt>
      <trkpt lat="45.84014" lon="4.73666">
        <ele>268.23548</ele>
        <time>2022-09-18T12:44:49.000Z</time>
      </trkpt>
      <trkpt lat="45.84016" lon="4.73666">
        <ele>267.91433</ele>
        <time>2022-09-18T12:44:50.000Z</time>
      </trkpt>
      <trkpt lat="45.84019" lon="4.73666">
        <ele>267.55745</ele>
        <time>2022-09-18T12:44:51.000Z</time>
      </trkpt>
      <trkpt lat="45.84022" lon="4.73665">
        <ele>267.17201</ele>
        <time>2022-09-18T12:44:52.000Z</time>
      </trkpt>
      <trkpt lat="45.84024" lon="4.73665">
        <ele>266.79057</ele>
        <time>2022-09-18T12:44:53.000Z</time>
      </trkpt>
      <trkpt lat="45.84027" lon="4.73664">
        <ele>266.49569</ele>
        <time>2022-09-18T12:44:54.000Z</time>
      </trkpt>
      <trkpt lat="45.8403" lon="4.73663">
        <ele>266.23051</ele>
        <time>2022-09-18T12:44:55.000Z</time>
      </trkpt>
      <trkpt lat="45.84033" lon="4.73662">
        <ele>265.96824</ele>
        <time>2022-09-18T12:44:56.000Z</time>
      </trkpt>
      <trkpt lat="45.84036" lon="4.7366">
        <ele>265.71593</ele>
        <time>2022-09-18T12:44:57.000Z</time>
      </trkpt>
      <trkpt lat="45.84044" lon="4.73656">
        <ele>265.27921</ele>
        <time>2022-09-18T12:44:58.000Z</time>
      </trkpt>
      <trkpt lat="45.8405" lon="4.73652">
        <ele>264.92571</ele>
        <time>2022-09-18T12:44:59.000Z</time>
      </trkpt>
      <trkpt lat="45.84055" lon="4.73649">
        <ele>264.66561</ele>
        <time>2022-09-18T12:45:00.000Z</time>
      </trkpt>
      <trkpt lat="45.8406" lon="4.73647">
        <ele>264.53749</ele>
        <time>2022-09-18T12:45:01.000Z</time>
      </trkpt>
      <trkpt lat="45.84066" lon="4.73646">
        <ele>264.33504</ele>
        <time>2022-09-18T12:45:02.000Z</time>
      </trkpt>
      <trkpt lat="45.84072" lon="4.73644">
        <ele>264.3421</ele>
        <time>2022-09-18T12:45:03.000Z</time>
      </trkpt>
      <trkpt lat="45.84078" lon="4.73639">
        <ele>264.69255</ele>
        <time>2022-09-18T12:45:04.000Z</time>
      </trkpt>
      <trkpt lat="45.84083" lon="4.73634">
        <ele>264.74427</ele>
        <time>2022-09-18T12:45:05.000Z</time>
      </trkpt>
      <trkpt lat="45.84089" lon="4.7363">
        <ele>264.16877</ele>
        <time>2022-09-18T12:45:06.000Z</time>
      </trkpt>
      <trkpt lat="45.84094" lon="4.73628">
        <ele>263.47328</ele>
        <time>2022-09-18T12:45:07.000Z</time>
      </trkpt>
      <trkpt lat="45.84098" lon="4.73626">
        <ele>262.79658</ele>
        <time>2022-09-18T12:45:08.000Z</time>
      </trkpt>
      <trkpt lat="45.84103" lon="4.73623">
        <ele>262.40765</ele>
        <time>2022-09-18T12:45:09.000Z</time>
      </trkpt>
      <trkpt lat="45.84106" lon="4.73622">
        <ele>262.20517</ele>
        <time>2022-09-18T12:45:10.000Z</time>
      </trkpt>
      <trkpt lat="45.84109" lon="4.7362">
        <ele>262.1374</ele>
        <time>2022-09-18T12:45:11.000Z</time>
      </trkpt>
      <trkpt lat="45.84111" lon="4.73618">
        <ele>262.1568</ele>
        <time>2022-09-18T12:45:12.000Z</time>
      </trkpt>
      <trkpt lat="45.84114" lon="4.73617">
        <ele>262.11061</ele>
        <time>2022-09-18T12:45:13.000Z</time>
      </trkpt>
      <trkpt lat="45.84116" lon="4.73618">
        <ele>262.03843</ele>
        <time>2022-09-18T12:45:14.000Z</time>
      </trkpt>
      <trkpt lat="45.84117" lon="4.73616">
        <ele>262.14329</ele>
        <time>2022-09-18T12:45:26.000Z</time>
      </trkpt>
      <trkpt lat="45.84119" lon="4.73614">
        <ele>262.18391</ele>
        <time>2022-09-18T12:45:28.000Z</time>
      </trkpt>
      <trkpt lat="45.84121" lon="4.73612">
        <ele>262.22936</ele>
        <time>2022-09-18T12:45:29.000Z</time>
      </trkpt>
      <trkpt lat="45.84124" lon="4.7361">
        <ele>262.26675</ele>
        <time>2022-09-18T12:45:30.000Z</time>
      </trkpt>
      <trkpt lat="45.84127" lon="4.73608">
        <ele>262.285</ele>
        <time>2022-09-18T12:45:31.000Z</time>
      </trkpt>
      <trkpt lat="45.8413" lon="4.73606">
        <ele>262.2779</ele>
        <time>2022-09-18T12:45:32.000Z</time>
      </trkpt>
      <trkpt lat="45.84136" lon="4.73603">
        <ele>262.13292</ele>
        <time>2022-09-18T12:45:33.000Z</time>
      </trkpt>
      <trkpt lat="45.84141" lon="4.736">
        <ele>261.79601</ele>
        <time>2022-09-18T12:45:34.000Z</time>
      </trkpt>
      <trkpt lat="45.84146" lon="4.73594">
        <ele>261.32823</ele>
        <time>2022-09-18T12:45:35.000Z</time>
      </trkpt>
      <trkpt lat="45.84152" lon="4.73589">
        <ele>261.12447</ele>
        <time>2022-09-18T12:45:36.000Z</time>
      </trkpt>
      <trkpt lat="45.84158" lon="4.73585">
        <ele>260.91429</ele>
        <time>2022-09-18T12:45:37.000Z</time>
      </trkpt>
      <trkpt lat="45.84163" lon="4.73579">
        <ele>260.43689</ele>
        <time>2022-09-18T12:45:38.000Z</time>
      </trkpt>
      <trkpt lat="45.84169" lon="4.73575">
        <ele>259.79081</ele>
        <time>2022-09-18T12:45:39.000Z</time>
      </trkpt>
      <trkpt lat="45.84175" lon="4.73571">
        <ele>259.45416</ele>
        <time>2022-09-18T12:45:40.000Z</time>
      </trkpt>
      <trkpt lat="45.8418" lon="4.73566">
        <ele>259.58294</ele>
        <time>2022-09-18T12:45:41.000Z</time>
      </trkpt>
      <trkpt lat="45.84186" lon="4.73562">
        <ele>259.98281</ele>
        <time>2022-09-18T12:45:42.000Z</time>
      </trkpt>
      <trkpt lat="45.84191" lon="4.73557">
        <ele>260.27813</ele>
        <time>2022-09-18T12:45:43.000Z</time>
      </trkpt>
      <trkpt lat="45.84197" lon="4.73553">
        <ele>260.3337</ele>
        <time>2022-09-18T12:45:44.000Z</time>
      </trkpt>
      <trkpt lat="45.84202" lon="4.73549">
        <ele>260.40961</ele>
        <time>2022-09-18T12:45:45.000Z</time>
      </trkpt>
      <trkpt lat="45.84207" lon="4.73543">
        <ele>260.4165</ele>
        <time>2022-09-18T12:45:46.000Z</time>
      </trkpt>
      <trkpt lat="45.84212" lon="4.73538">
        <ele>260.47111</ele>
        <time>2022-09-18T12:45:47.000Z</time>
      </trkpt>
      <trkpt lat="45.84216" lon="4.73535">
        <ele>260.50083</ele>
        <time>2022-09-18T12:45:48.000Z</time>
      </trkpt>
      <trkpt lat="45.8422" lon="4.73531">
        <ele>260.59035</ele>
        <time>2022-09-18T12:45:49.000Z</time>
      </trkpt>
      <trkpt lat="45.84223" lon="4.73528">
        <ele>260.72038</ele>
        <time>2022-09-18T12:45:50.000Z</time>
      </trkpt>
      <trkpt lat="45.84225" lon="4.73526">
        <ele>260.86604</ele>
        <time>2022-09-18T12:45:51.000Z</time>
      </trkpt>
      <trkpt lat="45.84227" lon="4.73524">
        <ele>261.03235</ele>
        <time>2022-09-18T12:45:52.000Z</time>
      </trkpt>
      <trkpt lat="45.8423" lon="4.73523">
        <ele>261.0639</ele>
        <time>2022-09-18T12:45:53.000Z</time>
      </trkpt>
      <trkpt lat="45.84233" lon="4.73521">
        <ele>261.2323</ele>
        <time>2022-09-18T12:45:55.000Z</time>
      </trkpt>
      <trkpt lat="45.84236" lon="4.73517">
        <ele>261.50834</ele>
        <time>2022-09-18T12:45:57.000Z</time>
      </trkpt>
      <trkpt lat="45.84239" lon="4.73515">
        <ele>261.65538</ele>
        <time>2022-09-18T12:45:58.000Z</time>
      </trkpt>
      <trkpt lat="45.84242" lon="4.73513">
        <ele>261.75245</ele>
        <time>2022-09-18T12:45:59.000Z</time>
      </trkpt>
      <trkpt lat="45.84245" lon="4.73511">
        <ele>261.77836</ele>
        <time>2022-09-18T12:46:00.000Z</time>
      </trkpt>
      <trkpt lat="45.84249" lon="4.73508">
        <ele>261.70205</ele>
        <time>2022-09-18T12:46:01.000Z</time>
      </trkpt>
      <trkpt lat="45.84253" lon="4.73505">
        <ele>261.56738</ele>
        <time>2022-09-18T12:46:02.000Z</time>
      </trkpt>
      <trkpt lat="45.84257" lon="4.73504">
        <ele>261.23614</ele>
        <time>2022-09-18T12:46:03.000Z</time>
      </trkpt>
      <trkpt lat="45.84261" lon="4.73498">
        <ele>261.02791</ele>
        <time>2022-09-18T12:46:04.000Z</time>
      </trkpt>
      <trkpt lat="45.84265" lon="4.73494">
        <ele>260.81094</ele>
        <time>2022-09-18T12:46:05.000Z</time>
      </trkpt>
      <trkpt lat="45.84268" lon="4.73492">
        <ele>260.70915</ele>
        <time>2022-09-18T12:46:06.000Z</time>
      </trkpt>
      <trkpt lat="45.84268" lon="4.73489">
        <ele>260.77106</ele>
        <time>2022-09-18T12:46:07.000Z</time>
      </trkpt>
      <trkpt lat="45.84272" lon="4.73486">
        <ele>260.6727</ele>
        <time>2022-09-18T12:46:09.000Z</time>
      </trkpt>
      <trkpt lat="45.84274" lon="4.73485">
        <ele>260.58615</ele>
        <time>2022-09-18T12:46:10.000Z</time>
      </trkpt>
      <trkpt lat="45.84277" lon="4.73484">
        <ele>260.48838</ele>
        <time>2022-09-18T12:46:12.000Z</time>
      </trkpt>
      <trkpt lat="45.84279" lon="4.73483">
        <ele>260.46709</ele>
        <time>2022-09-18T12:46:14.000Z</time>
      </trkpt>
      <trkpt lat="45.84282" lon="4.73481">
        <ele>260.38028</ele>
        <time>2022-09-18T12:46:16.000Z</time>
      </trkpt>
      <trkpt lat="45.84284" lon="4.73479">
        <ele>260.29652</ele>
        <time>2022-09-18T12:46:17.000Z</time>
      </trkpt>
      <trkpt lat="45.84287" lon="4.73478">
        <ele>260.16324</ele>
        <time>2022-09-18T12:46:18.000Z</time>
      </trkpt>
      <trkpt lat="45.84291" lon="4.73476">
        <ele>259.93983</ele>
        <time>2022-09-18T12:46:19.000Z</time>
      </trkpt>
      <trkpt lat="45.84294" lon="4.73474">
        <ele>259.67996</ele>
        <time>2022-09-18T12:46:20.000Z</time>
      </trkpt>
      <trkpt lat="45.84298" lon="4.73471">
        <ele>259.42843</ele>
        <time>2022-09-18T12:46:21.000Z</time>
      </trkpt>
      <trkpt lat="45.84302" lon="4.73469">
        <ele>259.19606</ele>
        <time>2022-09-18T12:46:22.000Z</time>
      </trkpt>
      <trkpt lat="45.84306" lon="4.73466">
        <ele>259.06238</ele>
        <time>2022-09-18T12:46:23.000Z</time>
      </trkpt>
      <trkpt lat="45.8431" lon="4.73464">
        <ele>259.04208</ele>
        <time>2022-09-18T12:46:24.000Z</time>
      </trkpt>
      <trkpt lat="45.84314" lon="4.73461">
        <ele>259.10606</ele>
        <time>2022-09-18T12:46:25.000Z</time>
      </trkpt>
      <trkpt lat="45.84318" lon="4.73458">
        <ele>259.2041</ele>
        <time>2022-09-18T12:46:26.000Z</time>
      </trkpt>
      <trkpt lat="45.84321" lon="4.73455">
        <ele>259.27153</ele>
        <time>2022-09-18T12:46:27.000Z</time>
      </trkpt>
      <trkpt lat="45.84325" lon="4.73453">
        <ele>259.26266</ele>
        <time>2022-09-18T12:46:28.000Z</time>
      </trkpt>
      <trkpt lat="45.84329" lon="4.7345">
        <ele>259.19112</ele>
        <time>2022-09-18T12:46:29.000Z</time>
      </trkpt>
      <trkpt lat="45.84333" lon="4.73447">
        <ele>259.11029</ele>
        <time>2022-09-18T12:46:30.000Z</time>
      </trkpt>
      <trkpt lat="45.84336" lon="4.73444">
        <ele>259.04873</ele>
        <time>2022-09-18T12:46:31.000Z</time>
      </trkpt>
      <trkpt lat="45.8434" lon="4.73441">
        <ele>259.01478</ele>
        <time>2022-09-18T12:46:32.000Z</time>
      </trkpt>
      <trkpt lat="45.84346" lon="4.73435">
        <ele>259.01053</ele>
        <time>2022-09-18T12:46:33.000Z</time>
      </trkpt>
      <trkpt lat="45.8435" lon="4.73431">
        <ele>258.9946</ele>
        <time>2022-09-18T12:46:34.000Z</time>
      </trkpt>
      <trkpt lat="45.84355" lon="4.73429">
        <ele>258.85976</ele>
        <time>2022-09-18T12:46:35.000Z</time>
      </trkpt>
      <trkpt lat="45.84359" lon="4.73427">
        <ele>258.78056</ele>
        <time>2022-09-18T12:46:36.000Z</time>
      </trkpt>
      <trkpt lat="45.84364" lon="4.73423">
        <ele>258.67105</ele>
        <time>2022-09-18T12:46:37.000Z</time>
      </trkpt>
      <trkpt lat="45.84367" lon="4.7342">
        <ele>258.55095</ele>
        <time>2022-09-18T12:46:38.000Z</time>
      </trkpt>
      <trkpt lat="45.84371" lon="4.73414">
        <ele>258.44335</ele>
        <time>2022-09-18T12:46:39.000Z</time>
      </trkpt>
      <trkpt lat="45.84375" lon="4.73412">
        <ele>258.31498</ele>
        <time>2022-09-18T12:46:40.000Z</time>
      </trkpt>
      <trkpt lat="45.84379" lon="4.73409">
        <ele>258.32225</ele>
        <time>2022-09-18T12:46:41.000Z</time>
      </trkpt>
      <trkpt lat="45.84384" lon="4.73406">
        <ele>258.35734</ele>
        <time>2022-09-18T12:46:42.000Z</time>
      </trkpt>
      <trkpt lat="45.84388" lon="4.73404">
        <ele>258.59262</ele>
        <time>2022-09-18T12:46:43.000Z</time>
      </trkpt>
      <trkpt lat="45.84391" lon="4.73401">
        <ele>258.90031</ele>
        <time>2022-09-18T12:46:44.000Z</time>
      </trkpt>
      <trkpt lat="45.84395" lon="4.73398">
        <ele>259.33343</ele>
        <time>2022-09-18T12:46:45.000Z</time>
      </trkpt>
      <trkpt lat="45.84398" lon="4.73396">
        <ele>259.58745</ele>
        <time>2022-09-18T12:46:46.000Z</time>
      </trkpt>
      <trkpt lat="45.84401" lon="4.73393">
        <ele>259.75877</ele>
        <time>2022-09-18T12:46:47.000Z</time>
      </trkpt>
      <trkpt lat="45.84405" lon="4.73391">
        <ele>259.63054</ele>
        <time>2022-09-18T12:46:48.000Z</time>
      </trkpt>
      <trkpt lat="45.84408" lon="4.73388">
        <ele>259.21144</ele>
        <time>2022-09-18T12:46:49.000Z</time>
      </trkpt>
      <trkpt lat="45.84412" lon="4.73385">
        <ele>258.52581</ele>
        <time>2022-09-18T12:46:50.000Z</time>
      </trkpt>
      <trkpt lat="45.84416" lon="4.73382">
        <ele>257.81497</ele>
        <time>2022-09-18T12:46:51.000Z</time>
      </trkpt>
      <trkpt lat="45.8442" lon="4.7338">
        <ele>257.15754</ele>
        <time>2022-09-18T12:46:52.000Z</time>
      </trkpt>
      <trkpt lat="45.84423" lon="4.73378">
        <ele>256.87452</ele>
        <time>2022-09-18T12:46:53.000Z</time>
      </trkpt>
      <trkpt lat="45.84425" lon="4.73375">
        <ele>256.83323</ele>
        <time>2022-09-18T12:46:54.000Z</time>
      </trkpt>
      <trkpt lat="45.84426" lon="4.73372">
        <ele>256.87528</ele>
        <time>2022-09-18T12:46:55.000Z</time>
      </trkpt>
      <trkpt lat="45.84425" lon="4.73369">
        <ele>256.91338</ele>
        <time>2022-09-18T12:46:56.000Z</time>
      </trkpt>
      <trkpt lat="45.84424" lon="4.73366">
        <ele>256.9269</ele>
        <time>2022-09-18T12:46:58.000Z</time>
      </trkpt>
      <trkpt lat="45.84424" lon="4.73366">
        <ele>256.9269</ele>
        <time>2022-09-18T12:46:58.000Z</time>
      </trkpt>
      <trkpt lat="45.8442" lon="4.73371">
        <ele>257.08852</ele>
        <time>2022-09-18T14:33:28.000Z</time>
      </trkpt>
      <trkpt lat="45.8442" lon="4.73371">
        <ele>257.08852</ele>
        <time>2022-09-18T14:33:28.000Z</time>
      </trkpt>
      <trkpt lat="45.84421" lon="4.73373">
        <ele>257.00012</ele>
        <time>2022-09-18T14:33:28.000Z</time>
      </trkpt>
      <trkpt lat="45.8442" lon="4.73378">
        <ele>257.1418</ele>
        <time>2022-09-18T14:33:30.000Z</time>
      </trkpt>
      <trkpt lat="45.84418" lon="4.7338">
        <ele>257.42804</ele>
        <time>2022-09-18T14:33:31.000Z</time>
      </trkpt>
      <trkpt lat="45.84415" lon="4.73383">
        <ele>257.93463</ele>
        <time>2022-09-18T14:33:32.000Z</time>
      </trkpt>
      <trkpt lat="45.84412" lon="4.73386">
        <ele>258.51608</ele>
        <time>2022-09-18T14:33:33.000Z</time>
      </trkpt>
      <trkpt lat="45.84409" lon="4.73389">
        <ele>259.00317</ele>
        <time>2022-09-18T14:33:34.000Z</time>
      </trkpt>
      <trkpt lat="45.84409" lon="4.73389">
        <ele>259.00317</ele>
        <time>2022-09-18T14:33:34.000Z</time>
      </trkpt>
      <trkpt lat="45.84406" lon="4.73391">
        <ele>259.30822</ele>
        <time>2022-09-18T14:33:35.000Z</time>
      </trkpt>
      <trkpt lat="45.84403" lon="4.73394">
        <ele>259.3747</ele>
        <time>2022-09-18T14:33:36.000Z</time>
      </trkpt>
      <trkpt lat="45.844" lon="4.73397">
        <ele>259.19256</ele>
        <time>2022-09-18T14:33:37.000Z</time>
      </trkpt>
      <trkpt lat="45.84397" lon="4.73401">
        <ele>258.8324</ele>
        <time>2022-09-18T14:33:38.000Z</time>
      </trkpt>
      <trkpt lat="45.84394" lon="4.73404">
        <ele>258.46025</ele>
        <time>2022-09-18T14:33:39.000Z</time>
      </trkpt>
      <trkpt lat="45.8439" lon="4.73407">
        <ele>258.16746</ele>
        <time>2022-09-18T14:33:40.000Z</time>
      </trkpt>
      <trkpt lat="45.84386" lon="4.73411">
        <ele>257.98981</ele>
        <time>2022-09-18T14:33:41.000Z</time>
      </trkpt>
      <trkpt lat="45.84383" lon="4.73416">
        <ele>257.86197</ele>
        <time>2022-09-18T14:33:42.000Z</time>
      </trkpt>
      <trkpt lat="45.8438" lon="4.73419">
        <ele>257.97828</ele>
        <time>2022-09-18T14:33:43.000Z</time>
      </trkpt>
      <trkpt lat="45.84376" lon="4.73422">
        <ele>258.17444</ele>
        <time>2022-09-18T14:33:44.000Z</time>
      </trkpt>
      <trkpt lat="45.84372" lon="4.73426">
        <ele>258.37493</ele>
        <time>2022-09-18T14:33:45.000Z</time>
      </trkpt>
      <trkpt lat="45.84367" lon="4.73429">
        <ele>258.52882</ele>
        <time>2022-09-18T14:33:46.000Z</time>
      </trkpt>
      <trkpt lat="45.84364" lon="4.73431">
        <ele>258.61202</ele>
        <time>2022-09-18T14:33:47.000Z</time>
      </trkpt>
      <trkpt lat="45.8436" lon="4.73434">
        <ele>258.65279</ele>
        <time>2022-09-18T14:33:48.000Z</time>
      </trkpt>
      <trkpt lat="45.84355" lon="4.73438">
        <ele>258.69068</ele>
        <time>2022-09-18T14:33:49.000Z</time>
      </trkpt>
      <trkpt lat="45.8435" lon="4.73441">
        <ele>258.76988</ele>
        <time>2022-09-18T14:33:50.000Z</time>
      </trkpt>
      <trkpt lat="45.84346" lon="4.73443">
        <ele>258.85483</ele>
        <time>2022-09-18T14:33:51.000Z</time>
      </trkpt>
      <trkpt lat="45.84341" lon="4.73446">
        <ele>258.92271</ele>
        <time>2022-09-18T14:33:52.000Z</time>
      </trkpt>
      <trkpt lat="45.84337" lon="4.73448">
        <ele>258.982</ele>
        <time>2022-09-18T14:33:53.000Z</time>
      </trkpt>
      <trkpt lat="45.84333" lon="4.73451">
        <ele>259.03435</ele>
        <time>2022-09-18T14:33:54.000Z</time>
      </trkpt>
      <trkpt lat="45.84329" lon="4.73455">
        <ele>259.10571</ele>
        <time>2022-09-18T14:33:55.000Z</time>
      </trkpt>
      <trkpt lat="45.84323" lon="4.73459">
        <ele>259.12696</ele>
        <time>2022-09-18T14:33:56.000Z</time>
      </trkpt>
      <trkpt lat="45.84318" lon="4.73465">
        <ele>258.93378</ele>
        <time>2022-09-18T14:33:57.000Z</time>
      </trkpt>
      <trkpt lat="45.84313" lon="4.73469">
        <ele>258.74648</ele>
        <time>2022-09-18T14:33:58.000Z</time>
      </trkpt>
      <trkpt lat="45.84308" lon="4.73473">
        <ele>258.73558</ele>
        <time>2022-09-18T14:33:59.000Z</time>
      </trkpt>
      <trkpt lat="45.84304" lon="4.73476">
        <ele>258.90905</ele>
        <time>2022-09-18T14:34:00.000Z</time>
      </trkpt>
      <trkpt lat="45.84299" lon="4.73479">
        <ele>259.1834</ele>
        <time>2022-09-18T14:34:01.000Z</time>
      </trkpt>
      <trkpt lat="45.84295" lon="4.73482">
        <ele>259.42899</ele>
        <time>2022-09-18T14:34:02.000Z</time>
      </trkpt>
      <trkpt lat="45.84291" lon="4.73484">
        <ele>259.66419</ele>
        <time>2022-09-18T14:34:03.000Z</time>
      </trkpt>
      <trkpt lat="45.84287" lon="4.73488">
        <ele>259.77711</ele>
        <time>2022-09-18T14:34:04.000Z</time>
      </trkpt>
      <trkpt lat="45.84283" lon="4.73491">
        <ele>259.84627</ele>
        <time>2022-09-18T14:34:05.000Z</time>
      </trkpt>
      <trkpt lat="45.84279" lon="4.73496">
        <ele>259.87042</ele>
        <time>2022-09-18T14:34:06.000Z</time>
      </trkpt>
      <trkpt lat="45.84275" lon="4.73499">
        <ele>259.95022</ele>
        <time>2022-09-18T14:34:07.000Z</time>
      </trkpt>
      <trkpt lat="45.84272" lon="4.73502">
        <ele>260.09758</ele>
        <time>2022-09-18T14:34:08.000Z</time>
      </trkpt>
      <trkpt lat="45.84267" lon="4.73506">
        <ele>260.34412</ele>
        <time>2022-09-18T14:34:09.000Z</time>
      </trkpt>
      <trkpt lat="45.84262" lon="4.73508">
        <ele>260.63001</ele>
        <time>2022-09-18T14:34:10.000Z</time>
      </trkpt>
      <trkpt lat="45.84259" lon="4.73511">
        <ele>260.77657</ele>
        <time>2022-09-18T14:34:11.000Z</time>
      </trkpt>
      <trkpt lat="45.84254" lon="4.73514">
        <ele>260.99287</ele>
        <time>2022-09-18T14:34:12.000Z</time>
      </trkpt>
      <trkpt lat="45.8425" lon="4.73516">
        <ele>261.09986</ele>
        <time>2022-09-18T14:34:13.000Z</time>
      </trkpt>
      <trkpt lat="45.84245" lon="4.7352">
        <ele>261.0247</ele>
        <time>2022-09-18T14:34:14.000Z</time>
      </trkpt>
      <trkpt lat="45.84241" lon="4.73522">
        <ele>260.98237</ele>
        <time>2022-09-18T14:34:15.000Z</time>
      </trkpt>
      <trkpt lat="45.84235" lon="4.73526">
        <ele>260.74961</ele>
        <time>2022-09-18T14:34:16.000Z</time>
      </trkpt>
      <trkpt lat="45.8423" lon="4.73528">
        <ele>260.69133</ele>
        <time>2022-09-18T14:34:17.000Z</time>
      </trkpt>
      <trkpt lat="45.84223" lon="4.73533">
        <ele>260.47442</ele>
        <time>2022-09-18T14:34:18.000Z</time>
      </trkpt>
      <trkpt lat="45.84218" lon="4.73538">
        <ele>260.51765</ele>
        <time>2022-09-18T14:34:19.000Z</time>
      </trkpt>
      <trkpt lat="45.84213" lon="4.73541">
        <ele>260.56887</ele>
        <time>2022-09-18T14:34:20.000Z</time>
      </trkpt>
      <trkpt lat="45.84209" lon="4.73544">
        <ele>260.54691</ele>
        <time>2022-09-18T14:34:21.000Z</time>
      </trkpt>
      <trkpt lat="45.84204" lon="4.73549">
        <ele>260.49397</ele>
        <time>2022-09-18T14:34:22.000Z</time>
      </trkpt>
      <trkpt lat="45.84198" lon="4.73554">
        <ele>260.44941</ele>
        <time>2022-09-18T14:34:23.000Z</time>
      </trkpt>
      <trkpt lat="45.84194" lon="4.73558">
        <ele>260.40994</ele>
        <time>2022-09-18T14:34:24.000Z</time>
      </trkpt>
      <trkpt lat="45.84189" lon="4.73562">
        <ele>260.30404</ele>
        <time>2022-09-18T14:34:25.000Z</time>
      </trkpt>
      <trkpt lat="45.84185" lon="4.73566">
        <ele>260.06048</ele>
        <time>2022-09-18T14:34:26.000Z</time>
      </trkpt>
      <trkpt lat="45.84181" lon="4.73569">
        <ele>259.78178</ele>
        <time>2022-09-18T14:34:27.000Z</time>
      </trkpt>
      <trkpt lat="45.84177" lon="4.73573">
        <ele>259.75259</ele>
        <time>2022-09-18T14:34:28.000Z</time>
      </trkpt>
      <trkpt lat="45.84172" lon="4.73577">
        <ele>259.858</ele>
        <time>2022-09-18T14:34:29.000Z</time>
      </trkpt>
      <trkpt lat="45.84167" lon="4.73582">
        <ele>260.30345</ele>
        <time>2022-09-18T14:34:30.000Z</time>
      </trkpt>
      <trkpt lat="45.84162" lon="4.73585">
        <ele>260.73534</ele>
        <time>2022-09-18T14:34:31.000Z</time>
      </trkpt>
      <trkpt lat="45.84157" lon="4.7359">
        <ele>260.95916</ele>
        <time>2022-09-18T14:34:32.000Z</time>
      </trkpt>
      <trkpt lat="45.84152" lon="4.73593">
        <ele>261.09183</ele>
        <time>2022-09-18T14:34:33.000Z</time>
      </trkpt>
      <trkpt lat="45.84147" lon="4.73597">
        <ele>261.36217</ele>
        <time>2022-09-18T14:34:34.000Z</time>
      </trkpt>
      <trkpt lat="45.84142" lon="4.73601">
        <ele>261.80119</ele>
        <time>2022-09-18T14:34:35.000Z</time>
      </trkpt>
      <trkpt lat="45.84137" lon="4.73604">
        <ele>262.15306</ele>
        <time>2022-09-18T14:34:36.000Z</time>
      </trkpt>
      <trkpt lat="45.84131" lon="4.73609">
        <ele>262.27222</ele>
        <time>2022-09-18T14:34:37.000Z</time>
      </trkpt>
      <trkpt lat="45.84127" lon="4.73612">
        <ele>262.18295</ele>
        <time>2022-09-18T14:34:38.000Z</time>
      </trkpt>
      <trkpt lat="45.84122" lon="4.73614">
        <ele>262.12288</ele>
        <time>2022-09-18T14:34:39.000Z</time>
      </trkpt>
      <trkpt lat="45.84117" lon="4.73616">
        <ele>262.10298</ele>
        <time>2022-09-18T14:34:40.000Z</time>
      </trkpt>
      <trkpt lat="45.84111" lon="4.7362">
        <ele>262.03712</ele>
        <time>2022-09-18T14:34:41.000Z</time>
      </trkpt>
      <trkpt lat="45.84105" lon="4.73623">
        <ele>262.18351</ele>
        <time>2022-09-18T14:34:42.000Z</time>
      </trkpt>
      <trkpt lat="45.841" lon="4.73625">
        <ele>262.62622</ele>
        <time>2022-09-18T14:34:43.000Z</time>
      </trkpt>
      <trkpt lat="45.84094" lon="4.73628">
        <ele>263.36618</ele>
        <time>2022-09-18T14:34:44.000Z</time>
      </trkpt>
      <trkpt lat="45.8409" lon="4.73629">
        <ele>264.10272</ele>
        <time>2022-09-18T14:34:45.000Z</time>
      </trkpt>
      <trkpt lat="45.84086" lon="4.7363">
        <ele>264.84946</ele>
        <time>2022-09-18T14:34:46.000Z</time>
      </trkpt>
      <trkpt lat="45.84081" lon="4.73633">
        <ele>265.3493</ele>
        <time>2022-09-18T14:34:47.000Z</time>
      </trkpt>
      <trkpt lat="45.84076" lon="4.73635">
        <ele>265.53943</ele>
        <time>2022-09-18T14:34:48.000Z</time>
      </trkpt>
      <trkpt lat="45.84072" lon="4.73637">
        <ele>265.51056</ele>
        <time>2022-09-18T14:34:49.000Z</time>
      </trkpt>
      <trkpt lat="45.84066" lon="4.73641">
        <ele>265.20543</ele>
        <time>2022-09-18T14:34:50.000Z</time>
      </trkpt>
      <trkpt lat="45.8406" lon="4.73644">
        <ele>265.07301</ele>
        <time>2022-09-18T14:34:51.000Z</time>
      </trkpt>
      <trkpt lat="45.84052" lon="4.73649">
        <ele>264.96454</ele>
        <time>2022-09-18T14:34:52.000Z</time>
      </trkpt>
      <trkpt lat="45.8405" lon="4.7365">
        <ele>265.094</ele>
        <time>2022-09-18T14:34:53.000Z</time>
      </trkpt>
      <trkpt lat="45.84047" lon="4.7365">
        <ele>265.39499</ele>
        <time>2022-09-18T14:34:54.000Z</time>
      </trkpt>
      <trkpt lat="45.84044" lon="4.73654">
        <ele>265.35026</ele>
        <time>2022-09-18T14:34:55.000Z</time>
      </trkpt>
      <trkpt lat="45.84036" lon="4.7366">
        <ele>265.76052</ele>
        <time>2022-09-18T14:34:56.000Z</time>
      </trkpt>
      <trkpt lat="45.84029" lon="4.73665">
        <ele>266.017</ele>
        <time>2022-09-18T14:34:57.000Z</time>
      </trkpt>
      <trkpt lat="45.84025" lon="4.73666">
        <ele>266.55698</ele>
        <time>2022-09-18T14:34:58.000Z</time>
      </trkpt>
      <trkpt lat="45.84021" lon="4.73667">
        <ele>267.13097</ele>
        <time>2022-09-18T14:34:59.000Z</time>
      </trkpt>
      <trkpt lat="45.84016" lon="4.73666">
        <ele>267.92815</ele>
        <time>2022-09-18T14:35:00.000Z</time>
      </trkpt>
      <trkpt lat="45.84012" lon="4.73667">
        <ele>268.26067</ele>
        <time>2022-09-18T14:35:01.000Z</time>
      </trkpt>
      <trkpt lat="45.84008" lon="4.73665">
        <ele>268.81435</ele>
        <time>2022-09-18T14:35:02.000Z</time>
      </trkpt>
      <trkpt lat="45.84" lon="4.73668">
        <ele>268.94849</ele>
        <time>2022-09-18T14:35:03.000Z</time>
      </trkpt>
      <trkpt lat="45.83995" lon="4.73668">
        <ele>268.99231</ele>
        <time>2022-09-18T14:35:04.000Z</time>
      </trkpt>
      <trkpt lat="45.83992" lon="4.73666">
        <ele>269.09469</ele>
        <time>2022-09-18T14:35:05.000Z</time>
      </trkpt>
      <trkpt lat="45.8399" lon="4.73662">
        <ele>269.30249</ele>
        <time>2022-09-18T14:35:06.000Z</time>
      </trkpt>
      <trkpt lat="45.83986" lon="4.73664">
        <ele>269.01566</ele>
        <time>2022-09-18T14:35:07.000Z</time>
      </trkpt>
      <trkpt lat="45.83981" lon="4.73669">
        <ele>268.40372</ele>
        <time>2022-09-18T14:35:08.000Z</time>
      </trkpt>
      <trkpt lat="45.83976" lon="4.73672">
        <ele>267.78616</ele>
        <time>2022-09-18T14:35:09.000Z</time>
      </trkpt>
      <trkpt lat="45.83971" lon="4.73678">
        <ele>267.34157</ele>
        <time>2022-09-18T14:35:10.000Z</time>
      </trkpt>
      <trkpt lat="45.83967" lon="4.73681">
        <ele>267.30673</ele>
        <time>2022-09-18T14:35:11.000Z</time>
      </trkpt>
      <trkpt lat="45.83962" lon="4.73685">
        <ele>267.74322</ele>
        <time>2022-09-18T14:35:12.000Z</time>
      </trkpt>
      <trkpt lat="45.83958" lon="4.73691">
        <ele>268.10512</ele>
        <time>2022-09-18T14:35:13.000Z</time>
      </trkpt>
      <trkpt lat="45.83954" lon="4.73697">
        <ele>268.07738</ele>
        <time>2022-09-18T14:35:14.000Z</time>
      </trkpt>
      <trkpt lat="45.83951" lon="4.73704">
        <ele>267.32752</ele>
        <time>2022-09-18T14:35:15.000Z</time>
      </trkpt>
      <trkpt lat="45.83948" lon="4.73711">
        <ele>266.38397</ele>
        <time>2022-09-18T14:35:16.000Z</time>
      </trkpt>
      <trkpt lat="45.83943" lon="4.73715">
        <ele>265.98394</ele>
        <time>2022-09-18T14:35:17.000Z</time>
      </trkpt>
      <trkpt lat="45.83939" lon="4.73722">
        <ele>266.30571</ele>
        <time>2022-09-18T14:35:18.000Z</time>
      </trkpt>
      <trkpt lat="45.83936" lon="4.73729">
        <ele>267.15857</ele>
        <time>2022-09-18T14:35:19.000Z</time>
      </trkpt>
      <trkpt lat="45.83933" lon="4.73737">
        <ele>267.89802</ele>
        <time>2022-09-18T14:35:20.000Z</time>
      </trkpt>
      <trkpt lat="45.8393" lon="4.73746">
        <ele>268.85091</ele>
        <time>2022-09-18T14:35:21.000Z</time>
      </trkpt>
      <trkpt lat="45.83929" lon="4.73757">
        <ele>268.40097</ele>
        <time>2022-09-18T14:35:22.000Z</time>
      </trkpt>
      <trkpt lat="45.83928" lon="4.73765">
        <ele>267.62226</ele>
        <time>2022-09-18T14:35:23.000Z</time>
      </trkpt>
      <trkpt lat="45.83927" lon="4.73776">
        <ele>266.34603</ele>
        <time>2022-09-18T14:35:24.000Z</time>
      </trkpt>
      <trkpt lat="45.83933" lon="4.73784">
        <ele>264.17548</ele>
        <time>2022-09-18T14:35:25.000Z</time>
      </trkpt>
      <trkpt lat="45.83939" lon="4.73793">
        <ele>262.91929</ele>
        <time>2022-09-18T14:35:26.000Z</time>
      </trkpt>
      <trkpt lat="45.83942" lon="4.738">
        <ele>262.29335</ele>
        <time>2022-09-18T14:35:27.000Z</time>
      </trkpt>
      <trkpt lat="45.83947" lon="4.73804">
        <ele>261.80665</ele>
        <time>2022-09-18T14:35:28.000Z</time>
      </trkpt>
      <trkpt lat="45.83952" lon="4.7381">
        <ele>261.0954</ele>
        <time>2022-09-18T14:35:29.000Z</time>
      </trkpt>
      <trkpt lat="45.83958" lon="4.73816">
        <ele>260.95014</ele>
        <time>2022-09-18T14:35:30.000Z</time>
      </trkpt>
      <trkpt lat="45.83966" lon="4.73822">
        <ele>262.0742</ele>
        <time>2022-09-18T14:35:31.000Z</time>
      </trkpt>
      <trkpt lat="45.83973" lon="4.73828">
        <ele>262.87503</ele>
        <time>2022-09-18T14:35:32.000Z</time>
      </trkpt>
      <trkpt lat="45.83979" lon="4.73835">
        <ele>261.59424</ele>
        <time>2022-09-18T14:35:33.000Z</time>
      </trkpt>
      <trkpt lat="45.83986" lon="4.73838">
        <ele>259.88542</ele>
        <time>2022-09-18T14:35:34.000Z</time>
      </trkpt>
      <trkpt lat="45.83999" lon="4.73838">
        <ele>259.28386</ele>
        <time>2022-09-18T14:35:35.000Z</time>
      </trkpt>
      <trkpt lat="45.84004" lon="4.73837">
        <ele>259.50229</ele>
        <time>2022-09-18T14:35:36.000Z</time>
      </trkpt>
      <trkpt lat="45.84008" lon="4.73837">
        <ele>259.41038</ele>
        <time>2022-09-18T14:35:37.000Z</time>
      </trkpt>
      <trkpt lat="45.84017" lon="4.73838">
        <ele>259.08318</ele>
        <time>2022-09-18T14:35:38.000Z</time>
      </trkpt>
      <trkpt lat="45.84021" lon="4.73837">
        <ele>259.21604</ele>
        <time>2022-09-18T14:35:39.000Z</time>
      </trkpt>
      <trkpt lat="45.84029" lon="4.73835">
        <ele>259.12938</ele>
        <time>2022-09-18T14:35:40.000Z</time>
      </trkpt>
      <trkpt lat="45.84039" lon="4.73837">
        <ele>258.43245</ele>
        <time>2022-09-18T14:35:41.000Z</time>
      </trkpt>
      <trkpt lat="45.84048" lon="4.73835">
        <ele>257.89397</ele>
        <time>2022-09-18T14:35:42.000Z</time>
      </trkpt>
      <trkpt lat="45.84054" lon="4.73839">
        <ele>257.66564</ele>
        <time>2022-09-18T14:35:43.000Z</time>
      </trkpt>
      <trkpt lat="45.84059" lon="4.73836">
        <ele>257.47557</ele>
        <time>2022-09-18T14:35:44.000Z</time>
      </trkpt>
      <trkpt lat="45.84068" lon="4.73835">
        <ele>257.39497</ele>
        <time>2022-09-18T14:35:45.000Z</time>
      </trkpt>
      <trkpt lat="45.84069" lon="4.73838">
        <ele>257.52816</ele>
        <time>2022-09-18T14:35:46.000Z</time>
      </trkpt>
      <trkpt lat="45.84076" lon="4.73835">
        <ele>257.43938</ele>
        <time>2022-09-18T14:35:47.000Z</time>
      </trkpt>
      <trkpt lat="45.84084" lon="4.73834">
        <ele>257.49168</ele>
        <time>2022-09-18T14:35:48.000Z</time>
      </trkpt>
      <trkpt lat="45.84091" lon="4.73833">
        <ele>257.5579</ele>
        <time>2022-09-18T14:35:49.000Z</time>
      </trkpt>
      <trkpt lat="45.84097" lon="4.73832">
        <ele>257.6031</ele>
        <time>2022-09-18T14:35:50.000Z</time>
      </trkpt>
      <trkpt lat="45.84102" lon="4.73831">
        <ele>257.65652</ele>
        <time>2022-09-18T14:35:51.000Z</time>
      </trkpt>
      <trkpt lat="45.84108" lon="4.7383">
        <ele>257.74015</ele>
        <time>2022-09-18T14:35:52.000Z</time>
      </trkpt>
      <trkpt lat="45.84112" lon="4.73829">
        <ele>257.77206</ele>
        <time>2022-09-18T14:35:53.000Z</time>
      </trkpt>
      <trkpt lat="45.84115" lon="4.73829">
        <ele>257.82604</ele>
        <time>2022-09-18T14:35:54.000Z</time>
      </trkpt>
      <trkpt lat="45.8412" lon="4.7383">
        <ele>257.94696</ele>
        <time>2022-09-18T14:35:55.000Z</time>
      </trkpt>
      <trkpt lat="45.84123" lon="4.7383">
        <ele>258.0455</ele>
        <time>2022-09-18T14:35:56.000Z</time>
      </trkpt>
      <trkpt lat="45.84127" lon="4.73831">
        <ele>258.19</ele>
        <time>2022-09-18T14:35:57.000Z</time>
      </trkpt>
      <trkpt lat="45.8413" lon="4.73832">
        <ele>258.33918</ele>
        <time>2022-09-18T14:35:58.000Z</time>
      </trkpt>
      <trkpt lat="45.84132" lon="4.73832">
        <ele>258.42155</ele>
        <time>2022-09-18T14:35:59.000Z</time>
      </trkpt>
      <trkpt lat="45.84135" lon="4.7383">
        <ele>258.41753</ele>
        <time>2022-09-18T14:36:00.000Z</time>
      </trkpt>
      <trkpt lat="45.84138" lon="4.73831">
        <ele>258.53954</ele>
        <time>2022-09-18T14:36:01.000Z</time>
      </trkpt>
      <trkpt lat="45.84142" lon="4.73832">
        <ele>258.71628</ele>
        <time>2022-09-18T14:36:02.000Z</time>
      </trkpt>
      <trkpt lat="45.84145" lon="4.73833">
        <ele>258.89166</ele>
        <time>2022-09-18T14:36:03.000Z</time>
      </trkpt>
      <trkpt lat="45.84146" lon="4.73836">
        <ele>259.12511</ele>
        <time>2022-09-18T14:36:04.000Z</time>
      </trkpt>
      <trkpt lat="45.84147" lon="4.73839">
        <ele>259.39478</ele>
        <time>2022-09-18T14:36:05.000Z</time>
      </trkpt>
      <trkpt lat="45.84147" lon="4.73843">
        <ele>259.65548</ele>
        <time>2022-09-18T14:36:06.000Z</time>
      </trkpt>
      <trkpt lat="45.84147" lon="4.73846">
        <ele>259.89406</ele>
        <time>2022-09-18T14:36:07.000Z</time>
      </trkpt>
      <trkpt lat="45.84146" lon="4.73849">
        <ele>260.11336</ele>
        <time>2022-09-18T14:36:08.000Z</time>
      </trkpt>
      <trkpt lat="45.84145" lon="4.73851">
        <ele>260.30798</ele>
        <time>2022-09-18T14:36:09.000Z</time>
      </trkpt>
      <trkpt lat="45.84144" lon="4.73855">
        <ele>260.61493</ele>
        <time>2022-09-18T14:36:11.000Z</time>
      </trkpt>
      <trkpt lat="45.84146" lon="4.73859">
        <ele>261.08449</ele>
        <time>2022-09-18T14:36:13.000Z</time>
      </trkpt>
      <trkpt lat="45.84149" lon="4.73859">
        <ele>261.13958</ele>
        <time>2022-09-18T14:36:14.000Z</time>
      </trkpt>
      <trkpt lat="45.84152" lon="4.73856">
        <ele>261.03677</ele>
        <time>2022-09-18T14:36:15.000Z</time>
      </trkpt>
      <trkpt lat="45.84155" lon="4.73853">
        <ele>260.83499</ele>
        <time>2022-09-18T14:36:16.000Z</time>
      </trkpt>
      <trkpt lat="45.84157" lon="4.7385">
        <ele>260.57207</ele>
        <time>2022-09-18T14:36:17.000Z</time>
      </trkpt>
      <trkpt lat="45.84159" lon="4.73846">
        <ele>260.29093</ele>
        <time>2022-09-18T14:36:18.000Z</time>
      </trkpt>
      <trkpt lat="45.8416" lon="4.73841">
        <ele>259.99965</ele>
        <time>2022-09-18T14:36:19.000Z</time>
      </trkpt>
      <trkpt lat="45.84161" lon="4.73837">
        <ele>259.73631</ele>
        <time>2022-09-18T14:36:20.000Z</time>
      </trkpt>
      <trkpt lat="45.84163" lon="4.73833">
        <ele>259.54817</ele>
        <time>2022-09-18T14:36:21.000Z</time>
      </trkpt>
      <trkpt lat="45.84164" lon="4.73829">
        <ele>259.43231</ele>
        <time>2022-09-18T14:36:22.000Z</time>
      </trkpt>
      <trkpt lat="45.84166" lon="4.73828">
        <ele>259.39565</ele>
        <time>2022-09-18T14:36:23.000Z</time>
      </trkpt>
      <trkpt lat="45.84168" lon="4.7383">
        <ele>259.5348</ele>
        <time>2022-09-18T14:36:25.000Z</time>
      </trkpt>
      <trkpt lat="45.84168" lon="4.73834">
        <ele>259.78716</ele>
        <time>2022-09-18T14:36:27.000Z</time>
      </trkpt>
      <trkpt lat="45.84168" lon="4.73837">
        <ele>259.92221</ele>
        <time>2022-09-18T14:36:28.000Z</time>
      </trkpt>
      <trkpt lat="45.84167" lon="4.7384">
        <ele>260.10777</ele>
        <time>2022-09-18T14:36:29.000Z</time>
      </trkpt>
      <trkpt lat="45.84166" lon="4.73844">
        <ele>260.35777</ele>
        <time>2022-09-18T14:36:30.000Z</time>
      </trkpt>
      <trkpt lat="45.84166" lon="4.73848">
        <ele>260.66419</ele>
        <time>2022-09-18T14:36:31.000Z</time>
      </trkpt>
      <trkpt lat="45.84165" lon="4.73851">
        <ele>260.88686</ele>
        <time>2022-09-18T14:36:32.000Z</time>
      </trkpt>
      <trkpt lat="45.84163" lon="4.73854">
        <ele>261.09407</ele>
        <time>2022-09-18T14:36:34.000Z</time>
      </trkpt>
      <trkpt lat="45.8416" lon="4.73856">
        <ele>261.28445</ele>
        <time>2022-09-18T14:36:36.000Z</time>
      </trkpt>
      <trkpt lat="45.84158" lon="4.73857">
        <ele>261.30595</ele>
        <time>2022-09-18T14:36:37.000Z</time>
      </trkpt>
      <trkpt lat="45.84156" lon="4.73858">
        <ele>261.3163</ele>
        <time>2022-09-18T14:36:38.000Z</time>
      </trkpt>
      <trkpt lat="45.84155" lon="4.73859">
        <ele>261.37779</ele>
        <time>2022-09-18T14:36:39.000Z</time>
      </trkpt>
      <trkpt lat="45.84153" lon="4.7386">
        <ele>261.49036</ele>
        <time>2022-09-18T14:36:40.000Z</time>
      </trkpt>
      <trkpt lat="45.84151" lon="4.73863">
        <ele>261.66402</ele>
        <time>2022-09-18T14:36:41.000Z</time>
      </trkpt>
      <trkpt lat="45.84149" lon="4.73865">
        <ele>261.86739</ele>
        <time>2022-09-18T14:36:42.000Z</time>
      </trkpt>
      <trkpt lat="45.84148" lon="4.73868">
        <ele>262.16613</ele>
        <time>2022-09-18T14:36:43.000Z</time>
      </trkpt>
      <trkpt lat="45.84146" lon="4.73871">
        <ele>262.40868</ele>
        <time>2022-09-18T14:36:44.000Z</time>
      </trkpt>
      <trkpt lat="45.84143" lon="4.73873">
        <ele>262.61014</ele>
        <time>2022-09-18T14:36:45.000Z</time>
      </trkpt>
      <trkpt lat="45.84141" lon="4.73876">
        <ele>262.81687</ele>
        <time>2022-09-18T14:36:46.000Z</time>
      </trkpt>
      <trkpt lat="45.84138" lon="4.73878">
        <ele>262.9743</ele>
        <time>2022-09-18T14:36:47.000Z</time>
      </trkpt>
      <trkpt lat="45.84136" lon="4.7388">
        <ele>263.12953</ele>
        <time>2022-09-18T14:36:48.000Z</time>
      </trkpt>
      <trkpt lat="45.84135" lon="4.73882">
        <ele>263.33207</ele>
        <time>2022-09-18T14:36:49.000Z</time>
      </trkpt>
      <trkpt lat="45.84133" lon="4.73885">
        <ele>263.56083</ele>
        <time>2022-09-18T14:36:50.000Z</time>
      </trkpt>
      <trkpt lat="45.84131" lon="4.73889">
        <ele>263.93983</ele>
        <time>2022-09-18T14:36:51.000Z</time>
      </trkpt>
      <trkpt lat="45.84129" lon="4.73892">
        <ele>264.30531</ele>
        <time>2022-09-18T14:36:52.000Z</time>
      </trkpt>
      <trkpt lat="45.84127" lon="4.73896">
        <ele>264.71798</ele>
        <time>2022-09-18T14:36:53.000Z</time>
      </trkpt>
      <trkpt lat="45.84125" lon="4.739">
        <ele>265.19319</ele>
        <time>2022-09-18T14:36:54.000Z</time>
      </trkpt>
      <trkpt lat="45.84124" lon="4.73904">
        <ele>265.65719</ele>
        <time>2022-09-18T14:36:55.000Z</time>
      </trkpt>
      <trkpt lat="45.84123" lon="4.73909">
        <ele>266.21384</ele>
        <time>2022-09-18T14:36:56.000Z</time>
      </trkpt>
      <trkpt lat="45.84121" lon="4.73913">
        <ele>266.69634</ele>
        <time>2022-09-18T14:36:57.000Z</time>
      </trkpt>
      <trkpt lat="45.84119" lon="4.73917">
        <ele>267.07988</ele>
        <time>2022-09-18T14:36:58.000Z</time>
      </trkpt>
      <trkpt lat="45.84118" lon="4.73921">
        <ele>267.52019</ele>
        <time>2022-09-18T14:36:59.000Z</time>
      </trkpt>
      <trkpt lat="45.84117" lon="4.73924">
        <ele>267.93287</ele>
        <time>2022-09-18T14:37:00.000Z</time>
      </trkpt>
      <trkpt lat="45.84115" lon="4.73927">
        <ele>268.25657</ele>
        <time>2022-09-18T14:37:01.000Z</time>
      </trkpt>
      <trkpt lat="45.84114" lon="4.73931">
        <ele>268.48682</ele>
        <time>2022-09-18T14:37:02.000Z</time>
      </trkpt>
      <trkpt lat="45.84111" lon="4.73934">
        <ele>268.73973</ele>
        <time>2022-09-18T14:37:03.000Z</time>
      </trkpt>
      <trkpt lat="45.84109" lon="4.73938">
        <ele>268.8251</ele>
        <time>2022-09-18T14:37:04.000Z</time>
      </trkpt>
      <trkpt lat="45.84107" lon="4.73941">
        <ele>268.99998</ele>
        <time>2022-09-18T14:37:05.000Z</time>
      </trkpt>
      <trkpt lat="45.84106" lon="4.73944">
        <ele>269.26444</ele>
        <time>2022-09-18T14:37:06.000Z</time>
      </trkpt>
      <trkpt lat="45.84104" lon="4.73948">
        <ele>269.47349</ele>
        <time>2022-09-18T14:37:07.000Z</time>
      </trkpt>
      <trkpt lat="45.84102" lon="4.73951">
        <ele>269.54791</ele>
        <time>2022-09-18T14:37:08.000Z</time>
      </trkpt>
      <trkpt lat="45.841" lon="4.73954">
        <ele>269.46294</ele>
        <time>2022-09-18T14:37:09.000Z</time>
      </trkpt>
      <trkpt lat="45.84097" lon="4.73956">
        <ele>269.2469</ele>
        <time>2022-09-18T14:37:10.000Z</time>
      </trkpt>
      <trkpt lat="45.84093" lon="4.73958">
        <ele>268.74917</ele>
        <time>2022-09-18T14:37:11.000Z</time>
      </trkpt>
      <trkpt lat="45.84089" lon="4.7396">
        <ele>268.22847</ele>
        <time>2022-09-18T14:37:12.000Z</time>
      </trkpt>
      <trkpt lat="45.84086" lon="4.73962">
        <ele>267.80897</ele>
        <time>2022-09-18T14:37:13.000Z</time>
      </trkpt>
      <trkpt lat="45.84083" lon="4.73964">
        <ele>267.54438</ele>
        <time>2022-09-18T14:37:14.000Z</time>
      </trkpt>
      <trkpt lat="45.8408" lon="4.73968">
        <ele>267.41031</ele>
        <time>2022-09-18T14:37:15.000Z</time>
      </trkpt>
      <trkpt lat="45.84078" lon="4.73972">
        <ele>267.42524</ele>
        <time>2022-09-18T14:37:16.000Z</time>
      </trkpt>
      <trkpt lat="45.84076" lon="4.73976">
        <ele>267.52594</ele>
        <time>2022-09-18T14:37:17.000Z</time>
      </trkpt>
      <trkpt lat="45.84073" lon="4.7398">
        <ele>267.52874</ele>
        <time>2022-09-18T14:37:18.000Z</time>
      </trkpt>
      <trkpt lat="45.8407" lon="4.73984">
        <ele>267.49206</ele>
        <time>2022-09-18T14:37:19.000Z</time>
      </trkpt>
      <trkpt lat="45.84067" lon="4.73989">
        <ele>267.57687</ele>
        <time>2022-09-18T14:37:20.000Z</time>
      </trkpt>
      <trkpt lat="45.84065" lon="4.73992">
        <ele>267.63035</ele>
        <time>2022-09-18T14:37:21.000Z</time>
      </trkpt>
      <trkpt lat="45.84063" lon="4.73996">
        <ele>267.78056</ele>
        <time>2022-09-18T14:37:22.000Z</time>
      </trkpt>
      <trkpt lat="45.84061" lon="4.74">
        <ele>267.91657</ele>
        <time>2022-09-18T14:37:23.000Z</time>
      </trkpt>
      <trkpt lat="45.84059" lon="4.74003">
        <ele>267.81014</ele>
        <time>2022-09-18T14:37:24.000Z</time>
      </trkpt>
      <trkpt lat="45.84056" lon="4.74006">
        <ele>267.68623</ele>
        <time>2022-09-18T14:37:25.000Z</time>
      </trkpt>
      <trkpt lat="45.84054" lon="4.7401">
        <ele>267.82581</ele>
        <time>2022-09-18T14:37:26.000Z</time>
      </trkpt>
      <trkpt lat="45.84052" lon="4.74014">
        <ele>267.97284</ele>
        <time>2022-09-18T14:37:27.000Z</time>
      </trkpt>
      <trkpt lat="45.8405" lon="4.74019">
        <ele>268.21154</ele>
        <time>2022-09-18T14:37:28.000Z</time>
      </trkpt>
      <trkpt lat="45.84049" lon="4.74024">
        <ele>268.53424</ele>
        <time>2022-09-18T14:37:29.000Z</time>
      </trkpt>
      <trkpt lat="45.84047" lon="4.74029">
        <ele>268.74181</ele>
        <time>2022-09-18T14:37:30.000Z</time>
      </trkpt>
      <trkpt lat="45.84045" lon="4.74034">
        <ele>268.83349</ele>
        <time>2022-09-18T14:37:31.000Z</time>
      </trkpt>
      <trkpt lat="45.84042" lon="4.74038">
        <ele>268.70962</ele>
        <time>2022-09-18T14:37:32.000Z</time>
      </trkpt>
      <trkpt lat="45.84038" lon="4.74042">
        <ele>268.52243</ele>
        <time>2022-09-18T14:37:33.000Z</time>
      </trkpt>
      <trkpt lat="45.84036" lon="4.74047">
        <ele>268.47632</ele>
        <time>2022-09-18T14:37:34.000Z</time>
      </trkpt>
      <trkpt lat="45.84034" lon="4.74053">
        <ele>268.59194</ele>
        <time>2022-09-18T14:37:35.000Z</time>
      </trkpt>
      <trkpt lat="45.84032" lon="4.74058">
        <ele>268.72462</ele>
        <time>2022-09-18T14:37:36.000Z</time>
      </trkpt>
      <trkpt lat="45.8403" lon="4.74064">
        <ele>268.90163</ele>
        <time>2022-09-18T14:37:37.000Z</time>
      </trkpt>
      <trkpt lat="45.84028" lon="4.7407">
        <ele>269.01615</ele>
        <time>2022-09-18T14:37:38.000Z</time>
      </trkpt>
      <trkpt lat="45.84025" lon="4.74077">
        <ele>269.01834</ele>
        <time>2022-09-18T14:37:39.000Z</time>
      </trkpt>
      <trkpt lat="45.84023" lon="4.74081">
        <ele>268.99747</ele>
        <time>2022-09-18T14:37:40.000Z</time>
      </trkpt>
      <trkpt lat="45.8402" lon="4.74086">
        <ele>268.94246</ele>
        <time>2022-09-18T14:37:41.000Z</time>
      </trkpt>
      <trkpt lat="45.84018" lon="4.74091">
        <ele>268.94012</ele>
        <time>2022-09-18T14:37:42.000Z</time>
      </trkpt>
      <trkpt lat="45.84016" lon="4.74095">
        <ele>268.90598</ele>
        <time>2022-09-18T14:37:43.000Z</time>
      </trkpt>
      <trkpt lat="45.84013" lon="4.741">
        <ele>268.90111</ele>
        <time>2022-09-18T14:37:44.000Z</time>
      </trkpt>
      <trkpt lat="45.8401" lon="4.74104">
        <ele>268.92252</ele>
        <time>2022-09-18T14:37:45.000Z</time>
      </trkpt>
      <trkpt lat="45.84006" lon="4.74109">
        <ele>268.88592</ele>
        <time>2022-09-18T14:37:46.000Z</time>
      </trkpt>
      <trkpt lat="45.84003" lon="4.74113">
        <ele>268.82982</ele>
        <time>2022-09-18T14:37:47.000Z</time>
      </trkpt>
      <trkpt lat="45.84" lon="4.74118">
        <ele>268.8526</ele>
        <time>2022-09-18T14:37:48.000Z</time>
      </trkpt>
      <trkpt lat="45.83997" lon="4.74123">
        <ele>268.82604</ele>
        <time>2022-09-18T14:37:49.000Z</time>
      </trkpt>
      <trkpt lat="45.83994" lon="4.74128">
        <ele>268.77891</ele>
        <time>2022-09-18T14:37:50.000Z</time>
      </trkpt>
      <trkpt lat="45.83991" lon="4.74134">
        <ele>268.68973</ele>
        <time>2022-09-18T14:37:51.000Z</time>
      </trkpt>
      <trkpt lat="45.83989" lon="4.74139">
        <ele>268.67626</ele>
        <time>2022-09-18T14:37:52.000Z</time>
      </trkpt>
      <trkpt lat="45.83987" lon="4.74145">
        <ele>268.72786</ele>
        <time>2022-09-18T14:37:53.000Z</time>
      </trkpt>
      <trkpt lat="45.83985" lon="4.74151">
        <ele>268.8097</ele>
        <time>2022-09-18T14:37:54.000Z</time>
      </trkpt>
      <trkpt lat="45.83983" lon="4.74158">
        <ele>268.95049</ele>
        <time>2022-09-18T14:37:55.000Z</time>
      </trkpt>
      <trkpt lat="45.83982" lon="4.74164">
        <ele>269.116</ele>
        <time>2022-09-18T14:37:56.000Z</time>
      </trkpt>
      <trkpt lat="45.8398" lon="4.7417">
        <ele>269.35531</ele>
        <time>2022-09-18T14:37:57.000Z</time>
      </trkpt>
      <trkpt lat="45.83979" lon="4.74176">
        <ele>269.62359</ele>
        <time>2022-09-18T14:37:58.000Z</time>
      </trkpt>
      <trkpt lat="45.83978" lon="4.74182">
        <ele>269.81353</ele>
        <time>2022-09-18T14:37:59.000Z</time>
      </trkpt>
      <trkpt lat="45.83977" lon="4.74187">
        <ele>270.00029</ele>
        <time>2022-09-18T14:38:00.000Z</time>
      </trkpt>
      <trkpt lat="45.83976" lon="4.74192">
        <ele>270.13609</ele>
        <time>2022-09-18T14:38:01.000Z</time>
      </trkpt>
      <trkpt lat="45.83975" lon="4.74198">
        <ele>270.27984</ele>
        <time>2022-09-18T14:38:02.000Z</time>
      </trkpt>
      <trkpt lat="45.83974" lon="4.74205">
        <ele>270.35714</ele>
        <time>2022-09-18T14:38:03.000Z</time>
      </trkpt>
      <trkpt lat="45.8397" lon="4.74215">
        <ele>269.82263</ele>
        <time>2022-09-18T14:38:04.000Z</time>
      </trkpt>
      <trkpt lat="45.83971" lon="4.74223">
        <ele>270.10601</ele>
        <time>2022-09-18T14:38:05.000Z</time>
      </trkpt>
      <trkpt lat="45.83969" lon="4.74229">
        <ele>269.84416</ele>
        <time>2022-09-18T14:38:06.000Z</time>
      </trkpt>
      <trkpt lat="45.83968" lon="4.74235">
        <ele>269.5695</ele>
        <time>2022-09-18T14:38:07.000Z</time>
      </trkpt>
      <trkpt lat="45.83967" lon="4.74238">
        <ele>269.37301</ele>
        <time>2022-09-18T14:38:08.000Z</time>
      </trkpt>
      <trkpt lat="45.83967" lon="4.74241">
        <ele>269.29778</ele>
        <time>2022-09-18T14:38:09.000Z</time>
      </trkpt>
      <trkpt lat="45.83966" lon="4.74244">
        <ele>269.09718</ele>
        <time>2022-09-18T14:38:10.000Z</time>
      </trkpt>
      <trkpt lat="45.83964" lon="4.74248">
        <ele>268.75236</ele>
        <time>2022-09-18T14:38:11.000Z</time>
      </trkpt>
      <trkpt lat="45.83964" lon="4.74252">
        <ele>268.54217</ele>
        <time>2022-09-18T14:38:12.000Z</time>
      </trkpt>
      <trkpt lat="45.83964" lon="4.74256">
        <ele>268.44919</ele>
        <time>2022-09-18T14:38:13.000Z</time>
      </trkpt>
      <trkpt lat="45.83963" lon="4.74261">
        <ele>268.23642</ele>
        <time>2022-09-18T14:38:14.000Z</time>
      </trkpt>
      <trkpt lat="45.83962" lon="4.74265">
        <ele>267.97414</ele>
        <time>2022-09-18T14:38:15.000Z</time>
      </trkpt>
      <trkpt lat="45.83961" lon="4.74268">
        <ele>267.68437</ele>
        <time>2022-09-18T14:38:16.000Z</time>
      </trkpt>
      <trkpt lat="45.83961" lon="4.74273">
        <ele>267.484</ele>
        <time>2022-09-18T14:38:17.000Z</time>
      </trkpt>
      <trkpt lat="45.83961" lon="4.74276">
        <ele>267.44638</ele>
        <time>2022-09-18T14:38:18.000Z</time>
      </trkpt>
      <trkpt lat="45.83962" lon="4.74282">
        <ele>267.4018</ele>
        <time>2022-09-18T14:38:20.000Z</time>
      </trkpt>
      <trkpt lat="45.83962" lon="4.74284">
        <ele>267.35851</ele>
        <time>2022-09-18T14:38:21.000Z</time>
      </trkpt>
      <trkpt lat="45.83962" lon="4.74287">
        <ele>267.18643</ele>
        <time>2022-09-18T14:38:22.000Z</time>
      </trkpt>
      <trkpt lat="45.83961" lon="4.7429">
        <ele>266.92272</ele>
        <time>2022-09-18T14:38:23.000Z</time>
      </trkpt>
      <trkpt lat="45.83959" lon="4.74292">
        <ele>266.59632</ele>
        <time>2022-09-18T14:38:24.000Z</time>
      </trkpt>
      <trkpt lat="45.83957" lon="4.74294">
        <ele>266.2307</ele>
        <time>2022-09-18T14:38:25.000Z</time>
      </trkpt>
      <trkpt lat="45.83955" lon="4.74296">
        <ele>265.86955</ele>
        <time>2022-09-18T14:38:26.000Z</time>
      </trkpt>
      <trkpt lat="45.83953" lon="4.74298">
        <ele>265.60389</ele>
        <time>2022-09-18T14:38:27.000Z</time>
      </trkpt>
      <trkpt lat="45.83951" lon="4.743">
        <ele>265.39975</ele>
        <time>2022-09-18T14:38:28.000Z</time>
      </trkpt>
      <trkpt lat="45.8395" lon="4.74303">
        <ele>265.26981</ele>
        <time>2022-09-18T14:38:29.000Z</time>
      </trkpt>
      <trkpt lat="45.83949" lon="4.74307">
        <ele>265.19624</ele>
        <time>2022-09-18T14:38:30.000Z</time>
      </trkpt>
      <trkpt lat="45.83948" lon="4.74311">
        <ele>265.17242</ele>
        <time>2022-09-18T14:38:31.000Z</time>
      </trkpt>
      <trkpt lat="45.83948" lon="4.74315">
        <ele>265.20163</ele>
        <time>2022-09-18T14:38:32.000Z</time>
      </trkpt>
      <trkpt lat="45.83947" lon="4.7432">
        <ele>265.26355</ele>
        <time>2022-09-18T14:38:33.000Z</time>
      </trkpt>
      <trkpt lat="45.83947" lon="4.74324">
        <ele>265.33183</ele>
        <time>2022-09-18T14:38:34.000Z</time>
      </trkpt>
      <trkpt lat="45.83946" lon="4.74329">
        <ele>265.42558</ele>
        <time>2022-09-18T14:38:35.000Z</time>
      </trkpt>
      <trkpt lat="45.83946" lon="4.74333">
        <ele>265.54556</ele>
        <time>2022-09-18T14:38:36.000Z</time>
      </trkpt>
      <trkpt lat="45.83945" lon="4.74338">
        <ele>265.69585</ele>
        <time>2022-09-18T14:38:37.000Z</time>
      </trkpt>
      <trkpt lat="45.83945" lon="4.74343">
        <ele>265.89191</ele>
        <time>2022-09-18T14:38:38.000Z</time>
      </trkpt>
      <trkpt lat="45.83946" lon="4.74348">
        <ele>266.14091</ele>
        <time>2022-09-18T14:38:39.000Z</time>
      </trkpt>
      <trkpt lat="45.83946" lon="4.74353">
        <ele>266.4026</ele>
        <time>2022-09-18T14:38:40.000Z</time>
      </trkpt>
      <trkpt lat="45.83947" lon="4.74357">
        <ele>266.67604</ele>
        <time>2022-09-18T14:38:41.000Z</time>
      </trkpt>
      <trkpt lat="45.83948" lon="4.74362">
        <ele>266.9108</ele>
        <time>2022-09-18T14:38:42.000Z</time>
      </trkpt>
      <trkpt lat="45.83949" lon="4.74366">
        <ele>267.14553</ele>
        <time>2022-09-18T14:38:43.000Z</time>
      </trkpt>
      <trkpt lat="45.8395" lon="4.7437">
        <ele>267.38507</ele>
        <time>2022-09-18T14:38:44.000Z</time>
      </trkpt>
      <trkpt lat="45.8395" lon="4.74374">
        <ele>267.58034</ele>
        <time>2022-09-18T14:38:45.000Z</time>
      </trkpt>
      <trkpt lat="45.8395" lon="4.74378">
        <ele>267.73062</ele>
        <time>2022-09-18T14:38:46.000Z</time>
      </trkpt>
      <trkpt lat="45.83949" lon="4.74382">
        <ele>267.83041</ele>
        <time>2022-09-18T14:38:47.000Z</time>
      </trkpt>
      <trkpt lat="45.83948" lon="4.74386">
        <ele>267.94554</ele>
        <time>2022-09-18T14:38:48.000Z</time>
      </trkpt>
      <trkpt lat="45.83946" lon="4.74391">
        <ele>268.12281</ele>
        <time>2022-09-18T14:38:49.000Z</time>
      </trkpt>
      <trkpt lat="45.83945" lon="4.74396">
        <ele>268.39037</ele>
        <time>2022-09-18T14:38:50.000Z</time>
      </trkpt>
      <trkpt lat="45.83944" lon="4.74402">
        <ele>268.68386</ele>
        <time>2022-09-18T14:38:51.000Z</time>
      </trkpt>
      <trkpt lat="45.83942" lon="4.74408">
        <ele>269.00147</ele>
        <time>2022-09-18T14:38:52.000Z</time>
      </trkpt>
      <trkpt lat="45.8394" lon="4.74413">
        <ele>269.34102</ele>
        <time>2022-09-18T14:38:53.000Z</time>
      </trkpt>
      <trkpt lat="45.83938" lon="4.74418">
        <ele>269.70595</ele>
        <time>2022-09-18T14:38:54.000Z</time>
      </trkpt>
      <trkpt lat="45.83936" lon="4.74424">
        <ele>270.12557</ele>
        <time>2022-09-18T14:38:55.000Z</time>
      </trkpt>
      <trkpt lat="45.83934" lon="4.74429">
        <ele>270.56928</ele>
        <time>2022-09-18T14:38:56.000Z</time>
      </trkpt>
      <trkpt lat="45.83933" lon="4.74434">
        <ele>271.0718</ele>
        <time>2022-09-18T14:38:57.000Z</time>
      </trkpt>
      <trkpt lat="45.8393" lon="4.7444">
        <ele>271.58022</ele>
        <time>2022-09-18T14:38:58.000Z</time>
      </trkpt>
      <trkpt lat="45.83928" lon="4.74445">
        <ele>272.02094</ele>
        <time>2022-09-18T14:38:59.000Z</time>
      </trkpt>
      <trkpt lat="45.83925" lon="4.74449">
        <ele>272.17766</ele>
        <time>2022-09-18T14:39:00.000Z</time>
      </trkpt>
      <trkpt lat="45.83923" lon="4.74456">
        <ele>272.58641</ele>
        <time>2022-09-18T14:39:01.000Z</time>
      </trkpt>
      <trkpt lat="45.83921" lon="4.74461">
        <ele>272.9706</ele>
        <time>2022-09-18T14:39:02.000Z</time>
      </trkpt>
      <trkpt lat="45.83919" lon="4.74466">
        <ele>273.13707</ele>
        <time>2022-09-18T14:39:03.000Z</time>
      </trkpt>
      <trkpt lat="45.83916" lon="4.74472">
        <ele>273.19062</ele>
        <time>2022-09-18T14:39:04.000Z</time>
      </trkpt>
      <trkpt lat="45.83914" lon="4.74477">
        <ele>273.27668</ele>
        <time>2022-09-18T14:39:05.000Z</time>
      </trkpt>
      <trkpt lat="45.83911" lon="4.74483">
        <ele>273.29272</ele>
        <time>2022-09-18T14:39:06.000Z</time>
      </trkpt>
      <trkpt lat="45.83909" lon="4.74489">
        <ele>273.20141</ele>
        <time>2022-09-18T14:39:07.000Z</time>
      </trkpt>
      <trkpt lat="45.83907" lon="4.74494">
        <ele>273.16072</ele>
        <time>2022-09-18T14:39:08.000Z</time>
      </trkpt>
      <trkpt lat="45.83905" lon="4.745">
        <ele>273.29151</ele>
        <time>2022-09-18T14:39:09.000Z</time>
      </trkpt>
      <trkpt lat="45.83904" lon="4.74506">
        <ele>273.432</ele>
        <time>2022-09-18T14:39:10.000Z</time>
      </trkpt>
      <trkpt lat="45.83903" lon="4.74512">
        <ele>273.51351</ele>
        <time>2022-09-18T14:39:11.000Z</time>
      </trkpt>
      <trkpt lat="45.83902" lon="4.74518">
        <ele>273.40183</ele>
        <time>2022-09-18T14:39:12.000Z</time>
      </trkpt>
      <trkpt lat="45.83902" lon="4.74524">
        <ele>273.37409</ele>
        <time>2022-09-18T14:39:13.000Z</time>
      </trkpt>
      <trkpt lat="45.83902" lon="4.74531">
        <ele>273.40798</ele>
        <time>2022-09-18T14:39:14.000Z</time>
      </trkpt>
      <trkpt lat="45.83901" lon="4.74536">
        <ele>273.26762</ele>
        <time>2022-09-18T14:39:15.000Z</time>
      </trkpt>
      <trkpt lat="45.83901" lon="4.74541">
        <ele>273.16095</ele>
        <time>2022-09-18T14:39:16.000Z</time>
      </trkpt>
      <trkpt lat="45.83902" lon="4.74547">
        <ele>273.23593</ele>
        <time>2022-09-18T14:39:17.000Z</time>
      </trkpt>
      <trkpt lat="45.83904" lon="4.74553">
        <ele>273.31002</ele>
        <time>2022-09-18T14:39:18.000Z</time>
      </trkpt>
      <trkpt lat="45.83904" lon="4.74561">
        <ele>272.77106</ele>
        <time>2022-09-18T14:39:19.000Z</time>
      </trkpt>
      <trkpt lat="45.83907" lon="4.74568">
        <ele>272.81052</ele>
        <time>2022-09-18T14:39:20.000Z</time>
      </trkpt>
      <trkpt lat="45.83909" lon="4.74574">
        <ele>272.52839</ele>
        <time>2022-09-18T14:39:21.000Z</time>
      </trkpt>
      <trkpt lat="45.83911" lon="4.74582">
        <ele>272.06975</ele>
        <time>2022-09-18T14:39:22.000Z</time>
      </trkpt>
      <trkpt lat="45.8391" lon="4.74589">
        <ele>271.47115</ele>
        <time>2022-09-18T14:39:23.000Z</time>
      </trkpt>
      <trkpt lat="45.8391" lon="4.74596">
        <ele>271.26243</ele>
        <time>2022-09-18T14:39:24.000Z</time>
      </trkpt>
      <trkpt lat="45.8391" lon="4.74602">
        <ele>271.14686</ele>
        <time>2022-09-18T14:39:25.000Z</time>
      </trkpt>
      <trkpt lat="45.83909" lon="4.74608">
        <ele>270.99047</ele>
        <time>2022-09-18T14:39:26.000Z</time>
      </trkpt>
      <trkpt lat="45.83907" lon="4.74616">
        <ele>271.0675</ele>
        <time>2022-09-18T14:39:27.000Z</time>
      </trkpt>
      <trkpt lat="45.83903" lon="4.74622">
        <ele>271.35474</ele>
        <time>2022-09-18T14:39:28.000Z</time>
      </trkpt>
      <trkpt lat="45.83903" lon="4.74627">
        <ele>271.96826</ele>
        <time>2022-09-18T14:39:29.000Z</time>
      </trkpt>
      <trkpt lat="45.83901" lon="4.74633">
        <ele>272.65393</ele>
        <time>2022-09-18T14:39:30.000Z</time>
      </trkpt>
      <trkpt lat="45.83898" lon="4.74638">
        <ele>273.40326</ele>
        <time>2022-09-18T14:39:31.000Z</time>
      </trkpt>
      <trkpt lat="45.83895" lon="4.74643">
        <ele>274.02142</ele>
        <time>2022-09-18T14:39:32.000Z</time>
      </trkpt>
      <trkpt lat="45.8389" lon="4.74648">
        <ele>274.38847</ele>
        <time>2022-09-18T14:39:33.000Z</time>
      </trkpt>
      <trkpt lat="45.83886" lon="4.74654">
        <ele>275.33605</ele>
        <time>2022-09-18T14:39:34.000Z</time>
      </trkpt>
      <trkpt lat="45.83884" lon="4.74658">
        <ele>276.02117</ele>
        <time>2022-09-18T14:39:35.000Z</time>
      </trkpt>
      <trkpt lat="45.83882" lon="4.74664">
        <ele>277.05174</ele>
        <time>2022-09-18T14:39:36.000Z</time>
      </trkpt>
      <trkpt lat="45.83878" lon="4.74668">
        <ele>277.38293</ele>
        <time>2022-09-18T14:39:37.000Z</time>
      </trkpt>
      <trkpt lat="45.83876" lon="4.7467">
        <ele>277.39009</ele>
        <time>2022-09-18T14:39:38.000Z</time>
      </trkpt>
      <trkpt lat="45.83875" lon="4.74674">
        <ele>278.01428</ele>
        <time>2022-09-18T14:39:39.000Z</time>
      </trkpt>
      <trkpt lat="45.83874" lon="4.74679">
        <ele>278.24646</ele>
        <time>2022-09-18T14:39:40.000Z</time>
      </trkpt>
      <trkpt lat="45.83871" lon="4.74687">
        <ele>278.32197</ele>
        <time>2022-09-18T14:39:41.000Z</time>
      </trkpt>
      <trkpt lat="45.83868" lon="4.74691">
        <ele>277.67495</ele>
        <time>2022-09-18T14:39:42.000Z</time>
      </trkpt>
      <trkpt lat="45.83866" lon="4.74695">
        <ele>277.14063</ele>
        <time>2022-09-18T14:39:43.000Z</time>
      </trkpt>
      <trkpt lat="45.83864" lon="4.74695">
        <ele>276.58894</ele>
        <time>2022-09-18T14:39:44.000Z</time>
      </trkpt>
      <trkpt lat="45.83862" lon="4.74699">
        <ele>276.21684</ele>
        <time>2022-09-18T14:39:45.000Z</time>
      </trkpt>
      <trkpt lat="45.8386" lon="4.74703">
        <ele>275.9462</ele>
        <time>2022-09-18T14:39:46.000Z</time>
      </trkpt>
      <trkpt lat="45.83857" lon="4.74706">
        <ele>275.593</ele>
        <time>2022-09-18T14:39:47.000Z</time>
      </trkpt>
      <trkpt lat="45.83854" lon="4.74708">
        <ele>275.25088</ele>
        <time>2022-09-18T14:39:48.000Z</time>
      </trkpt>
      <trkpt lat="45.83851" lon="4.74709">
        <ele>274.82883</ele>
        <time>2022-09-18T14:39:49.000Z</time>
      </trkpt>
      <trkpt lat="45.83846" lon="4.74711">
        <ele>274.48377</ele>
        <time>2022-09-18T14:39:50.000Z</time>
      </trkpt>
      <trkpt lat="45.83841" lon="4.74713">
        <ele>274.35093</ele>
        <time>2022-09-18T14:39:51.000Z</time>
      </trkpt>
      <trkpt lat="45.83836" lon="4.74715">
        <ele>274.37165</ele>
        <time>2022-09-18T14:39:52.000Z</time>
      </trkpt>
      <trkpt lat="45.83831" lon="4.74719">
        <ele>274.93256</ele>
        <time>2022-09-18T14:39:53.000Z</time>
      </trkpt>
      <trkpt lat="45.83826" lon="4.74723">
        <ele>275.83756</ele>
        <time>2022-09-18T14:39:54.000Z</time>
      </trkpt>
      <trkpt lat="45.83821" lon="4.74727">
        <ele>276.76046</ele>
        <time>2022-09-18T14:39:55.000Z</time>
      </trkpt>
      <trkpt lat="45.83817" lon="4.74731">
        <ele>277.57522</ele>
        <time>2022-09-18T14:39:56.000Z</time>
      </trkpt>
      <trkpt lat="45.83814" lon="4.74734">
        <ele>278.03128</ele>
        <time>2022-09-18T14:39:57.000Z</time>
      </trkpt>
      <trkpt lat="45.83811" lon="4.74736">
        <ele>278.31744</ele>
        <time>2022-09-18T14:39:58.000Z</time>
      </trkpt>
      <trkpt lat="45.83792" lon="4.7476">
        <ele>279.94478</ele>
        <time>2022-09-18T14:40:04.000Z</time>
      </trkpt>
      <trkpt lat="45.83789" lon="4.74766">
        <ele>280.33462</ele>
        <time>2022-09-18T14:40:05.000Z</time>
      </trkpt>
      <trkpt lat="45.83786" lon="4.74771">
        <ele>280.62633</ele>
        <time>2022-09-18T14:40:06.000Z</time>
      </trkpt>
      <trkpt lat="45.83784" lon="4.74776">
        <ele>280.85301</ele>
        <time>2022-09-18T14:40:07.000Z</time>
      </trkpt>
      <trkpt lat="45.83782" lon="4.74782">
        <ele>281.05822</ele>
        <time>2022-09-18T14:40:08.000Z</time>
      </trkpt>
      <trkpt lat="45.8378" lon="4.74787">
        <ele>281.1736</ele>
        <time>2022-09-18T14:40:09.000Z</time>
      </trkpt>
      <trkpt lat="45.83778" lon="4.74792">
        <ele>281.28442</ele>
        <time>2022-09-18T14:40:10.000Z</time>
      </trkpt>
      <trkpt lat="45.83776" lon="4.74797">
        <ele>281.34715</ele>
        <time>2022-09-18T14:40:11.000Z</time>
      </trkpt>
      <trkpt lat="45.83773" lon="4.74802">
        <ele>281.38018</ele>
        <time>2022-09-18T14:40:12.000Z</time>
      </trkpt>
      <trkpt lat="45.83771" lon="4.74807">
        <ele>281.37458</ele>
        <time>2022-09-18T14:40:13.000Z</time>
      </trkpt>
      <trkpt lat="45.83768" lon="4.74811">
        <ele>281.34826</ele>
        <time>2022-09-18T14:40:14.000Z</time>
      </trkpt>
      <trkpt lat="45.83765" lon="4.74816">
        <ele>281.23114</ele>
        <time>2022-09-18T14:40:15.000Z</time>
      </trkpt>
      <trkpt lat="45.83762" lon="4.7482">
        <ele>281.12146</ele>
        <time>2022-09-18T14:40:16.000Z</time>
      </trkpt>
      <trkpt lat="45.83759" lon="4.74824">
        <ele>280.87276</ele>
        <time>2022-09-18T14:40:17.000Z</time>
      </trkpt>
      <trkpt lat="45.83756" lon="4.74828">
        <ele>280.46389</ele>
        <time>2022-09-18T14:40:18.000Z</time>
      </trkpt>
      <trkpt lat="45.83752" lon="4.74833">
        <ele>280.06749</ele>
        <time>2022-09-18T14:40:19.000Z</time>
      </trkpt>
      <trkpt lat="45.83744" lon="4.74837">
        <ele>278.94624</ele>
        <time>2022-09-18T14:40:20.000Z</time>
      </trkpt>
      <trkpt lat="45.83739" lon="4.74841">
        <ele>278.69773</ele>
        <time>2022-09-18T14:40:21.000Z</time>
      </trkpt>
      <trkpt lat="45.83734" lon="4.74845">
        <ele>278.64608</ele>
        <time>2022-09-18T14:40:22.000Z</time>
      </trkpt>
      <trkpt lat="45.83729" lon="4.7485">
        <ele>279.18398</ele>
        <time>2022-09-18T14:40:23.000Z</time>
      </trkpt>
      <trkpt lat="45.83724" lon="4.74855">
        <ele>279.67462</ele>
        <time>2022-09-18T14:40:24.000Z</time>
      </trkpt>
      <trkpt lat="45.83719" lon="4.74857">
        <ele>279.74387</ele>
        <time>2022-09-18T14:40:25.000Z</time>
      </trkpt>
      <trkpt lat="45.83715" lon="4.74861">
        <ele>280.07061</ele>
        <time>2022-09-18T14:40:26.000Z</time>
      </trkpt>
      <trkpt lat="45.8371" lon="4.74863">
        <ele>279.96799</ele>
        <time>2022-09-18T14:40:27.000Z</time>
      </trkpt>
      <trkpt lat="45.83706" lon="4.74865">
        <ele>280.08759</ele>
        <time>2022-09-18T14:40:28.000Z</time>
      </trkpt>
      <trkpt lat="45.837" lon="4.74868">
        <ele>280.00997</ele>
        <time>2022-09-18T14:40:29.000Z</time>
      </trkpt>
      <trkpt lat="45.83698" lon="4.74872">
        <ele>280.4525</ele>
        <time>2022-09-18T14:40:30.000Z</time>
      </trkpt>
      <trkpt lat="45.83694" lon="4.74873">
        <ele>280.28361</ele>
        <time>2022-09-18T14:40:31.000Z</time>
      </trkpt>
      <trkpt lat="45.83691" lon="4.74876">
        <ele>280.53421</ele>
        <time>2022-09-18T14:40:32.000Z</time>
      </trkpt>
      <trkpt lat="45.83689" lon="4.74878">
        <ele>280.89663</ele>
        <time>2022-09-18T14:40:33.000Z</time>
      </trkpt>
      <trkpt lat="45.83685" lon="4.74881">
        <ele>281.02766</ele>
        <time>2022-09-18T14:40:34.000Z</time>
      </trkpt>
      <trkpt lat="45.83682" lon="4.74884">
        <ele>281.2708</ele>
        <time>2022-09-18T14:40:35.000Z</time>
      </trkpt>
      <trkpt lat="45.83679" lon="4.74887">
        <ele>281.72841</ele>
        <time>2022-09-18T14:40:36.000Z</time>
      </trkpt>
      <trkpt lat="45.83676" lon="4.7489">
        <ele>281.86369</ele>
        <time>2022-09-18T14:40:37.000Z</time>
      </trkpt>
      <trkpt lat="45.83674" lon="4.74892">
        <ele>282.12194</ele>
        <time>2022-09-18T14:40:38.000Z</time>
      </trkpt>
      <trkpt lat="45.83673" lon="4.74895">
        <ele>282.52919</ele>
        <time>2022-09-18T14:40:39.000Z</time>
      </trkpt>
      <trkpt lat="45.83671" lon="4.74899">
        <ele>282.77286</ele>
        <time>2022-09-18T14:40:40.000Z</time>
      </trkpt>
      <trkpt lat="45.8367" lon="4.74902">
        <ele>283.09711</ele>
        <time>2022-09-18T14:40:41.000Z</time>
      </trkpt>
      <trkpt lat="45.83669" lon="4.74905">
        <ele>283.38672</ele>
        <time>2022-09-18T14:40:42.000Z</time>
      </trkpt>
      <trkpt lat="45.83668" lon="4.74908">
        <ele>283.6559</ele>
        <time>2022-09-18T14:40:43.000Z</time>
      </trkpt>
      <trkpt lat="45.83666" lon="4.74911">
        <ele>283.79332</ele>
        <time>2022-09-18T14:40:44.000Z</time>
      </trkpt>
      <trkpt lat="45.83665" lon="4.74914">
        <ele>283.84626</ele>
        <time>2022-09-18T14:40:45.000Z</time>
      </trkpt>
      <trkpt lat="45.83663" lon="4.74918">
        <ele>283.89004</ele>
        <time>2022-09-18T14:40:46.000Z</time>
      </trkpt>
      <trkpt lat="45.83661" lon="4.74921">
        <ele>283.76653</ele>
        <time>2022-09-18T14:40:47.000Z</time>
      </trkpt>
      <trkpt lat="45.8366" lon="4.74924">
        <ele>283.63714</ele>
        <time>2022-09-18T14:40:48.000Z</time>
      </trkpt>
      <trkpt lat="45.83658" lon="4.74927">
        <ele>283.48826</ele>
        <time>2022-09-18T14:40:49.000Z</time>
      </trkpt>
      <trkpt lat="45.83656" lon="4.74931">
        <ele>283.48489</ele>
        <time>2022-09-18T14:40:50.000Z</time>
      </trkpt>
      <trkpt lat="45.83655" lon="4.74935">
        <ele>283.61138</ele>
        <time>2022-09-18T14:40:51.000Z</time>
      </trkpt>
      <trkpt lat="45.83654" lon="4.74939">
        <ele>283.79954</ele>
        <time>2022-09-18T14:40:52.000Z</time>
      </trkpt>
      <trkpt lat="45.83652" lon="4.74944">
        <ele>284.03109</ele>
        <time>2022-09-18T14:40:53.000Z</time>
      </trkpt>
      <trkpt lat="45.83651" lon="4.74948">
        <ele>284.12302</ele>
        <time>2022-09-18T14:40:54.000Z</time>
      </trkpt>
      <trkpt lat="45.8365" lon="4.74953">
        <ele>284.24078</ele>
        <time>2022-09-18T14:40:55.000Z</time>
      </trkpt>
      <trkpt lat="45.83649" lon="4.74957">
        <ele>284.39864</ele>
        <time>2022-09-18T14:40:56.000Z</time>
      </trkpt>
      <trkpt lat="45.83648" lon="4.74962">
        <ele>284.5183</ele>
        <time>2022-09-18T14:40:57.000Z</time>
      </trkpt>
      <trkpt lat="45.83647" lon="4.74968">
        <ele>284.75183</ele>
        <time>2022-09-18T14:40:58.000Z</time>
      </trkpt>
      <trkpt lat="45.83646" lon="4.74974">
        <ele>285.06456</ele>
        <time>2022-09-18T14:40:59.000Z</time>
      </trkpt>
      <trkpt lat="45.83645" lon="4.74981">
        <ele>285.32307</ele>
        <time>2022-09-18T14:41:00.000Z</time>
      </trkpt>
      <trkpt lat="45.83643" lon="4.74993">
        <ele>285.1844</ele>
        <time>2022-09-18T14:41:01.000Z</time>
      </trkpt>
      <trkpt lat="45.83643" lon="4.75001">
        <ele>284.67162</ele>
        <time>2022-09-18T14:41:02.000Z</time>
      </trkpt>
      <trkpt lat="45.83642" lon="4.75009">
        <ele>283.69587</ele>
        <time>2022-09-18T14:41:03.000Z</time>
      </trkpt>
      <trkpt lat="45.83642" lon="4.75016">
        <ele>283.20841</ele>
        <time>2022-09-18T14:41:04.000Z</time>
      </trkpt>
      <trkpt lat="45.83641" lon="4.7502">
        <ele>282.82116</ele>
        <time>2022-09-18T14:41:05.000Z</time>
      </trkpt>
      <trkpt lat="45.83641" lon="4.75022">
        <ele>282.58481</ele>
        <time>2022-09-18T14:41:06.000Z</time>
      </trkpt>
      <trkpt lat="45.8364" lon="4.75027">
        <ele>282.35527</ele>
        <time>2022-09-18T14:41:08.000Z</time>
      </trkpt>
      <trkpt lat="45.83638" lon="4.7503">
        <ele>282.05441</ele>
        <time>2022-09-18T14:41:10.000Z</time>
      </trkpt>
      <trkpt lat="45.83638" lon="4.75033">
        <ele>282.00738</ele>
        <time>2022-09-18T14:41:11.000Z</time>
      </trkpt>
      <trkpt lat="45.83635" lon="4.7504">
        <ele>282.04455</ele>
        <time>2022-09-18T14:41:12.000Z</time>
      </trkpt>
      <trkpt lat="45.83634" lon="4.75042">
        <ele>281.98524</ele>
        <time>2022-09-18T14:41:13.000Z</time>
      </trkpt>
      <trkpt lat="45.83631" lon="4.75046">
        <ele>282.04046</ele>
        <time>2022-09-18T14:41:14.000Z</time>
      </trkpt>
      <trkpt lat="45.83629" lon="4.75049">
        <ele>282.1487</ele>
        <time>2022-09-18T14:41:15.000Z</time>
      </trkpt>
      <trkpt lat="45.83627" lon="4.75052">
        <ele>282.27732</ele>
        <time>2022-09-18T14:41:16.000Z</time>
      </trkpt>
      <trkpt lat="45.83624" lon="4.75055">
        <ele>282.42019</ele>
        <time>2022-09-18T14:41:17.000Z</time>
      </trkpt>
      <trkpt lat="45.83622" lon="4.75058">
        <ele>282.52977</ele>
        <time>2022-09-18T14:41:18.000Z</time>
      </trkpt>
      <trkpt lat="45.83619" lon="4.7506">
        <ele>282.56681</ele>
        <time>2022-09-18T14:41:19.000Z</time>
      </trkpt>
      <trkpt lat="45.83616" lon="4.75063">
        <ele>282.60693</ele>
        <time>2022-09-18T14:41:20.000Z</time>
      </trkpt>
      <trkpt lat="45.83614" lon="4.75067">
        <ele>282.65923</ele>
        <time>2022-09-18T14:41:21.000Z</time>
      </trkpt>
      <trkpt lat="45.83611" lon="4.7507">
        <ele>282.77794</ele>
        <time>2022-09-18T14:41:22.000Z</time>
      </trkpt>
      <trkpt lat="45.83609" lon="4.75073">
        <ele>282.93573</ele>
        <time>2022-09-18T14:41:23.000Z</time>
      </trkpt>
      <trkpt lat="45.83607" lon="4.75077">
        <ele>283.13714</ele>
        <time>2022-09-18T14:41:24.000Z</time>
      </trkpt>
      <trkpt lat="45.83605" lon="4.75081">
        <ele>283.39526</ele>
        <time>2022-09-18T14:41:25.000Z</time>
      </trkpt>
      <trkpt lat="45.83603" lon="4.75086">
        <ele>283.80602</ele>
        <time>2022-09-18T14:41:26.000Z</time>
      </trkpt>
      <trkpt lat="45.83601" lon="4.7509">
        <ele>284.22269</ele>
        <time>2022-09-18T14:41:27.000Z</time>
      </trkpt>
      <trkpt lat="45.836" lon="4.75095">
        <ele>284.6587</ele>
        <time>2022-09-18T14:41:28.000Z</time>
      </trkpt>
      <trkpt lat="45.83598" lon="4.75099">
        <ele>284.98998</ele>
        <time>2022-09-18T14:41:29.000Z</time>
      </trkpt>
      <trkpt lat="45.83596" lon="4.75102">
        <ele>285.27349</ele>
        <time>2022-09-18T14:41:30.000Z</time>
      </trkpt>
      <trkpt lat="45.83593" lon="4.75106">
        <ele>285.51553</ele>
        <time>2022-09-18T14:41:31.000Z</time>
      </trkpt>
      <trkpt lat="45.83591" lon="4.75111">
        <ele>285.85643</ele>
        <time>2022-09-18T14:41:32.000Z</time>
      </trkpt>
      <trkpt lat="45.83589" lon="4.75115">
        <ele>286.31488</ele>
        <time>2022-09-18T14:41:33.000Z</time>
      </trkpt>
      <trkpt lat="45.83587" lon="4.7512">
        <ele>286.78083</ele>
        <time>2022-09-18T14:41:34.000Z</time>
      </trkpt>
      <trkpt lat="45.83584" lon="4.75124">
        <ele>287.18102</ele>
        <time>2022-09-18T14:41:35.000Z</time>
      </trkpt>
      <trkpt lat="45.83582" lon="4.75127">
        <ele>287.47757</ele>
        <time>2022-09-18T14:41:36.000Z</time>
      </trkpt>
      <trkpt lat="45.83579" lon="4.75131">
        <ele>287.7177</ele>
        <time>2022-09-18T14:41:37.000Z</time>
      </trkpt>
      <trkpt lat="45.83576" lon="4.75134">
        <ele>287.85709</ele>
        <time>2022-09-18T14:41:38.000Z</time>
      </trkpt>
      <trkpt lat="45.83573" lon="4.75138">
        <ele>287.95146</ele>
        <time>2022-09-18T14:41:39.000Z</time>
      </trkpt>
      <trkpt lat="45.83571" lon="4.75141">
        <ele>288.03089</ele>
        <time>2022-09-18T14:41:40.000Z</time>
      </trkpt>
      <trkpt lat="45.83569" lon="4.75143">
        <ele>288.08282</ele>
        <time>2022-09-18T14:41:41.000Z</time>
      </trkpt>
      <trkpt lat="45.83567" lon="4.75144">
        <ele>287.99542</ele>
        <time>2022-09-18T14:41:42.000Z</time>
      </trkpt>
      <trkpt lat="45.83565" lon="4.75146">
        <ele>287.80829</ele>
        <time>2022-09-18T14:41:43.000Z</time>
      </trkpt>
      <trkpt lat="45.83562" lon="4.75147">
        <ele>287.66735</ele>
        <time>2022-09-18T14:41:44.000Z</time>
      </trkpt>
      <trkpt lat="45.8356" lon="4.7515">
        <ele>287.75649</ele>
        <time>2022-09-18T14:41:45.000Z</time>
      </trkpt>
      <trkpt lat="45.83557" lon="4.75153">
        <ele>287.96328</ele>
        <time>2022-09-18T14:41:46.000Z</time>
      </trkpt>
      <trkpt lat="45.83555" lon="4.75156">
        <ele>288.06742</ele>
        <time>2022-09-18T14:41:47.000Z</time>
      </trkpt>
      <trkpt lat="45.83552" lon="4.75158">
        <ele>288.00947</ele>
        <time>2022-09-18T14:41:48.000Z</time>
      </trkpt>
      <trkpt lat="45.8355" lon="4.75161">
        <ele>287.99309</ele>
        <time>2022-09-18T14:41:49.000Z</time>
      </trkpt>
      <trkpt lat="45.83547" lon="4.75164">
        <ele>288.01374</ele>
        <time>2022-09-18T14:41:50.000Z</time>
      </trkpt>
      <trkpt lat="45.83545" lon="4.75166">
        <ele>288.02504</ele>
        <time>2022-09-18T14:41:51.000Z</time>
      </trkpt>
      <trkpt lat="45.83542" lon="4.7517">
        <ele>288.04031</ele>
        <time>2022-09-18T14:41:52.000Z</time>
      </trkpt>
      <trkpt lat="45.83539" lon="4.75172">
        <ele>287.89398</ele>
        <time>2022-09-18T14:41:53.000Z</time>
      </trkpt>
      <trkpt lat="45.83536" lon="4.75175">
        <ele>287.5463</ele>
        <time>2022-09-18T14:41:54.000Z</time>
      </trkpt>
      <trkpt lat="45.83533" lon="4.75177">
        <ele>287.10098</ele>
        <time>2022-09-18T14:41:55.000Z</time>
      </trkpt>
      <trkpt lat="45.83531" lon="4.7518">
        <ele>286.77257</ele>
        <time>2022-09-18T14:41:56.000Z</time>
      </trkpt>
      <trkpt lat="45.83528" lon="4.75184">
        <ele>286.32601</ele>
        <time>2022-09-18T14:41:57.000Z</time>
      </trkpt>
      <trkpt lat="45.83525" lon="4.75189">
        <ele>285.63058</ele>
        <time>2022-09-18T14:41:58.000Z</time>
      </trkpt>
      <trkpt lat="45.83521" lon="4.75193">
        <ele>284.69307</ele>
        <time>2022-09-18T14:41:59.000Z</time>
      </trkpt>
      <trkpt lat="45.83519" lon="4.75197">
        <ele>284.19326</ele>
        <time>2022-09-18T14:42:00.000Z</time>
      </trkpt>
      <trkpt lat="45.83517" lon="4.752">
        <ele>283.92196</ele>
        <time>2022-09-18T14:42:01.000Z</time>
      </trkpt>
      <trkpt lat="45.83516" lon="4.75202">
        <ele>283.77437</ele>
        <time>2022-09-18T14:42:02.000Z</time>
      </trkpt>
      <trkpt lat="45.83514" lon="4.75204">
        <ele>283.60813</ele>
        <time>2022-09-18T14:42:03.000Z</time>
      </trkpt>
      <trkpt lat="45.83512" lon="4.75206">
        <ele>283.46375</ele>
        <time>2022-09-18T14:42:04.000Z</time>
      </trkpt>
      <trkpt lat="45.8351" lon="4.75208">
        <ele>283.53591</ele>
        <time>2022-09-18T14:42:05.000Z</time>
      </trkpt>
      <trkpt lat="45.83506" lon="4.7521">
        <ele>283.84891</ele>
        <time>2022-09-18T14:42:06.000Z</time>
      </trkpt>
      <trkpt lat="45.83503" lon="4.75212">
        <ele>284.40966</ele>
        <time>2022-09-18T14:42:07.000Z</time>
      </trkpt>
      <trkpt lat="45.835" lon="4.75213">
        <ele>285.0046</ele>
        <time>2022-09-18T14:42:08.000Z</time>
      </trkpt>
      <trkpt lat="45.83497" lon="4.75213">
        <ele>285.47461</ele>
        <time>2022-09-18T14:42:09.000Z</time>
      </trkpt>
      <trkpt lat="45.83493" lon="4.75212">
        <ele>285.77274</ele>
        <time>2022-09-18T14:42:10.000Z</time>
      </trkpt>
      <trkpt lat="45.8349" lon="4.75211">
        <ele>285.85577</ele>
        <time>2022-09-18T14:42:11.000Z</time>
      </trkpt>
      <trkpt lat="45.83487" lon="4.75211">
        <ele>285.95595</ele>
        <time>2022-09-18T14:42:12.000Z</time>
      </trkpt>
      <trkpt lat="45.83484" lon="4.7521">
        <ele>286.04309</ele>
        <time>2022-09-18T14:42:13.000Z</time>
      </trkpt>
      <trkpt lat="45.83481" lon="4.7521">
        <ele>286.33207</ele>
        <time>2022-09-18T14:42:14.000Z</time>
      </trkpt>
      <trkpt lat="45.83478" lon="4.75211">
        <ele>286.82224</ele>
        <time>2022-09-18T14:42:15.000Z</time>
      </trkpt>
      <trkpt lat="45.83476" lon="4.75213">
        <ele>287.25993</ele>
        <time>2022-09-18T14:42:16.000Z</time>
      </trkpt>
      <trkpt lat="45.83473" lon="4.75214">
        <ele>287.6404</ele>
        <time>2022-09-18T14:42:17.000Z</time>
      </trkpt>
      <trkpt lat="45.8347" lon="4.75215">
        <ele>288.05348</ele>
        <time>2022-09-18T14:42:18.000Z</time>
      </trkpt>
      <trkpt lat="45.83467" lon="4.75217">
        <ele>288.38083</ele>
        <time>2022-09-18T14:42:19.000Z</time>
      </trkpt>
      <trkpt lat="45.83464" lon="4.75219">
        <ele>288.68568</ele>
        <time>2022-09-18T14:42:20.000Z</time>
      </trkpt>
      <trkpt lat="45.83461" lon="4.75221">
        <ele>289.06679</ele>
        <time>2022-09-18T14:42:21.000Z</time>
      </trkpt>
      <trkpt lat="45.83457" lon="4.75225">
        <ele>289.56247</ele>
        <time>2022-09-18T14:42:22.000Z</time>
      </trkpt>
      <trkpt lat="45.83454" lon="4.75228">
        <ele>290.03338</ele>
        <time>2022-09-18T14:42:23.000Z</time>
      </trkpt>
      <trkpt lat="45.8345" lon="4.75231">
        <ele>290.28943</ele>
        <time>2022-09-18T14:42:24.000Z</time>
      </trkpt>
      <trkpt lat="45.83447" lon="4.75233">
        <ele>290.41032</ele>
        <time>2022-09-18T14:42:25.000Z</time>
      </trkpt>
      <trkpt lat="45.83443" lon="4.75235">
        <ele>290.45889</ele>
        <time>2022-09-18T14:42:26.000Z</time>
      </trkpt>
      <trkpt lat="45.8344" lon="4.75237">
        <ele>290.40156</ele>
        <time>2022-09-18T14:42:27.000Z</time>
      </trkpt>
      <trkpt lat="45.83438" lon="4.75239">
        <ele>290.26136</ele>
        <time>2022-09-18T14:42:28.000Z</time>
      </trkpt>
      <trkpt lat="45.83435" lon="4.75241">
        <ele>290.05784</ele>
        <time>2022-09-18T14:42:29.000Z</time>
      </trkpt>
      <trkpt lat="45.83431" lon="4.75244">
        <ele>289.68503</ele>
        <time>2022-09-18T14:42:30.000Z</time>
      </trkpt>
      <trkpt lat="45.83427" lon="4.75247">
        <ele>289.10812</ele>
        <time>2022-09-18T14:42:31.000Z</time>
      </trkpt>
      <trkpt lat="45.8342" lon="4.75252">
        <ele>288.23163</ele>
        <time>2022-09-18T14:42:32.000Z</time>
      </trkpt>
      <trkpt lat="45.83419" lon="4.75258">
        <ele>288.60497</ele>
        <time>2022-09-18T14:42:33.000Z</time>
      </trkpt>
      <trkpt lat="45.83417" lon="4.75265">
        <ele>288.85411</ele>
        <time>2022-09-18T14:42:34.000Z</time>
      </trkpt>
      <trkpt lat="45.83414" lon="4.7527">
        <ele>288.51115</ele>
        <time>2022-09-18T14:42:35.000Z</time>
      </trkpt>
      <trkpt lat="45.83413" lon="4.75275">
        <ele>288.38506</ele>
        <time>2022-09-18T14:42:36.000Z</time>
      </trkpt>
      <trkpt lat="45.83415" lon="4.75279">
        <ele>289.24961</ele>
        <time>2022-09-18T14:42:37.000Z</time>
      </trkpt>
      <trkpt lat="45.83414" lon="4.75282">
        <ele>289.01479</ele>
        <time>2022-09-18T14:42:38.000Z</time>
      </trkpt>
      <trkpt lat="45.83416" lon="4.75283">
        <ele>289.74251</ele>
        <time>2022-09-18T14:42:39.000Z</time>
      </trkpt>
      <trkpt lat="45.83414" lon="4.75287">
        <ele>289.00861</ele>
        <time>2022-09-18T14:42:40.000Z</time>
      </trkpt>
      <trkpt lat="45.83412" lon="4.75287">
        <ele>288.36138</ele>
        <time>2022-09-18T14:42:42.000Z</time>
      </trkpt>
      <trkpt lat="45.83411" lon="4.7529">
        <ele>287.9584</ele>
        <time>2022-09-18T14:42:47.000Z</time>
      </trkpt>
      <trkpt lat="45.83409" lon="4.75288">
        <ele>287.3851</ele>
        <time>2022-09-18T14:42:53.000Z</time>
      </trkpt>
      <trkpt lat="45.83406" lon="4.7529">
        <ele>286.57268</ele>
        <time>2022-09-18T14:42:57.000Z</time>
      </trkpt>
      <trkpt lat="45.83404" lon="4.75293">
        <ele>286.11726</ele>
        <time>2022-09-18T14:42:58.000Z</time>
      </trkpt>
      <trkpt lat="45.83402" lon="4.75296">
        <ele>285.73212</ele>
        <time>2022-09-18T14:42:59.000Z</time>
      </trkpt>
      <trkpt lat="45.83401" lon="4.75298">
        <ele>285.47685</ele>
        <time>2022-09-18T14:43:00.000Z</time>
      </trkpt>
      <trkpt lat="45.83398" lon="4.75301">
        <ele>285.16437</ele>
        <time>2022-09-18T14:43:02.000Z</time>
      </trkpt>
      <trkpt lat="45.83396" lon="4.75303">
        <ele>285.10616</ele>
        <time>2022-09-18T14:43:05.000Z</time>
      </trkpt>
      <trkpt lat="45.83394" lon="4.75302">
        <ele>284.91898</ele>
        <time>2022-09-18T14:43:08.000Z</time>
      </trkpt>
      <trkpt lat="45.83392" lon="4.75304">
        <ele>284.90378</ele>
        <time>2022-09-18T14:43:09.000Z</time>
      </trkpt>
      <trkpt lat="45.83389" lon="4.75305">
        <ele>284.99525</ele>
        <time>2022-09-18T14:43:10.000Z</time>
      </trkpt>
      <trkpt lat="45.83386" lon="4.75307">
        <ele>285.15746</ele>
        <time>2022-09-18T14:43:11.000Z</time>
      </trkpt>
      <trkpt lat="45.83383" lon="4.75308">
        <ele>285.36569</ele>
        <time>2022-09-18T14:43:12.000Z</time>
      </trkpt>
      <trkpt lat="45.8338" lon="4.75309">
        <ele>285.68331</ele>
        <time>2022-09-18T14:43:13.000Z</time>
      </trkpt>
      <trkpt lat="45.83377" lon="4.75311">
        <ele>286.04615</ele>
        <time>2022-09-18T14:43:14.000Z</time>
      </trkpt>
      <trkpt lat="45.83374" lon="4.75312">
        <ele>286.47507</ele>
        <time>2022-09-18T14:43:15.000Z</time>
      </trkpt>
      <trkpt lat="45.83371" lon="4.75313">
        <ele>287.07199</ele>
        <time>2022-09-18T14:43:16.000Z</time>
      </trkpt>
      <trkpt lat="45.83366" lon="4.75314">
        <ele>287.73048</ele>
        <time>2022-09-18T14:43:17.000Z</time>
      </trkpt>
      <trkpt lat="45.83361" lon="4.75313">
        <ele>288.29209</ele>
        <time>2022-09-18T14:43:18.000Z</time>
      </trkpt>
      <trkpt lat="45.83357" lon="4.75312">
        <ele>288.49168</ele>
        <time>2022-09-18T14:43:19.000Z</time>
      </trkpt>
      <trkpt lat="45.83353" lon="4.7531">
        <ele>288.36204</ele>
        <time>2022-09-18T14:43:20.000Z</time>
      </trkpt>
      <trkpt lat="45.83349" lon="4.75308">
        <ele>288.15246</ele>
        <time>2022-09-18T14:43:21.000Z</time>
      </trkpt>
      <trkpt lat="45.83345" lon="4.75308">
        <ele>288.00136</ele>
        <time>2022-09-18T14:43:22.000Z</time>
      </trkpt>
      <trkpt lat="45.83341" lon="4.75309">
        <ele>287.93822</ele>
        <time>2022-09-18T14:43:23.000Z</time>
      </trkpt>
      <trkpt lat="45.83337" lon="4.75311">
        <ele>287.93414</ele>
        <time>2022-09-18T14:43:24.000Z</time>
      </trkpt>
      <trkpt lat="45.83333" lon="4.75313">
        <ele>287.96862</ele>
        <time>2022-09-18T14:43:25.000Z</time>
      </trkpt>
      <trkpt lat="45.83329" lon="4.75316">
        <ele>288.05456</ele>
        <time>2022-09-18T14:43:26.000Z</time>
      </trkpt>
      <trkpt lat="45.83325" lon="4.75319">
        <ele>288.08199</ele>
        <time>2022-09-18T14:43:27.000Z</time>
      </trkpt>
      <trkpt lat="45.83322" lon="4.75322">
        <ele>288.12622</ele>
        <time>2022-09-18T14:43:28.000Z</time>
      </trkpt>
      <trkpt lat="45.83319" lon="4.75326">
        <ele>288.18361</ele>
        <time>2022-09-18T14:43:29.000Z</time>
      </trkpt>
      <trkpt lat="45.83317" lon="4.75328">
        <ele>288.22581</ele>
        <time>2022-09-18T14:43:30.000Z</time>
      </trkpt>
      <trkpt lat="45.83314" lon="4.7533">
        <ele>288.22675</ele>
        <time>2022-09-18T14:43:31.000Z</time>
      </trkpt>
      <trkpt lat="45.83311" lon="4.75333">
        <ele>288.1893</ele>
        <time>2022-09-18T14:43:32.000Z</time>
      </trkpt>
      <trkpt lat="45.83308" lon="4.75336">
        <ele>288.20698</ele>
        <time>2022-09-18T14:43:33.000Z</time>
      </trkpt>
      <trkpt lat="45.83304" lon="4.75338">
        <ele>288.20095</ele>
        <time>2022-09-18T14:43:34.000Z</time>
      </trkpt>
      <trkpt lat="45.83301" lon="4.7534">
        <ele>288.20884</ele>
        <time>2022-09-18T14:43:35.000Z</time>
      </trkpt>
      <trkpt lat="45.83298" lon="4.75342">
        <ele>288.30906</ele>
        <time>2022-09-18T14:43:36.000Z</time>
      </trkpt>
      <trkpt lat="45.83295" lon="4.75344">
        <ele>288.46593</ele>
        <time>2022-09-18T14:43:37.000Z</time>
      </trkpt>
      <trkpt lat="45.83292" lon="4.75346">
        <ele>288.65934</ele>
        <time>2022-09-18T14:43:38.000Z</time>
      </trkpt>
      <trkpt lat="45.83288" lon="4.75348">
        <ele>288.88628</ele>
        <time>2022-09-18T14:43:39.000Z</time>
      </trkpt>
      <trkpt lat="45.83284" lon="4.75349">
        <ele>289.10138</ele>
        <time>2022-09-18T14:43:40.000Z</time>
      </trkpt>
      <trkpt lat="45.8328" lon="4.75351">
        <ele>289.48508</ele>
        <time>2022-09-18T14:43:41.000Z</time>
      </trkpt>
      <trkpt lat="45.83277" lon="4.75352">
        <ele>290.00538</ele>
        <time>2022-09-18T14:43:42.000Z</time>
      </trkpt>
      <trkpt lat="45.83273" lon="4.75355">
        <ele>290.68444</ele>
        <time>2022-09-18T14:43:43.000Z</time>
      </trkpt>
      <trkpt lat="45.8327" lon="4.75357">
        <ele>291.31146</ele>
        <time>2022-09-18T14:43:44.000Z</time>
      </trkpt>
      <trkpt lat="45.83266" lon="4.75358">
        <ele>291.803</ele>
        <time>2022-09-18T14:43:45.000Z</time>
      </trkpt>
      <trkpt lat="45.83262" lon="4.75359">
        <ele>292.17326</ele>
        <time>2022-09-18T14:43:46.000Z</time>
      </trkpt>
      <trkpt lat="45.83258" lon="4.75361">
        <ele>292.51174</ele>
        <time>2022-09-18T14:43:47.000Z</time>
      </trkpt>
      <trkpt lat="45.83254" lon="4.75362">
        <ele>292.80936</ele>
        <time>2022-09-18T14:43:48.000Z</time>
      </trkpt>
      <trkpt lat="45.8325" lon="4.75363">
        <ele>293.0332</ele>
        <time>2022-09-18T14:43:49.000Z</time>
      </trkpt>
      <trkpt lat="45.83246" lon="4.75364">
        <ele>293.30885</ele>
        <time>2022-09-18T14:43:50.000Z</time>
      </trkpt>
      <trkpt lat="45.83243" lon="4.75366">
        <ele>293.61709</ele>
        <time>2022-09-18T14:43:51.000Z</time>
      </trkpt>
      <trkpt lat="45.8324" lon="4.75367">
        <ele>293.9108</ele>
        <time>2022-09-18T14:43:52.000Z</time>
      </trkpt>
      <trkpt lat="45.83237" lon="4.75368">
        <ele>294.07334</ele>
        <time>2022-09-18T14:43:53.000Z</time>
      </trkpt>
      <trkpt lat="45.83234" lon="4.75368">
        <ele>294.15284</ele>
        <time>2022-09-18T14:43:54.000Z</time>
      </trkpt>
      <trkpt lat="45.83231" lon="4.75369">
        <ele>294.2328</ele>
        <time>2022-09-18T14:43:55.000Z</time>
      </trkpt>
      <trkpt lat="45.83229" lon="4.75369">
        <ele>294.34205</ele>
        <time>2022-09-18T14:43:56.000Z</time>
      </trkpt>
      <trkpt lat="45.83227" lon="4.7537">
        <ele>294.39138</ele>
        <time>2022-09-18T14:43:57.000Z</time>
      </trkpt>
      <trkpt lat="45.83225" lon="4.7537">
        <ele>294.34879</ele>
        <time>2022-09-18T14:43:58.000Z</time>
      </trkpt>
      <trkpt lat="45.83223" lon="4.75368">
        <ele>293.92753</ele>
        <time>2022-09-18T14:44:00.000Z</time>
      </trkpt>
      <trkpt lat="45.83223" lon="4.75366">
        <ele>293.27587</ele>
        <time>2022-09-18T14:44:05.000Z</time>
      </trkpt>
      <trkpt lat="45.83221" lon="4.75364">
        <ele>292.83264</ele>
        <time>2022-09-18T14:44:12.000Z</time>
      </trkpt>
      <trkpt lat="45.83219" lon="4.75364">
        <ele>292.75425</ele>
        <time>2022-09-18T14:44:14.000Z</time>
      </trkpt>
      <trkpt lat="45.83215" lon="4.75364">
        <ele>292.80558</ele>
        <time>2022-09-18T14:44:15.000Z</time>
      </trkpt>
      <trkpt lat="45.83212" lon="4.75366">
        <ele>293.104</ele>
        <time>2022-09-18T14:44:16.000Z</time>
      </trkpt>
      <trkpt lat="45.83208" lon="4.75368">
        <ele>293.41188</ele>
        <time>2022-09-18T14:44:17.000Z</time>
      </trkpt>
      <trkpt lat="45.83205" lon="4.7537">
        <ele>293.78383</ele>
        <time>2022-09-18T14:44:18.000Z</time>
      </trkpt>
      <trkpt lat="45.83201" lon="4.75371">
        <ele>294.11519</ele>
        <time>2022-09-18T14:44:19.000Z</time>
      </trkpt>
      <trkpt lat="45.83199" lon="4.75373">
        <ele>294.40629</ele>
        <time>2022-09-18T14:44:20.000Z</time>
      </trkpt>
      <trkpt lat="45.83197" lon="4.75374">
        <ele>294.52976</ele>
        <time>2022-09-18T14:44:21.000Z</time>
      </trkpt>
      <trkpt lat="45.83194" lon="4.75374">
        <ele>294.22778</ele>
        <time>2022-09-18T14:44:25.000Z</time>
      </trkpt>
      <trkpt lat="45.83193" lon="4.75373">
        <ele>293.81193</ele>
        <time>2022-09-18T14:44:28.000Z</time>
      </trkpt>
      <trkpt lat="45.83191" lon="4.75373">
        <ele>293.83829</ele>
        <time>2022-09-18T14:44:47.000Z</time>
      </trkpt>
      <trkpt lat="45.83189" lon="4.75374">
        <ele>293.77401</ele>
        <time>2022-09-18T14:46:02.000Z</time>
      </trkpt>
      <trkpt lat="45.83186" lon="4.75375">
        <ele>293.76414</ele>
        <time>2022-09-18T14:46:03.000Z</time>
      </trkpt>
      <trkpt lat="45.83183" lon="4.75377">
        <ele>293.82744</ele>
        <time>2022-09-18T14:46:04.000Z</time>
      </trkpt>
      <trkpt lat="45.8318" lon="4.75379">
        <ele>293.8626</ele>
        <time>2022-09-18T14:46:05.000Z</time>
      </trkpt>
      <trkpt lat="45.83177" lon="4.75381">
        <ele>294.03025</ele>
        <time>2022-09-18T14:46:06.000Z</time>
      </trkpt>
      <trkpt lat="45.83174" lon="4.75382">
        <ele>294.16481</ele>
        <time>2022-09-18T14:46:07.000Z</time>
      </trkpt>
      <trkpt lat="45.83171" lon="4.75384">
        <ele>294.3183</ele>
        <time>2022-09-18T14:46:08.000Z</time>
      </trkpt>
      <trkpt lat="45.83168" lon="4.75385">
        <ele>294.36919</ele>
        <time>2022-09-18T14:46:09.000Z</time>
      </trkpt>
      <trkpt lat="45.83165" lon="4.75386">
        <ele>294.33619</ele>
        <time>2022-09-18T14:46:10.000Z</time>
      </trkpt>
      <trkpt lat="45.83161" lon="4.75387">
        <ele>294.25585</ele>
        <time>2022-09-18T14:46:11.000Z</time>
      </trkpt>
      <trkpt lat="45.83158" lon="4.75388">
        <ele>294.19404</ele>
        <time>2022-09-18T14:46:12.000Z</time>
      </trkpt>
      <trkpt lat="45.83154" lon="4.75389">
        <ele>294.23382</ele>
        <time>2022-09-18T14:46:13.000Z</time>
      </trkpt>
      <trkpt lat="45.8315" lon="4.7539">
        <ele>294.24135</ele>
        <time>2022-09-18T14:46:14.000Z</time>
      </trkpt>
      <trkpt lat="45.83145" lon="4.75391">
        <ele>294.2081</ele>
        <time>2022-09-18T14:46:15.000Z</time>
      </trkpt>
      <trkpt lat="45.83141" lon="4.75392">
        <ele>294.16212</ele>
        <time>2022-09-18T14:46:16.000Z</time>
      </trkpt>
      <trkpt lat="45.83137" lon="4.75392">
        <ele>294.09661</ele>
        <time>2022-09-18T14:46:17.000Z</time>
      </trkpt>
      <trkpt lat="45.83134" lon="4.75392">
        <ele>294.08364</ele>
        <time>2022-09-18T14:46:18.000Z</time>
      </trkpt>
      <trkpt lat="45.83131" lon="4.75393">
        <ele>294.13564</ele>
        <time>2022-09-18T14:46:19.000Z</time>
      </trkpt>
      <trkpt lat="45.83128" lon="4.75395">
        <ele>294.3565</ele>
        <time>2022-09-18T14:46:20.000Z</time>
      </trkpt>
      <trkpt lat="45.83125" lon="4.75396">
        <ele>294.54216</ele>
        <time>2022-09-18T14:46:21.000Z</time>
      </trkpt>
      <trkpt lat="45.83121" lon="4.75397">
        <ele>294.74337</ele>
        <time>2022-09-18T14:46:22.000Z</time>
      </trkpt>
      <trkpt lat="45.83118" lon="4.75398">
        <ele>294.81756</ele>
        <time>2022-09-18T14:46:23.000Z</time>
      </trkpt>
      <trkpt lat="45.83114" lon="4.75398">
        <ele>294.78663</ele>
        <time>2022-09-18T14:46:24.000Z</time>
      </trkpt>
      <trkpt lat="45.83109" lon="4.75398">
        <ele>294.64791</ele>
        <time>2022-09-18T14:46:25.000Z</time>
      </trkpt>
      <trkpt lat="45.83104" lon="4.75398">
        <ele>294.46371</ele>
        <time>2022-09-18T14:46:26.000Z</time>
      </trkpt>
      <trkpt lat="45.831" lon="4.75398">
        <ele>294.34046</ele>
        <time>2022-09-18T14:46:27.000Z</time>
      </trkpt>
      <trkpt lat="45.83097" lon="4.75399">
        <ele>294.23088</ele>
        <time>2022-09-18T14:46:28.000Z</time>
      </trkpt>
      <trkpt lat="45.83093" lon="4.75399">
        <ele>294.10942</ele>
        <time>2022-09-18T14:46:29.000Z</time>
      </trkpt>
      <trkpt lat="45.83089" lon="4.754">
        <ele>293.96047</ele>
        <time>2022-09-18T14:46:30.000Z</time>
      </trkpt>
      <trkpt lat="45.83086" lon="4.754">
        <ele>293.68522</ele>
        <time>2022-09-18T14:46:31.000Z</time>
      </trkpt>
      <trkpt lat="45.83082" lon="4.754">
        <ele>293.35673</ele>
        <time>2022-09-18T14:46:32.000Z</time>
      </trkpt>
      <trkpt lat="45.83079" lon="4.754">
        <ele>292.94986</ele>
        <time>2022-09-18T14:46:33.000Z</time>
      </trkpt>
      <trkpt lat="45.83075" lon="4.754">
        <ele>292.53589</ele>
        <time>2022-09-18T14:46:34.000Z</time>
      </trkpt>
      <trkpt lat="45.83072" lon="4.754">
        <ele>292.14198</ele>
        <time>2022-09-18T14:46:35.000Z</time>
      </trkpt>
      <trkpt lat="45.83069" lon="4.754">
        <ele>291.78954</ele>
        <time>2022-09-18T14:46:36.000Z</time>
      </trkpt>
      <trkpt lat="45.83066" lon="4.754">
        <ele>291.43013</ele>
        <time>2022-09-18T14:46:37.000Z</time>
      </trkpt>
      <trkpt lat="45.83062" lon="4.754">
        <ele>291.13044</ele>
        <time>2022-09-18T14:46:38.000Z</time>
      </trkpt>
      <trkpt lat="45.83058" lon="4.75399">
        <ele>290.96022</ele>
        <time>2022-09-18T14:46:39.000Z</time>
      </trkpt>
      <trkpt lat="45.83054" lon="4.754">
        <ele>290.8666</ele>
        <time>2022-09-18T14:46:40.000Z</time>
      </trkpt>
      <trkpt lat="45.83049" lon="4.75402">
        <ele>290.9716</ele>
        <time>2022-09-18T14:46:41.000Z</time>
      </trkpt>
      <trkpt lat="45.83045" lon="4.75404">
        <ele>291.33718</ele>
        <time>2022-09-18T14:46:42.000Z</time>
      </trkpt>
      <trkpt lat="45.83042" lon="4.75406">
        <ele>291.83664</ele>
        <time>2022-09-18T14:46:43.000Z</time>
      </trkpt>
      <trkpt lat="45.83038" lon="4.75407">
        <ele>292.3058</ele>
        <time>2022-09-18T14:46:44.000Z</time>
      </trkpt>
      <trkpt lat="45.83035" lon="4.75409">
        <ele>292.92622</ele>
        <time>2022-09-18T14:46:45.000Z</time>
      </trkpt>
      <trkpt lat="45.83031" lon="4.7541">
        <ele>293.53203</ele>
        <time>2022-09-18T14:46:46.000Z</time>
      </trkpt>
      <trkpt lat="45.83028" lon="4.75411">
        <ele>294.01145</ele>
        <time>2022-09-18T14:46:47.000Z</time>
      </trkpt>
      <trkpt lat="45.83025" lon="4.75413">
        <ele>294.54102</ele>
        <time>2022-09-18T14:46:48.000Z</time>
      </trkpt>
      <trkpt lat="45.83022" lon="4.75414">
        <ele>295.01527</ele>
        <time>2022-09-18T14:46:49.000Z</time>
      </trkpt>
      <trkpt lat="45.83019" lon="4.75416">
        <ele>295.56613</ele>
        <time>2022-09-18T14:46:50.000Z</time>
      </trkpt>
      <trkpt lat="45.83016" lon="4.75418">
        <ele>295.96456</ele>
        <time>2022-09-18T14:46:51.000Z</time>
      </trkpt>
      <trkpt lat="45.83013" lon="4.7542">
        <ele>296.19139</ele>
        <time>2022-09-18T14:46:52.000Z</time>
      </trkpt>
      <trkpt lat="45.8301" lon="4.75423">
        <ele>296.22791</ele>
        <time>2022-09-18T14:46:53.000Z</time>
      </trkpt>
      <trkpt lat="45.83007" lon="4.75427">
        <ele>296.00709</ele>
        <time>2022-09-18T14:46:54.000Z</time>
      </trkpt>
      <trkpt lat="45.83004" lon="4.7543">
        <ele>295.85903</ele>
        <time>2022-09-18T14:46:55.000Z</time>
      </trkpt>
      <trkpt lat="45.83003" lon="4.75433">
        <ele>295.82338</ele>
        <time>2022-09-18T14:46:56.000Z</time>
      </trkpt>
      <trkpt lat="45.83001" lon="4.75436">
        <ele>296.02036</ele>
        <time>2022-09-18T14:46:57.000Z</time>
      </trkpt>
      <trkpt lat="45.82999" lon="4.7544">
        <ele>296.41467</ele>
        <time>2022-09-18T14:46:58.000Z</time>
      </trkpt>
      <trkpt lat="45.82997" lon="4.75444">
        <ele>296.90892</ele>
        <time>2022-09-18T14:46:59.000Z</time>
      </trkpt>
      <trkpt lat="45.82996" lon="4.75448">
        <ele>297.46609</ele>
        <time>2022-09-18T14:47:00.000Z</time>
      </trkpt>
      <trkpt lat="45.82994" lon="4.75452">
        <ele>297.96304</ele>
        <time>2022-09-18T14:47:01.000Z</time>
      </trkpt>
      <trkpt lat="45.82992" lon="4.75456">
        <ele>298.27001</ele>
        <time>2022-09-18T14:47:02.000Z</time>
      </trkpt>
      <trkpt lat="45.8299" lon="4.7546">
        <ele>298.38089</ele>
        <time>2022-09-18T14:47:03.000Z</time>
      </trkpt>
      <trkpt lat="45.82988" lon="4.75464">
        <ele>298.42899</ele>
        <time>2022-09-18T14:47:04.000Z</time>
      </trkpt>
      <trkpt lat="45.82986" lon="4.75469">
        <ele>298.7074</ele>
        <time>2022-09-18T14:47:05.000Z</time>
      </trkpt>
      <trkpt lat="45.82985" lon="4.75474">
        <ele>299.14895</ele>
        <time>2022-09-18T14:47:06.000Z</time>
      </trkpt>
      <trkpt lat="45.82982" lon="4.75479">
        <ele>299.56658</ele>
        <time>2022-09-18T14:47:07.000Z</time>
      </trkpt>
      <trkpt lat="45.8298" lon="4.75484">
        <ele>299.94036</ele>
        <time>2022-09-18T14:47:08.000Z</time>
      </trkpt>
      <trkpt lat="45.82977" lon="4.7549">
        <ele>300.23352</ele>
        <time>2022-09-18T14:47:09.000Z</time>
      </trkpt>
      <trkpt lat="45.82975" lon="4.75496">
        <ele>300.27811</ele>
        <time>2022-09-18T14:47:10.000Z</time>
      </trkpt>
      <trkpt lat="45.82972" lon="4.75501">
        <ele>300.13312</ele>
        <time>2022-09-18T14:47:11.000Z</time>
      </trkpt>
      <trkpt lat="45.8297" lon="4.75505">
        <ele>299.8766</ele>
        <time>2022-09-18T14:47:12.000Z</time>
      </trkpt>
      <trkpt lat="45.82967" lon="4.7551">
        <ele>299.69904</ele>
        <time>2022-09-18T14:47:13.000Z</time>
      </trkpt>
      <trkpt lat="45.82965" lon="4.75515">
        <ele>299.61448</ele>
        <time>2022-09-18T14:47:14.000Z</time>
      </trkpt>
      <trkpt lat="45.82963" lon="4.7552">
        <ele>299.71326</ele>
        <time>2022-09-18T14:47:15.000Z</time>
      </trkpt>
      <trkpt lat="45.82961" lon="4.75525">
        <ele>299.92818</ele>
        <time>2022-09-18T14:47:16.000Z</time>
      </trkpt>
      <trkpt lat="45.8296" lon="4.7553">
        <ele>300.28703</ele>
        <time>2022-09-18T14:47:17.000Z</time>
      </trkpt>
      <trkpt lat="45.82959" lon="4.75534">
        <ele>300.50142</ele>
        <time>2022-09-18T14:47:18.000Z</time>
      </trkpt>
      <trkpt lat="45.82958" lon="4.75538">
        <ele>300.6748</ele>
        <time>2022-09-18T14:47:19.000Z</time>
      </trkpt>
      <trkpt lat="45.82956" lon="4.75542">
        <ele>300.75455</ele>
        <time>2022-09-18T14:47:20.000Z</time>
      </trkpt>
      <trkpt lat="45.82954" lon="4.75545">
        <ele>300.79062</ele>
        <time>2022-09-18T14:47:21.000Z</time>
      </trkpt>
      <trkpt lat="45.82952" lon="4.75548">
        <ele>300.72497</ele>
        <time>2022-09-18T14:47:22.000Z</time>
      </trkpt>
      <trkpt lat="45.8295" lon="4.75551">
        <ele>300.66636</ele>
        <time>2022-09-18T14:47:23.000Z</time>
      </trkpt>
      <trkpt lat="45.82948" lon="4.75553">
        <ele>300.61918</ele>
        <time>2022-09-18T14:47:24.000Z</time>
      </trkpt>
      <trkpt lat="45.82945" lon="4.75555">
        <ele>300.56304</ele>
        <time>2022-09-18T14:47:25.000Z</time>
      </trkpt>
      <trkpt lat="45.82941" lon="4.75557">
        <ele>300.34642</ele>
        <time>2022-09-18T14:47:26.000Z</time>
      </trkpt>
      <trkpt lat="45.82938" lon="4.7556">
        <ele>300.25345</ele>
        <time>2022-09-18T14:47:27.000Z</time>
      </trkpt>
      <trkpt lat="45.82934" lon="4.75563">
        <ele>300.16747</ele>
        <time>2022-09-18T14:47:28.000Z</time>
      </trkpt>
      <trkpt lat="45.8293" lon="4.75566">
        <ele>300.20396</ele>
        <time>2022-09-18T14:47:29.000Z</time>
      </trkpt>
      <trkpt lat="45.82927" lon="4.7557">
        <ele>300.52026</ele>
        <time>2022-09-18T14:47:30.000Z</time>
      </trkpt>
      <trkpt lat="45.82925" lon="4.75572">
        <ele>300.8927</ele>
        <time>2022-09-18T14:47:31.000Z</time>
      </trkpt>
      <trkpt lat="45.82924" lon="4.75576">
        <ele>301.45997</ele>
        <time>2022-09-18T14:47:32.000Z</time>
      </trkpt>
      <trkpt lat="45.82921" lon="4.75579">
        <ele>301.95658</ele>
        <time>2022-09-18T14:47:33.000Z</time>
      </trkpt>
      <trkpt lat="45.82918" lon="4.75584">
        <ele>302.24445</ele>
        <time>2022-09-18T14:47:34.000Z</time>
      </trkpt>
      <trkpt lat="45.82915" lon="4.75588">
        <ele>302.21888</ele>
        <time>2022-09-18T14:47:35.000Z</time>
      </trkpt>
      <trkpt lat="45.82911" lon="4.75592">
        <ele>302.11959</ele>
        <time>2022-09-18T14:47:36.000Z</time>
      </trkpt>
      <trkpt lat="45.82906" lon="4.75595">
        <ele>302.02074</ele>
        <time>2022-09-18T14:47:37.000Z</time>
      </trkpt>
      <trkpt lat="45.82902" lon="4.75598">
        <ele>302.01013</ele>
        <time>2022-09-18T14:47:38.000Z</time>
      </trkpt>
      <trkpt lat="45.82898" lon="4.75601">
        <ele>302.16924</ele>
        <time>2022-09-18T14:47:39.000Z</time>
      </trkpt>
      <trkpt lat="45.82894" lon="4.75604">
        <ele>302.45194</ele>
        <time>2022-09-18T14:47:40.000Z</time>
      </trkpt>
      <trkpt lat="45.8289" lon="4.75607">
        <ele>302.66762</ele>
        <time>2022-09-18T14:47:41.000Z</time>
      </trkpt>
      <trkpt lat="45.82886" lon="4.75609">
        <ele>302.69956</ele>
        <time>2022-09-18T14:47:42.000Z</time>
      </trkpt>
      <trkpt lat="45.82883" lon="4.75611">
        <ele>302.64982</ele>
        <time>2022-09-18T14:47:43.000Z</time>
      </trkpt>
      <trkpt lat="45.82881" lon="4.75613">
        <ele>302.68681</ele>
        <time>2022-09-18T14:47:44.000Z</time>
      </trkpt>
      <trkpt lat="45.82879" lon="4.75615">
        <ele>302.85063</ele>
        <time>2022-09-18T14:47:45.000Z</time>
      </trkpt>
      <trkpt lat="45.82879" lon="4.75617">
        <ele>303.15919</ele>
        <time>2022-09-18T14:47:46.000Z</time>
      </trkpt>
      <trkpt lat="45.82875" lon="4.7562">
        <ele>303.37454</ele>
        <time>2022-09-18T14:47:48.000Z</time>
      </trkpt>
      <trkpt lat="45.82872" lon="4.75621">
        <ele>303.23916</ele>
        <time>2022-09-18T14:47:49.000Z</time>
      </trkpt>
      <trkpt lat="45.8287" lon="4.75621">
        <ele>302.98661</ele>
        <time>2022-09-18T14:47:50.000Z</time>
      </trkpt>
      <trkpt lat="45.82867" lon="4.7562">
        <ele>302.70538</ele>
        <time>2022-09-18T14:47:51.000Z</time>
      </trkpt>
      <trkpt lat="45.82865" lon="4.75618">
        <ele>302.48288</ele>
        <time>2022-09-18T14:47:52.000Z</time>
      </trkpt>
      <trkpt lat="45.82863" lon="4.75618">
        <ele>302.37806</ele>
        <time>2022-09-18T14:47:53.000Z</time>
      </trkpt>
      <trkpt lat="45.82861" lon="4.75618">
        <ele>302.34612</ele>
        <time>2022-09-18T14:47:54.000Z</time>
      </trkpt>
      <trkpt lat="45.82859" lon="4.7562">
        <ele>302.40701</ele>
        <time>2022-09-18T14:47:55.000Z</time>
      </trkpt>
      <trkpt lat="45.82858" lon="4.75623">
        <ele>302.52165</ele>
        <time>2022-09-18T14:47:56.000Z</time>
      </trkpt>
      <trkpt lat="45.82856" lon="4.75626">
        <ele>302.63719</ele>
        <time>2022-09-18T14:47:57.000Z</time>
      </trkpt>
      <trkpt lat="45.82855" lon="4.7563">
        <ele>302.75099</ele>
        <time>2022-09-18T14:47:58.000Z</time>
      </trkpt>
      <trkpt lat="45.82853" lon="4.75634">
        <ele>302.79813</ele>
        <time>2022-09-18T14:47:59.000Z</time>
      </trkpt>
      <trkpt lat="45.82851" lon="4.75637">
        <ele>302.86291</ele>
        <time>2022-09-18T14:48:00.000Z</time>
      </trkpt>
      <trkpt lat="45.82849" lon="4.75641">
        <ele>302.94953</ele>
        <time>2022-09-18T14:48:01.000Z</time>
      </trkpt>
      <trkpt lat="45.82847" lon="4.75644">
        <ele>303.05055</ele>
        <time>2022-09-18T14:48:02.000Z</time>
      </trkpt>
      <trkpt lat="45.82844" lon="4.75648">
        <ele>303.1216</ele>
        <time>2022-09-18T14:48:03.000Z</time>
      </trkpt>
      <trkpt lat="45.82841" lon="4.75652">
        <ele>303.13235</ele>
        <time>2022-09-18T14:48:04.000Z</time>
      </trkpt>
      <trkpt lat="45.82838" lon="4.75656">
        <ele>303.0987</ele>
        <time>2022-09-18T14:48:05.000Z</time>
      </trkpt>
      <trkpt lat="45.82836" lon="4.75661">
        <ele>303.00876</ele>
        <time>2022-09-18T14:48:06.000Z</time>
      </trkpt>
      <trkpt lat="45.82833" lon="4.75665">
        <ele>302.90024</ele>
        <time>2022-09-18T14:48:07.000Z</time>
      </trkpt>
      <trkpt lat="45.82831" lon="4.7567">
        <ele>302.90737</ele>
        <time>2022-09-18T14:48:08.000Z</time>
      </trkpt>
      <trkpt lat="45.82829" lon="4.75674">
        <ele>303.06782</ele>
        <time>2022-09-18T14:48:09.000Z</time>
      </trkpt>
      <trkpt lat="45.82826" lon="4.75679">
        <ele>303.41691</ele>
        <time>2022-09-18T14:48:10.000Z</time>
      </trkpt>
      <trkpt lat="45.82824" lon="4.75684">
        <ele>303.91517</ele>
        <time>2022-09-18T14:48:11.000Z</time>
      </trkpt>
      <trkpt lat="45.82822" lon="4.75688">
        <ele>304.32956</ele>
        <time>2022-09-18T14:48:12.000Z</time>
      </trkpt>
      <trkpt lat="45.8282" lon="4.75693">
        <ele>304.63393</ele>
        <time>2022-09-18T14:48:13.000Z</time>
      </trkpt>
      <trkpt lat="45.82817" lon="4.75699">
        <ele>304.60864</ele>
        <time>2022-09-18T14:48:14.000Z</time>
      </trkpt>
      <trkpt lat="45.82815" lon="4.75704">
        <ele>304.2519</ele>
        <time>2022-09-18T14:48:15.000Z</time>
      </trkpt>
      <trkpt lat="45.82813" lon="4.75709">
        <ele>303.75355</ele>
        <time>2022-09-18T14:48:16.000Z</time>
      </trkpt>
      <trkpt lat="45.8281" lon="4.75713">
        <ele>303.48233</ele>
        <time>2022-09-18T14:48:17.000Z</time>
      </trkpt>
      <trkpt lat="45.82808" lon="4.75718">
        <ele>303.81756</ele>
        <time>2022-09-18T14:48:18.000Z</time>
      </trkpt>
      <trkpt lat="45.82804" lon="4.75724">
        <ele>304.41092</ele>
        <time>2022-09-18T14:48:19.000Z</time>
      </trkpt>
      <trkpt lat="45.82801" lon="4.75731">
        <ele>305.40051</ele>
        <time>2022-09-18T14:48:20.000Z</time>
      </trkpt>
      <trkpt lat="45.82798" lon="4.75736">
        <ele>305.5101</ele>
        <time>2022-09-18T14:48:21.000Z</time>
      </trkpt>
      <trkpt lat="45.82796" lon="4.75744">
        <ele>305.61929</ele>
        <time>2022-09-18T14:48:22.000Z</time>
      </trkpt>
      <trkpt lat="45.82794" lon="4.75749">
        <ele>305.16268</ele>
        <time>2022-09-18T14:48:23.000Z</time>
      </trkpt>
      <trkpt lat="45.82791" lon="4.75754">
        <ele>304.34284</ele>
        <time>2022-09-18T14:48:24.000Z</time>
      </trkpt>
      <trkpt lat="45.82788" lon="4.75758">
        <ele>303.70278</ele>
        <time>2022-09-18T14:48:25.000Z</time>
      </trkpt>
      <trkpt lat="45.82786" lon="4.75764">
        <ele>303.38143</ele>
        <time>2022-09-18T14:48:26.000Z</time>
      </trkpt>
      <trkpt lat="45.82783" lon="4.75772">
        <ele>303.24259</ele>
        <time>2022-09-18T14:48:27.000Z</time>
      </trkpt>
      <trkpt lat="45.82782" lon="4.75777">
        <ele>303.1807</ele>
        <time>2022-09-18T14:48:28.000Z</time>
      </trkpt>
      <trkpt lat="45.82781" lon="4.75781">
        <ele>303.04075</ele>
        <time>2022-09-18T14:48:29.000Z</time>
      </trkpt>
      <trkpt lat="45.82779" lon="4.75785">
        <ele>302.83198</ele>
        <time>2022-09-18T14:48:30.000Z</time>
      </trkpt>
      <trkpt lat="45.8278" lon="4.75791">
        <ele>302.95557</ele>
        <time>2022-09-18T14:48:31.000Z</time>
      </trkpt>
      <trkpt lat="45.8278" lon="4.75798">
        <ele>303.02644</ele>
        <time>2022-09-18T14:48:32.000Z</time>
      </trkpt>
      <trkpt lat="45.82779" lon="4.75803">
        <ele>302.87017</ele>
        <time>2022-09-18T14:48:33.000Z</time>
      </trkpt>
      <trkpt lat="45.82777" lon="4.75808">
        <ele>302.56071</ele>
        <time>2022-09-18T14:48:34.000Z</time>
      </trkpt>
      <trkpt lat="45.82775" lon="4.75817">
        <ele>302.28898</ele>
        <time>2022-09-18T14:48:35.000Z</time>
      </trkpt>
      <trkpt lat="45.82774" lon="4.75825">
        <ele>302.50031</ele>
        <time>2022-09-18T14:48:36.000Z</time>
      </trkpt>
      <trkpt lat="45.82769" lon="4.7583">
        <ele>302.18468</ele>
        <time>2022-09-18T14:48:37.000Z</time>
      </trkpt>
      <trkpt lat="45.82767" lon="4.75834">
        <ele>302.19476</ele>
        <time>2022-09-18T14:48:38.000Z</time>
      </trkpt>
      <trkpt lat="45.82765" lon="4.75836">
        <ele>302.1796</ele>
        <time>2022-09-18T14:48:39.000Z</time>
      </trkpt>
      <trkpt lat="45.82762" lon="4.7584">
        <ele>302.166</ele>
        <time>2022-09-18T14:48:40.000Z</time>
      </trkpt>
      <trkpt lat="45.8276" lon="4.75843">
        <ele>302.18269</ele>
        <time>2022-09-18T14:48:41.000Z</time>
      </trkpt>
      <trkpt lat="45.82756" lon="4.75846">
        <ele>302.18304</ele>
        <time>2022-09-18T14:48:42.000Z</time>
      </trkpt>
      <trkpt lat="45.82753" lon="4.7585">
        <ele>302.34406</ele>
        <time>2022-09-18T14:48:43.000Z</time>
      </trkpt>
      <trkpt lat="45.82752" lon="4.75855">
        <ele>302.62441</ele>
        <time>2022-09-18T14:48:44.000Z</time>
      </trkpt>
      <trkpt lat="45.82748" lon="4.75858">
        <ele>302.8881</ele>
        <time>2022-09-18T14:48:45.000Z</time>
      </trkpt>
      <trkpt lat="45.82744" lon="4.75862">
        <ele>303.20617</ele>
        <time>2022-09-18T14:48:46.000Z</time>
      </trkpt>
      <trkpt lat="45.8274" lon="4.75864">
        <ele>303.46466</ele>
        <time>2022-09-18T14:48:47.000Z</time>
      </trkpt>
      <trkpt lat="45.82737" lon="4.75867">
        <ele>303.83053</ele>
        <time>2022-09-18T14:48:48.000Z</time>
      </trkpt>
      <trkpt lat="45.82733" lon="4.75872">
        <ele>304.29414</ele>
        <time>2022-09-18T14:48:49.000Z</time>
      </trkpt>
      <trkpt lat="45.82729" lon="4.75875">
        <ele>304.75384</ele>
        <time>2022-09-18T14:48:50.000Z</time>
      </trkpt>
      <trkpt lat="45.82726" lon="4.75878">
        <ele>305.18318</ele>
        <time>2022-09-18T14:48:51.000Z</time>
      </trkpt>
      <trkpt lat="45.82724" lon="4.75881">
        <ele>305.63352</ele>
        <time>2022-09-18T14:48:52.000Z</time>
      </trkpt>
      <trkpt lat="45.82721" lon="4.75884">
        <ele>306.16676</ele>
        <time>2022-09-18T14:48:53.000Z</time>
      </trkpt>
      <trkpt lat="45.82718" lon="4.75888">
        <ele>306.80998</ele>
        <time>2022-09-18T14:48:54.000Z</time>
      </trkpt>
      <trkpt lat="45.82714" lon="4.75891">
        <ele>307.50528</ele>
        <time>2022-09-18T14:48:55.000Z</time>
      </trkpt>
      <trkpt lat="45.8271" lon="4.75895">
        <ele>308.31941</ele>
        <time>2022-09-18T14:48:56.000Z</time>
      </trkpt>
      <trkpt lat="45.82706" lon="4.75899">
        <ele>309.20527</ele>
        <time>2022-09-18T14:48:57.000Z</time>
      </trkpt>
      <trkpt lat="45.82702" lon="4.75903">
        <ele>310.03232</ele>
        <time>2022-09-18T14:48:58.000Z</time>
      </trkpt>
      <trkpt lat="45.82698" lon="4.75907">
        <ele>310.78231</ele>
        <time>2022-09-18T14:48:59.000Z</time>
      </trkpt>
      <trkpt lat="45.82695" lon="4.7591">
        <ele>311.38753</ele>
        <time>2022-09-18T14:49:00.000Z</time>
      </trkpt>
      <trkpt lat="45.82692" lon="4.75914">
        <ele>311.86652</ele>
        <time>2022-09-18T14:49:01.000Z</time>
      </trkpt>
      <trkpt lat="45.82689" lon="4.75917">
        <ele>312.38487</ele>
        <time>2022-09-18T14:49:02.000Z</time>
      </trkpt>
      <trkpt lat="45.82685" lon="4.75921">
        <ele>313.18368</ele>
        <time>2022-09-18T14:49:03.000Z</time>
      </trkpt>
      <trkpt lat="45.82682" lon="4.75926">
        <ele>314.20333</ele>
        <time>2022-09-18T14:49:04.000Z</time>
      </trkpt>
      <trkpt lat="45.82679" lon="4.7593">
        <ele>315.03616</ele>
        <time>2022-09-18T14:49:05.000Z</time>
      </trkpt>
      <trkpt lat="45.82677" lon="4.75933">
        <ele>315.60801</ele>
        <time>2022-09-18T14:49:06.000Z</time>
      </trkpt>
      <trkpt lat="45.82675" lon="4.75936">
        <ele>316.08287</ele>
        <time>2022-09-18T14:49:07.000Z</time>
      </trkpt>
      <trkpt lat="45.82673" lon="4.7594">
        <ele>316.4401</ele>
        <time>2022-09-18T14:49:08.000Z</time>
      </trkpt>
      <trkpt lat="45.82671" lon="4.75943">
        <ele>316.69008</ele>
        <time>2022-09-18T14:49:09.000Z</time>
      </trkpt>
      <trkpt lat="45.82669" lon="4.75947">
        <ele>316.91964</ele>
        <time>2022-09-18T14:49:10.000Z</time>
      </trkpt>
      <trkpt lat="45.82668" lon="4.7595">
        <ele>317.1117</ele>
        <time>2022-09-18T14:49:11.000Z</time>
      </trkpt>
      <trkpt lat="45.82666" lon="4.75953">
        <ele>317.30832</ele>
        <time>2022-09-18T14:49:12.000Z</time>
      </trkpt>
      <trkpt lat="45.82664" lon="4.75956">
        <ele>317.61597</ele>
        <time>2022-09-18T14:49:13.000Z</time>
      </trkpt>
      <trkpt lat="45.82663" lon="4.75959">
        <ele>318.00277</ele>
        <time>2022-09-18T14:49:14.000Z</time>
      </trkpt>
      <trkpt lat="45.82661" lon="4.75962">
        <ele>318.54344</ele>
        <time>2022-09-18T14:49:15.000Z</time>
      </trkpt>
      <trkpt lat="45.82658" lon="4.75966">
        <ele>319.123</ele>
        <time>2022-09-18T14:49:16.000Z</time>
      </trkpt>
      <trkpt lat="45.82655" lon="4.7597">
        <ele>319.56005</ele>
        <time>2022-09-18T14:49:17.000Z</time>
      </trkpt>
      <trkpt lat="45.82652" lon="4.75974">
        <ele>319.73814</ele>
        <time>2022-09-18T14:49:18.000Z</time>
      </trkpt>
      <trkpt lat="45.82649" lon="4.75978">
        <ele>319.66987</ele>
        <time>2022-09-18T14:49:19.000Z</time>
      </trkpt>
      <trkpt lat="45.82646" lon="4.75981">
        <ele>319.47145</ele>
        <time>2022-09-18T14:49:20.000Z</time>
      </trkpt>
      <trkpt lat="45.82644" lon="4.75985">
        <ele>319.30262</ele>
        <time>2022-09-18T14:49:21.000Z</time>
      </trkpt>
      <trkpt lat="45.82641" lon="4.75989">
        <ele>319.22106</ele>
        <time>2022-09-18T14:49:22.000Z</time>
      </trkpt>
      <trkpt lat="45.82639" lon="4.75992">
        <ele>319.31405</ele>
        <time>2022-09-18T14:49:23.000Z</time>
      </trkpt>
      <trkpt lat="45.82636" lon="4.75996">
        <ele>319.53122</ele>
        <time>2022-09-18T14:49:24.000Z</time>
      </trkpt>
      <trkpt lat="45.82633" lon="4.76">
        <ele>319.78403</ele>
        <time>2022-09-18T14:49:25.000Z</time>
      </trkpt>
      <trkpt lat="45.82631" lon="4.76004">
        <ele>319.96924</ele>
        <time>2022-09-18T14:49:26.000Z</time>
      </trkpt>
      <trkpt lat="45.82628" lon="4.76008">
        <ele>320.09959</ele>
        <time>2022-09-18T14:49:27.000Z</time>
      </trkpt>
      <trkpt lat="45.82625" lon="4.76011">
        <ele>320.1354</ele>
        <time>2022-09-18T14:49:28.000Z</time>
      </trkpt>
      <trkpt lat="45.82621" lon="4.76015">
        <ele>320.11901</ele>
        <time>2022-09-18T14:49:29.000Z</time>
      </trkpt>
      <trkpt lat="45.82618" lon="4.76019">
        <ele>320.03691</ele>
        <time>2022-09-18T14:49:30.000Z</time>
      </trkpt>
      <trkpt lat="45.82615" lon="4.76022">
        <ele>319.95945</ele>
        <time>2022-09-18T14:49:31.000Z</time>
      </trkpt>
      <trkpt lat="45.82613" lon="4.76025">
        <ele>319.94381</ele>
        <time>2022-09-18T14:49:32.000Z</time>
      </trkpt>
      <trkpt lat="45.8261" lon="4.76028">
        <ele>320.04485</ele>
        <time>2022-09-18T14:49:33.000Z</time>
      </trkpt>
      <trkpt lat="45.82607" lon="4.76032">
        <ele>320.23579</ele>
        <time>2022-09-18T14:49:34.000Z</time>
      </trkpt>
      <trkpt lat="45.82604" lon="4.76035">
        <ele>320.51814</ele>
        <time>2022-09-18T14:49:35.000Z</time>
      </trkpt>
      <trkpt lat="45.82602" lon="4.76038">
        <ele>320.85236</ele>
        <time>2022-09-18T14:49:36.000Z</time>
      </trkpt>
      <trkpt lat="45.82598" lon="4.76042">
        <ele>321.17028</ele>
        <time>2022-09-18T14:49:37.000Z</time>
      </trkpt>
      <trkpt lat="45.82595" lon="4.76045">
        <ele>321.38284</ele>
        <time>2022-09-18T14:49:38.000Z</time>
      </trkpt>
      <trkpt lat="45.82591" lon="4.76048">
        <ele>321.45384</ele>
        <time>2022-09-18T14:49:39.000Z</time>
      </trkpt>
      <trkpt lat="45.82587" lon="4.76052">
        <ele>321.45804</ele>
        <time>2022-09-18T14:49:40.000Z</time>
      </trkpt>
      <trkpt lat="45.82583" lon="4.76056">
        <ele>321.47005</ele>
        <time>2022-09-18T14:49:41.000Z</time>
      </trkpt>
      <trkpt lat="45.82579" lon="4.7606">
        <ele>321.64843</ele>
        <time>2022-09-18T14:49:42.000Z</time>
      </trkpt>
      <trkpt lat="45.82576" lon="4.76064">
        <ele>321.98595</ele>
        <time>2022-09-18T14:49:43.000Z</time>
      </trkpt>
      <trkpt lat="45.82573" lon="4.76067">
        <ele>322.33235</ele>
        <time>2022-09-18T14:49:44.000Z</time>
      </trkpt>
      <trkpt lat="45.82569" lon="4.76071">
        <ele>322.62984</ele>
        <time>2022-09-18T14:49:45.000Z</time>
      </trkpt>
      <trkpt lat="45.82566" lon="4.76075">
        <ele>322.83936</ele>
        <time>2022-09-18T14:49:46.000Z</time>
      </trkpt>
      <trkpt lat="45.82563" lon="4.76078">
        <ele>322.9452</ele>
        <time>2022-09-18T14:49:47.000Z</time>
      </trkpt>
      <trkpt lat="45.8256" lon="4.76081">
        <ele>322.97685</ele>
        <time>2022-09-18T14:49:48.000Z</time>
      </trkpt>
      <trkpt lat="45.82557" lon="4.76084">
        <ele>323.02963</ele>
        <time>2022-09-18T14:49:49.000Z</time>
      </trkpt>
      <trkpt lat="45.82553" lon="4.76087">
        <ele>323.27038</ele>
        <time>2022-09-18T14:49:50.000Z</time>
      </trkpt>
      <trkpt lat="45.8255" lon="4.7609">
        <ele>323.68902</ele>
        <time>2022-09-18T14:49:51.000Z</time>
      </trkpt>
      <trkpt lat="45.82548" lon="4.76093">
        <ele>324.25668</ele>
        <time>2022-09-18T14:49:52.000Z</time>
      </trkpt>
      <trkpt lat="45.82545" lon="4.76097">
        <ele>325.01594</ele>
        <time>2022-09-18T14:49:53.000Z</time>
      </trkpt>
      <trkpt lat="45.82543" lon="4.76099">
        <ele>325.56907</ele>
        <time>2022-09-18T14:49:54.000Z</time>
      </trkpt>
      <trkpt lat="45.82542" lon="4.76102">
        <ele>326.00554</ele>
        <time>2022-09-18T14:49:55.000Z</time>
      </trkpt>
      <trkpt lat="45.82541" lon="4.76105">
        <ele>326.59188</ele>
        <time>2022-09-18T14:49:56.000Z</time>
      </trkpt>
      <trkpt lat="45.82541" lon="4.7611">
        <ele>327.1458</ele>
        <time>2022-09-18T14:49:57.000Z</time>
      </trkpt>
      <trkpt lat="45.82541" lon="4.76114">
        <ele>327.59722</ele>
        <time>2022-09-18T14:49:58.000Z</time>
      </trkpt>
      <trkpt lat="45.82542" lon="4.76119">
        <ele>328.00409</ele>
        <time>2022-09-18T14:49:59.000Z</time>
      </trkpt>
      <trkpt lat="45.82544" lon="4.76124">
        <ele>328.31389</ele>
        <time>2022-09-18T14:50:00.000Z</time>
      </trkpt>
      <trkpt lat="45.82545" lon="4.76129">
        <ele>328.62925</ele>
        <time>2022-09-18T14:50:01.000Z</time>
      </trkpt>
      <trkpt lat="45.82546" lon="4.76134">
        <ele>329.02348</ele>
        <time>2022-09-18T14:50:02.000Z</time>
      </trkpt>
      <trkpt lat="45.82546" lon="4.7614">
        <ele>329.53449</ele>
        <time>2022-09-18T14:50:03.000Z</time>
      </trkpt>
      <trkpt lat="45.82545" lon="4.76145">
        <ele>330.0288</ele>
        <time>2022-09-18T14:50:04.000Z</time>
      </trkpt>
      <trkpt lat="45.82544" lon="4.76151">
        <ele>330.47325</ele>
        <time>2022-09-18T14:50:05.000Z</time>
      </trkpt>
      <trkpt lat="45.82542" lon="4.76155">
        <ele>330.84661</ele>
        <time>2022-09-18T14:50:06.000Z</time>
      </trkpt>
      <trkpt lat="45.8254" lon="4.76159">
        <ele>331.12803</ele>
        <time>2022-09-18T14:50:07.000Z</time>
      </trkpt>
      <trkpt lat="45.82537" lon="4.76163">
        <ele>331.40663</ele>
        <time>2022-09-18T14:50:08.000Z</time>
      </trkpt>
      <trkpt lat="45.82534" lon="4.76166">
        <ele>331.74414</ele>
        <time>2022-09-18T14:50:09.000Z</time>
      </trkpt>
      <trkpt lat="45.8253" lon="4.76168">
        <ele>332.18964</ele>
        <time>2022-09-18T14:50:10.000Z</time>
      </trkpt>
      <trkpt lat="45.82527" lon="4.76171">
        <ele>332.81213</ele>
        <time>2022-09-18T14:50:11.000Z</time>
      </trkpt>
      <trkpt lat="45.82524" lon="4.76175">
        <ele>333.4814</ele>
        <time>2022-09-18T14:50:12.000Z</time>
      </trkpt>
      <trkpt lat="45.82521" lon="4.76178">
        <ele>334.06238</ele>
        <time>2022-09-18T14:50:13.000Z</time>
      </trkpt>
      <trkpt lat="45.82519" lon="4.76181">
        <ele>334.6142</ele>
        <time>2022-09-18T14:50:14.000Z</time>
      </trkpt>
      <trkpt lat="45.82517" lon="4.76184">
        <ele>335.09499</ele>
        <time>2022-09-18T14:50:15.000Z</time>
      </trkpt>
      <trkpt lat="45.82515" lon="4.76188">
        <ele>335.51991</ele>
        <time>2022-09-18T14:50:16.000Z</time>
      </trkpt>
      <trkpt lat="45.82513" lon="4.76191">
        <ele>335.91016</ele>
        <time>2022-09-18T14:50:17.000Z</time>
      </trkpt>
      <trkpt lat="45.82511" lon="4.76195">
        <ele>336.25065</ele>
        <time>2022-09-18T14:50:18.000Z</time>
      </trkpt>
      <trkpt lat="45.8251" lon="4.76199">
        <ele>336.52868</ele>
        <time>2022-09-18T14:50:19.000Z</time>
      </trkpt>
      <trkpt lat="45.82509" lon="4.76202">
        <ele>336.74534</ele>
        <time>2022-09-18T14:50:20.000Z</time>
      </trkpt>
      <trkpt lat="45.82509" lon="4.76204">
        <ele>336.90491</ele>
        <time>2022-09-18T14:50:21.000Z</time>
      </trkpt>
      <trkpt lat="45.82508" lon="4.76209">
        <ele>337.16417</ele>
        <time>2022-09-18T14:50:23.000Z</time>
      </trkpt>
      <trkpt lat="45.82507" lon="4.76212">
        <ele>337.31273</ele>
        <time>2022-09-18T14:50:25.000Z</time>
      </trkpt>
      <trkpt lat="45.82507" lon="4.76214">
        <ele>337.43221</ele>
        <time>2022-09-18T14:50:27.000Z</time>
      </trkpt>
      <trkpt lat="45.82506" lon="4.76217">
        <ele>337.50704</ele>
        <time>2022-09-18T14:50:49.000Z</time>
      </trkpt>
      <trkpt lat="45.82505" lon="4.7622">
        <ele>337.63242</ele>
        <time>2022-09-18T14:50:50.000Z</time>
      </trkpt>
      <trkpt lat="45.82503" lon="4.76223">
        <ele>337.73591</ele>
        <time>2022-09-18T14:50:51.000Z</time>
      </trkpt>
      <trkpt lat="45.825" lon="4.76225">
        <ele>337.79316</ele>
        <time>2022-09-18T14:50:52.000Z</time>
      </trkpt>
      <trkpt lat="45.82497" lon="4.76224">
        <ele>337.78146</ele>
        <time>2022-09-18T14:50:53.000Z</time>
      </trkpt>
      <trkpt lat="45.82493" lon="4.76223">
        <ele>337.71454</ele>
        <time>2022-09-18T14:50:54.000Z</time>
      </trkpt>
      <trkpt lat="45.82489" lon="4.76221">
        <ele>337.61606</ele>
        <time>2022-09-18T14:50:55.000Z</time>
      </trkpt>
      <trkpt lat="45.82485" lon="4.7622">
        <ele>337.52852</ele>
        <time>2022-09-18T14:50:56.000Z</time>
      </trkpt>
      <trkpt lat="45.82481" lon="4.7622">
        <ele>337.49783</ele>
        <time>2022-09-18T14:50:57.000Z</time>
      </trkpt>
      <trkpt lat="45.82477" lon="4.76224">
        <ele>337.6114</ele>
        <time>2022-09-18T14:50:58.000Z</time>
      </trkpt>
      <trkpt lat="45.82473" lon="4.76229">
        <ele>337.71485</ele>
        <time>2022-09-18T14:50:59.000Z</time>
      </trkpt>
      <trkpt lat="45.8247" lon="4.76233">
        <ele>337.76467</ele>
        <time>2022-09-18T14:51:00.000Z</time>
      </trkpt>
      <trkpt lat="45.82467" lon="4.7624">
        <ele>337.8732</ele>
        <time>2022-09-18T14:51:01.000Z</time>
      </trkpt>
      <trkpt lat="45.82465" lon="4.76246">
        <ele>337.92952</ele>
        <time>2022-09-18T14:51:02.000Z</time>
      </trkpt>
      <trkpt lat="45.82463" lon="4.76253">
        <ele>338.02866</ele>
        <time>2022-09-18T14:51:03.000Z</time>
      </trkpt>
      <trkpt lat="45.82461" lon="4.7626">
        <ele>338.10437</ele>
        <time>2022-09-18T14:51:04.000Z</time>
      </trkpt>
      <trkpt lat="45.82459" lon="4.76266">
        <ele>338.15546</ele>
        <time>2022-09-18T14:51:05.000Z</time>
      </trkpt>
      <trkpt lat="45.82456" lon="4.7627">
        <ele>338.18583</ele>
        <time>2022-09-18T14:51:06.000Z</time>
      </trkpt>
      <trkpt lat="45.82452" lon="4.76276">
        <ele>338.22337</ele>
        <time>2022-09-18T14:51:07.000Z</time>
      </trkpt>
      <trkpt lat="45.82448" lon="4.76279">
        <ele>338.22143</ele>
        <time>2022-09-18T14:51:08.000Z</time>
      </trkpt>
      <trkpt lat="45.82444" lon="4.7628">
        <ele>338.1748</ele>
        <time>2022-09-18T14:51:09.000Z</time>
      </trkpt>
      <trkpt lat="45.82439" lon="4.76285">
        <ele>338.34973</ele>
        <time>2022-09-18T14:51:10.000Z</time>
      </trkpt>
      <trkpt lat="45.82436" lon="4.76285">
        <ele>338.31904</ele>
        <time>2022-09-18T14:51:11.000Z</time>
      </trkpt>
      <trkpt lat="45.82433" lon="4.76285">
        <ele>338.29261</ele>
        <time>2022-09-18T14:51:12.000Z</time>
      </trkpt>
      <trkpt lat="45.8243" lon="4.76287">
        <ele>338.36635</ele>
        <time>2022-09-18T14:51:13.000Z</time>
      </trkpt>
      <trkpt lat="45.82426" lon="4.76287">
        <ele>338.33638</ele>
        <time>2022-09-18T14:51:14.000Z</time>
      </trkpt>
      <trkpt lat="45.82424" lon="4.76286">
        <ele>338.22847</ele>
        <time>2022-09-18T14:51:15.000Z</time>
      </trkpt>
      <trkpt lat="45.82422" lon="4.76283">
        <ele>338.11397</ele>
        <time>2022-09-18T14:51:16.000Z</time>
      </trkpt>
      <trkpt lat="45.82422" lon="4.7628">
        <ele>338.01035</ele>
        <time>2022-09-18T14:51:17.000Z</time>
      </trkpt>
      <trkpt lat="45.82423" lon="4.76277">
        <ele>337.9631</ele>
        <time>2022-09-18T14:51:18.000Z</time>
      </trkpt>
      <trkpt lat="45.82424" lon="4.76274">
        <ele>337.94865</ele>
        <time>2022-09-18T14:51:19.000Z</time>
      </trkpt>
      <trkpt lat="45.82424" lon="4.76274">
        <ele>337.94865</ele>
        <time>2022-09-18T14:51:19.000Z</time>
      </trkpt>
      <trkpt lat="45.82426" lon="4.76273">
        <ele>337.94062</ele>
        <time>2022-09-18T14:51:20.000Z</time>
      </trkpt>
      <trkpt lat="45.82428" lon="4.76273">
        <ele>337.94777</ele>
        <time>2022-09-18T14:51:21.000Z</time>
      </trkpt>
      <trkpt lat="45.82431" lon="4.76273">
        <ele>337.96293</ele>
        <time>2022-09-18T14:51:22.000Z</time>
      </trkpt>
      <trkpt lat="45.82433" lon="4.76272">
        <ele>337.97603</ele>
        <time>2022-09-18T14:51:23.000Z</time>
      </trkpt>
      <trkpt lat="45.82435" lon="4.76271">
        <ele>337.99646</ele>
        <time>2022-09-18T14:51:24.000Z</time>
      </trkpt>
      <trkpt lat="45.82438" lon="4.76269">
        <ele>338.03069</ele>
        <time>2022-09-18T14:51:25.000Z</time>
      </trkpt>
      <trkpt lat="45.82441" lon="4.76268">
        <ele>338.06247</ele>
        <time>2022-09-18T14:51:26.000Z</time>
      </trkpt>
      <trkpt lat="45.82443" lon="4.76266">
        <ele>338.08881</ele>
        <time>2022-09-18T14:51:27.000Z</time>
      </trkpt>
      <trkpt lat="45.82445" lon="4.76262">
        <ele>338.11111</ele>
        <time>2022-09-18T14:51:28.000Z</time>
      </trkpt>
      <trkpt lat="45.82446" lon="4.76258">
        <ele>338.13162</ele>
        <time>2022-09-18T14:51:29.000Z</time>
      </trkpt>
      <trkpt lat="45.82445" lon="4.76254">
        <ele>338.1589</ele>
        <time>2022-09-18T14:51:30.000Z</time>
      </trkpt>
      <trkpt lat="45.82444" lon="4.7625">
        <ele>338.18606</ele>
        <time>2022-09-18T14:51:31.000Z</time>
      </trkpt>
      <trkpt lat="45.82443" lon="4.76245">
        <ele>338.2003</ele>
        <time>2022-09-18T14:51:32.000Z</time>
      </trkpt>
      <trkpt lat="45.82442" lon="4.76241">
        <ele>338.19991</ele>
        <time>2022-09-18T14:51:33.000Z</time>
      </trkpt>
      <trkpt lat="45.8244" lon="4.76236">
        <ele>338.20857</ele>
        <time>2022-09-18T14:51:34.000Z</time>
      </trkpt>
      <trkpt lat="45.82439" lon="4.76232">
        <ele>338.2483</ele>
        <time>2022-09-18T14:51:35.000Z</time>
      </trkpt>
      <trkpt lat="45.82437" lon="4.76227">
        <ele>338.398</ele>
        <time>2022-09-18T14:51:36.000Z</time>
      </trkpt>
      <trkpt lat="45.82435" lon="4.76223">
        <ele>338.65123</ele>
        <time>2022-09-18T14:51:37.000Z</time>
      </trkpt>
      <trkpt lat="45.82434" lon="4.76219">
        <ele>339.01651</ele>
        <time>2022-09-18T14:51:38.000Z</time>
      </trkpt>
      <trkpt lat="45.82432" lon="4.76215">
        <ele>339.44406</ele>
        <time>2022-09-18T14:51:39.000Z</time>
      </trkpt>
      <trkpt lat="45.8243" lon="4.76211">
        <ele>339.8577</ele>
        <time>2022-09-18T14:51:40.000Z</time>
      </trkpt>
      <trkpt lat="45.82429" lon="4.76208">
        <ele>340.19468</ele>
        <time>2022-09-18T14:51:41.000Z</time>
      </trkpt>
      <trkpt lat="45.82427" lon="4.76204">
        <ele>340.43611</ele>
        <time>2022-09-18T14:51:42.000Z</time>
      </trkpt>
      <trkpt lat="45.82425" lon="4.762">
        <ele>340.52282</ele>
        <time>2022-09-18T14:51:43.000Z</time>
      </trkpt>
      <trkpt lat="45.82423" lon="4.76196">
        <ele>340.41181</ele>
        <time>2022-09-18T14:51:44.000Z</time>
      </trkpt>
      <trkpt lat="45.82422" lon="4.76191">
        <ele>339.99971</ele>
        <time>2022-09-18T14:51:45.000Z</time>
      </trkpt>
      <trkpt lat="45.82421" lon="4.76186">
        <ele>339.51877</ele>
        <time>2022-09-18T14:51:46.000Z</time>
      </trkpt>
      <trkpt lat="45.82419" lon="4.76181">
        <ele>339.151</ele>
        <time>2022-09-18T14:51:47.000Z</time>
      </trkpt>
      <trkpt lat="45.82418" lon="4.76176">
        <ele>338.9771</ele>
        <time>2022-09-18T14:51:48.000Z</time>
      </trkpt>
      <trkpt lat="45.82416" lon="4.76172">
        <ele>338.87189</ele>
        <time>2022-09-18T14:51:49.000Z</time>
      </trkpt>
      <trkpt lat="45.82414" lon="4.76167">
        <ele>338.81249</ele>
        <time>2022-09-18T14:51:50.000Z</time>
      </trkpt>
      <trkpt lat="45.82412" lon="4.76162">
        <ele>338.77708</ele>
        <time>2022-09-18T14:51:51.000Z</time>
      </trkpt>
      <trkpt lat="45.82411" lon="4.76157">
        <ele>338.76011</ele>
        <time>2022-09-18T14:51:52.000Z</time>
      </trkpt>
      <trkpt lat="45.82409" lon="4.76153">
        <ele>338.74871</ele>
        <time>2022-09-18T14:51:53.000Z</time>
      </trkpt>
      <trkpt lat="45.82407" lon="4.76148">
        <ele>338.7227</ele>
        <time>2022-09-18T14:51:54.000Z</time>
      </trkpt>
      <trkpt lat="45.82405" lon="4.76144">
        <ele>338.7069</ele>
        <time>2022-09-18T14:51:55.000Z</time>
      </trkpt>
      <trkpt lat="45.82403" lon="4.76139">
        <ele>338.71796</ele>
        <time>2022-09-18T14:51:56.000Z</time>
      </trkpt>
      <trkpt lat="45.82401" lon="4.76134">
        <ele>338.75755</ele>
        <time>2022-09-18T14:51:57.000Z</time>
      </trkpt>
      <trkpt lat="45.82398" lon="4.7613">
        <ele>338.82269</ele>
        <time>2022-09-18T14:51:58.000Z</time>
      </trkpt>
      <trkpt lat="45.82397" lon="4.76127">
        <ele>338.87559</ele>
        <time>2022-09-18T14:51:59.000Z</time>
      </trkpt>
      <trkpt lat="45.82394" lon="4.76121">
        <ele>338.94569</ele>
        <time>2022-09-18T14:52:00.000Z</time>
      </trkpt>
      <trkpt lat="45.8239" lon="4.76117">
        <ele>339.07602</ele>
        <time>2022-09-18T14:52:01.000Z</time>
      </trkpt>
      <trkpt lat="45.82388" lon="4.76114">
        <ele>339.15568</ele>
        <time>2022-09-18T14:52:02.000Z</time>
      </trkpt>
      <trkpt lat="45.82386" lon="4.7611">
        <ele>339.12337</ele>
        <time>2022-09-18T14:52:03.000Z</time>
      </trkpt>
      <trkpt lat="45.82384" lon="4.76105">
        <ele>338.98122</ele>
        <time>2022-09-18T14:52:04.000Z</time>
      </trkpt>
      <trkpt lat="45.82382" lon="4.76099">
        <ele>338.84699</ele>
        <time>2022-09-18T14:52:05.000Z</time>
      </trkpt>
      <trkpt lat="45.82381" lon="4.76094">
        <ele>338.60175</ele>
        <time>2022-09-18T14:52:06.000Z</time>
      </trkpt>
      <trkpt lat="45.82378" lon="4.76089">
        <ele>338.5151</ele>
        <time>2022-09-18T14:52:07.000Z</time>
      </trkpt>
      <trkpt lat="45.82375" lon="4.76083">
        <ele>338.38936</ele>
        <time>2022-09-18T14:52:08.000Z</time>
      </trkpt>
      <trkpt lat="45.82372" lon="4.76076">
        <ele>338.22374</ele>
        <time>2022-09-18T14:52:09.000Z</time>
      </trkpt>
      <trkpt lat="45.8237" lon="4.76068">
        <ele>337.98603</ele>
        <time>2022-09-18T14:52:10.000Z</time>
      </trkpt>
      <trkpt lat="45.82367" lon="4.76061">
        <ele>337.82838</ele>
        <time>2022-09-18T14:52:11.000Z</time>
      </trkpt>
      <trkpt lat="45.82365" lon="4.76053">
        <ele>337.68639</ele>
        <time>2022-09-18T14:52:12.000Z</time>
      </trkpt>
      <trkpt lat="45.82362" lon="4.76045">
        <ele>337.58998</ele>
        <time>2022-09-18T14:52:13.000Z</time>
      </trkpt>
      <trkpt lat="45.8236" lon="4.76037">
        <ele>337.45168</ele>
        <time>2022-09-18T14:52:14.000Z</time>
      </trkpt>
      <trkpt lat="45.82359" lon="4.76029">
        <ele>337.37152</ele>
        <time>2022-09-18T14:52:15.000Z</time>
      </trkpt>
      <trkpt lat="45.82358" lon="4.76021">
        <ele>337.29755</ele>
        <time>2022-09-18T14:52:16.000Z</time>
      </trkpt>
      <trkpt lat="45.82358" lon="4.76014">
        <ele>337.31474</ele>
        <time>2022-09-18T14:52:17.000Z</time>
      </trkpt>
      <trkpt lat="45.82358" lon="4.76006">
        <ele>337.37758</ele>
        <time>2022-09-18T14:52:18.000Z</time>
      </trkpt>
      <trkpt lat="45.82357" lon="4.75998">
        <ele>337.60503</ele>
        <time>2022-09-18T14:52:19.000Z</time>
      </trkpt>
      <trkpt lat="45.82358" lon="4.75991">
        <ele>337.72901</ele>
        <time>2022-09-18T14:52:20.000Z</time>
      </trkpt>
      <trkpt lat="45.82358" lon="4.75983">
        <ele>337.86091</ele>
        <time>2022-09-18T14:52:21.000Z</time>
      </trkpt>
      <trkpt lat="45.82358" lon="4.75976">
        <ele>337.89431</ele>
        <time>2022-09-18T14:52:22.000Z</time>
      </trkpt>
      <trkpt lat="45.82357" lon="4.75969">
        <ele>337.98914</ele>
        <time>2022-09-18T14:52:23.000Z</time>
      </trkpt>
      <trkpt lat="45.82355" lon="4.75962">
        <ele>338.16667</ele>
        <time>2022-09-18T14:52:24.000Z</time>
      </trkpt>
      <trkpt lat="45.82354" lon="4.75955">
        <ele>338.30959</ele>
        <time>2022-09-18T14:52:25.000Z</time>
      </trkpt>
      <trkpt lat="45.82354" lon="4.75948">
        <ele>338.43876</ele>
        <time>2022-09-18T14:52:26.000Z</time>
      </trkpt>
      <trkpt lat="45.82353" lon="4.75941">
        <ele>338.62196</ele>
        <time>2022-09-18T14:52:27.000Z</time>
      </trkpt>
      <trkpt lat="45.82353" lon="4.75934">
        <ele>338.77733</ele>
        <time>2022-09-18T14:52:28.000Z</time>
      </trkpt>
      <trkpt lat="45.82353" lon="4.75927">
        <ele>338.93336</ele>
        <time>2022-09-18T14:52:29.000Z</time>
      </trkpt>
      <trkpt lat="45.82352" lon="4.75921">
        <ele>339.09636</ele>
        <time>2022-09-18T14:52:30.000Z</time>
      </trkpt>
      <trkpt lat="45.82351" lon="4.75915">
        <ele>339.23298</ele>
        <time>2022-09-18T14:52:31.000Z</time>
      </trkpt>
      <trkpt lat="45.8235" lon="4.75908">
        <ele>339.32304</ele>
        <time>2022-09-18T14:52:32.000Z</time>
      </trkpt>
      <trkpt lat="45.82349" lon="4.75902">
        <ele>339.41235</ele>
        <time>2022-09-18T14:52:33.000Z</time>
      </trkpt>
      <trkpt lat="45.82349" lon="4.75895">
        <ele>339.43955</ele>
        <time>2022-09-18T14:52:34.000Z</time>
      </trkpt>
      <trkpt lat="45.8235" lon="4.75888">
        <ele>339.43748</ele>
        <time>2022-09-18T14:52:35.000Z</time>
      </trkpt>
      <trkpt lat="45.82351" lon="4.75879">
        <ele>339.3902</ele>
        <time>2022-09-18T14:52:36.000Z</time>
      </trkpt>
      <trkpt lat="45.82352" lon="4.75871">
        <ele>339.33018</ele>
        <time>2022-09-18T14:52:37.000Z</time>
      </trkpt>
      <trkpt lat="45.82352" lon="4.75864">
        <ele>339.29519</ele>
        <time>2022-09-18T14:52:38.000Z</time>
      </trkpt>
      <trkpt lat="45.82351" lon="4.75856">
        <ele>339.26129</ele>
        <time>2022-09-18T14:52:39.000Z</time>
      </trkpt>
      <trkpt lat="45.82351" lon="4.75848">
        <ele>339.21094</ele>
        <time>2022-09-18T14:52:40.000Z</time>
      </trkpt>
      <trkpt lat="45.82351" lon="4.7584">
        <ele>339.16489</ele>
        <time>2022-09-18T14:52:41.000Z</time>
      </trkpt>
      <trkpt lat="45.8235" lon="4.75831">
        <ele>339.10691</ele>
        <time>2022-09-18T14:52:42.000Z</time>
      </trkpt>
      <trkpt lat="45.8235" lon="4.75823">
        <ele>339.02289</ele>
        <time>2022-09-18T14:52:43.000Z</time>
      </trkpt>
      <trkpt lat="45.8235" lon="4.75815">
        <ele>338.89642</ele>
        <time>2022-09-18T14:52:44.000Z</time>
      </trkpt>
      <trkpt lat="45.8235" lon="4.75807">
        <ele>338.75193</ele>
        <time>2022-09-18T14:52:45.000Z</time>
      </trkpt>
      <trkpt lat="45.8235" lon="4.75799">
        <ele>338.62312</ele>
        <time>2022-09-18T14:52:46.000Z</time>
      </trkpt>
      <trkpt lat="45.82349" lon="4.75792">
        <ele>338.54283</ele>
        <time>2022-09-18T14:52:47.000Z</time>
      </trkpt>
      <trkpt lat="45.8235" lon="4.75783">
        <ele>338.38354</ele>
        <time>2022-09-18T14:52:48.000Z</time>
      </trkpt>
      <trkpt lat="45.82351" lon="4.75776">
        <ele>338.25023</ele>
        <time>2022-09-18T14:52:49.000Z</time>
      </trkpt>
      <trkpt lat="45.82354" lon="4.75768">
        <ele>338.17606</ele>
        <time>2022-09-18T14:52:50.000Z</time>
      </trkpt>
      <trkpt lat="45.82356" lon="4.75758">
        <ele>338.19375</ele>
        <time>2022-09-18T14:52:51.000Z</time>
      </trkpt>
      <trkpt lat="45.82358" lon="4.75749">
        <ele>338.27767</ele>
        <time>2022-09-18T14:52:52.000Z</time>
      </trkpt>
      <trkpt lat="45.82358" lon="4.75737">
        <ele>338.52457</ele>
        <time>2022-09-18T14:52:53.000Z</time>
      </trkpt>
      <trkpt lat="45.8236" lon="4.75731">
        <ele>338.53722</ele>
        <time>2022-09-18T14:52:54.000Z</time>
      </trkpt>
      <trkpt lat="45.82363" lon="4.75724">
        <ele>338.43404</ele>
        <time>2022-09-18T14:52:55.000Z</time>
      </trkpt>
      <trkpt lat="45.82364" lon="4.75718">
        <ele>338.4297</ele>
        <time>2022-09-18T14:52:56.000Z</time>
      </trkpt>
      <trkpt lat="45.82367" lon="4.7571">
        <ele>338.09556</ele>
        <time>2022-09-18T14:52:57.000Z</time>
      </trkpt>
      <trkpt lat="45.82371" lon="4.75701">
        <ele>337.80169</ele>
        <time>2022-09-18T14:52:58.000Z</time>
      </trkpt>
      <trkpt lat="45.82373" lon="4.75693">
        <ele>337.77123</ele>
        <time>2022-09-18T14:52:59.000Z</time>
      </trkpt>
      <trkpt lat="45.82376" lon="4.75685">
        <ele>338.14207</ele>
        <time>2022-09-18T14:53:00.000Z</time>
      </trkpt>
      <trkpt lat="45.82379" lon="4.75677">
        <ele>338.82015</ele>
        <time>2022-09-18T14:53:01.000Z</time>
      </trkpt>
      <trkpt lat="45.82382" lon="4.7567">
        <ele>339.36285</ele>
        <time>2022-09-18T14:53:02.000Z</time>
      </trkpt>
      <trkpt lat="45.82385" lon="4.75661">
        <ele>339.59267</ele>
        <time>2022-09-18T14:53:03.000Z</time>
      </trkpt>
      <trkpt lat="45.82388" lon="4.75653">
        <ele>339.3905</ele>
        <time>2022-09-18T14:53:04.000Z</time>
      </trkpt>
      <trkpt lat="45.8239" lon="4.75647">
        <ele>338.82928</ele>
        <time>2022-09-18T14:53:05.000Z</time>
      </trkpt>
      <trkpt lat="45.82393" lon="4.75639">
        <ele>338.3071</ele>
        <time>2022-09-18T14:53:06.000Z</time>
      </trkpt>
      <trkpt lat="45.82395" lon="4.75631">
        <ele>338.18681</ele>
        <time>2022-09-18T14:53:07.000Z</time>
      </trkpt>
      <trkpt lat="45.82397" lon="4.75621">
        <ele>339.38689</ele>
        <time>2022-09-18T14:53:08.000Z</time>
      </trkpt>
      <trkpt lat="45.82398" lon="4.75614">
        <ele>340.55182</ele>
        <time>2022-09-18T14:53:09.000Z</time>
      </trkpt>
      <trkpt lat="45.82398" lon="4.75605">
        <ele>342.20122</ele>
        <time>2022-09-18T14:53:10.000Z</time>
      </trkpt>
      <trkpt lat="45.82399" lon="4.75596">
        <ele>342.91305</ele>
        <time>2022-09-18T14:53:11.000Z</time>
      </trkpt>
      <trkpt lat="45.82398" lon="4.75587">
        <ele>342.78232</ele>
        <time>2022-09-18T14:53:12.000Z</time>
      </trkpt>
      <trkpt lat="45.82396" lon="4.75578">
        <ele>342.5315</ele>
        <time>2022-09-18T14:53:13.000Z</time>
      </trkpt>
      <trkpt lat="45.82394" lon="4.75573">
        <ele>342.55161</ele>
        <time>2022-09-18T14:53:14.000Z</time>
      </trkpt>
      <trkpt lat="45.82392" lon="4.75565">
        <ele>342.83266</ele>
        <time>2022-09-18T14:53:15.000Z</time>
      </trkpt>
      <trkpt lat="45.8239" lon="4.75559">
        <ele>343.37065</ele>
        <time>2022-09-18T14:53:16.000Z</time>
      </trkpt>
      <trkpt lat="45.82388" lon="4.75552">
        <ele>344.12433</ele>
        <time>2022-09-18T14:53:17.000Z</time>
      </trkpt>
      <trkpt lat="45.82385" lon="4.75545">
        <ele>344.89314</ele>
        <time>2022-09-18T14:53:18.000Z</time>
      </trkpt>
      <trkpt lat="45.82382" lon="4.75538">
        <ele>345.65559</ele>
        <time>2022-09-18T14:53:19.000Z</time>
      </trkpt>
      <trkpt lat="45.8238" lon="4.7553">
        <ele>345.9795</ele>
        <time>2022-09-18T14:53:20.000Z</time>
      </trkpt>
      <trkpt lat="45.82378" lon="4.75523">
        <ele>346.01</ele>
        <time>2022-09-18T14:53:21.000Z</time>
      </trkpt>
      <trkpt lat="45.82375" lon="4.75516">
        <ele>346.11306</ele>
        <time>2022-09-18T14:53:22.000Z</time>
      </trkpt>
      <trkpt lat="45.82375" lon="4.75508">
        <ele>346.01441</ele>
        <time>2022-09-18T14:53:23.000Z</time>
      </trkpt>
      <trkpt lat="45.82372" lon="4.75502">
        <ele>346.47429</ele>
        <time>2022-09-18T14:53:24.000Z</time>
      </trkpt>
      <trkpt lat="45.82369" lon="4.75494">
        <ele>347.14778</ele>
        <time>2022-09-18T14:53:25.000Z</time>
      </trkpt>
      <trkpt lat="45.82368" lon="4.75485">
        <ele>347.68955</ele>
        <time>2022-09-18T14:53:26.000Z</time>
      </trkpt>
      <trkpt lat="45.82368" lon="4.75477">
        <ele>348.07151</ele>
        <time>2022-09-18T14:53:27.000Z</time>
      </trkpt>
      <trkpt lat="45.82366" lon="4.75471">
        <ele>348.75189</ele>
        <time>2022-09-18T14:53:28.000Z</time>
      </trkpt>
      <trkpt lat="45.82364" lon="4.75463">
        <ele>349.23967</ele>
        <time>2022-09-18T14:53:29.000Z</time>
      </trkpt>
      <trkpt lat="45.82361" lon="4.75457">
        <ele>350.0218</ele>
        <time>2022-09-18T14:53:30.000Z</time>
      </trkpt>
      <trkpt lat="45.82359" lon="4.75452">
        <ele>350.49322</ele>
        <time>2022-09-18T14:53:31.000Z</time>
      </trkpt>
      <trkpt lat="45.82358" lon="4.75444">
        <ele>350.85604</ele>
        <time>2022-09-18T14:53:32.000Z</time>
      </trkpt>
      <trkpt lat="45.82357" lon="4.75438">
        <ele>351.01856</ele>
        <time>2022-09-18T14:53:33.000Z</time>
      </trkpt>
      <trkpt lat="45.82355" lon="4.75433">
        <ele>351.0868</ele>
        <time>2022-09-18T14:53:34.000Z</time>
      </trkpt>
      <trkpt lat="45.82353" lon="4.75428">
        <ele>351.06369</ele>
        <time>2022-09-18T14:53:35.000Z</time>
      </trkpt>
      <trkpt lat="45.82351" lon="4.75422">
        <ele>351.01659</ele>
        <time>2022-09-18T14:53:36.000Z</time>
      </trkpt>
      <trkpt lat="45.8235" lon="4.75417">
        <ele>351.14803</ele>
        <time>2022-09-18T14:53:37.000Z</time>
      </trkpt>
      <trkpt lat="45.82348" lon="4.7541">
        <ele>351.59747</ele>
        <time>2022-09-18T14:53:38.000Z</time>
      </trkpt>
      <trkpt lat="45.82347" lon="4.75404">
        <ele>352.06862</ele>
        <time>2022-09-18T14:53:39.000Z</time>
      </trkpt>
      <trkpt lat="45.82346" lon="4.75399">
        <ele>352.6382</ele>
        <time>2022-09-18T14:53:40.000Z</time>
      </trkpt>
      <trkpt lat="45.82345" lon="4.75394">
        <ele>353.20299</ele>
        <time>2022-09-18T14:53:41.000Z</time>
      </trkpt>
      <trkpt lat="45.82342" lon="4.75389">
        <ele>353.94125</ele>
        <time>2022-09-18T14:53:42.000Z</time>
      </trkpt>
      <trkpt lat="45.82341" lon="4.75385">
        <ele>354.29318</ele>
        <time>2022-09-18T14:53:43.000Z</time>
      </trkpt>
      <trkpt lat="45.8234" lon="4.75379">
        <ele>354.66807</ele>
        <time>2022-09-18T14:53:44.000Z</time>
      </trkpt>
      <trkpt lat="45.82339" lon="4.75374">
        <ele>354.98209</ele>
        <time>2022-09-18T14:53:45.000Z</time>
      </trkpt>
      <trkpt lat="45.82338" lon="4.75369">
        <ele>355.32683</ele>
        <time>2022-09-18T14:53:46.000Z</time>
      </trkpt>
      <trkpt lat="45.82336" lon="4.75364">
        <ele>355.64363</ele>
        <time>2022-09-18T14:53:47.000Z</time>
      </trkpt>
      <trkpt lat="45.82334" lon="4.7536">
        <ele>355.88772</ele>
        <time>2022-09-18T14:53:48.000Z</time>
      </trkpt>
      <trkpt lat="45.82333" lon="4.75356">
        <ele>356.09534</ele>
        <time>2022-09-18T14:53:49.000Z</time>
      </trkpt>
      <trkpt lat="45.82332" lon="4.75352">
        <ele>356.35317</ele>
        <time>2022-09-18T14:53:50.000Z</time>
      </trkpt>
      <trkpt lat="45.8233" lon="4.75346">
        <ele>356.65668</ele>
        <time>2022-09-18T14:53:51.000Z</time>
      </trkpt>
      <trkpt lat="45.82329" lon="4.7534">
        <ele>357.01983</ele>
        <time>2022-09-18T14:53:52.000Z</time>
      </trkpt>
      <trkpt lat="45.82324" lon="4.75332">
        <ele>357.62106</ele>
        <time>2022-09-18T14:53:53.000Z</time>
      </trkpt>
      <trkpt lat="45.8232" lon="4.7533">
        <ele>357.85967</ele>
        <time>2022-09-18T14:53:54.000Z</time>
      </trkpt>
      <trkpt lat="45.82316" lon="4.75325">
        <ele>358.36637</ele>
        <time>2022-09-18T14:53:55.000Z</time>
      </trkpt>
      <trkpt lat="45.82312" lon="4.75323">
        <ele>358.60379</ele>
        <time>2022-09-18T14:53:56.000Z</time>
      </trkpt>
      <trkpt lat="45.82308" lon="4.75319">
        <ele>358.87452</ele>
        <time>2022-09-18T14:53:57.000Z</time>
      </trkpt>
      <trkpt lat="45.82304" lon="4.75316">
        <ele>359.01678</ele>
        <time>2022-09-18T14:53:58.000Z</time>
      </trkpt>
      <trkpt lat="45.823" lon="4.75313">
        <ele>358.94849</ele>
        <time>2022-09-18T14:53:59.000Z</time>
      </trkpt>
      <trkpt lat="45.82296" lon="4.75311">
        <ele>359.05006</ele>
        <time>2022-09-18T14:54:00.000Z</time>
      </trkpt>
      <trkpt lat="45.82292" lon="4.75308">
        <ele>359.21779</ele>
        <time>2022-09-18T14:54:01.000Z</time>
      </trkpt>
      <trkpt lat="45.82287" lon="4.75305">
        <ele>359.46486</ele>
        <time>2022-09-18T14:54:02.000Z</time>
      </trkpt>
      <trkpt lat="45.82283" lon="4.75303">
        <ele>359.72052</ele>
        <time>2022-09-18T14:54:03.000Z</time>
      </trkpt>
      <trkpt lat="45.82279" lon="4.753">
        <ele>360.13451</ele>
        <time>2022-09-18T14:54:04.000Z</time>
      </trkpt>
      <trkpt lat="45.82275" lon="4.75297">
        <ele>360.60026</ele>
        <time>2022-09-18T14:54:05.000Z</time>
      </trkpt>
      <trkpt lat="45.8227" lon="4.75294">
        <ele>361.24816</ele>
        <time>2022-09-18T14:54:06.000Z</time>
      </trkpt>
      <trkpt lat="45.82267" lon="4.7529">
        <ele>361.88567</ele>
        <time>2022-09-18T14:54:07.000Z</time>
      </trkpt>
      <trkpt lat="45.82263" lon="4.75288">
        <ele>362.43153</ele>
        <time>2022-09-18T14:54:08.000Z</time>
      </trkpt>
      <trkpt lat="45.82259" lon="4.75285">
        <ele>362.9336</ele>
        <time>2022-09-18T14:54:09.000Z</time>
      </trkpt>
      <trkpt lat="45.82255" lon="4.75282">
        <ele>363.48627</ele>
        <time>2022-09-18T14:54:10.000Z</time>
      </trkpt>
      <trkpt lat="45.82251" lon="4.7528">
        <ele>363.94036</ele>
        <time>2022-09-18T14:54:11.000Z</time>
      </trkpt>
      <trkpt lat="45.82248" lon="4.75277">
        <ele>364.38542</ele>
        <time>2022-09-18T14:54:12.000Z</time>
      </trkpt>
      <trkpt lat="45.82245" lon="4.75273">
        <ele>364.93981</ele>
        <time>2022-09-18T14:54:13.000Z</time>
      </trkpt>
      <trkpt lat="45.8224" lon="4.75269">
        <ele>365.5851</ele>
        <time>2022-09-18T14:54:14.000Z</time>
      </trkpt>
      <trkpt lat="45.82238" lon="4.75265">
        <ele>366.14969</ele>
        <time>2022-09-18T14:54:15.000Z</time>
      </trkpt>
      <trkpt lat="45.82234" lon="4.75262">
        <ele>366.73449</ele>
        <time>2022-09-18T14:54:16.000Z</time>
      </trkpt>
      <trkpt lat="45.8223" lon="4.75259">
        <ele>367.18312</ele>
        <time>2022-09-18T14:54:17.000Z</time>
      </trkpt>
      <trkpt lat="45.82228" lon="4.75254">
        <ele>367.81462</ele>
        <time>2022-09-18T14:54:18.000Z</time>
      </trkpt>
      <trkpt lat="45.82225" lon="4.75251">
        <ele>368.27196</ele>
        <time>2022-09-18T14:54:19.000Z</time>
      </trkpt>
      <trkpt lat="45.82224" lon="4.75249">
        <ele>368.62745</ele>
        <time>2022-09-18T14:54:20.000Z</time>
      </trkpt>
      <trkpt lat="45.82221" lon="4.75246">
        <ele>369.09651</ele>
        <time>2022-09-18T14:54:21.000Z</time>
      </trkpt>
      <trkpt lat="45.82218" lon="4.75241">
        <ele>369.73255</ele>
        <time>2022-09-18T14:54:22.000Z</time>
      </trkpt>
      <trkpt lat="45.82215" lon="4.75237">
        <ele>370.33057</ele>
        <time>2022-09-18T14:54:23.000Z</time>
      </trkpt>
      <trkpt lat="45.82216" lon="4.75233">
        <ele>370.60042</ele>
        <time>2022-09-18T14:54:24.000Z</time>
      </trkpt>
      <trkpt lat="45.82216" lon="4.75227">
        <ele>371.22374</ele>
        <time>2022-09-18T14:54:25.000Z</time>
      </trkpt>
      <trkpt lat="45.82213" lon="4.75222">
        <ele>371.74567</ele>
        <time>2022-09-18T14:54:26.000Z</time>
      </trkpt>
      <trkpt lat="45.82211" lon="4.75217">
        <ele>372.26743</ele>
        <time>2022-09-18T14:54:27.000Z</time>
      </trkpt>
      <trkpt lat="45.82209" lon="4.75212">
        <ele>372.75306</ele>
        <time>2022-09-18T14:54:28.000Z</time>
      </trkpt>
      <trkpt lat="45.82207" lon="4.75207">
        <ele>373.20681</ele>
        <time>2022-09-18T14:54:29.000Z</time>
      </trkpt>
      <trkpt lat="45.82205" lon="4.75201">
        <ele>373.60358</ele>
        <time>2022-09-18T14:54:30.000Z</time>
      </trkpt>
      <trkpt lat="45.82203" lon="4.75196">
        <ele>373.93401</ele>
        <time>2022-09-18T14:54:31.000Z</time>
      </trkpt>
      <trkpt lat="45.82201" lon="4.7519">
        <ele>374.18966</ele>
        <time>2022-09-18T14:54:32.000Z</time>
      </trkpt>
      <trkpt lat="45.822" lon="4.75185">
        <ele>374.3474</ele>
        <time>2022-09-18T14:54:33.000Z</time>
      </trkpt>
      <trkpt lat="45.82199" lon="4.7518">
        <ele>374.43038</ele>
        <time>2022-09-18T14:54:34.000Z</time>
      </trkpt>
      <trkpt lat="45.82198" lon="4.75174">
        <ele>374.4576</ele>
        <time>2022-09-18T14:54:35.000Z</time>
      </trkpt>
      <trkpt lat="45.82197" lon="4.75169">
        <ele>374.46338</ele>
        <time>2022-09-18T14:54:36.000Z</time>
      </trkpt>
      <trkpt lat="45.82197" lon="4.75165">
        <ele>374.44879</ele>
        <time>2022-09-18T14:54:37.000Z</time>
      </trkpt>
      <trkpt lat="45.82198" lon="4.75161">
        <ele>374.43185</ele>
        <time>2022-09-18T14:54:38.000Z</time>
      </trkpt>
      <trkpt lat="45.82198" lon="4.75156">
        <ele>374.42503</ele>
        <time>2022-09-18T14:54:39.000Z</time>
      </trkpt>
      <trkpt lat="45.822" lon="4.75151">
        <ele>374.43675</ele>
        <time>2022-09-18T14:54:40.000Z</time>
      </trkpt>
      <trkpt lat="45.82201" lon="4.75146">
        <ele>374.45235</ele>
        <time>2022-09-18T14:54:41.000Z</time>
      </trkpt>
      <trkpt lat="45.82203" lon="4.7514">
        <ele>374.47221</ele>
        <time>2022-09-18T14:54:42.000Z</time>
      </trkpt>
      <trkpt lat="45.82205" lon="4.75135">
        <ele>374.46653</ele>
        <time>2022-09-18T14:54:43.000Z</time>
      </trkpt>
      <trkpt lat="45.82206" lon="4.75129">
        <ele>374.42797</ele>
        <time>2022-09-18T14:54:44.000Z</time>
      </trkpt>
      <trkpt lat="45.82208" lon="4.75123">
        <ele>374.36172</ele>
        <time>2022-09-18T14:54:45.000Z</time>
      </trkpt>
      <trkpt lat="45.8221" lon="4.75118">
        <ele>374.28392</ele>
        <time>2022-09-18T14:54:46.000Z</time>
      </trkpt>
      <trkpt lat="45.82211" lon="4.75112">
        <ele>374.21164</ele>
        <time>2022-09-18T14:54:47.000Z</time>
      </trkpt>
      <trkpt lat="45.82213" lon="4.75105">
        <ele>374.16315</ele>
        <time>2022-09-18T14:54:48.000Z</time>
      </trkpt>
      <trkpt lat="45.82214" lon="4.75096">
        <ele>374.08871</ele>
        <time>2022-09-18T14:54:49.000Z</time>
      </trkpt>
      <trkpt lat="45.82215" lon="4.75089">
        <ele>374.07573</ele>
        <time>2022-09-18T14:54:50.000Z</time>
      </trkpt>
      <trkpt lat="45.82217" lon="4.75082">
        <ele>374.06142</ele>
        <time>2022-09-18T14:54:51.000Z</time>
      </trkpt>
      <trkpt lat="45.8222" lon="4.75074">
        <ele>374.03973</ele>
        <time>2022-09-18T14:54:52.000Z</time>
      </trkpt>
      <trkpt lat="45.82221" lon="4.75067">
        <ele>373.98762</ele>
        <time>2022-09-18T14:54:53.000Z</time>
      </trkpt>
      <trkpt lat="45.82223" lon="4.7506">
        <ele>373.92161</ele>
        <time>2022-09-18T14:54:54.000Z</time>
      </trkpt>
      <trkpt lat="45.82226" lon="4.75052">
        <ele>373.83383</ele>
        <time>2022-09-18T14:54:55.000Z</time>
      </trkpt>
      <trkpt lat="45.82227" lon="4.75045">
        <ele>373.7232</ele>
        <time>2022-09-18T14:54:56.000Z</time>
      </trkpt>
      <trkpt lat="45.82229" lon="4.75037">
        <ele>373.63986</ele>
        <time>2022-09-18T14:54:57.000Z</time>
      </trkpt>
      <trkpt lat="45.8223" lon="4.75029">
        <ele>373.55441</ele>
        <time>2022-09-18T14:54:58.000Z</time>
      </trkpt>
      <trkpt lat="45.82231" lon="4.75023">
        <ele>373.48386</ele>
        <time>2022-09-18T14:54:59.000Z</time>
      </trkpt>
      <trkpt lat="45.82234" lon="4.75016">
        <ele>373.47145</ele>
        <time>2022-09-18T14:55:00.000Z</time>
      </trkpt>
      <trkpt lat="45.82236" lon="4.75009">
        <ele>373.4548</ele>
        <time>2022-09-18T14:55:01.000Z</time>
      </trkpt>
      <trkpt lat="45.82237" lon="4.75001">
        <ele>373.4045</ele>
        <time>2022-09-18T14:55:02.000Z</time>
      </trkpt>
      <trkpt lat="45.82239" lon="4.74993">
        <ele>373.35873</ele>
        <time>2022-09-18T14:55:03.000Z</time>
      </trkpt>
      <trkpt lat="45.8224" lon="4.74984">
        <ele>373.25923</ele>
        <time>2022-09-18T14:55:04.000Z</time>
      </trkpt>
      <trkpt lat="45.82242" lon="4.74975">
        <ele>373.12394</ele>
        <time>2022-09-18T14:55:05.000Z</time>
      </trkpt>
      <trkpt lat="45.82242" lon="4.74967">
        <ele>372.90889</ele>
        <time>2022-09-18T14:55:06.000Z</time>
      </trkpt>
      <trkpt lat="45.82243" lon="4.74958">
        <ele>372.65449</ele>
        <time>2022-09-18T14:55:07.000Z</time>
      </trkpt>
      <trkpt lat="45.82243" lon="4.7495">
        <ele>372.46079</ele>
        <time>2022-09-18T14:55:08.000Z</time>
      </trkpt>
      <trkpt lat="45.82244" lon="4.74941">
        <ele>372.24433</ele>
        <time>2022-09-18T14:55:09.000Z</time>
      </trkpt>
      <trkpt lat="45.82246" lon="4.74932">
        <ele>371.99062</ele>
        <time>2022-09-18T14:55:10.000Z</time>
      </trkpt>
      <trkpt lat="45.82247" lon="4.74923">
        <ele>371.73406</ele>
        <time>2022-09-18T14:55:11.000Z</time>
      </trkpt>
      <trkpt lat="45.82248" lon="4.74914">
        <ele>371.52275</ele>
        <time>2022-09-18T14:55:12.000Z</time>
      </trkpt>
      <trkpt lat="45.82249" lon="4.74906">
        <ele>371.42247</ele>
        <time>2022-09-18T14:55:13.000Z</time>
      </trkpt>
      <trkpt lat="45.8225" lon="4.74896">
        <ele>371.36213</ele>
        <time>2022-09-18T14:55:14.000Z</time>
      </trkpt>
      <trkpt lat="45.8225" lon="4.74887">
        <ele>371.31524</ele>
        <time>2022-09-18T14:55:15.000Z</time>
      </trkpt>
      <trkpt lat="45.82251" lon="4.74881">
        <ele>371.25243</ele>
        <time>2022-09-18T14:55:16.000Z</time>
      </trkpt>
      <trkpt lat="45.82255" lon="4.74874">
        <ele>371.2961</ele>
        <time>2022-09-18T14:55:17.000Z</time>
      </trkpt>
      <trkpt lat="45.82261" lon="4.7487">
        <ele>371.48783</ele>
        <time>2022-09-18T14:55:18.000Z</time>
      </trkpt>
      <trkpt lat="45.82265" lon="4.74865">
        <ele>371.64117</ele>
        <time>2022-09-18T14:55:19.000Z</time>
      </trkpt>
      <trkpt lat="45.82269" lon="4.7486">
        <ele>371.77697</ele>
        <time>2022-09-18T14:55:20.000Z</time>
      </trkpt>
      <trkpt lat="45.82273" lon="4.74855">
        <ele>371.95027</ele>
        <time>2022-09-18T14:55:21.000Z</time>
      </trkpt>
      <trkpt lat="45.82276" lon="4.7485">
        <ele>372.1108</ele>
        <time>2022-09-18T14:55:22.000Z</time>
      </trkpt>
      <trkpt lat="45.8228" lon="4.74846">
        <ele>372.325</ele>
        <time>2022-09-18T14:55:23.000Z</time>
      </trkpt>
      <trkpt lat="45.82285" lon="4.7484">
        <ele>372.60829</ele>
        <time>2022-09-18T14:55:24.000Z</time>
      </trkpt>
      <trkpt lat="45.82289" lon="4.74837">
        <ele>372.83957</ele>
        <time>2022-09-18T14:55:25.000Z</time>
      </trkpt>
      <trkpt lat="45.82294" lon="4.74835">
        <ele>373.08509</ele>
        <time>2022-09-18T14:55:26.000Z</time>
      </trkpt>
      <trkpt lat="45.82299" lon="4.74834">
        <ele>373.23</ele>
        <time>2022-09-18T14:55:27.000Z</time>
      </trkpt>
      <trkpt lat="45.82305" lon="4.74834">
        <ele>373.34524</ele>
        <time>2022-09-18T14:55:28.000Z</time>
      </trkpt>
      <trkpt lat="45.8231" lon="4.74833">
        <ele>373.33685</ele>
        <time>2022-09-18T14:55:29.000Z</time>
      </trkpt>
      <trkpt lat="45.82315" lon="4.74833">
        <ele>373.22219</ele>
        <time>2022-09-18T14:55:30.000Z</time>
      </trkpt>
      <trkpt lat="45.82319" lon="4.74834">
        <ele>373.07963</ele>
        <time>2022-09-18T14:55:31.000Z</time>
      </trkpt>
      <trkpt lat="45.82324" lon="4.74834">
        <ele>373.00689</ele>
        <time>2022-09-18T14:55:32.000Z</time>
      </trkpt>
      <trkpt lat="45.82329" lon="4.74834">
        <ele>373.02596</ele>
        <time>2022-09-18T14:55:33.000Z</time>
      </trkpt>
      <trkpt lat="45.82335" lon="4.74834">
        <ele>373.1487</ele>
        <time>2022-09-18T14:55:34.000Z</time>
      </trkpt>
      <trkpt lat="45.8234" lon="4.74834">
        <ele>373.28167</ele>
        <time>2022-09-18T14:55:35.000Z</time>
      </trkpt>
      <trkpt lat="45.82346" lon="4.74831">
        <ele>373.65943</ele>
        <time>2022-09-18T14:55:36.000Z</time>
      </trkpt>
      <trkpt lat="45.8235" lon="4.74831">
        <ele>373.97124</ele>
        <time>2022-09-18T14:55:37.000Z</time>
      </trkpt>
      <trkpt lat="45.82355" lon="4.74831">
        <ele>374.33691</ele>
        <time>2022-09-18T14:55:38.000Z</time>
      </trkpt>
      <trkpt lat="45.8236" lon="4.74832">
        <ele>374.8018</ele>
        <time>2022-09-18T14:55:39.000Z</time>
      </trkpt>
      <trkpt lat="45.82365" lon="4.74831">
        <ele>375.35893</ele>
        <time>2022-09-18T14:55:40.000Z</time>
      </trkpt>
      <trkpt lat="45.82369" lon="4.74831">
        <ele>375.85117</ele>
        <time>2022-09-18T14:55:41.000Z</time>
      </trkpt>
      <trkpt lat="45.82373" lon="4.7483">
        <ele>376.36229</ele>
        <time>2022-09-18T14:55:42.000Z</time>
      </trkpt>
      <trkpt lat="45.82378" lon="4.74828">
        <ele>377.24949</ele>
        <time>2022-09-18T14:55:43.000Z</time>
      </trkpt>
      <trkpt lat="45.82382" lon="4.74827">
        <ele>378.00805</ele>
        <time>2022-09-18T14:55:44.000Z</time>
      </trkpt>
      <trkpt lat="45.82386" lon="4.74825">
        <ele>378.9145</ele>
        <time>2022-09-18T14:55:45.000Z</time>
      </trkpt>
      <trkpt lat="45.82389" lon="4.74821">
        <ele>379.67218</ele>
        <time>2022-09-18T14:55:46.000Z</time>
      </trkpt>
      <trkpt lat="45.82391" lon="4.74814">
        <ele>380.54167</ele>
        <time>2022-09-18T14:55:47.000Z</time>
      </trkpt>
      <trkpt lat="45.82394" lon="4.74808">
        <ele>381.10352</ele>
        <time>2022-09-18T14:55:48.000Z</time>
      </trkpt>
      <trkpt lat="45.82397" lon="4.74804">
        <ele>381.34389</ele>
        <time>2022-09-18T14:55:49.000Z</time>
      </trkpt>
      <trkpt lat="45.824" lon="4.748">
        <ele>381.55305</ele>
        <time>2022-09-18T14:55:50.000Z</time>
      </trkpt>
      <trkpt lat="45.82403" lon="4.74797">
        <ele>381.5927</ele>
        <time>2022-09-18T14:55:51.000Z</time>
      </trkpt>
      <trkpt lat="45.82405" lon="4.74794">
        <ele>381.69709</ele>
        <time>2022-09-18T14:55:52.000Z</time>
      </trkpt>
      <trkpt lat="45.82407" lon="4.74789">
        <ele>381.867</ele>
        <time>2022-09-18T14:55:53.000Z</time>
      </trkpt>
      <trkpt lat="45.8241" lon="4.74784">
        <ele>382.05582</ele>
        <time>2022-09-18T14:55:54.000Z</time>
      </trkpt>
      <trkpt lat="45.82412" lon="4.7478">
        <ele>382.2166</ele>
        <time>2022-09-18T14:55:55.000Z</time>
      </trkpt>
      <trkpt lat="45.82414" lon="4.74776">
        <ele>382.37647</ele>
        <time>2022-09-18T14:55:56.000Z</time>
      </trkpt>
      <trkpt lat="45.82415" lon="4.74772">
        <ele>382.51204</ele>
        <time>2022-09-18T14:55:57.000Z</time>
      </trkpt>
      <trkpt lat="45.82417" lon="4.74768">
        <ele>382.60699</ele>
        <time>2022-09-18T14:55:58.000Z</time>
      </trkpt>
      <trkpt lat="45.82419" lon="4.74763">
        <ele>382.62009</ele>
        <time>2022-09-18T14:55:59.000Z</time>
      </trkpt>
      <trkpt lat="45.8242" lon="4.74758">
        <ele>382.47535</ele>
        <time>2022-09-18T14:56:00.000Z</time>
      </trkpt>
      <trkpt lat="45.8242" lon="4.74755">
        <ele>382.25164</ele>
        <time>2022-09-18T14:56:01.000Z</time>
      </trkpt>
      <trkpt lat="45.82421" lon="4.7475">
        <ele>381.9036</ele>
        <time>2022-09-18T14:56:03.000Z</time>
      </trkpt>
      <trkpt lat="45.82422" lon="4.74748">
        <ele>381.5728</ele>
        <time>2022-09-18T14:56:05.000Z</time>
      </trkpt>
      <trkpt lat="45.82421" lon="4.74745">
        <ele>381.35559</ele>
        <time>2022-09-18T14:56:07.000Z</time>
      </trkpt>
      <trkpt lat="45.82418" lon="4.74741">
        <ele>381.41435</ele>
        <time>2022-09-18T14:56:09.000Z</time>
      </trkpt>
      <trkpt lat="45.82417" lon="4.74738">
        <ele>381.4326</ele>
        <time>2022-09-18T14:56:10.000Z</time>
      </trkpt>
      <trkpt lat="45.82416" lon="4.74736">
        <ele>381.43837</ele>
        <time>2022-09-18T14:56:11.000Z</time>
      </trkpt>
      <trkpt lat="45.82415" lon="4.74733">
        <ele>381.39847</ele>
        <time>2022-09-18T14:56:12.000Z</time>
      </trkpt>
      <trkpt lat="45.82415" lon="4.74729">
        <ele>381.29578</ele>
        <time>2022-09-18T14:56:13.000Z</time>
      </trkpt>
      <trkpt lat="45.82415" lon="4.74725">
        <ele>381.18726</ele>
        <time>2022-09-18T14:56:14.000Z</time>
      </trkpt>
      <trkpt lat="45.82416" lon="4.7472">
        <ele>381.11604</ele>
        <time>2022-09-18T14:56:15.000Z</time>
      </trkpt>
      <trkpt lat="45.82416" lon="4.74716">
        <ele>381.07904</ele>
        <time>2022-09-18T14:56:16.000Z</time>
      </trkpt>
      <trkpt lat="45.82417" lon="4.74711">
        <ele>381.08291</ele>
        <time>2022-09-18T14:56:17.000Z</time>
      </trkpt>
      <trkpt lat="45.82418" lon="4.74705">
        <ele>381.11637</ele>
        <time>2022-09-18T14:56:18.000Z</time>
      </trkpt>
      <trkpt lat="45.82419" lon="4.74699">
        <ele>381.13295</ele>
        <time>2022-09-18T14:56:19.000Z</time>
      </trkpt>
      <trkpt lat="45.82421" lon="4.74693">
        <ele>380.99268</ele>
        <time>2022-09-18T14:56:20.000Z</time>
      </trkpt>
      <trkpt lat="45.82422" lon="4.74687">
        <ele>380.51968</ele>
        <time>2022-09-18T14:56:21.000Z</time>
      </trkpt>
      <trkpt lat="45.82426" lon="4.74677">
        <ele>378.72892</ele>
        <time>2022-09-18T14:56:22.000Z</time>
      </trkpt>
      <trkpt lat="45.82428" lon="4.7467">
        <ele>376.72084</ele>
        <time>2022-09-18T14:56:23.000Z</time>
      </trkpt>
      <trkpt lat="45.82428" lon="4.74661">
        <ele>375.34201</ele>
        <time>2022-09-18T14:56:24.000Z</time>
      </trkpt>
      <trkpt lat="45.82432" lon="4.74652">
        <ele>373.69132</ele>
        <time>2022-09-18T14:56:25.000Z</time>
      </trkpt>
      <trkpt lat="45.82433" lon="4.74646">
        <ele>373.17522</ele>
        <time>2022-09-18T14:56:26.000Z</time>
      </trkpt>
      <trkpt lat="45.82436" lon="4.74635">
        <ele>372.95202</ele>
        <time>2022-09-18T14:56:27.000Z</time>
      </trkpt>
      <trkpt lat="45.82437" lon="4.74628">
        <ele>373.22271</ele>
        <time>2022-09-18T14:56:28.000Z</time>
      </trkpt>
      <trkpt lat="45.82437" lon="4.74622">
        <ele>373.53123</ele>
        <time>2022-09-18T14:56:29.000Z</time>
      </trkpt>
      <trkpt lat="45.82434" lon="4.74613">
        <ele>374.22859</ele>
        <time>2022-09-18T14:56:30.000Z</time>
      </trkpt>
      <trkpt lat="45.82434" lon="4.74604">
        <ele>374.439</ele>
        <time>2022-09-18T14:56:31.000Z</time>
      </trkpt>
      <trkpt lat="45.82436" lon="4.74595">
        <ele>374.21724</ele>
        <time>2022-09-18T14:56:32.000Z</time>
      </trkpt>
      <trkpt lat="45.8244" lon="4.74587">
        <ele>373.97232</ele>
        <time>2022-09-18T14:56:33.000Z</time>
      </trkpt>
      <trkpt lat="45.82442" lon="4.74578">
        <ele>373.42682</ele>
        <time>2022-09-18T14:56:34.000Z</time>
      </trkpt>
      <trkpt lat="45.82447" lon="4.74574">
        <ele>373.50742</ele>
        <time>2022-09-18T14:56:35.000Z</time>
      </trkpt>
      <trkpt lat="45.82451" lon="4.74572">
        <ele>373.92946</ele>
        <time>2022-09-18T14:56:36.000Z</time>
      </trkpt>
      <trkpt lat="45.82459" lon="4.74568">
        <ele>374.28347</ele>
        <time>2022-09-18T14:56:37.000Z</time>
      </trkpt>
      <trkpt lat="45.82466" lon="4.74566">
        <ele>373.92902</ele>
        <time>2022-09-18T14:56:38.000Z</time>
      </trkpt>
      <trkpt lat="45.82472" lon="4.74563">
        <ele>372.52254</ele>
        <time>2022-09-18T14:56:39.000Z</time>
      </trkpt>
      <trkpt lat="45.82475" lon="4.74561">
        <ele>371.54223</ele>
        <time>2022-09-18T14:56:40.000Z</time>
      </trkpt>
      <trkpt lat="45.8248" lon="4.74559">
        <ele>370.20438</ele>
        <time>2022-09-18T14:56:41.000Z</time>
      </trkpt>
      <trkpt lat="45.82484" lon="4.74555">
        <ele>369.70829</ele>
        <time>2022-09-18T14:56:42.000Z</time>
      </trkpt>
      <trkpt lat="45.82488" lon="4.74554">
        <ele>369.40047</ele>
        <time>2022-09-18T14:56:43.000Z</time>
      </trkpt>
      <trkpt lat="45.82493" lon="4.74553">
        <ele>369.53487</ele>
        <time>2022-09-18T14:56:44.000Z</time>
      </trkpt>
      <trkpt lat="45.82497" lon="4.7455">
        <ele>370.16522</ele>
        <time>2022-09-18T14:56:45.000Z</time>
      </trkpt>
      <trkpt lat="45.82502" lon="4.74546">
        <ele>370.855</ele>
        <time>2022-09-18T14:56:46.000Z</time>
      </trkpt>
      <trkpt lat="45.82506" lon="4.74542">
        <ele>371.39099</ele>
        <time>2022-09-18T14:56:47.000Z</time>
      </trkpt>
      <trkpt lat="45.82512" lon="4.74538">
        <ele>371.59376</ele>
        <time>2022-09-18T14:56:48.000Z</time>
      </trkpt>
      <trkpt lat="45.82519" lon="4.74533">
        <ele>371.64184</ele>
        <time>2022-09-18T14:56:49.000Z</time>
      </trkpt>
      <trkpt lat="45.82524" lon="4.7453">
        <ele>371.60267</ele>
        <time>2022-09-18T14:56:50.000Z</time>
      </trkpt>
      <trkpt lat="45.82531" lon="4.74524">
        <ele>371.1858</ele>
        <time>2022-09-18T14:56:51.000Z</time>
      </trkpt>
      <trkpt lat="45.82536" lon="4.74521">
        <ele>370.77958</ele>
        <time>2022-09-18T14:56:52.000Z</time>
      </trkpt>
      <trkpt lat="45.82543" lon="4.74516">
        <ele>370.34392</ele>
        <time>2022-09-18T14:56:53.000Z</time>
      </trkpt>
      <trkpt lat="45.82548" lon="4.74513">
        <ele>370.28065</ele>
        <time>2022-09-18T14:56:54.000Z</time>
      </trkpt>
      <trkpt lat="45.82552" lon="4.74509">
        <ele>370.30739</ele>
        <time>2022-09-18T14:56:55.000Z</time>
      </trkpt>
      <trkpt lat="45.82556" lon="4.74506">
        <ele>370.26918</ele>
        <time>2022-09-18T14:56:56.000Z</time>
      </trkpt>
      <trkpt lat="45.8256" lon="4.745">
        <ele>369.87326</ele>
        <time>2022-09-18T14:56:58.000Z</time>
      </trkpt>
      <trkpt lat="45.82561" lon="4.74497">
        <ele>369.6324</ele>
        <time>2022-09-18T14:56:59.000Z</time>
      </trkpt>
      <trkpt lat="45.82563" lon="4.74496">
        <ele>369.54612</ele>
        <time>2022-09-18T14:57:00.000Z</time>
      </trkpt>
      <trkpt lat="45.82565" lon="4.74495">
        <ele>369.35844</ele>
        <time>2022-09-18T14:57:01.000Z</time>
      </trkpt>
      <trkpt lat="45.82564" lon="4.74491">
        <ele>368.8984</ele>
        <time>2022-09-18T14:57:03.000Z</time>
      </trkpt>
      <trkpt lat="45.82565" lon="4.74486">
        <ele>368.38108</ele>
        <time>2022-09-18T14:57:05.000Z</time>
      </trkpt>
      <trkpt lat="45.82567" lon="4.74484">
        <ele>368.1439</ele>
        <time>2022-09-18T14:57:06.000Z</time>
      </trkpt>
      <trkpt lat="45.82569" lon="4.74482">
        <ele>367.97568</ele>
        <time>2022-09-18T14:57:07.000Z</time>
      </trkpt>
      <trkpt lat="45.82572" lon="4.74481">
        <ele>367.83511</ele>
        <time>2022-09-18T14:57:08.000Z</time>
      </trkpt>
      <trkpt lat="45.82575" lon="4.7448">
        <ele>367.7315</ele>
        <time>2022-09-18T14:57:09.000Z</time>
      </trkpt>
      <trkpt lat="45.82577" lon="4.74479">
        <ele>367.70403</ele>
        <time>2022-09-18T14:57:10.000Z</time>
      </trkpt>
      <trkpt lat="45.82579" lon="4.7448">
        <ele>367.70929</ele>
        <time>2022-09-18T14:57:11.000Z</time>
      </trkpt>
      <trkpt lat="45.82579" lon="4.74477">
        <ele>367.45543</ele>
        <time>2022-09-18T14:57:21.000Z</time>
      </trkpt>
      <trkpt lat="45.82579" lon="4.74474">
        <ele>367.19947</ele>
        <time>2022-09-18T14:57:28.000Z</time>
      </trkpt>
      <trkpt lat="45.8258" lon="4.74472">
        <ele>366.96091</ele>
        <time>2022-09-18T14:57:33.000Z</time>
      </trkpt>
      <trkpt lat="45.8258" lon="4.74469">
        <ele>366.7106</ele>
        <time>2022-09-18T14:57:34.000Z</time>
      </trkpt>
      <trkpt lat="45.82581" lon="4.74467">
        <ele>366.42822</ele>
        <time>2022-09-18T14:57:35.000Z</time>
      </trkpt>
      <trkpt lat="45.82582" lon="4.74463">
        <ele>366.09716</ele>
        <time>2022-09-18T14:57:36.000Z</time>
      </trkpt>
      <trkpt lat="45.82583" lon="4.7446">
        <ele>365.72156</ele>
        <time>2022-09-18T14:57:37.000Z</time>
      </trkpt>
      <trkpt lat="45.82584" lon="4.74455">
        <ele>365.25218</ele>
        <time>2022-09-18T14:57:38.000Z</time>
      </trkpt>
      <trkpt lat="45.82584" lon="4.74449">
        <ele>364.64611</ele>
        <time>2022-09-18T14:57:39.000Z</time>
      </trkpt>
      <trkpt lat="45.82584" lon="4.74438">
        <ele>363.65102</ele>
        <time>2022-09-18T14:57:40.000Z</time>
      </trkpt>
      <trkpt lat="45.82584" lon="4.74429">
        <ele>362.85835</ele>
        <time>2022-09-18T14:57:41.000Z</time>
      </trkpt>
      <trkpt lat="45.82585" lon="4.74418">
        <ele>361.85088</ele>
        <time>2022-09-18T14:57:42.000Z</time>
      </trkpt>
      <trkpt lat="45.82586" lon="4.74406">
        <ele>360.53944</ele>
        <time>2022-09-18T14:57:43.000Z</time>
      </trkpt>
      <trkpt lat="45.82588" lon="4.74394">
        <ele>359.2079</ele>
        <time>2022-09-18T14:57:44.000Z</time>
      </trkpt>
      <trkpt lat="45.82588" lon="4.74381">
        <ele>358.02275</ele>
        <time>2022-09-18T14:57:45.000Z</time>
      </trkpt>
      <trkpt lat="45.82589" lon="4.74369">
        <ele>357.2427</ele>
        <time>2022-09-18T14:57:46.000Z</time>
      </trkpt>
      <trkpt lat="45.8259" lon="4.74356">
        <ele>356.67207</ele>
        <time>2022-09-18T14:57:47.000Z</time>
      </trkpt>
      <trkpt lat="45.8259" lon="4.74344">
        <ele>356.26632</ele>
        <time>2022-09-18T14:57:48.000Z</time>
      </trkpt>
      <trkpt lat="45.82591" lon="4.74331">
        <ele>356.00201</ele>
        <time>2022-09-18T14:57:49.000Z</time>
      </trkpt>
      <trkpt lat="45.82594" lon="4.7432">
        <ele>355.74168</ele>
        <time>2022-09-18T14:57:50.000Z</time>
      </trkpt>
      <trkpt lat="45.82595" lon="4.74308">
        <ele>355.45458</ele>
        <time>2022-09-18T14:57:51.000Z</time>
      </trkpt>
      <trkpt lat="45.82597" lon="4.74297">
        <ele>355.16779</ele>
        <time>2022-09-18T14:57:52.000Z</time>
      </trkpt>
      <trkpt lat="45.82599" lon="4.74287">
        <ele>354.91456</ele>
        <time>2022-09-18T14:57:53.000Z</time>
      </trkpt>
      <trkpt lat="45.82601" lon="4.74276">
        <ele>354.74701</ele>
        <time>2022-09-18T14:57:54.000Z</time>
      </trkpt>
      <trkpt lat="45.82603" lon="4.74266">
        <ele>354.60565</ele>
        <time>2022-09-18T14:57:55.000Z</time>
      </trkpt>
      <trkpt lat="45.82605" lon="4.74255">
        <ele>354.48442</ele>
        <time>2022-09-18T14:57:56.000Z</time>
      </trkpt>
      <trkpt lat="45.82607" lon="4.74246">
        <ele>354.33328</ele>
        <time>2022-09-18T14:57:57.000Z</time>
      </trkpt>
      <trkpt lat="45.82608" lon="4.74237">
        <ele>354.20435</ele>
        <time>2022-09-18T14:57:58.000Z</time>
      </trkpt>
      <trkpt lat="45.82609" lon="4.74228">
        <ele>354.04828</ele>
        <time>2022-09-18T14:57:59.000Z</time>
      </trkpt>
      <trkpt lat="45.82611" lon="4.74219">
        <ele>353.95378</ele>
        <time>2022-09-18T14:58:00.000Z</time>
      </trkpt>
      <trkpt lat="45.82612" lon="4.7421">
        <ele>353.90147</ele>
        <time>2022-09-18T14:58:01.000Z</time>
      </trkpt>
      <trkpt lat="45.82613" lon="4.74201">
        <ele>353.91196</ele>
        <time>2022-09-18T14:58:02.000Z</time>
      </trkpt>
      <trkpt lat="45.82614" lon="4.74193">
        <ele>353.84143</ele>
        <time>2022-09-18T14:58:03.000Z</time>
      </trkpt>
      <trkpt lat="45.82615" lon="4.74184">
        <ele>353.63906</ele>
        <time>2022-09-18T14:58:04.000Z</time>
      </trkpt>
      <trkpt lat="45.82616" lon="4.74176">
        <ele>353.3324</ele>
        <time>2022-09-18T14:58:05.000Z</time>
      </trkpt>
      <trkpt lat="45.82616" lon="4.74167">
        <ele>353.00663</ele>
        <time>2022-09-18T14:58:06.000Z</time>
      </trkpt>
      <trkpt lat="45.82615" lon="4.7416">
        <ele>352.74991</ele>
        <time>2022-09-18T14:58:07.000Z</time>
      </trkpt>
      <trkpt lat="45.82614" lon="4.7415">
        <ele>352.34365</ele>
        <time>2022-09-18T14:58:08.000Z</time>
      </trkpt>
      <trkpt lat="45.82614" lon="4.74141">
        <ele>351.92891</ele>
        <time>2022-09-18T14:58:09.000Z</time>
      </trkpt>
      <trkpt lat="45.82614" lon="4.74132">
        <ele>351.44985</ele>
        <time>2022-09-18T14:58:10.000Z</time>
      </trkpt>
      <trkpt lat="45.82614" lon="4.74123">
        <ele>350.93292</ele>
        <time>2022-09-18T14:58:11.000Z</time>
      </trkpt>
      <trkpt lat="45.82613" lon="4.74113">
        <ele>350.3183</ele>
        <time>2022-09-18T14:58:12.000Z</time>
      </trkpt>
      <trkpt lat="45.82613" lon="4.74103">
        <ele>349.59994</ele>
        <time>2022-09-18T14:58:13.000Z</time>
      </trkpt>
      <trkpt lat="45.82611" lon="4.74093">
        <ele>348.90165</ele>
        <time>2022-09-18T14:58:14.000Z</time>
      </trkpt>
      <trkpt lat="45.8261" lon="4.74082">
        <ele>348.07558</ele>
        <time>2022-09-18T14:58:15.000Z</time>
      </trkpt>
      <trkpt lat="45.8261" lon="4.7407">
        <ele>347.25354</ele>
        <time>2022-09-18T14:58:16.000Z</time>
      </trkpt>
      <trkpt lat="45.82609" lon="4.74058">
        <ele>346.42279</ele>
        <time>2022-09-18T14:58:17.000Z</time>
      </trkpt>
      <trkpt lat="45.8261" lon="4.74047">
        <ele>345.72395</ele>
        <time>2022-09-18T14:58:18.000Z</time>
      </trkpt>
      <trkpt lat="45.8261" lon="4.74035">
        <ele>344.95123</ele>
        <time>2022-09-18T14:58:19.000Z</time>
      </trkpt>
      <trkpt lat="45.8261" lon="4.74022">
        <ele>344.22281</ele>
        <time>2022-09-18T14:58:20.000Z</time>
      </trkpt>
      <trkpt lat="45.82607" lon="4.74012">
        <ele>343.60697</ele>
        <time>2022-09-18T14:58:21.000Z</time>
      </trkpt>
      <trkpt lat="45.82603" lon="4.74001">
        <ele>342.91256</ele>
        <time>2022-09-18T14:58:22.000Z</time>
      </trkpt>
      <trkpt lat="45.826" lon="4.73988">
        <ele>342.18923</ele>
        <time>2022-09-18T14:58:23.000Z</time>
      </trkpt>
      <trkpt lat="45.82596" lon="4.73979">
        <ele>341.70833</ele>
        <time>2022-09-18T14:58:24.000Z</time>
      </trkpt>
      <trkpt lat="45.82593" lon="4.73967">
        <ele>341.27374</ele>
        <time>2022-09-18T14:58:25.000Z</time>
      </trkpt>
      <trkpt lat="45.8259" lon="4.73954">
        <ele>340.78054</ele>
        <time>2022-09-18T14:58:26.000Z</time>
      </trkpt>
      <trkpt lat="45.82587" lon="4.73942">
        <ele>340.30892</ele>
        <time>2022-09-18T14:58:27.000Z</time>
      </trkpt>
      <trkpt lat="45.82585" lon="4.7393">
        <ele>339.88843</ele>
        <time>2022-09-18T14:58:28.000Z</time>
      </trkpt>
      <trkpt lat="45.82584" lon="4.7392">
        <ele>339.44421</ele>
        <time>2022-09-18T14:58:29.000Z</time>
      </trkpt>
      <trkpt lat="45.82583" lon="4.73911">
        <ele>339.10015</ele>
        <time>2022-09-18T14:58:30.000Z</time>
      </trkpt>
      <trkpt lat="45.82581" lon="4.73901">
        <ele>338.91473</ele>
        <time>2022-09-18T14:58:31.000Z</time>
      </trkpt>
      <trkpt lat="45.82577" lon="4.7389">
        <ele>338.97611</ele>
        <time>2022-09-18T14:58:32.000Z</time>
      </trkpt>
      <trkpt lat="45.82576" lon="4.7388">
        <ele>338.97455</ele>
        <time>2022-09-18T14:58:33.000Z</time>
      </trkpt>
      <trkpt lat="45.82574" lon="4.73871">
        <ele>338.8157</ele>
        <time>2022-09-18T14:58:34.000Z</time>
      </trkpt>
      <trkpt lat="45.82572" lon="4.73863">
        <ele>338.60712</ele>
        <time>2022-09-18T14:58:35.000Z</time>
      </trkpt>
      <trkpt lat="45.82569" lon="4.73858">
        <ele>338.46206</ele>
        <time>2022-09-18T14:58:36.000Z</time>
      </trkpt>
      <trkpt lat="45.82566" lon="4.73853">
        <ele>338.42919</ele>
        <time>2022-09-18T14:58:37.000Z</time>
      </trkpt>
      <trkpt lat="45.82564" lon="4.73852">
        <ele>338.38503</ele>
        <time>2022-09-18T14:58:38.000Z</time>
      </trkpt>
      <trkpt lat="45.82563" lon="4.73848">
        <ele>338.39517</ele>
        <time>2022-09-18T14:58:40.000Z</time>
      </trkpt>
      <trkpt lat="45.8256" lon="4.73845">
        <ele>338.24027</ele>
        <time>2022-09-18T14:58:42.000Z</time>
      </trkpt>
      <trkpt lat="45.82558" lon="4.73845">
        <ele>338.11343</ele>
        <time>2022-09-18T14:58:43.000Z</time>
      </trkpt>
      <trkpt lat="45.82556" lon="4.73845">
        <ele>337.96761</ele>
        <time>2022-09-18T14:58:46.000Z</time>
      </trkpt>
      <trkpt lat="45.82555" lon="4.73842">
        <ele>337.79576</ele>
        <time>2022-09-18T14:58:58.000Z</time>
      </trkpt>
      <trkpt lat="45.82554" lon="4.7384">
        <ele>337.65823</ele>
        <time>2022-09-18T14:58:59.000Z</time>
      </trkpt>
      <trkpt lat="45.82554" lon="4.73836">
        <ele>337.47829</ele>
        <time>2022-09-18T14:59:00.000Z</time>
      </trkpt>
      <trkpt lat="45.82554" lon="4.73832">
        <ele>337.29035</ele>
        <time>2022-09-18T14:59:01.000Z</time>
      </trkpt>
      <trkpt lat="45.82555" lon="4.73826">
        <ele>337.17664</ele>
        <time>2022-09-18T14:59:02.000Z</time>
      </trkpt>
      <trkpt lat="45.82557" lon="4.73821">
        <ele>337.17936</ele>
        <time>2022-09-18T14:59:03.000Z</time>
      </trkpt>
      <trkpt lat="45.82559" lon="4.73816">
        <ele>337.30029</ele>
        <time>2022-09-18T14:59:04.000Z</time>
      </trkpt>
      <trkpt lat="45.82565" lon="4.73808">
        <ele>337.55029</ele>
        <time>2022-09-18T14:59:05.000Z</time>
      </trkpt>
      <trkpt lat="45.82567" lon="4.73802">
        <ele>337.39616</ele>
        <time>2022-09-18T14:59:06.000Z</time>
      </trkpt>
      <trkpt lat="45.82568" lon="4.73795">
        <ele>337.09612</ele>
        <time>2022-09-18T14:59:07.000Z</time>
      </trkpt>
      <trkpt lat="45.82577" lon="4.73768">
        <ele>335.87379</ele>
        <time>2022-09-18T14:59:11.000Z</time>
      </trkpt>
      <trkpt lat="45.82579" lon="4.7376">
        <ele>336.17867</ele>
        <time>2022-09-18T14:59:12.000Z</time>
      </trkpt>
      <trkpt lat="45.82582" lon="4.73755">
        <ele>336.63187</ele>
        <time>2022-09-18T14:59:13.000Z</time>
      </trkpt>
      <trkpt lat="45.82587" lon="4.73754">
        <ele>337.57968</ele>
        <time>2022-09-18T14:59:14.000Z</time>
      </trkpt>
      <trkpt lat="45.82591" lon="4.73751">
        <ele>337.99777</ele>
        <time>2022-09-18T14:59:15.000Z</time>
      </trkpt>
      <trkpt lat="45.82594" lon="4.73743">
        <ele>338.12456</ele>
        <time>2022-09-18T14:59:16.000Z</time>
      </trkpt>
      <trkpt lat="45.82599" lon="4.73739">
        <ele>338.22831</ele>
        <time>2022-09-18T14:59:17.000Z</time>
      </trkpt>
      <trkpt lat="45.826" lon="4.73732">
        <ele>338.1769</ele>
        <time>2022-09-18T14:59:18.000Z</time>
      </trkpt>
      <trkpt lat="45.82603" lon="4.73725">
        <ele>338.14988</ele>
        <time>2022-09-18T14:59:19.000Z</time>
      </trkpt>
      <trkpt lat="45.82608" lon="4.7372">
        <ele>338.54229</ele>
        <time>2022-09-18T14:59:20.000Z</time>
      </trkpt>
      <trkpt lat="45.82612" lon="4.73719">
        <ele>338.96102</ele>
        <time>2022-09-18T14:59:21.000Z</time>
      </trkpt>
      <trkpt lat="45.82617" lon="4.73723">
        <ele>339.02009</ele>
        <time>2022-09-18T14:59:22.000Z</time>
      </trkpt>
      <trkpt lat="45.82621" lon="4.73723">
        <ele>339.01682</ele>
        <time>2022-09-18T14:59:23.000Z</time>
      </trkpt>
      <trkpt lat="45.82626" lon="4.73723">
        <ele>338.95834</ele>
        <time>2022-09-18T14:59:24.000Z</time>
      </trkpt>
      <trkpt lat="45.82632" lon="4.73723">
        <ele>338.8645</ele>
        <time>2022-09-18T14:59:25.000Z</time>
      </trkpt>
      <trkpt lat="45.82638" lon="4.73723">
        <ele>338.83813</ele>
        <time>2022-09-18T14:59:26.000Z</time>
      </trkpt>
      <trkpt lat="45.82643" lon="4.73723">
        <ele>338.90192</ele>
        <time>2022-09-18T14:59:27.000Z</time>
      </trkpt>
      <trkpt lat="45.82649" lon="4.73724">
        <ele>338.94783</ele>
        <time>2022-09-18T14:59:28.000Z</time>
      </trkpt>
      <trkpt lat="45.82654" lon="4.73726">
        <ele>338.98395</ele>
        <time>2022-09-18T14:59:29.000Z</time>
      </trkpt>
      <trkpt lat="45.8266" lon="4.73724">
        <ele>339.186</ele>
        <time>2022-09-18T14:59:30.000Z</time>
      </trkpt>
      <trkpt lat="45.82665" lon="4.73719">
        <ele>339.53146</ele>
        <time>2022-09-18T14:59:31.000Z</time>
      </trkpt>
      <trkpt lat="45.82669" lon="4.73715">
        <ele>339.81187</ele>
        <time>2022-09-18T14:59:32.000Z</time>
      </trkpt>
      <trkpt lat="45.82673" lon="4.73712">
        <ele>340.0268</ele>
        <time>2022-09-18T14:59:33.000Z</time>
      </trkpt>
      <trkpt lat="45.82677" lon="4.73709">
        <ele>340.22594</ele>
        <time>2022-09-18T14:59:34.000Z</time>
      </trkpt>
      <trkpt lat="45.82681" lon="4.73707">
        <ele>340.29268</ele>
        <time>2022-09-18T14:59:35.000Z</time>
      </trkpt>
      <trkpt lat="45.82685" lon="4.73705">
        <ele>340.38215</ele>
        <time>2022-09-18T14:59:36.000Z</time>
      </trkpt>
      <trkpt lat="45.82688" lon="4.73702">
        <ele>340.48854</ele>
        <time>2022-09-18T14:59:37.000Z</time>
      </trkpt>
      <trkpt lat="45.82692" lon="4.73699">
        <ele>340.59152</ele>
        <time>2022-09-18T14:59:38.000Z</time>
      </trkpt>
      <trkpt lat="45.82696" lon="4.73697">
        <ele>340.60507</ele>
        <time>2022-09-18T14:59:39.000Z</time>
      </trkpt>
      <trkpt lat="45.827" lon="4.73693">
        <ele>340.66209</ele>
        <time>2022-09-18T14:59:40.000Z</time>
      </trkpt>
      <trkpt lat="45.82704" lon="4.73689">
        <ele>340.71594</ele>
        <time>2022-09-18T14:59:41.000Z</time>
      </trkpt>
      <trkpt lat="45.82708" lon="4.73687">
        <ele>340.63966</ele>
        <time>2022-09-18T14:59:42.000Z</time>
      </trkpt>
      <trkpt lat="45.82712" lon="4.73685">
        <ele>340.4627</ele>
        <time>2022-09-18T14:59:43.000Z</time>
      </trkpt>
      <trkpt lat="45.82716" lon="4.73681">
        <ele>340.46294</ele>
        <time>2022-09-18T14:59:44.000Z</time>
      </trkpt>
      <trkpt lat="45.82719" lon="4.73678">
        <ele>340.36868</ele>
        <time>2022-09-18T14:59:45.000Z</time>
      </trkpt>
      <trkpt lat="45.82723" lon="4.73674">
        <ele>340.28494</ele>
        <time>2022-09-18T14:59:46.000Z</time>
      </trkpt>
      <trkpt lat="45.82726" lon="4.73672">
        <ele>340.14099</ele>
        <time>2022-09-18T14:59:47.000Z</time>
      </trkpt>
      <trkpt lat="45.8273" lon="4.7367">
        <ele>339.96673</ele>
        <time>2022-09-18T14:59:48.000Z</time>
      </trkpt>
      <trkpt lat="45.82734" lon="4.73664">
        <ele>339.93552</ele>
        <time>2022-09-18T14:59:49.000Z</time>
      </trkpt>
      <trkpt lat="45.82738" lon="4.7366">
        <ele>339.78088</ele>
        <time>2022-09-18T14:59:50.000Z</time>
      </trkpt>
      <trkpt lat="45.82741" lon="4.73656">
        <ele>339.53969</ele>
        <time>2022-09-18T14:59:51.000Z</time>
      </trkpt>
      <trkpt lat="45.82744" lon="4.73651">
        <ele>339.3494</ele>
        <time>2022-09-18T14:59:52.000Z</time>
      </trkpt>
      <trkpt lat="45.82747" lon="4.73649">
        <ele>339.07998</ele>
        <time>2022-09-18T14:59:53.000Z</time>
      </trkpt>
      <trkpt lat="45.82751" lon="4.73645">
        <ele>338.87554</ele>
        <time>2022-09-18T14:59:54.000Z</time>
      </trkpt>
      <trkpt lat="45.82754" lon="4.73643">
        <ele>338.70816</ele>
        <time>2022-09-18T14:59:55.000Z</time>
      </trkpt>
      <trkpt lat="45.82757" lon="4.73639">
        <ele>338.52608</ele>
        <time>2022-09-18T14:59:56.000Z</time>
      </trkpt>
      <trkpt lat="45.82759" lon="4.73637">
        <ele>338.35143</ele>
        <time>2022-09-18T14:59:57.000Z</time>
      </trkpt>
      <trkpt lat="45.82762" lon="4.73634">
        <ele>338.12231</ele>
        <time>2022-09-18T14:59:58.000Z</time>
      </trkpt>
      <trkpt lat="45.82767" lon="4.73631">
        <ele>337.69643</ele>
        <time>2022-09-18T14:59:59.000Z</time>
      </trkpt>
      <trkpt lat="45.8277" lon="4.73628">
        <ele>337.35471</ele>
        <time>2022-09-18T15:00:00.000Z</time>
      </trkpt>
      <trkpt lat="45.82774" lon="4.73622">
        <ele>337.01731</ele>
        <time>2022-09-18T15:00:01.000Z</time>
      </trkpt>
      <trkpt lat="45.82778" lon="4.73618">
        <ele>336.68361</ele>
        <time>2022-09-18T15:00:02.000Z</time>
      </trkpt>
      <trkpt lat="45.82781" lon="4.73612">
        <ele>336.46437</ele>
        <time>2022-09-18T15:00:03.000Z</time>
      </trkpt>
      <trkpt lat="45.82785" lon="4.73606">
        <ele>336.18712</ele>
        <time>2022-09-18T15:00:04.000Z</time>
      </trkpt>
      <trkpt lat="45.82792" lon="4.736">
        <ele>335.56692</ele>
        <time>2022-09-18T15:00:05.000Z</time>
      </trkpt>
      <trkpt lat="45.82797" lon="4.73595">
        <ele>334.95375</ele>
        <time>2022-09-18T15:00:06.000Z</time>
      </trkpt>
      <trkpt lat="45.82803" lon="4.73589">
        <ele>334.4111</ele>
        <time>2022-09-18T15:00:07.000Z</time>
      </trkpt>
      <trkpt lat="45.82807" lon="4.73584">
        <ele>334.01145</ele>
        <time>2022-09-18T15:00:08.000Z</time>
      </trkpt>
      <trkpt lat="45.82813" lon="4.73578">
        <ele>333.2878</ele>
        <time>2022-09-18T15:00:09.000Z</time>
      </trkpt>
      <trkpt lat="45.8282" lon="4.73572">
        <ele>332.49334</ele>
        <time>2022-09-18T15:00:10.000Z</time>
      </trkpt>
      <trkpt lat="45.82825" lon="4.73567">
        <ele>331.95336</ele>
        <time>2022-09-18T15:00:11.000Z</time>
      </trkpt>
      <trkpt lat="45.82829" lon="4.73558">
        <ele>331.48564</ele>
        <time>2022-09-18T15:00:12.000Z</time>
      </trkpt>
      <trkpt lat="45.82836" lon="4.7355">
        <ele>330.70122</ele>
        <time>2022-09-18T15:00:13.000Z</time>
      </trkpt>
      <trkpt lat="45.82842" lon="4.7354">
        <ele>330.13817</ele>
        <time>2022-09-18T15:00:14.000Z</time>
      </trkpt>
      <trkpt lat="45.82849" lon="4.73532">
        <ele>329.43001</ele>
        <time>2022-09-18T15:00:15.000Z</time>
      </trkpt>
      <trkpt lat="45.82854" lon="4.73526">
        <ele>328.80589</ele>
        <time>2022-09-18T15:00:16.000Z</time>
      </trkpt>
      <trkpt lat="45.82861" lon="4.7352">
        <ele>327.96782</ele>
        <time>2022-09-18T15:00:17.000Z</time>
      </trkpt>
      <trkpt lat="45.8287" lon="4.73511">
        <ele>327.1153</ele>
        <time>2022-09-18T15:00:18.000Z</time>
      </trkpt>
      <trkpt lat="45.82877" lon="4.73504">
        <ele>326.42305</ele>
        <time>2022-09-18T15:00:19.000Z</time>
      </trkpt>
      <trkpt lat="45.82882" lon="4.73497">
        <ele>325.7448</ele>
        <time>2022-09-18T15:00:20.000Z</time>
      </trkpt>
      <trkpt lat="45.82889" lon="4.7349">
        <ele>324.90567</ele>
        <time>2022-09-18T15:00:21.000Z</time>
      </trkpt>
      <trkpt lat="45.82896" lon="4.73483">
        <ele>324.12278</ele>
        <time>2022-09-18T15:00:22.000Z</time>
      </trkpt>
      <trkpt lat="45.82903" lon="4.73476">
        <ele>323.35603</ele>
        <time>2022-09-18T15:00:23.000Z</time>
      </trkpt>
      <trkpt lat="45.82909" lon="4.73468">
        <ele>322.69938</ele>
        <time>2022-09-18T15:00:24.000Z</time>
      </trkpt>
      <trkpt lat="45.82917" lon="4.73464">
        <ele>321.89487</ele>
        <time>2022-09-18T15:00:25.000Z</time>
      </trkpt>
      <trkpt lat="45.82922" lon="4.73457">
        <ele>321.31173</ele>
        <time>2022-09-18T15:00:26.000Z</time>
      </trkpt>
      <trkpt lat="45.82928" lon="4.73451">
        <ele>320.70438</ele>
        <time>2022-09-18T15:00:27.000Z</time>
      </trkpt>
      <trkpt lat="45.82934" lon="4.73445">
        <ele>320.15143</ele>
        <time>2022-09-18T15:00:28.000Z</time>
      </trkpt>
      <trkpt lat="45.82941" lon="4.73441">
        <ele>319.60179</ele>
        <time>2022-09-18T15:00:29.000Z</time>
      </trkpt>
      <trkpt lat="45.82949" lon="4.73435">
        <ele>319.01909</ele>
        <time>2022-09-18T15:00:30.000Z</time>
      </trkpt>
      <trkpt lat="45.82956" lon="4.73427">
        <ele>318.4233</ele>
        <time>2022-09-18T15:00:31.000Z</time>
      </trkpt>
      <trkpt lat="45.82961" lon="4.73421">
        <ele>318.03235</ele>
        <time>2022-09-18T15:00:32.000Z</time>
      </trkpt>
      <trkpt lat="45.82967" lon="4.73417">
        <ele>317.63307</ele>
        <time>2022-09-18T15:00:33.000Z</time>
      </trkpt>
      <trkpt lat="45.82971" lon="4.73415">
        <ele>317.42798</ele>
        <time>2022-09-18T15:00:34.000Z</time>
      </trkpt>
      <trkpt lat="45.82973" lon="4.73415">
        <ele>317.30519</ele>
        <time>2022-09-18T15:00:35.000Z</time>
      </trkpt>
      <trkpt lat="45.82973" lon="4.73418">
        <ele>317.21758</ele>
        <time>2022-09-18T15:00:36.000Z</time>
      </trkpt>
      <trkpt lat="45.82974" lon="4.73415">
        <ele>317.23861</ele>
        <time>2022-09-18T15:00:38.000Z</time>
      </trkpt>
      <trkpt lat="45.82975" lon="4.73411">
        <ele>317.22348</ele>
        <time>2022-09-18T15:00:40.000Z</time>
      </trkpt>
      <trkpt lat="45.82976" lon="4.73409">
        <ele>317.16556</ele>
        <time>2022-09-18T15:00:45.000Z</time>
      </trkpt>
      <trkpt lat="45.82975" lon="4.73407">
        <ele>317.27781</ele>
        <time>2022-09-18T15:01:34.000Z</time>
      </trkpt>
      <trkpt lat="45.82972" lon="4.73408">
        <ele>317.43144</ele>
        <time>2022-09-18T15:01:35.000Z</time>
      </trkpt>
      <trkpt lat="45.8297" lon="4.7341">
        <ele>317.55958</ele>
        <time>2022-09-18T15:01:36.000Z</time>
      </trkpt>
      <trkpt lat="45.82967" lon="4.73412">
        <ele>317.72831</ele>
        <time>2022-09-18T15:01:37.000Z</time>
      </trkpt>
      <trkpt lat="45.82964" lon="4.73414">
        <ele>317.89769</ele>
        <time>2022-09-18T15:01:38.000Z</time>
      </trkpt>
      <trkpt lat="45.82961" lon="4.73415">
        <ele>318.03973</ele>
        <time>2022-09-18T15:01:39.000Z</time>
      </trkpt>
      <trkpt lat="45.82959" lon="4.73417">
        <ele>318.22454</ele>
        <time>2022-09-18T15:01:40.000Z</time>
      </trkpt>
      <trkpt lat="45.82955" lon="4.73419">
        <ele>318.44145</ele>
        <time>2022-09-18T15:01:41.000Z</time>
      </trkpt>
      <trkpt lat="45.82952" lon="4.73422">
        <ele>318.69459</ele>
        <time>2022-09-18T15:01:42.000Z</time>
      </trkpt>
      <trkpt lat="45.82948" lon="4.73425">
        <ele>318.9763</ele>
        <time>2022-09-18T15:01:43.000Z</time>
      </trkpt>
      <trkpt lat="45.82945" lon="4.73427">
        <ele>319.24186</ele>
        <time>2022-09-18T15:01:44.000Z</time>
      </trkpt>
      <trkpt lat="45.82941" lon="4.73429">
        <ele>319.49895</ele>
        <time>2022-09-18T15:01:45.000Z</time>
      </trkpt>
      <trkpt lat="45.82938" lon="4.73431">
        <ele>319.78921</ele>
        <time>2022-09-18T15:01:46.000Z</time>
      </trkpt>
      <trkpt lat="45.82934" lon="4.73433">
        <ele>320.08062</ele>
        <time>2022-09-18T15:01:47.000Z</time>
      </trkpt>
      <trkpt lat="45.82931" lon="4.73435">
        <ele>320.36169</ele>
        <time>2022-09-18T15:01:48.000Z</time>
      </trkpt>
      <trkpt lat="45.82928" lon="4.73438">
        <ele>320.68338</ele>
        <time>2022-09-18T15:01:49.000Z</time>
      </trkpt>
      <trkpt lat="45.82924" lon="4.7344">
        <ele>321.04059</ele>
        <time>2022-09-18T15:01:50.000Z</time>
      </trkpt>
      <trkpt lat="45.82921" lon="4.73443">
        <ele>321.36128</ele>
        <time>2022-09-18T15:01:51.000Z</time>
      </trkpt>
      <trkpt lat="45.82918" lon="4.73445">
        <ele>321.68237</ele>
        <time>2022-09-18T15:01:52.000Z</time>
      </trkpt>
      <trkpt lat="45.82915" lon="4.73448">
        <ele>322.05414</ele>
        <time>2022-09-18T15:01:53.000Z</time>
      </trkpt>
      <trkpt lat="45.82911" lon="4.73451">
        <ele>322.45384</ele>
        <time>2022-09-18T15:01:54.000Z</time>
      </trkpt>
      <trkpt lat="45.82907" lon="4.73454">
        <ele>322.90809</ele>
        <time>2022-09-18T15:01:55.000Z</time>
      </trkpt>
      <trkpt lat="45.82903" lon="4.73458">
        <ele>323.35485</ele>
        <time>2022-09-18T15:01:56.000Z</time>
      </trkpt>
      <trkpt lat="45.829" lon="4.7346">
        <ele>323.75956</ele>
        <time>2022-09-18T15:01:57.000Z</time>
      </trkpt>
      <trkpt lat="45.82897" lon="4.73463">
        <ele>324.13085</ele>
        <time>2022-09-18T15:01:58.000Z</time>
      </trkpt>
      <trkpt lat="45.82894" lon="4.73464">
        <ele>324.4319</ele>
        <time>2022-09-18T15:01:59.000Z</time>
      </trkpt>
      <trkpt lat="45.82893" lon="4.73465">
        <ele>324.64941</ele>
        <time>2022-09-18T15:02:00.000Z</time>
      </trkpt>
      <trkpt lat="45.82891" lon="4.73467">
        <ele>324.86481</ele>
        <time>2022-09-18T15:02:01.000Z</time>
      </trkpt>
      <trkpt lat="45.82889" lon="4.73468">
        <ele>325.08004</ele>
        <time>2022-09-18T15:02:02.000Z</time>
      </trkpt>
      <trkpt lat="45.82887" lon="4.7347">
        <ele>325.33109</ele>
        <time>2022-09-18T15:02:04.000Z</time>
      </trkpt>
      <trkpt lat="45.82888" lon="4.73473">
        <ele>325.17581</ele>
        <time>2022-09-18T15:02:09.000Z</time>
      </trkpt>
      <trkpt lat="45.82889" lon="4.73476">
        <ele>325.03868</ele>
        <time>2022-09-18T15:02:12.000Z</time>
      </trkpt>
      <trkpt lat="45.82889" lon="4.73479">
        <ele>324.95703</ele>
        <time>2022-09-18T15:02:17.000Z</time>
      </trkpt>
      <trkpt lat="45.82888" lon="4.7348">
        <ele>325.17773</ele>
        <time>2022-09-18T15:02:24.000Z</time>
      </trkpt>
      <trkpt lat="45.82886" lon="4.73481">
        <ele>325.39089</ele>
        <time>2022-09-18T15:03:44.000Z</time>
      </trkpt>
      <trkpt lat="45.82884" lon="4.73482">
        <ele>325.62126</ele>
        <time>2022-09-18T15:03:46.000Z</time>
      </trkpt>
      <trkpt lat="45.82882" lon="4.73484">
        <ele>325.88344</ele>
        <time>2022-09-18T15:03:48.000Z</time>
      </trkpt>
      <trkpt lat="45.8288" lon="4.73485">
        <ele>326.12448</ele>
        <time>2022-09-18T15:03:53.000Z</time>
      </trkpt>
      <trkpt lat="45.82882" lon="4.73483">
        <ele>325.90134</ele>
        <time>2022-09-18T15:05:52.000Z</time>
      </trkpt>
      <trkpt lat="45.82886" lon="4.73481">
        <ele>325.4307</ele>
        <time>2022-09-18T15:05:53.000Z</time>
      </trkpt>
      <trkpt lat="45.82888" lon="4.7348">
        <ele>325.06768</ele>
        <time>2022-09-18T15:05:54.000Z</time>
      </trkpt>
      <trkpt lat="45.82892" lon="4.73477">
        <ele>324.65472</ele>
        <time>2022-09-18T15:05:55.000Z</time>
      </trkpt>
      <trkpt lat="45.82895" lon="4.73474">
        <ele>324.24077</ele>
        <time>2022-09-18T15:05:56.000Z</time>
      </trkpt>
      <trkpt lat="45.82899" lon="4.73471">
        <ele>323.84781</ele>
        <time>2022-09-18T15:05:57.000Z</time>
      </trkpt>
      <trkpt lat="45.82902" lon="4.73467">
        <ele>323.47607</ele>
        <time>2022-09-18T15:05:58.000Z</time>
      </trkpt>
      <trkpt lat="45.82906" lon="4.73463">
        <ele>323.07358</ele>
        <time>2022-09-18T15:05:59.000Z</time>
      </trkpt>
      <trkpt lat="45.82909" lon="4.73459">
        <ele>322.71862</ele>
        <time>2022-09-18T15:06:00.000Z</time>
      </trkpt>
      <trkpt lat="45.82915" lon="4.73452">
        <ele>322.01037</ele>
        <time>2022-09-18T15:06:01.000Z</time>
      </trkpt>
      <trkpt lat="45.82921" lon="4.73451">
        <ele>321.38702</ele>
        <time>2022-09-18T15:06:02.000Z</time>
      </trkpt>
      <trkpt lat="45.82928" lon="4.73445">
        <ele>320.73827</ele>
        <time>2022-09-18T15:06:03.000Z</time>
      </trkpt>
      <trkpt lat="45.82931" lon="4.73442">
        <ele>320.37184</ele>
        <time>2022-09-18T15:06:04.000Z</time>
      </trkpt>
      <trkpt lat="45.82938" lon="4.73438">
        <ele>319.79942</ele>
        <time>2022-09-18T15:06:05.000Z</time>
      </trkpt>
      <trkpt lat="45.82943" lon="4.73433">
        <ele>319.41677</ele>
        <time>2022-09-18T15:06:06.000Z</time>
      </trkpt>
      <trkpt lat="45.8295" lon="4.7343">
        <ele>318.89328</ele>
        <time>2022-09-18T15:06:07.000Z</time>
      </trkpt>
      <trkpt lat="45.82958" lon="4.73427">
        <ele>318.24673</ele>
        <time>2022-09-18T15:06:08.000Z</time>
      </trkpt>
      <trkpt lat="45.82964" lon="4.73419">
        <ele>317.82823</ele>
        <time>2022-09-18T15:06:09.000Z</time>
      </trkpt>
      <trkpt lat="45.8297" lon="4.73411">
        <ele>317.49568</ele>
        <time>2022-09-18T15:06:10.000Z</time>
      </trkpt>
      <trkpt lat="45.82979" lon="4.73405">
        <ele>317.0448</ele>
        <time>2022-09-18T15:06:11.000Z</time>
      </trkpt>
      <trkpt lat="45.82986" lon="4.73401">
        <ele>316.51713</ele>
        <time>2022-09-18T15:06:12.000Z</time>
      </trkpt>
      <trkpt lat="45.82994" lon="4.73398">
        <ele>315.84801</ele>
        <time>2022-09-18T15:06:13.000Z</time>
      </trkpt>
      <trkpt lat="45.83001" lon="4.73393">
        <ele>315.21322</ele>
        <time>2022-09-18T15:06:14.000Z</time>
      </trkpt>
      <trkpt lat="45.83007" lon="4.73389">
        <ele>314.75321</ele>
        <time>2022-09-18T15:06:15.000Z</time>
      </trkpt>
      <trkpt lat="45.83013" lon="4.73384">
        <ele>314.34276</ele>
        <time>2022-09-18T15:06:16.000Z</time>
      </trkpt>
      <trkpt lat="45.83019" lon="4.73381">
        <ele>313.88101</ele>
        <time>2022-09-18T15:06:17.000Z</time>
      </trkpt>
      <trkpt lat="45.83023" lon="4.73377">
        <ele>313.63429</ele>
        <time>2022-09-18T15:06:18.000Z</time>
      </trkpt>
      <trkpt lat="45.83029" lon="4.7337">
        <ele>313.1089</ele>
        <time>2022-09-18T15:06:19.000Z</time>
      </trkpt>
      <trkpt lat="45.83037" lon="4.73362">
        <ele>312.26814</ele>
        <time>2022-09-18T15:06:20.000Z</time>
      </trkpt>
      <trkpt lat="45.83043" lon="4.73356">
        <ele>311.62085</ele>
        <time>2022-09-18T15:06:21.000Z</time>
      </trkpt>
      <trkpt lat="45.83049" lon="4.73347">
        <ele>311.01695</ele>
        <time>2022-09-18T15:06:22.000Z</time>
      </trkpt>
      <trkpt lat="45.83057" lon="4.7334">
        <ele>310.33547</ele>
        <time>2022-09-18T15:06:23.000Z</time>
      </trkpt>
      <trkpt lat="45.83061" lon="4.73336">
        <ele>309.86994</ele>
        <time>2022-09-18T15:06:24.000Z</time>
      </trkpt>
      <trkpt lat="45.83067" lon="4.73331">
        <ele>309.26579</ele>
        <time>2022-09-18T15:06:25.000Z</time>
      </trkpt>
      <trkpt lat="45.83073" lon="4.73328">
        <ele>308.72922</ele>
        <time>2022-09-18T15:06:26.000Z</time>
      </trkpt>
      <trkpt lat="45.83078" lon="4.73322">
        <ele>308.1885</ele>
        <time>2022-09-18T15:06:27.000Z</time>
      </trkpt>
      <trkpt lat="45.83082" lon="4.73316">
        <ele>307.70682</ele>
        <time>2022-09-18T15:06:28.000Z</time>
      </trkpt>
      <trkpt lat="45.83089" lon="4.73308">
        <ele>306.92725</ele>
        <time>2022-09-18T15:06:29.000Z</time>
      </trkpt>
      <trkpt lat="45.83096" lon="4.73302">
        <ele>306.09835</ele>
        <time>2022-09-18T15:06:30.000Z</time>
      </trkpt>
      <trkpt lat="45.83101" lon="4.73297">
        <ele>305.45355</ele>
        <time>2022-09-18T15:06:31.000Z</time>
      </trkpt>
      <trkpt lat="45.83106" lon="4.7329">
        <ele>304.804</ele>
        <time>2022-09-18T15:06:32.000Z</time>
      </trkpt>
      <trkpt lat="45.83112" lon="4.73286">
        <ele>304.26566</ele>
        <time>2022-09-18T15:06:33.000Z</time>
      </trkpt>
      <trkpt lat="45.83117" lon="4.73281">
        <ele>303.81948</ele>
        <time>2022-09-18T15:06:34.000Z</time>
      </trkpt>
      <trkpt lat="45.83119" lon="4.73275">
        <ele>303.5266</ele>
        <time>2022-09-18T15:06:35.000Z</time>
      </trkpt>
      <trkpt lat="45.8312" lon="4.73272">
        <ele>303.41681</ele>
        <time>2022-09-18T15:06:36.000Z</time>
      </trkpt>
      <trkpt lat="45.83122" lon="4.7327">
        <ele>303.19373</ele>
        <time>2022-09-18T15:06:37.000Z</time>
      </trkpt>
      <trkpt lat="45.83123" lon="4.73268">
        <ele>302.97475</ele>
        <time>2022-09-18T15:06:38.000Z</time>
      </trkpt>
      <trkpt lat="45.83127" lon="4.73266">
        <ele>302.61148</ele>
        <time>2022-09-18T15:06:39.000Z</time>
      </trkpt>
      <trkpt lat="45.83128" lon="4.73262">
        <ele>302.33364</ele>
        <time>2022-09-18T15:06:41.000Z</time>
      </trkpt>
      <trkpt lat="45.8313" lon="4.73259">
        <ele>302.06478</ele>
        <time>2022-09-18T15:06:42.000Z</time>
      </trkpt>
      <trkpt lat="45.83133" lon="4.73258">
        <ele>301.77044</ele>
        <time>2022-09-18T15:06:43.000Z</time>
      </trkpt>
      <trkpt lat="45.83137" lon="4.73256">
        <ele>301.4076</ele>
        <time>2022-09-18T15:06:44.000Z</time>
      </trkpt>
      <trkpt lat="45.8314" lon="4.73254">
        <ele>301.15005</ele>
        <time>2022-09-18T15:06:45.000Z</time>
      </trkpt>
      <trkpt lat="45.83142" lon="4.73253">
        <ele>300.92257</ele>
        <time>2022-09-18T15:06:46.000Z</time>
      </trkpt>
      <trkpt lat="45.83144" lon="4.73252">
        <ele>300.73646</ele>
        <time>2022-09-18T15:06:47.000Z</time>
      </trkpt>
      <trkpt lat="45.83147" lon="4.73251">
        <ele>300.52451</ele>
        <time>2022-09-18T15:06:48.000Z</time>
      </trkpt>
      <trkpt lat="45.83149" lon="4.73249">
        <ele>300.30192</ele>
        <time>2022-09-18T15:06:49.000Z</time>
      </trkpt>
      <trkpt lat="45.83151" lon="4.73247">
        <ele>300.08136</ele>
        <time>2022-09-18T15:06:50.000Z</time>
      </trkpt>
      <trkpt lat="45.83154" lon="4.73245">
        <ele>299.8161</ele>
        <time>2022-09-18T15:06:51.000Z</time>
      </trkpt>
      <trkpt lat="45.83157" lon="4.73243">
        <ele>299.50912</ele>
        <time>2022-09-18T15:06:52.000Z</time>
      </trkpt>
      <trkpt lat="45.83161" lon="4.7324">
        <ele>299.15839</ele>
        <time>2022-09-18T15:06:53.000Z</time>
      </trkpt>
      <trkpt lat="45.83165" lon="4.73237">
        <ele>298.79572</ele>
        <time>2022-09-18T15:06:54.000Z</time>
      </trkpt>
      <trkpt lat="45.83168" lon="4.73233">
        <ele>298.45322</ele>
        <time>2022-09-18T15:06:55.000Z</time>
      </trkpt>
      <trkpt lat="45.83172" lon="4.73229">
        <ele>298.13155</ele>
        <time>2022-09-18T15:06:56.000Z</time>
      </trkpt>
      <trkpt lat="45.83176" lon="4.73225">
        <ele>297.83627</ele>
        <time>2022-09-18T15:06:57.000Z</time>
      </trkpt>
      <trkpt lat="45.8318" lon="4.73222">
        <ele>297.5624</ele>
        <time>2022-09-18T15:06:58.000Z</time>
      </trkpt>
      <trkpt lat="45.83186" lon="4.73213">
        <ele>297.1226</ele>
        <time>2022-09-18T15:06:59.000Z</time>
      </trkpt>
      <trkpt lat="45.83188" lon="4.73209">
        <ele>296.95851</ele>
        <time>2022-09-18T15:07:00.000Z</time>
      </trkpt>
      <trkpt lat="45.8319" lon="4.73203">
        <ele>296.76197</ele>
        <time>2022-09-18T15:07:01.000Z</time>
      </trkpt>
      <trkpt lat="45.83193" lon="4.73197">
        <ele>296.56352</ele>
        <time>2022-09-18T15:07:02.000Z</time>
      </trkpt>
      <trkpt lat="45.83195" lon="4.73194">
        <ele>296.45367</ele>
        <time>2022-09-18T15:07:03.000Z</time>
      </trkpt>
      <trkpt lat="45.83197" lon="4.7319">
        <ele>296.29191</ele>
        <time>2022-09-18T15:07:04.000Z</time>
      </trkpt>
      <trkpt lat="45.83199" lon="4.73187">
        <ele>296.19051</ele>
        <time>2022-09-18T15:07:05.000Z</time>
      </trkpt>
      <trkpt lat="45.83201" lon="4.73182">
        <ele>296.02075</ele>
        <time>2022-09-18T15:07:06.000Z</time>
      </trkpt>
      <trkpt lat="45.83206" lon="4.73177">
        <ele>295.76628</ele>
        <time>2022-09-18T15:07:07.000Z</time>
      </trkpt>
      <trkpt lat="45.83209" lon="4.73173">
        <ele>295.61416</ele>
        <time>2022-09-18T15:07:08.000Z</time>
      </trkpt>
      <trkpt lat="45.8321" lon="4.73168">
        <ele>295.50624</ele>
        <time>2022-09-18T15:07:09.000Z</time>
      </trkpt>
      <trkpt lat="45.83211" lon="4.73163">
        <ele>295.43148</ele>
        <time>2022-09-18T15:07:10.000Z</time>
      </trkpt>
      <trkpt lat="45.83211" lon="4.73157">
        <ele>295.35517</ele>
        <time>2022-09-18T15:07:11.000Z</time>
      </trkpt>
      <trkpt lat="45.83212" lon="4.73151">
        <ele>295.2668</ele>
        <time>2022-09-18T15:07:12.000Z</time>
      </trkpt>
      <trkpt lat="45.83213" lon="4.73147">
        <ele>295.17615</ele>
        <time>2022-09-18T15:07:13.000Z</time>
      </trkpt>
      <trkpt lat="45.83214" lon="4.73142">
        <ele>295.05222</ele>
        <time>2022-09-18T15:07:14.000Z</time>
      </trkpt>
      <trkpt lat="45.83215" lon="4.73137">
        <ele>294.88833</ele>
        <time>2022-09-18T15:07:15.000Z</time>
      </trkpt>
      <trkpt lat="45.83217" lon="4.73132">
        <ele>294.74107</ele>
        <time>2022-09-18T15:07:16.000Z</time>
      </trkpt>
      <trkpt lat="45.83218" lon="4.73129">
        <ele>294.60653</ele>
        <time>2022-09-18T15:07:17.000Z</time>
      </trkpt>
      <trkpt lat="45.83221" lon="4.73125">
        <ele>294.4641</ele>
        <time>2022-09-18T15:07:18.000Z</time>
      </trkpt>
      <trkpt lat="45.83223" lon="4.73121">
        <ele>294.32887</ele>
        <time>2022-09-18T15:07:19.000Z</time>
      </trkpt>
      <trkpt lat="45.83226" lon="4.73118">
        <ele>294.20289</ele>
        <time>2022-09-18T15:07:20.000Z</time>
      </trkpt>
      <trkpt lat="45.83228" lon="4.73114">
        <ele>294.0723</ele>
        <time>2022-09-18T15:07:21.000Z</time>
      </trkpt>
      <trkpt lat="45.83231" lon="4.73109">
        <ele>293.93313</ele>
        <time>2022-09-18T15:07:22.000Z</time>
      </trkpt>
      <trkpt lat="45.83235" lon="4.73104">
        <ele>293.78342</ele>
        <time>2022-09-18T15:07:23.000Z</time>
      </trkpt>
      <trkpt lat="45.83237" lon="4.73089">
        <ele>293.55883</ele>
        <time>2022-09-18T15:07:24.000Z</time>
      </trkpt>
      <trkpt lat="45.8324" lon="4.73083">
        <ele>293.41981</ele>
        <time>2022-09-18T15:07:25.000Z</time>
      </trkpt>
      <trkpt lat="45.83243" lon="4.73077">
        <ele>293.28329</ele>
        <time>2022-09-18T15:07:26.000Z</time>
      </trkpt>
      <trkpt lat="45.83245" lon="4.73068">
        <ele>293.1562</ele>
        <time>2022-09-18T15:07:27.000Z</time>
      </trkpt>
      <trkpt lat="45.83248" lon="4.7306">
        <ele>293.03534</ele>
        <time>2022-09-18T15:07:28.000Z</time>
      </trkpt>
      <trkpt lat="45.8325" lon="4.73053">
        <ele>292.94656</ele>
        <time>2022-09-18T15:07:29.000Z</time>
      </trkpt>
      <trkpt lat="45.83253" lon="4.73045">
        <ele>292.86137</ele>
        <time>2022-09-18T15:07:30.000Z</time>
      </trkpt>
      <trkpt lat="45.83256" lon="4.73038">
        <ele>292.79984</ele>
        <time>2022-09-18T15:07:31.000Z</time>
      </trkpt>
      <trkpt lat="45.83259" lon="4.73032">
        <ele>292.72385</ele>
        <time>2022-09-18T15:07:32.000Z</time>
      </trkpt>
      <trkpt lat="45.83261" lon="4.73024">
        <ele>292.65507</ele>
        <time>2022-09-18T15:07:33.000Z</time>
      </trkpt>
      <trkpt lat="45.83263" lon="4.73017">
        <ele>292.61843</ele>
        <time>2022-09-18T15:07:34.000Z</time>
      </trkpt>
      <trkpt lat="45.83265" lon="4.73009">
        <ele>292.51667</ele>
        <time>2022-09-18T15:07:35.000Z</time>
      </trkpt>
      <trkpt lat="45.83266" lon="4.73001">
        <ele>292.4537</ele>
        <time>2022-09-18T15:07:36.000Z</time>
      </trkpt>
      <trkpt lat="45.83271" lon="4.72993">
        <ele>292.08967</ele>
        <time>2022-09-18T15:07:37.000Z</time>
      </trkpt>
      <trkpt lat="45.83273" lon="4.72991">
        <ele>291.95714</ele>
        <time>2022-09-18T15:07:38.000Z</time>
      </trkpt>
      <trkpt lat="45.83275" lon="4.72987">
        <ele>291.74</ele>
        <time>2022-09-18T15:07:39.000Z</time>
      </trkpt>
      <trkpt lat="45.83277" lon="4.72981">
        <ele>291.4863</ele>
        <time>2022-09-18T15:07:40.000Z</time>
      </trkpt>
      <trkpt lat="45.83278" lon="4.72973">
        <ele>291.23775</ele>
        <time>2022-09-18T15:07:41.000Z</time>
      </trkpt>
      <trkpt lat="45.83277" lon="4.72966">
        <ele>291.06235</ele>
        <time>2022-09-18T15:07:42.000Z</time>
      </trkpt>
      <trkpt lat="45.83278" lon="4.72961">
        <ele>290.82399</ele>
        <time>2022-09-18T15:07:43.000Z</time>
      </trkpt>
      <trkpt lat="45.83282" lon="4.72954">
        <ele>290.24498</ele>
        <time>2022-09-18T15:07:44.000Z</time>
      </trkpt>
      <trkpt lat="45.83284" lon="4.72951">
        <ele>289.96504</ele>
        <time>2022-09-18T15:07:45.000Z</time>
      </trkpt>
      <trkpt lat="45.83284" lon="4.72946">
        <ele>289.69879</ele>
        <time>2022-09-18T15:07:46.000Z</time>
      </trkpt>
      <trkpt lat="45.83287" lon="4.72942">
        <ele>289.31959</ele>
        <time>2022-09-18T15:07:47.000Z</time>
      </trkpt>
      <trkpt lat="45.83289" lon="4.72937">
        <ele>288.96108</ele>
        <time>2022-09-18T15:07:48.000Z</time>
      </trkpt>
      <trkpt lat="45.83292" lon="4.72933">
        <ele>288.58614</ele>
        <time>2022-09-18T15:07:49.000Z</time>
      </trkpt>
      <trkpt lat="45.83294" lon="4.72928">
        <ele>288.22361</ele>
        <time>2022-09-18T15:07:50.000Z</time>
      </trkpt>
      <trkpt lat="45.83296" lon="4.72922">
        <ele>287.81804</ele>
        <time>2022-09-18T15:07:51.000Z</time>
      </trkpt>
      <trkpt lat="45.83298" lon="4.72918">
        <ele>287.47101</ele>
        <time>2022-09-18T15:07:52.000Z</time>
      </trkpt>
      <trkpt lat="45.83299" lon="4.72914">
        <ele>287.19658</ele>
        <time>2022-09-18T15:07:53.000Z</time>
      </trkpt>
      <trkpt lat="45.833" lon="4.72911">
        <ele>286.92814</ele>
        <time>2022-09-18T15:07:54.000Z</time>
      </trkpt>
      <trkpt lat="45.83301" lon="4.72908">
        <ele>286.67665</ele>
        <time>2022-09-18T15:07:55.000Z</time>
      </trkpt>
      <trkpt lat="45.83301" lon="4.72905">
        <ele>286.44202</ele>
        <time>2022-09-18T15:07:56.000Z</time>
      </trkpt>
      <trkpt lat="45.83301" lon="4.72901">
        <ele>286.17126</ele>
        <time>2022-09-18T15:07:57.000Z</time>
      </trkpt>
      <trkpt lat="45.83301" lon="4.72897">
        <ele>285.91403</ele>
        <time>2022-09-18T15:07:58.000Z</time>
      </trkpt>
      <trkpt lat="45.83301" lon="4.72893">
        <ele>285.61303</ele>
        <time>2022-09-18T15:07:59.000Z</time>
      </trkpt>
      <trkpt lat="45.833" lon="4.7289">
        <ele>285.31538</ele>
        <time>2022-09-18T15:08:00.000Z</time>
      </trkpt>
      <trkpt lat="45.83298" lon="4.72886">
        <ele>285.00142</ele>
        <time>2022-09-18T15:08:01.000Z</time>
      </trkpt>
      <trkpt lat="45.83297" lon="4.72882">
        <ele>284.60302</ele>
        <time>2022-09-18T15:08:02.000Z</time>
      </trkpt>
      <trkpt lat="45.83296" lon="4.72878">
        <ele>284.20343</ele>
        <time>2022-09-18T15:08:03.000Z</time>
      </trkpt>
      <trkpt lat="45.83294" lon="4.72875">
        <ele>283.79665</ele>
        <time>2022-09-18T15:08:04.000Z</time>
      </trkpt>
      <trkpt lat="45.83292" lon="4.72871">
        <ele>283.33576</ele>
        <time>2022-09-18T15:08:05.000Z</time>
      </trkpt>
      <trkpt lat="45.83291" lon="4.72868">
        <ele>282.90386</ele>
        <time>2022-09-18T15:08:06.000Z</time>
      </trkpt>
      <trkpt lat="45.83289" lon="4.72865">
        <ele>282.5672</ele>
        <time>2022-09-18T15:08:07.000Z</time>
      </trkpt>
      <trkpt lat="45.83286" lon="4.72862">
        <ele>282.1625</ele>
        <time>2022-09-18T15:08:08.000Z</time>
      </trkpt>
      <trkpt lat="45.83283" lon="4.72858">
        <ele>281.74221</ele>
        <time>2022-09-18T15:08:09.000Z</time>
      </trkpt>
      <trkpt lat="45.83274" lon="4.72857">
        <ele>281.80936</ele>
        <time>2022-09-18T15:08:10.000Z</time>
      </trkpt>
      <trkpt lat="45.83268" lon="4.72854">
        <ele>281.55867</ele>
        <time>2022-09-18T15:08:11.000Z</time>
      </trkpt>
      <trkpt lat="45.83263" lon="4.72856">
        <ele>281.96056</ele>
        <time>2022-09-18T15:08:12.000Z</time>
      </trkpt>
      <trkpt lat="45.8326" lon="4.72852">
        <ele>281.15327</ele>
        <time>2022-09-18T15:08:13.000Z</time>
      </trkpt>
      <trkpt lat="45.83258" lon="4.72848">
        <ele>280.23533</ele>
        <time>2022-09-18T15:08:14.000Z</time>
      </trkpt>
      <trkpt lat="45.83254" lon="4.72846">
        <ele>279.70905</ele>
        <time>2022-09-18T15:08:15.000Z</time>
      </trkpt>
      <trkpt lat="45.8325" lon="4.72845">
        <ele>279.13705</ele>
        <time>2022-09-18T15:08:16.000Z</time>
      </trkpt>
      <trkpt lat="45.83247" lon="4.72842">
        <ele>278.25174</ele>
        <time>2022-09-18T15:08:17.000Z</time>
      </trkpt>
      <trkpt lat="45.83244" lon="4.72839">
        <ele>277.35252</ele>
        <time>2022-09-18T15:08:18.000Z</time>
      </trkpt>
      <trkpt lat="45.83243" lon="4.72839">
        <ele>277.22888</ele>
        <time>2022-09-18T15:08:19.000Z</time>
      </trkpt>
      <trkpt lat="45.83238" lon="4.72836">
        <ele>276.38502</ele>
        <time>2022-09-18T15:08:20.000Z</time>
      </trkpt>
      <trkpt lat="45.83235" lon="4.72835">
        <ele>276.08397</ele>
        <time>2022-09-18T15:08:21.000Z</time>
      </trkpt>
      <trkpt lat="45.83232" lon="4.72834">
        <ele>275.70098</ele>
        <time>2022-09-18T15:08:22.000Z</time>
      </trkpt>
      <trkpt lat="45.8323" lon="4.72831">
        <ele>275.24828</ele>
        <time>2022-09-18T15:08:23.000Z</time>
      </trkpt>
      <trkpt lat="45.83227" lon="4.72829">
        <ele>274.92906</ele>
        <time>2022-09-18T15:08:24.000Z</time>
      </trkpt>
      <trkpt lat="45.83225" lon="4.72827">
        <ele>274.55603</ele>
        <time>2022-09-18T15:08:25.000Z</time>
      </trkpt>
      <trkpt lat="45.83223" lon="4.72823">
        <ele>274.11204</ele>
        <time>2022-09-18T15:08:26.000Z</time>
      </trkpt>
      <trkpt lat="45.83222" lon="4.72818">
        <ele>273.64347</ele>
        <time>2022-09-18T15:08:27.000Z</time>
      </trkpt>
      <trkpt lat="45.83221" lon="4.72813">
        <ele>273.21621</ele>
        <time>2022-09-18T15:08:28.000Z</time>
      </trkpt>
      <trkpt lat="45.83222" lon="4.72808">
        <ele>272.8869</ele>
        <time>2022-09-18T15:08:29.000Z</time>
      </trkpt>
      <trkpt lat="45.83222" lon="4.72801">
        <ele>272.59397</ele>
        <time>2022-09-18T15:08:30.000Z</time>
      </trkpt>
      <trkpt lat="45.83223" lon="4.72796">
        <ele>272.40581</ele>
        <time>2022-09-18T15:08:31.000Z</time>
      </trkpt>
      <trkpt lat="45.83224" lon="4.72792">
        <ele>272.31745</ele>
        <time>2022-09-18T15:08:32.000Z</time>
      </trkpt>
      <trkpt lat="45.83225" lon="4.72786">
        <ele>272.28414</ele>
        <time>2022-09-18T15:08:33.000Z</time>
      </trkpt>
      <trkpt lat="45.83227" lon="4.7278">
        <ele>272.32431</ele>
        <time>2022-09-18T15:08:34.000Z</time>
      </trkpt>
      <trkpt lat="45.83229" lon="4.72775">
        <ele>272.45412</ele>
        <time>2022-09-18T15:08:35.000Z</time>
      </trkpt>
      <trkpt lat="45.8323" lon="4.7277">
        <ele>272.70931</ele>
        <time>2022-09-18T15:08:36.000Z</time>
      </trkpt>
      <trkpt lat="45.83232" lon="4.72765">
        <ele>272.9876</ele>
        <time>2022-09-18T15:08:37.000Z</time>
      </trkpt>
      <trkpt lat="45.83234" lon="4.72761">
        <ele>273.2848</ele>
        <time>2022-09-18T15:08:38.000Z</time>
      </trkpt>
      <trkpt lat="45.83237" lon="4.72757">
        <ele>273.50524</ele>
        <time>2022-09-18T15:08:39.000Z</time>
      </trkpt>
      <trkpt lat="45.8324" lon="4.72754">
        <ele>273.81652</ele>
        <time>2022-09-18T15:08:40.000Z</time>
      </trkpt>
      <trkpt lat="45.83243" lon="4.72751">
        <ele>274.20833</ele>
        <time>2022-09-18T15:08:41.000Z</time>
      </trkpt>
      <trkpt lat="45.83246" lon="4.72749">
        <ele>274.61909</ele>
        <time>2022-09-18T15:08:42.000Z</time>
      </trkpt>
      <trkpt lat="45.83248" lon="4.72747">
        <ele>275.02041</ele>
        <time>2022-09-18T15:08:43.000Z</time>
      </trkpt>
      <trkpt lat="45.83251" lon="4.72746">
        <ele>275.30132</ele>
        <time>2022-09-18T15:08:44.000Z</time>
      </trkpt>
      <trkpt lat="45.83253" lon="4.72745">
        <ele>275.60473</ele>
        <time>2022-09-18T15:08:45.000Z</time>
      </trkpt>
      <trkpt lat="45.83255" lon="4.72745">
        <ele>275.84968</ele>
        <time>2022-09-18T15:08:46.000Z</time>
      </trkpt>
      <trkpt lat="45.83257" lon="4.72744">
        <ele>276.15114</ele>
        <time>2022-09-18T15:08:47.000Z</time>
      </trkpt>
      <trkpt lat="45.83258" lon="4.72742">
        <ele>276.80595</ele>
        <time>2022-09-18T15:08:48.000Z</time>
      </trkpt>
      <trkpt lat="45.83259" lon="4.72739">
        <ele>277.62399</ele>
        <time>2022-09-18T15:08:49.000Z</time>
      </trkpt>
      <trkpt lat="45.83256" lon="4.72735">
        <ele>278.92035</ele>
        <time>2022-09-18T15:08:51.000Z</time>
      </trkpt>
      <trkpt lat="45.83252" lon="4.72734">
        <ele>278.98543</ele>
        <time>2022-09-18T15:08:52.000Z</time>
      </trkpt>
      <trkpt lat="45.83247" lon="4.72734">
        <ele>278.6303</ele>
        <time>2022-09-18T15:08:53.000Z</time>
      </trkpt>
      <trkpt lat="45.83243" lon="4.72735">
        <ele>278.20763</ele>
        <time>2022-09-18T15:08:54.000Z</time>
      </trkpt>
      <trkpt lat="45.83239" lon="4.72736">
        <ele>277.96897</ele>
        <time>2022-09-18T15:08:55.000Z</time>
      </trkpt>
      <trkpt lat="45.83235" lon="4.72737">
        <ele>277.87724</ele>
        <time>2022-09-18T15:08:56.000Z</time>
      </trkpt>
      <trkpt lat="45.83231" lon="4.72737">
        <ele>277.90012</ele>
        <time>2022-09-18T15:08:57.000Z</time>
      </trkpt>
      <trkpt lat="45.83227" lon="4.72736">
        <ele>278.03118</ele>
        <time>2022-09-18T15:08:58.000Z</time>
      </trkpt>
      <trkpt lat="45.83223" lon="4.72736">
        <ele>278.22804</ele>
        <time>2022-09-18T15:08:59.000Z</time>
      </trkpt>
      <trkpt lat="45.83219" lon="4.72736">
        <ele>278.48928</ele>
        <time>2022-09-18T15:09:00.000Z</time>
      </trkpt>
      <trkpt lat="45.83215" lon="4.72735">
        <ele>278.90855</ele>
        <time>2022-09-18T15:09:01.000Z</time>
      </trkpt>
      <trkpt lat="45.83212" lon="4.72733">
        <ele>279.41371</ele>
        <time>2022-09-18T15:09:02.000Z</time>
      </trkpt>
      <trkpt lat="45.83209" lon="4.72731">
        <ele>279.9985</ele>
        <time>2022-09-18T15:09:03.000Z</time>
      </trkpt>
      <trkpt lat="45.83206" lon="4.72728">
        <ele>280.66411</ele>
        <time>2022-09-18T15:09:04.000Z</time>
      </trkpt>
      <trkpt lat="45.83202" lon="4.72724">
        <ele>281.48188</ele>
        <time>2022-09-18T15:09:05.000Z</time>
      </trkpt>
      <trkpt lat="45.832" lon="4.7272">
        <ele>282.34051</ele>
        <time>2022-09-18T15:09:06.000Z</time>
      </trkpt>
      <trkpt lat="45.83199" lon="4.72715">
        <ele>283.04687</ele>
        <time>2022-09-18T15:09:07.000Z</time>
      </trkpt>
      <trkpt lat="45.83199" lon="4.7271">
        <ele>283.71171</ele>
        <time>2022-09-18T15:09:08.000Z</time>
      </trkpt>
      <trkpt lat="45.832" lon="4.72704">
        <ele>284.32171</ele>
        <time>2022-09-18T15:09:09.000Z</time>
      </trkpt>
      <trkpt lat="45.83202" lon="4.72697">
        <ele>284.871</ele>
        <time>2022-09-18T15:09:10.000Z</time>
      </trkpt>
      <trkpt lat="45.83202" lon="4.72692">
        <ele>285.22138</ele>
        <time>2022-09-18T15:09:11.000Z</time>
      </trkpt>
      <trkpt lat="45.83204" lon="4.72686">
        <ele>285.46079</ele>
        <time>2022-09-18T15:09:12.000Z</time>
      </trkpt>
      <trkpt lat="45.83205" lon="4.7268">
        <ele>285.6169</ele>
        <time>2022-09-18T15:09:13.000Z</time>
      </trkpt>
      <trkpt lat="45.83207" lon="4.72675">
        <ele>285.66416</ele>
        <time>2022-09-18T15:09:14.000Z</time>
      </trkpt>
      <trkpt lat="45.8321" lon="4.72669">
        <ele>285.69838</ele>
        <time>2022-09-18T15:09:15.000Z</time>
      </trkpt>
      <trkpt lat="45.83216" lon="4.7266">
        <ele>285.59524</ele>
        <time>2022-09-18T15:09:16.000Z</time>
      </trkpt>
      <trkpt lat="45.83218" lon="4.72651">
        <ele>285.4668</ele>
        <time>2022-09-18T15:09:17.000Z</time>
      </trkpt>
      <trkpt lat="45.83218" lon="4.72641">
        <ele>285.20849</ele>
        <time>2022-09-18T15:09:18.000Z</time>
      </trkpt>
      <trkpt lat="45.83219" lon="4.72634">
        <ele>285.02032</ele>
        <time>2022-09-18T15:09:19.000Z</time>
      </trkpt>
      <trkpt lat="45.83221" lon="4.72624">
        <ele>284.9245</ele>
        <time>2022-09-18T15:09:20.000Z</time>
      </trkpt>
      <trkpt lat="45.83222" lon="4.72615">
        <ele>284.93868</ele>
        <time>2022-09-18T15:09:21.000Z</time>
      </trkpt>
      <trkpt lat="45.83224" lon="4.72606">
        <ele>284.93906</ele>
        <time>2022-09-18T15:09:22.000Z</time>
      </trkpt>
      <trkpt lat="45.83226" lon="4.72596">
        <ele>284.77724</ele>
        <time>2022-09-18T15:09:23.000Z</time>
      </trkpt>
      <trkpt lat="45.83228" lon="4.72585">
        <ele>284.36914</ele>
        <time>2022-09-18T15:09:24.000Z</time>
      </trkpt>
      <trkpt lat="45.83228" lon="4.72573">
        <ele>283.80652</ele>
        <time>2022-09-18T15:09:25.000Z</time>
      </trkpt>
      <trkpt lat="45.83231" lon="4.72566">
        <ele>283.30792</ele>
        <time>2022-09-18T15:09:26.000Z</time>
      </trkpt>
      <trkpt lat="45.83234" lon="4.72555">
        <ele>282.4216</ele>
        <time>2022-09-18T15:09:27.000Z</time>
      </trkpt>
      <trkpt lat="45.83236" lon="4.72543">
        <ele>281.54942</ele>
        <time>2022-09-18T15:09:28.000Z</time>
      </trkpt>
      <trkpt lat="45.83238" lon="4.72532">
        <ele>280.9069</ele>
        <time>2022-09-18T15:09:29.000Z</time>
      </trkpt>
      <trkpt lat="45.8324" lon="4.72522">
        <ele>280.33951</ele>
        <time>2022-09-18T15:09:30.000Z</time>
      </trkpt>
      <trkpt lat="45.83241" lon="4.72513">
        <ele>280.097</ele>
        <time>2022-09-18T15:09:31.000Z</time>
      </trkpt>
      <trkpt lat="45.83243" lon="4.72503">
        <ele>279.69359</ele>
        <time>2022-09-18T15:09:32.000Z</time>
      </trkpt>
      <trkpt lat="45.83244" lon="4.72493">
        <ele>279.39744</ele>
        <time>2022-09-18T15:09:33.000Z</time>
      </trkpt>
      <trkpt lat="45.83243" lon="4.72481">
        <ele>279.64726</ele>
        <time>2022-09-18T15:09:34.000Z</time>
      </trkpt>
      <trkpt lat="45.83242" lon="4.72471">
        <ele>279.9188</ele>
        <time>2022-09-18T15:09:35.000Z</time>
      </trkpt>
      <trkpt lat="45.83241" lon="4.72461">
        <ele>280.01629</ele>
        <time>2022-09-18T15:09:36.000Z</time>
      </trkpt>
      <trkpt lat="45.83239" lon="4.72453">
        <ele>280.03668</ele>
        <time>2022-09-18T15:09:37.000Z</time>
      </trkpt>
      <trkpt lat="45.83237" lon="4.72442">
        <ele>280.13134</ele>
        <time>2022-09-18T15:09:38.000Z</time>
      </trkpt>
      <trkpt lat="45.83236" lon="4.72434">
        <ele>280.58754</ele>
        <time>2022-09-18T15:09:39.000Z</time>
      </trkpt>
      <trkpt lat="45.83234" lon="4.72424">
        <ele>281.60296</ele>
        <time>2022-09-18T15:09:40.000Z</time>
      </trkpt>
      <trkpt lat="45.83231" lon="4.72417">
        <ele>282.66766</ele>
        <time>2022-09-18T15:09:41.000Z</time>
      </trkpt>
      <trkpt lat="45.8323" lon="4.72407">
        <ele>283.78261</ele>
        <time>2022-09-18T15:09:42.000Z</time>
      </trkpt>
      <trkpt lat="45.83227" lon="4.72399">
        <ele>284.7687</ele>
        <time>2022-09-18T15:09:43.000Z</time>
      </trkpt>
      <trkpt lat="45.83226" lon="4.72389">
        <ele>285.89628</ele>
        <time>2022-09-18T15:09:44.000Z</time>
      </trkpt>
      <trkpt lat="45.83225" lon="4.72381">
        <ele>286.64703</ele>
        <time>2022-09-18T15:09:45.000Z</time>
      </trkpt>
      <trkpt lat="45.83224" lon="4.7237">
        <ele>287.30064</ele>
        <time>2022-09-18T15:09:46.000Z</time>
      </trkpt>
      <trkpt lat="45.83224" lon="4.72361">
        <ele>287.48549</ele>
        <time>2022-09-18T15:09:47.000Z</time>
      </trkpt>
      <trkpt lat="45.83223" lon="4.72352">
        <ele>287.48812</ele>
        <time>2022-09-18T15:09:48.000Z</time>
      </trkpt>
      <trkpt lat="45.8322" lon="4.72346">
        <ele>287.76791</ele>
        <time>2022-09-18T15:09:49.000Z</time>
      </trkpt>
      <trkpt lat="45.83217" lon="4.72338">
        <ele>288.13032</ele>
        <time>2022-09-18T15:09:50.000Z</time>
      </trkpt>
      <trkpt lat="45.83215" lon="4.72328">
        <ele>288.60872</ele>
        <time>2022-09-18T15:09:51.000Z</time>
      </trkpt>
      <trkpt lat="45.83217" lon="4.72319">
        <ele>288.77212</ele>
        <time>2022-09-18T15:09:52.000Z</time>
      </trkpt>
      <trkpt lat="45.83219" lon="4.72316">
        <ele>288.79058</ele>
        <time>2022-09-18T15:09:53.000Z</time>
      </trkpt>
      <trkpt lat="45.83219" lon="4.72312">
        <ele>288.91848</ele>
        <time>2022-09-18T15:09:54.000Z</time>
      </trkpt>
      <trkpt lat="45.83222" lon="4.72308">
        <ele>288.94723</ele>
        <time>2022-09-18T15:09:56.000Z</time>
      </trkpt>
      <trkpt lat="45.83224" lon="4.72303">
        <ele>288.97615</ele>
        <time>2022-09-18T15:09:57.000Z</time>
      </trkpt>
      <trkpt lat="45.83226" lon="4.72301">
        <ele>288.92721</ele>
        <time>2022-09-18T15:09:58.000Z</time>
      </trkpt>
      <trkpt lat="45.8323" lon="4.72299">
        <ele>288.8308</ele>
        <time>2022-09-18T15:09:59.000Z</time>
      </trkpt>
      <trkpt lat="45.83234" lon="4.72297">
        <ele>288.62708</ele>
        <time>2022-09-18T15:10:00.000Z</time>
      </trkpt>
      <trkpt lat="45.83238" lon="4.72294">
        <ele>288.50549</ele>
        <time>2022-09-18T15:10:01.000Z</time>
      </trkpt>
      <trkpt lat="45.83242" lon="4.7229">
        <ele>288.40093</ele>
        <time>2022-09-18T15:10:02.000Z</time>
      </trkpt>
      <trkpt lat="45.83246" lon="4.72288">
        <ele>288.27376</ele>
        <time>2022-09-18T15:10:03.000Z</time>
      </trkpt>
      <trkpt lat="45.83252" lon="4.72286">
        <ele>288.07591</ele>
        <time>2022-09-18T15:10:04.000Z</time>
      </trkpt>
      <trkpt lat="45.83257" lon="4.7228">
        <ele>287.94541</ele>
        <time>2022-09-18T15:10:05.000Z</time>
      </trkpt>
      <trkpt lat="45.83263" lon="4.72276">
        <ele>287.78391</ele>
        <time>2022-09-18T15:10:06.000Z</time>
      </trkpt>
      <trkpt lat="45.83266" lon="4.72271">
        <ele>287.69204</ele>
        <time>2022-09-18T15:10:07.000Z</time>
      </trkpt>
      <trkpt lat="45.8327" lon="4.72267">
        <ele>287.58713</ele>
        <time>2022-09-18T15:10:08.000Z</time>
      </trkpt>
      <trkpt lat="45.83276" lon="4.72262">
        <ele>287.4554</ele>
        <time>2022-09-18T15:10:09.000Z</time>
      </trkpt>
      <trkpt lat="45.83281" lon="4.72256">
        <ele>287.28708</ele>
        <time>2022-09-18T15:10:10.000Z</time>
      </trkpt>
      <trkpt lat="45.83285" lon="4.72252">
        <ele>287.12019</ele>
        <time>2022-09-18T15:10:11.000Z</time>
      </trkpt>
      <trkpt lat="45.8329" lon="4.72248">
        <ele>286.93886</ele>
        <time>2022-09-18T15:10:12.000Z</time>
      </trkpt>
      <trkpt lat="45.83295" lon="4.72243">
        <ele>286.74032</ele>
        <time>2022-09-18T15:10:13.000Z</time>
      </trkpt>
      <trkpt lat="45.833" lon="4.72237">
        <ele>286.52334</ele>
        <time>2022-09-18T15:10:14.000Z</time>
      </trkpt>
      <trkpt lat="45.83305" lon="4.72232">
        <ele>286.276</ele>
        <time>2022-09-18T15:10:15.000Z</time>
      </trkpt>
      <trkpt lat="45.83311" lon="4.72228">
        <ele>286.00846</ele>
        <time>2022-09-18T15:10:16.000Z</time>
      </trkpt>
      <trkpt lat="45.83317" lon="4.72223">
        <ele>285.72911</ele>
        <time>2022-09-18T15:10:17.000Z</time>
      </trkpt>
      <trkpt lat="45.83321" lon="4.72218">
        <ele>285.5763</ele>
        <time>2022-09-18T15:10:18.000Z</time>
      </trkpt>
      <trkpt lat="45.83327" lon="4.72212">
        <ele>285.45618</ele>
        <time>2022-09-18T15:10:19.000Z</time>
      </trkpt>
      <trkpt lat="45.83332" lon="4.72208">
        <ele>285.31112</ele>
        <time>2022-09-18T15:10:20.000Z</time>
      </trkpt>
      <trkpt lat="45.83338" lon="4.72205">
        <ele>285.10572</ele>
        <time>2022-09-18T15:10:21.000Z</time>
      </trkpt>
      <trkpt lat="45.83343" lon="4.72201">
        <ele>284.77303</ele>
        <time>2022-09-18T15:10:22.000Z</time>
      </trkpt>
      <trkpt lat="45.83348" lon="4.72197">
        <ele>284.39141</ele>
        <time>2022-09-18T15:10:23.000Z</time>
      </trkpt>
      <trkpt lat="45.83353" lon="4.72194">
        <ele>284.06393</ele>
        <time>2022-09-18T15:10:24.000Z</time>
      </trkpt>
      <trkpt lat="45.83358" lon="4.72192">
        <ele>283.78578</ele>
        <time>2022-09-18T15:10:25.000Z</time>
      </trkpt>
      <trkpt lat="45.83364" lon="4.72189">
        <ele>283.41996</ele>
        <time>2022-09-18T15:10:26.000Z</time>
      </trkpt>
      <trkpt lat="45.83368" lon="4.72184">
        <ele>283.04585</ele>
        <time>2022-09-18T15:10:27.000Z</time>
      </trkpt>
      <trkpt lat="45.83372" lon="4.72178">
        <ele>282.77949</ele>
        <time>2022-09-18T15:10:28.000Z</time>
      </trkpt>
      <trkpt lat="45.83378" lon="4.72176">
        <ele>282.5617</ele>
        <time>2022-09-18T15:10:29.000Z</time>
      </trkpt>
      <trkpt lat="45.83384" lon="4.72173">
        <ele>282.37885</ele>
        <time>2022-09-18T15:10:30.000Z</time>
      </trkpt>
      <trkpt lat="45.83388" lon="4.72169">
        <ele>282.20753</ele>
        <time>2022-09-18T15:10:31.000Z</time>
      </trkpt>
      <trkpt lat="45.83393" lon="4.72165">
        <ele>282.0027</ele>
        <time>2022-09-18T15:10:32.000Z</time>
      </trkpt>
      <trkpt lat="45.83398" lon="4.72162">
        <ele>281.773</ele>
        <time>2022-09-18T15:10:33.000Z</time>
      </trkpt>
      <trkpt lat="45.83403" lon="4.72159">
        <ele>281.58225</ele>
        <time>2022-09-18T15:10:34.000Z</time>
      </trkpt>
      <trkpt lat="45.83408" lon="4.72152">
        <ele>281.29598</ele>
        <time>2022-09-18T15:10:35.000Z</time>
      </trkpt>
      <trkpt lat="45.83411" lon="4.72144">
        <ele>281.00108</ele>
        <time>2022-09-18T15:10:36.000Z</time>
      </trkpt>
      <trkpt lat="45.83415" lon="4.72136">
        <ele>280.64785</ele>
        <time>2022-09-18T15:10:37.000Z</time>
      </trkpt>
      <trkpt lat="45.83419" lon="4.72128">
        <ele>280.25314</ele>
        <time>2022-09-18T15:10:38.000Z</time>
      </trkpt>
      <trkpt lat="45.83421" lon="4.72119">
        <ele>279.82739</ele>
        <time>2022-09-18T15:10:39.000Z</time>
      </trkpt>
      <trkpt lat="45.83424" lon="4.7211">
        <ele>279.48088</ele>
        <time>2022-09-18T15:10:40.000Z</time>
      </trkpt>
      <trkpt lat="45.83427" lon="4.72101">
        <ele>279.20056</ele>
        <time>2022-09-18T15:10:41.000Z</time>
      </trkpt>
      <trkpt lat="45.83429" lon="4.72093">
        <ele>278.99147</ele>
        <time>2022-09-18T15:10:42.000Z</time>
      </trkpt>
      <trkpt lat="45.83431" lon="4.72084">
        <ele>278.8</ele>
        <time>2022-09-18T15:10:43.000Z</time>
      </trkpt>
      <trkpt lat="45.83434" lon="4.72075">
        <ele>278.65271</ele>
        <time>2022-09-18T15:10:44.000Z</time>
      </trkpt>
      <trkpt lat="45.83438" lon="4.72069">
        <ele>278.46506</ele>
        <time>2022-09-18T15:10:45.000Z</time>
      </trkpt>
      <trkpt lat="45.83441" lon="4.72065">
        <ele>278.2953</ele>
        <time>2022-09-18T15:10:46.000Z</time>
      </trkpt>
      <trkpt lat="45.83444" lon="4.72059">
        <ele>278.14706</ele>
        <time>2022-09-18T15:10:47.000Z</time>
      </trkpt>
      <trkpt lat="45.83446" lon="4.72052">
        <ele>278.05561</ele>
        <time>2022-09-18T15:10:48.000Z</time>
      </trkpt>
      <trkpt lat="45.83446" lon="4.72045">
        <ele>278.07243</ele>
        <time>2022-09-18T15:10:49.000Z</time>
      </trkpt>
      <trkpt lat="45.83446" lon="4.72038">
        <ele>278.11571</ele>
        <time>2022-09-18T15:10:50.000Z</time>
      </trkpt>
      <trkpt lat="45.83447" lon="4.72032">
        <ele>278.1388</ele>
        <time>2022-09-18T15:10:51.000Z</time>
      </trkpt>
      <trkpt lat="45.83448" lon="4.72026">
        <ele>278.13465</ele>
        <time>2022-09-18T15:10:52.000Z</time>
      </trkpt>
      <trkpt lat="45.83449" lon="4.72019">
        <ele>278.0442</ele>
        <time>2022-09-18T15:10:53.000Z</time>
      </trkpt>
      <trkpt lat="45.83451" lon="4.72013">
        <ele>277.90658</ele>
        <time>2022-09-18T15:10:54.000Z</time>
      </trkpt>
      <trkpt lat="45.83453" lon="4.72006">
        <ele>277.70203</ele>
        <time>2022-09-18T15:10:55.000Z</time>
      </trkpt>
      <trkpt lat="45.83455" lon="4.72">
        <ele>277.54768</ele>
        <time>2022-09-18T15:10:56.000Z</time>
      </trkpt>
      <trkpt lat="45.83457" lon="4.71993">
        <ele>277.43341</ele>
        <time>2022-09-18T15:10:57.000Z</time>
      </trkpt>
      <trkpt lat="45.83459" lon="4.71986">
        <ele>277.45367</ele>
        <time>2022-09-18T15:10:58.000Z</time>
      </trkpt>
      <trkpt lat="45.83461" lon="4.71979">
        <ele>277.46833</ele>
        <time>2022-09-18T15:10:59.000Z</time>
      </trkpt>
      <trkpt lat="45.83463" lon="4.71972">
        <ele>277.47243</ele>
        <time>2022-09-18T15:11:00.000Z</time>
      </trkpt>
      <trkpt lat="45.83465" lon="4.71965">
        <ele>277.49208</ele>
        <time>2022-09-18T15:11:01.000Z</time>
      </trkpt>
      <trkpt lat="45.83468" lon="4.71956">
        <ele>277.36123</ele>
        <time>2022-09-18T15:11:02.000Z</time>
      </trkpt>
      <trkpt lat="45.83469" lon="4.71948">
        <ele>277.10469</ele>
        <time>2022-09-18T15:11:03.000Z</time>
      </trkpt>
      <trkpt lat="45.83472" lon="4.71939">
        <ele>276.70215</ele>
        <time>2022-09-18T15:11:04.000Z</time>
      </trkpt>
      <trkpt lat="45.83474" lon="4.71932">
        <ele>276.33956</ele>
        <time>2022-09-18T15:11:05.000Z</time>
      </trkpt>
      <trkpt lat="45.83475" lon="4.71922">
        <ele>275.72617</ele>
        <time>2022-09-18T15:11:06.000Z</time>
      </trkpt>
      <trkpt lat="45.83477" lon="4.71913">
        <ele>275.00962</ele>
        <time>2022-09-18T15:11:07.000Z</time>
      </trkpt>
      <trkpt lat="45.8348" lon="4.71903">
        <ele>274.59376</ele>
        <time>2022-09-18T15:11:08.000Z</time>
      </trkpt>
      <trkpt lat="45.83482" lon="4.71893">
        <ele>274.5473</ele>
        <time>2022-09-18T15:11:09.000Z</time>
      </trkpt>
      <trkpt lat="45.83482" lon="4.71883">
        <ele>274.59513</ele>
        <time>2022-09-18T15:11:10.000Z</time>
      </trkpt>
      <trkpt lat="45.8348" lon="4.71874">
        <ele>274.52054</ele>
        <time>2022-09-18T15:11:11.000Z</time>
      </trkpt>
      <trkpt lat="45.83477" lon="4.71865">
        <ele>274.31114</ele>
        <time>2022-09-18T15:11:12.000Z</time>
      </trkpt>
      <trkpt lat="45.83473" lon="4.71855">
        <ele>274.15187</ele>
        <time>2022-09-18T15:11:13.000Z</time>
      </trkpt>
      <trkpt lat="45.83469" lon="4.71848">
        <ele>273.65663</ele>
        <time>2022-09-18T15:11:14.000Z</time>
      </trkpt>
      <trkpt lat="45.83465" lon="4.71837">
        <ele>272.62121</ele>
        <time>2022-09-18T15:11:15.000Z</time>
      </trkpt>
      <trkpt lat="45.83461" lon="4.71827">
        <ele>271.75451</ele>
        <time>2022-09-18T15:11:16.000Z</time>
      </trkpt>
      <trkpt lat="45.83458" lon="4.71816">
        <ele>271.16788</ele>
        <time>2022-09-18T15:11:17.000Z</time>
      </trkpt>
      <trkpt lat="45.83452" lon="4.71805">
        <ele>270.48937</ele>
        <time>2022-09-18T15:11:18.000Z</time>
      </trkpt>
      <trkpt lat="45.83449" lon="4.71793">
        <ele>269.93089</ele>
        <time>2022-09-18T15:11:19.000Z</time>
      </trkpt>
      <trkpt lat="45.83446" lon="4.71781">
        <ele>269.09565</ele>
        <time>2022-09-18T15:11:20.000Z</time>
      </trkpt>
      <trkpt lat="45.83441" lon="4.71771">
        <ele>267.96091</ele>
        <time>2022-09-18T15:11:21.000Z</time>
      </trkpt>
      <trkpt lat="45.8344" lon="4.71758">
        <ele>266.52437</ele>
        <time>2022-09-18T15:11:22.000Z</time>
      </trkpt>
      <trkpt lat="45.83434" lon="4.71745">
        <ele>264.93643</ele>
        <time>2022-09-18T15:11:23.000Z</time>
      </trkpt>
      <trkpt lat="45.83428" lon="4.71735">
        <ele>264.55422</ele>
        <time>2022-09-18T15:11:24.000Z</time>
      </trkpt>
      <trkpt lat="45.83425" lon="4.71724">
        <ele>264.66999</ele>
        <time>2022-09-18T15:11:25.000Z</time>
      </trkpt>
      <trkpt lat="45.83421" lon="4.71715">
        <ele>265.35297</ele>
        <time>2022-09-18T15:11:26.000Z</time>
      </trkpt>
      <trkpt lat="45.83418" lon="4.71708">
        <ele>266.02798</ele>
        <time>2022-09-18T15:11:27.000Z</time>
      </trkpt>
      <trkpt lat="45.83413" lon="4.71694">
        <ele>267.34947</ele>
        <time>2022-09-18T15:11:28.000Z</time>
      </trkpt>
      <trkpt lat="45.83417" lon="4.71677">
        <ele>269.67924</ele>
        <time>2022-09-18T15:11:29.000Z</time>
      </trkpt>
      <trkpt lat="45.83417" lon="4.71671">
        <ele>270.52732</ele>
        <time>2022-09-18T15:11:30.000Z</time>
      </trkpt>
      <trkpt lat="45.83415" lon="4.71665">
        <ele>270.61957</ele>
        <time>2022-09-18T15:11:31.000Z</time>
      </trkpt>
      <trkpt lat="45.83413" lon="4.71656">
        <ele>271.1975</ele>
        <time>2022-09-18T15:11:32.000Z</time>
      </trkpt>
      <trkpt lat="45.8341" lon="4.71655">
        <ele>270.8985</ele>
        <time>2022-09-18T15:11:33.000Z</time>
      </trkpt>
      <trkpt lat="45.8341" lon="4.71647">
        <ele>271.75769</ele>
        <time>2022-09-18T15:11:34.000Z</time>
      </trkpt>
      <trkpt lat="45.83409" lon="4.71643">
        <ele>272.14726</ele>
        <time>2022-09-18T15:11:35.000Z</time>
      </trkpt>
      <trkpt lat="45.83409" lon="4.71636">
        <ele>272.90068</ele>
        <time>2022-09-18T15:11:36.000Z</time>
      </trkpt>
      <trkpt lat="45.83407" lon="4.71627">
        <ele>273.58803</ele>
        <time>2022-09-18T15:11:37.000Z</time>
      </trkpt>
      <trkpt lat="45.83407" lon="4.71619">
        <ele>274.17949</ele>
        <time>2022-09-18T15:11:38.000Z</time>
      </trkpt>
      <trkpt lat="45.83405" lon="4.71613">
        <ele>274.65068</ele>
        <time>2022-09-18T15:11:39.000Z</time>
      </trkpt>
      <trkpt lat="45.83403" lon="4.71608">
        <ele>275.12886</ele>
        <time>2022-09-18T15:11:40.000Z</time>
      </trkpt>
      <trkpt lat="45.83401" lon="4.716">
        <ele>275.97751</ele>
        <time>2022-09-18T15:11:41.000Z</time>
      </trkpt>
      <trkpt lat="45.83397" lon="4.71594">
        <ele>276.49514</ele>
        <time>2022-09-18T15:11:42.000Z</time>
      </trkpt>
      <trkpt lat="45.83396" lon="4.71584">
        <ele>277.28914</ele>
        <time>2022-09-18T15:11:43.000Z</time>
      </trkpt>
      <trkpt lat="45.83392" lon="4.71582">
        <ele>277.36658</ele>
        <time>2022-09-18T15:11:44.000Z</time>
      </trkpt>
      <trkpt lat="45.83387" lon="4.7158">
        <ele>277.76603</ele>
        <time>2022-09-18T15:11:45.000Z</time>
      </trkpt>
      <trkpt lat="45.83382" lon="4.7158">
        <ele>278.95229</ele>
        <time>2022-09-18T15:11:46.000Z</time>
      </trkpt>
      <trkpt lat="45.83378" lon="4.71587">
        <ele>279.62411</ele>
        <time>2022-09-18T15:11:47.000Z</time>
      </trkpt>
      <trkpt lat="45.83375" lon="4.71594">
        <ele>280.28387</ele>
        <time>2022-09-18T15:11:48.000Z</time>
      </trkpt>
      <trkpt lat="45.83372" lon="4.71601">
        <ele>280.87807</ele>
        <time>2022-09-18T15:11:49.000Z</time>
      </trkpt>
      <trkpt lat="45.83369" lon="4.71608">
        <ele>281.2159</ele>
        <time>2022-09-18T15:11:50.000Z</time>
      </trkpt>
      <trkpt lat="45.83368" lon="4.71613">
        <ele>281.11741</ele>
        <time>2022-09-18T15:11:51.000Z</time>
      </trkpt>
      <trkpt lat="45.83369" lon="4.71617">
        <ele>280.90207</ele>
        <time>2022-09-18T15:11:52.000Z</time>
      </trkpt>
      <trkpt lat="45.83366" lon="4.71623">
        <ele>281.09316</ele>
        <time>2022-09-18T15:11:53.000Z</time>
      </trkpt>
      <trkpt lat="45.83363" lon="4.71616">
        <ele>281.67931</ele>
        <time>2022-09-18T15:11:54.000Z</time>
      </trkpt>
      <trkpt lat="45.83364" lon="4.71609">
        <ele>281.90894</ele>
        <time>2022-09-18T15:11:55.000Z</time>
      </trkpt>
      <trkpt lat="45.83367" lon="4.71605">
        <ele>281.66544</ele>
        <time>2022-09-18T15:11:56.000Z</time>
      </trkpt>
      <trkpt lat="45.8337" lon="4.71599">
        <ele>281.42911</ele>
        <time>2022-09-18T15:11:57.000Z</time>
      </trkpt>
      <trkpt lat="45.83372" lon="4.71592">
        <ele>281.25074</ele>
        <time>2022-09-18T15:11:58.000Z</time>
      </trkpt>
      <trkpt lat="45.83374" lon="4.71584">
        <ele>281.00761</ele>
        <time>2022-09-18T15:11:59.000Z</time>
      </trkpt>
      <trkpt lat="45.83377" lon="4.71578">
        <ele>280.30552</ele>
        <time>2022-09-18T15:12:00.000Z</time>
      </trkpt>
      <trkpt lat="45.83381" lon="4.71571">
        <ele>279.80979</ele>
        <time>2022-09-18T15:12:01.000Z</time>
      </trkpt>
      <trkpt lat="45.83385" lon="4.71568">
        <ele>279.43442</ele>
        <time>2022-09-18T15:12:02.000Z</time>
      </trkpt>
      <trkpt lat="45.8339" lon="4.71564">
        <ele>279.92065</ele>
        <time>2022-09-18T15:12:03.000Z</time>
      </trkpt>
      <trkpt lat="45.83396" lon="4.71562">
        <ele>280.7242</ele>
        <time>2022-09-18T15:12:04.000Z</time>
      </trkpt>
      <trkpt lat="45.83402" lon="4.71562">
        <ele>281.60195</ele>
        <time>2022-09-18T15:12:05.000Z</time>
      </trkpt>
      <trkpt lat="45.83406" lon="4.71565">
        <ele>282.08183</ele>
        <time>2022-09-18T15:12:06.000Z</time>
      </trkpt>
      <trkpt lat="45.83411" lon="4.71569">
        <ele>282.41094</ele>
        <time>2022-09-18T15:12:07.000Z</time>
      </trkpt>
      <trkpt lat="45.83415" lon="4.71572">
        <ele>282.5756</ele>
        <time>2022-09-18T15:12:08.000Z</time>
      </trkpt>
      <trkpt lat="45.83419" lon="4.71577">
        <ele>282.7709</ele>
        <time>2022-09-18T15:12:09.000Z</time>
      </trkpt>
      <trkpt lat="45.83423" lon="4.71582">
        <ele>283.01681</ele>
        <time>2022-09-18T15:12:10.000Z</time>
      </trkpt>
      <trkpt lat="45.83428" lon="4.71587">
        <ele>283.44373</ele>
        <time>2022-09-18T15:12:11.000Z</time>
      </trkpt>
      <trkpt lat="45.83434" lon="4.71592">
        <ele>283.75433</ele>
        <time>2022-09-18T15:12:12.000Z</time>
      </trkpt>
      <trkpt lat="45.83439" lon="4.71597">
        <ele>283.92793</ele>
        <time>2022-09-18T15:12:13.000Z</time>
      </trkpt>
      <trkpt lat="45.83446" lon="4.71601">
        <ele>284.33941</ele>
        <time>2022-09-18T15:12:14.000Z</time>
      </trkpt>
      <trkpt lat="45.83451" lon="4.71603">
        <ele>284.68238</ele>
        <time>2022-09-18T15:12:15.000Z</time>
      </trkpt>
      <trkpt lat="45.83456" lon="4.71604">
        <ele>284.71241</ele>
        <time>2022-09-18T15:12:16.000Z</time>
      </trkpt>
      <trkpt lat="45.83463" lon="4.71602">
        <ele>284.96973</ele>
        <time>2022-09-18T15:12:17.000Z</time>
      </trkpt>
      <trkpt lat="45.83468" lon="4.716">
        <ele>285.13481</ele>
        <time>2022-09-18T15:12:18.000Z</time>
      </trkpt>
      <trkpt lat="45.83472" lon="4.71598">
        <ele>285.29456</ele>
        <time>2022-09-18T15:12:19.000Z</time>
      </trkpt>
      <trkpt lat="45.83478" lon="4.71595">
        <ele>285.18574</ele>
        <time>2022-09-18T15:12:20.000Z</time>
      </trkpt>
      <trkpt lat="45.83484" lon="4.71593">
        <ele>284.58693</ele>
        <time>2022-09-18T15:12:21.000Z</time>
      </trkpt>
      <trkpt lat="45.8349" lon="4.71589">
        <ele>284.29251</ele>
        <time>2022-09-18T15:12:22.000Z</time>
      </trkpt>
      <trkpt lat="45.83496" lon="4.71584">
        <ele>284.02644</ele>
        <time>2022-09-18T15:12:23.000Z</time>
      </trkpt>
      <trkpt lat="45.83502" lon="4.71581">
        <ele>283.61523</ele>
        <time>2022-09-18T15:12:24.000Z</time>
      </trkpt>
      <trkpt lat="45.83507" lon="4.71576">
        <ele>283.78341</ele>
        <time>2022-09-18T15:12:25.000Z</time>
      </trkpt>
      <trkpt lat="45.8351" lon="4.71573">
        <ele>283.72022</ele>
        <time>2022-09-18T15:12:26.000Z</time>
      </trkpt>
      <trkpt lat="45.83516" lon="4.71568">
        <ele>283.85224</ele>
        <time>2022-09-18T15:12:27.000Z</time>
      </trkpt>
      <trkpt lat="45.83523" lon="4.71564">
        <ele>283.80075</ele>
        <time>2022-09-18T15:12:28.000Z</time>
      </trkpt>
      <trkpt lat="45.83527" lon="4.71561">
        <ele>284.20801</ele>
        <time>2022-09-18T15:12:29.000Z</time>
      </trkpt>
      <trkpt lat="45.83531" lon="4.71557">
        <ele>284.72271</ele>
        <time>2022-09-18T15:12:30.000Z</time>
      </trkpt>
      <trkpt lat="45.83537" lon="4.71553">
        <ele>285.21415</ele>
        <time>2022-09-18T15:12:31.000Z</time>
      </trkpt>
      <trkpt lat="45.83542" lon="4.71549">
        <ele>285.56991</ele>
        <time>2022-09-18T15:12:32.000Z</time>
      </trkpt>
      <trkpt lat="45.83547" lon="4.71548">
        <ele>285.46202</ele>
        <time>2022-09-18T15:12:33.000Z</time>
      </trkpt>
      <trkpt lat="45.83551" lon="4.71544">
        <ele>285.8245</ele>
        <time>2022-09-18T15:12:34.000Z</time>
      </trkpt>
      <trkpt lat="45.83556" lon="4.7154">
        <ele>285.96612</ele>
        <time>2022-09-18T15:12:35.000Z</time>
      </trkpt>
      <trkpt lat="45.83561" lon="4.71538">
        <ele>285.81226</ele>
        <time>2022-09-18T15:12:36.000Z</time>
      </trkpt>
      <trkpt lat="45.83567" lon="4.71539">
        <ele>285.0429</ele>
        <time>2022-09-18T15:12:37.000Z</time>
      </trkpt>
      <trkpt lat="45.83571" lon="4.71536">
        <ele>285.29848</ele>
        <time>2022-09-18T15:12:38.000Z</time>
      </trkpt>
      <trkpt lat="45.83575" lon="4.71534">
        <ele>285.61377</ele>
        <time>2022-09-18T15:12:39.000Z</time>
      </trkpt>
      <trkpt lat="45.83579" lon="4.7153">
        <ele>286.04156</ele>
        <time>2022-09-18T15:12:40.000Z</time>
      </trkpt>
      <trkpt lat="45.83583" lon="4.71528">
        <ele>286.41293</ele>
        <time>2022-09-18T15:12:41.000Z</time>
      </trkpt>
      <trkpt lat="45.83586" lon="4.71525">
        <ele>286.85988</ele>
        <time>2022-09-18T15:12:42.000Z</time>
      </trkpt>
      <trkpt lat="45.83589" lon="4.71521">
        <ele>287.3091</ele>
        <time>2022-09-18T15:12:43.000Z</time>
      </trkpt>
      <trkpt lat="45.83593" lon="4.71518">
        <ele>287.65706</ele>
        <time>2022-09-18T15:12:44.000Z</time>
      </trkpt>
      <trkpt lat="45.83596" lon="4.71514">
        <ele>288.03842</ele>
        <time>2022-09-18T15:12:45.000Z</time>
      </trkpt>
      <trkpt lat="45.836" lon="4.71515">
        <ele>288.03664</ele>
        <time>2022-09-18T15:12:46.000Z</time>
      </trkpt>
      <trkpt lat="45.83603" lon="4.71511">
        <ele>288.33643</ele>
        <time>2022-09-18T15:12:47.000Z</time>
      </trkpt>
      <trkpt lat="45.83606" lon="4.71507">
        <ele>288.58843</ele>
        <time>2022-09-18T15:12:48.000Z</time>
      </trkpt>
      <trkpt lat="45.83609" lon="4.71504">
        <ele>288.76944</ele>
        <time>2022-09-18T15:12:49.000Z</time>
      </trkpt>
      <trkpt lat="45.83612" lon="4.715">
        <ele>288.90907</ele>
        <time>2022-09-18T15:12:50.000Z</time>
      </trkpt>
      <trkpt lat="45.83615" lon="4.71497">
        <ele>288.99789</ele>
        <time>2022-09-18T15:12:51.000Z</time>
      </trkpt>
      <trkpt lat="45.83618" lon="4.71493">
        <ele>289.07528</ele>
        <time>2022-09-18T15:12:52.000Z</time>
      </trkpt>
      <trkpt lat="45.83621" lon="4.71489">
        <ele>289.12476</ele>
        <time>2022-09-18T15:12:53.000Z</time>
      </trkpt>
      <trkpt lat="45.83623" lon="4.71485">
        <ele>289.13853</ele>
        <time>2022-09-18T15:12:54.000Z</time>
      </trkpt>
      <trkpt lat="45.83626" lon="4.71481">
        <ele>289.14654</ele>
        <time>2022-09-18T15:12:55.000Z</time>
      </trkpt>
      <trkpt lat="45.83628" lon="4.71476">
        <ele>289.1559</ele>
        <time>2022-09-18T15:12:56.000Z</time>
      </trkpt>
      <trkpt lat="45.83629" lon="4.71471">
        <ele>289.16697</ele>
        <time>2022-09-18T15:12:57.000Z</time>
      </trkpt>
      <trkpt lat="45.83631" lon="4.71466">
        <ele>289.15881</ele>
        <time>2022-09-18T15:12:58.000Z</time>
      </trkpt>
      <trkpt lat="45.83632" lon="4.71461">
        <ele>289.13839</ele>
        <time>2022-09-18T15:12:59.000Z</time>
      </trkpt>
      <trkpt lat="45.83634" lon="4.71456">
        <ele>289.12109</ele>
        <time>2022-09-18T15:13:00.000Z</time>
      </trkpt>
      <trkpt lat="45.83636" lon="4.7145">
        <ele>289.11404</ele>
        <time>2022-09-18T15:13:01.000Z</time>
      </trkpt>
      <trkpt lat="45.83637" lon="4.71445">
        <ele>289.11517</ele>
        <time>2022-09-18T15:13:02.000Z</time>
      </trkpt>
      <trkpt lat="45.83638" lon="4.7144">
        <ele>289.11708</ele>
        <time>2022-09-18T15:13:03.000Z</time>
      </trkpt>
      <trkpt lat="45.8364" lon="4.71435">
        <ele>289.1223</ele>
        <time>2022-09-18T15:13:04.000Z</time>
      </trkpt>
      <trkpt lat="45.83641" lon="4.7143">
        <ele>289.12194</ele>
        <time>2022-09-18T15:13:05.000Z</time>
      </trkpt>
      <trkpt lat="45.83642" lon="4.71424">
        <ele>289.12072</ele>
        <time>2022-09-18T15:13:06.000Z</time>
      </trkpt>
      <trkpt lat="45.83643" lon="4.71415">
        <ele>289.18457</ele>
        <time>2022-09-18T15:13:07.000Z</time>
      </trkpt>
      <trkpt lat="45.83644" lon="4.71409">
        <ele>289.19673</ele>
        <time>2022-09-18T15:13:08.000Z</time>
      </trkpt>
      <trkpt lat="45.83646" lon="4.71402">
        <ele>289.14114</ele>
        <time>2022-09-18T15:13:09.000Z</time>
      </trkpt>
      <trkpt lat="45.83648" lon="4.71398">
        <ele>289.07793</ele>
        <time>2022-09-18T15:13:10.000Z</time>
      </trkpt>
      <trkpt lat="45.83649" lon="4.71391">
        <ele>289.03837</ele>
        <time>2022-09-18T15:13:11.000Z</time>
      </trkpt>
      <trkpt lat="45.83651" lon="4.71383">
        <ele>289.02046</ele>
        <time>2022-09-18T15:13:12.000Z</time>
      </trkpt>
      <trkpt lat="45.83653" lon="4.71376">
        <ele>289.01099</ele>
        <time>2022-09-18T15:13:13.000Z</time>
      </trkpt>
      <trkpt lat="45.83654" lon="4.71368">
        <ele>289.03071</ele>
        <time>2022-09-18T15:13:14.000Z</time>
      </trkpt>
      <trkpt lat="45.83656" lon="4.7136">
        <ele>289.09763</ele>
        <time>2022-09-18T15:13:15.000Z</time>
      </trkpt>
      <trkpt lat="45.83657" lon="4.71354">
        <ele>289.15039</ele>
        <time>2022-09-18T15:13:16.000Z</time>
      </trkpt>
      <trkpt lat="45.83657" lon="4.71346">
        <ele>289.30983</ele>
        <time>2022-09-18T15:13:17.000Z</time>
      </trkpt>
      <trkpt lat="45.83657" lon="4.7134">
        <ele>289.45322</ele>
        <time>2022-09-18T15:13:18.000Z</time>
      </trkpt>
      <trkpt lat="45.83657" lon="4.71332">
        <ele>289.59441</ele>
        <time>2022-09-18T15:13:19.000Z</time>
      </trkpt>
      <trkpt lat="45.83659" lon="4.71324">
        <ele>289.63335</ele>
        <time>2022-09-18T15:13:20.000Z</time>
      </trkpt>
      <trkpt lat="45.83661" lon="4.71316">
        <ele>289.64414</ele>
        <time>2022-09-18T15:13:21.000Z</time>
      </trkpt>
      <trkpt lat="45.83663" lon="4.71309">
        <ele>289.60039</ele>
        <time>2022-09-18T15:13:22.000Z</time>
      </trkpt>
      <trkpt lat="45.83666" lon="4.71302">
        <ele>289.48403</ele>
        <time>2022-09-18T15:13:23.000Z</time>
      </trkpt>
      <trkpt lat="45.83666" lon="4.71296">
        <ele>289.47516</ele>
        <time>2022-09-18T15:13:24.000Z</time>
      </trkpt>
      <trkpt lat="45.83668" lon="4.7129">
        <ele>289.44361</ele>
        <time>2022-09-18T15:13:25.000Z</time>
      </trkpt>
      <trkpt lat="45.8367" lon="4.71284">
        <ele>289.33611</ele>
        <time>2022-09-18T15:13:26.000Z</time>
      </trkpt>
      <trkpt lat="45.83672" lon="4.71277">
        <ele>289.23344</ele>
        <time>2022-09-18T15:13:27.000Z</time>
      </trkpt>
      <trkpt lat="45.83673" lon="4.71271">
        <ele>289.25025</ele>
        <time>2022-09-18T15:13:28.000Z</time>
      </trkpt>
      <trkpt lat="45.83674" lon="4.71264">
        <ele>289.30608</ele>
        <time>2022-09-18T15:13:29.000Z</time>
      </trkpt>
      <trkpt lat="45.83675" lon="4.71256">
        <ele>289.36959</ele>
        <time>2022-09-18T15:13:30.000Z</time>
      </trkpt>
      <trkpt lat="45.83675" lon="4.7125">
        <ele>289.49825</ele>
        <time>2022-09-18T15:13:31.000Z</time>
      </trkpt>
      <trkpt lat="45.83676" lon="4.71247">
        <ele>289.50073</ele>
        <time>2022-09-18T15:13:32.000Z</time>
      </trkpt>
      <trkpt lat="45.83677" lon="4.71241">
        <ele>289.60388</ele>
        <time>2022-09-18T15:13:33.000Z</time>
      </trkpt>
      <trkpt lat="45.83678" lon="4.71237">
        <ele>289.68248</ele>
        <time>2022-09-18T15:13:34.000Z</time>
      </trkpt>
      <trkpt lat="45.83679" lon="4.71232">
        <ele>289.75742</ele>
        <time>2022-09-18T15:13:35.000Z</time>
      </trkpt>
      <trkpt lat="45.8368" lon="4.71228">
        <ele>289.81473</ele>
        <time>2022-09-18T15:13:36.000Z</time>
      </trkpt>
      <trkpt lat="45.83679" lon="4.71224">
        <ele>289.95181</ele>
        <time>2022-09-18T15:13:37.000Z</time>
      </trkpt>
      <trkpt lat="45.83679" lon="4.71221">
        <ele>290.03268</ele>
        <time>2022-09-18T15:13:38.000Z</time>
      </trkpt>
      <trkpt lat="45.83677" lon="4.71218">
        <ele>290.19284</ele>
        <time>2022-09-18T15:13:40.000Z</time>
      </trkpt>
      <trkpt lat="45.83675" lon="4.71216">
        <ele>290.28213</ele>
        <time>2022-09-18T15:13:41.000Z</time>
      </trkpt>
      <trkpt lat="45.83672" lon="4.71216">
        <ele>290.36484</ele>
        <time>2022-09-18T15:13:42.000Z</time>
      </trkpt>
      <trkpt lat="45.8367" lon="4.71215">
        <ele>290.44925</ele>
        <time>2022-09-18T15:13:43.000Z</time>
      </trkpt>
      <trkpt lat="45.83668" lon="4.71214">
        <ele>290.52896</ele>
        <time>2022-09-18T15:13:44.000Z</time>
      </trkpt>
      <trkpt lat="45.83665" lon="4.71212">
        <ele>290.70007</ele>
        <time>2022-09-18T15:13:46.000Z</time>
      </trkpt>
      <trkpt lat="45.83664" lon="4.7121">
        <ele>290.81161</ele>
        <time>2022-09-18T15:13:48.000Z</time>
      </trkpt>
      <trkpt lat="45.83663" lon="4.71208">
        <ele>290.91827</ele>
        <time>2022-09-18T15:13:50.000Z</time>
      </trkpt>
      <trkpt lat="45.83661" lon="4.71207">
        <ele>291.03417</ele>
        <time>2022-09-18T15:13:51.000Z</time>
      </trkpt>
      <trkpt lat="45.83659" lon="4.71206">
        <ele>291.19165</ele>
        <time>2022-09-18T15:13:52.000Z</time>
      </trkpt>
      <trkpt lat="45.83656" lon="4.71206">
        <ele>291.34374</ele>
        <time>2022-09-18T15:13:53.000Z</time>
      </trkpt>
      <trkpt lat="45.83654" lon="4.71205">
        <ele>291.48979</ele>
        <time>2022-09-18T15:13:54.000Z</time>
      </trkpt>
      <trkpt lat="45.83651" lon="4.71204">
        <ele>291.62933</ele>
        <time>2022-09-18T15:13:55.000Z</time>
      </trkpt>
      <trkpt lat="45.83649" lon="4.71204">
        <ele>291.77374</ele>
        <time>2022-09-18T15:13:56.000Z</time>
      </trkpt>
      <trkpt lat="45.83647" lon="4.71203">
        <ele>291.93698</ele>
        <time>2022-09-18T15:13:57.000Z</time>
      </trkpt>
      <trkpt lat="45.83644" lon="4.71201">
        <ele>292.105</ele>
        <time>2022-09-18T15:13:58.000Z</time>
      </trkpt>
      <trkpt lat="45.83642" lon="4.71199">
        <ele>292.29143</ele>
        <time>2022-09-18T15:13:59.000Z</time>
      </trkpt>
      <trkpt lat="45.83639" lon="4.71197">
        <ele>292.47682</ele>
        <time>2022-09-18T15:14:00.000Z</time>
      </trkpt>
      <trkpt lat="45.83637" lon="4.71195">
        <ele>292.63298</ele>
        <time>2022-09-18T15:14:01.000Z</time>
      </trkpt>
      <trkpt lat="45.83635" lon="4.71193">
        <ele>292.76978</ele>
        <time>2022-09-18T15:14:02.000Z</time>
      </trkpt>
      <trkpt lat="45.83633" lon="4.71191">
        <ele>292.89107</ele>
        <time>2022-09-18T15:14:03.000Z</time>
      </trkpt>
      <trkpt lat="45.83631" lon="4.7119">
        <ele>293.00956</ele>
        <time>2022-09-18T15:14:04.000Z</time>
      </trkpt>
      <trkpt lat="45.83629" lon="4.71189">
        <ele>293.12418</ele>
        <time>2022-09-18T15:14:05.000Z</time>
      </trkpt>
      <trkpt lat="45.83626" lon="4.71188">
        <ele>293.23961</ele>
        <time>2022-09-18T15:14:06.000Z</time>
      </trkpt>
      <trkpt lat="45.83624" lon="4.71186">
        <ele>293.35664</ele>
        <time>2022-09-18T15:14:07.000Z</time>
      </trkpt>
      <trkpt lat="45.83622" lon="4.71184">
        <ele>293.47788</ele>
        <time>2022-09-18T15:14:08.000Z</time>
      </trkpt>
      <trkpt lat="45.83619" lon="4.71182">
        <ele>293.60664</ele>
        <time>2022-09-18T15:14:09.000Z</time>
      </trkpt>
      <trkpt lat="45.83616" lon="4.7118">
        <ele>293.74774</ele>
        <time>2022-09-18T15:14:10.000Z</time>
      </trkpt>
      <trkpt lat="45.83614" lon="4.71178">
        <ele>293.89513</ele>
        <time>2022-09-18T15:14:11.000Z</time>
      </trkpt>
      <trkpt lat="45.83611" lon="4.71176">
        <ele>294.03914</ele>
        <time>2022-09-18T15:14:12.000Z</time>
      </trkpt>
      <trkpt lat="45.83608" lon="4.71175">
        <ele>294.17999</ele>
        <time>2022-09-18T15:14:13.000Z</time>
      </trkpt>
      <trkpt lat="45.83606" lon="4.71173">
        <ele>294.30921</ele>
        <time>2022-09-18T15:14:14.000Z</time>
      </trkpt>
      <trkpt lat="45.83603" lon="4.71172">
        <ele>294.42619</ele>
        <time>2022-09-18T15:14:15.000Z</time>
      </trkpt>
      <trkpt lat="45.83601" lon="4.7117">
        <ele>294.53751</ele>
        <time>2022-09-18T15:14:16.000Z</time>
      </trkpt>
      <trkpt lat="45.83598" lon="4.71168">
        <ele>294.64118</ele>
        <time>2022-09-18T15:14:17.000Z</time>
      </trkpt>
      <trkpt lat="45.83596" lon="4.71165">
        <ele>294.74595</ele>
        <time>2022-09-18T15:14:18.000Z</time>
      </trkpt>
      <trkpt lat="45.83593" lon="4.71163">
        <ele>294.84008</ele>
        <time>2022-09-18T15:14:19.000Z</time>
      </trkpt>
      <trkpt lat="45.83591" lon="4.71161">
        <ele>294.92173</ele>
        <time>2022-09-18T15:14:20.000Z</time>
      </trkpt>
      <trkpt lat="45.83587" lon="4.71159">
        <ele>295.00615</ele>
        <time>2022-09-18T15:14:21.000Z</time>
      </trkpt>
      <trkpt lat="45.83584" lon="4.71157">
        <ele>295.08619</ele>
        <time>2022-09-18T15:14:22.000Z</time>
      </trkpt>
      <trkpt lat="45.83581" lon="4.71155">
        <ele>295.16678</ele>
        <time>2022-09-18T15:14:23.000Z</time>
      </trkpt>
      <trkpt lat="45.83578" lon="4.71154">
        <ele>295.25939</ele>
        <time>2022-09-18T15:14:24.000Z</time>
      </trkpt>
      <trkpt lat="45.83575" lon="4.71152">
        <ele>295.37598</ele>
        <time>2022-09-18T15:14:25.000Z</time>
      </trkpt>
      <trkpt lat="45.83572" lon="4.7115">
        <ele>295.50653</ele>
        <time>2022-09-18T15:14:26.000Z</time>
      </trkpt>
      <trkpt lat="45.8357" lon="4.71148">
        <ele>295.62526</ele>
        <time>2022-09-18T15:14:27.000Z</time>
      </trkpt>
      <trkpt lat="45.83569" lon="4.71145">
        <ele>295.72408</ele>
        <time>2022-09-18T15:14:28.000Z</time>
      </trkpt>
      <trkpt lat="45.83569" lon="4.71142">
        <ele>295.79606</ele>
        <time>2022-09-18T15:14:29.000Z</time>
      </trkpt>
      <trkpt lat="45.83569" lon="4.71138">
        <ele>295.86881</ele>
        <time>2022-09-18T15:14:30.000Z</time>
      </trkpt>
      <trkpt lat="45.83571" lon="4.71134">
        <ele>295.92589</ele>
        <time>2022-09-18T15:14:31.000Z</time>
      </trkpt>
      <trkpt lat="45.83573" lon="4.7113">
        <ele>295.98003</ele>
        <time>2022-09-18T15:14:32.000Z</time>
      </trkpt>
      <trkpt lat="45.83575" lon="4.71127">
        <ele>296.02369</ele>
        <time>2022-09-18T15:14:33.000Z</time>
      </trkpt>
      <trkpt lat="45.83576" lon="4.71123">
        <ele>296.06325</ele>
        <time>2022-09-18T15:14:34.000Z</time>
      </trkpt>
      <trkpt lat="45.83578" lon="4.7112">
        <ele>296.10346</ele>
        <time>2022-09-18T15:14:35.000Z</time>
      </trkpt>
      <trkpt lat="45.8358" lon="4.71116">
        <ele>296.14188</ele>
        <time>2022-09-18T15:14:36.000Z</time>
      </trkpt>
      <trkpt lat="45.83582" lon="4.71112">
        <ele>296.18125</ele>
        <time>2022-09-18T15:14:37.000Z</time>
      </trkpt>
      <trkpt lat="45.83583" lon="4.71108">
        <ele>296.2262</ele>
        <time>2022-09-18T15:14:38.000Z</time>
      </trkpt>
      <trkpt lat="45.83584" lon="4.71104">
        <ele>296.27199</ele>
        <time>2022-09-18T15:14:39.000Z</time>
      </trkpt>
      <trkpt lat="45.83586" lon="4.711">
        <ele>296.31394</ele>
        <time>2022-09-18T15:14:40.000Z</time>
      </trkpt>
      <trkpt lat="45.83587" lon="4.71096">
        <ele>296.35914</ele>
        <time>2022-09-18T15:14:41.000Z</time>
      </trkpt>
      <trkpt lat="45.83588" lon="4.71092">
        <ele>296.40735</ele>
        <time>2022-09-18T15:14:42.000Z</time>
      </trkpt>
      <trkpt lat="45.83589" lon="4.71088">
        <ele>296.45406</ele>
        <time>2022-09-18T15:14:43.000Z</time>
      </trkpt>
      <trkpt lat="45.8359" lon="4.71083">
        <ele>296.49907</ele>
        <time>2022-09-18T15:14:44.000Z</time>
      </trkpt>
      <trkpt lat="45.83592" lon="4.71079">
        <ele>296.53544</ele>
        <time>2022-09-18T15:14:45.000Z</time>
      </trkpt>
      <trkpt lat="45.83593" lon="4.71074">
        <ele>296.56303</ele>
        <time>2022-09-18T15:14:46.000Z</time>
      </trkpt>
      <trkpt lat="45.83594" lon="4.7107">
        <ele>296.58389</ele>
        <time>2022-09-18T15:14:47.000Z</time>
      </trkpt>
      <trkpt lat="45.83595" lon="4.71066">
        <ele>296.59819</ele>
        <time>2022-09-18T15:14:48.000Z</time>
      </trkpt>
      <trkpt lat="45.83596" lon="4.71062">
        <ele>296.63404</ele>
        <time>2022-09-18T15:14:49.000Z</time>
      </trkpt>
      <trkpt lat="45.83596" lon="4.71058">
        <ele>296.69863</ele>
        <time>2022-09-18T15:14:50.000Z</time>
      </trkpt>
      <trkpt lat="45.83595" lon="4.71054">
        <ele>296.82283</ele>
        <time>2022-09-18T15:14:51.000Z</time>
      </trkpt>
      <trkpt lat="45.83593" lon="4.71051">
        <ele>296.9865</ele>
        <time>2022-09-18T15:14:52.000Z</time>
      </trkpt>
      <trkpt lat="45.8359" lon="4.71047">
        <ele>297.18461</ele>
        <time>2022-09-18T15:14:53.000Z</time>
      </trkpt>
      <trkpt lat="45.83587" lon="4.71044">
        <ele>297.3899</ele>
        <time>2022-09-18T15:14:54.000Z</time>
      </trkpt>
      <trkpt lat="45.83583" lon="4.71042">
        <ele>297.57533</ele>
        <time>2022-09-18T15:14:55.000Z</time>
      </trkpt>
      <trkpt lat="45.8358" lon="4.7104">
        <ele>297.72167</ele>
        <time>2022-09-18T15:14:56.000Z</time>
      </trkpt>
      <trkpt lat="45.83576" lon="4.71039">
        <ele>297.84294</ele>
        <time>2022-09-18T15:14:57.000Z</time>
      </trkpt>
      <trkpt lat="45.83573" lon="4.71038">
        <ele>297.93198</ele>
        <time>2022-09-18T15:14:58.000Z</time>
      </trkpt>
      <trkpt lat="45.83569" lon="4.71036">
        <ele>297.99943</ele>
        <time>2022-09-18T15:14:59.000Z</time>
      </trkpt>
      <trkpt lat="45.83566" lon="4.71033">
        <ele>298.05126</ele>
        <time>2022-09-18T15:15:00.000Z</time>
      </trkpt>
      <trkpt lat="45.83562" lon="4.71031">
        <ele>298.09642</ele>
        <time>2022-09-18T15:15:01.000Z</time>
      </trkpt>
      <trkpt lat="45.83559" lon="4.71029">
        <ele>298.15454</ele>
        <time>2022-09-18T15:15:02.000Z</time>
      </trkpt>
      <trkpt lat="45.83555" lon="4.71026">
        <ele>298.24074</ele>
        <time>2022-09-18T15:15:03.000Z</time>
      </trkpt>
      <trkpt lat="45.83552" lon="4.71024">
        <ele>298.35745</ele>
        <time>2022-09-18T15:15:04.000Z</time>
      </trkpt>
      <trkpt lat="45.83548" lon="4.71021">
        <ele>298.4835</ele>
        <time>2022-09-18T15:15:05.000Z</time>
      </trkpt>
      <trkpt lat="45.83545" lon="4.71018">
        <ele>298.60937</ele>
        <time>2022-09-18T15:15:06.000Z</time>
      </trkpt>
      <trkpt lat="45.83541" lon="4.71016">
        <ele>298.72635</ele>
        <time>2022-09-18T15:15:07.000Z</time>
      </trkpt>
      <trkpt lat="45.83538" lon="4.71013">
        <ele>298.83029</ele>
        <time>2022-09-18T15:15:08.000Z</time>
      </trkpt>
      <trkpt lat="45.83534" lon="4.7101">
        <ele>298.92473</ele>
        <time>2022-09-18T15:15:09.000Z</time>
      </trkpt>
      <trkpt lat="45.8353" lon="4.71007">
        <ele>299.01133</ele>
        <time>2022-09-18T15:15:10.000Z</time>
      </trkpt>
      <trkpt lat="45.83527" lon="4.71004">
        <ele>299.08838</ele>
        <time>2022-09-18T15:15:11.000Z</time>
      </trkpt>
      <trkpt lat="45.83523" lon="4.71001">
        <ele>299.1653</ele>
        <time>2022-09-18T15:15:12.000Z</time>
      </trkpt>
      <trkpt lat="45.8352" lon="4.70998">
        <ele>299.25449</ele>
        <time>2022-09-18T15:15:13.000Z</time>
      </trkpt>
      <trkpt lat="45.83517" lon="4.70995">
        <ele>299.35859</ele>
        <time>2022-09-18T15:15:14.000Z</time>
      </trkpt>
      <trkpt lat="45.83515" lon="4.70992">
        <ele>299.48118</ele>
        <time>2022-09-18T15:15:15.000Z</time>
      </trkpt>
      <trkpt lat="45.83512" lon="4.7099">
        <ele>299.63595</ele>
        <time>2022-09-18T15:15:16.000Z</time>
      </trkpt>
      <trkpt lat="45.83508" lon="4.70988">
        <ele>299.83469</ele>
        <time>2022-09-18T15:15:17.000Z</time>
      </trkpt>
      <trkpt lat="45.83505" lon="4.70987">
        <ele>300.06305</ele>
        <time>2022-09-18T15:15:18.000Z</time>
      </trkpt>
      <trkpt lat="45.83502" lon="4.70986">
        <ele>300.23866</ele>
        <time>2022-09-18T15:15:19.000Z</time>
      </trkpt>
      <trkpt lat="45.835" lon="4.70986">
        <ele>300.40833</ele>
        <time>2022-09-18T15:15:20.000Z</time>
      </trkpt>
      <trkpt lat="45.83498" lon="4.70985">
        <ele>300.593</ele>
        <time>2022-09-18T15:15:21.000Z</time>
      </trkpt>
      <trkpt lat="45.83495" lon="4.70984">
        <ele>300.79612</ele>
        <time>2022-09-18T15:15:22.000Z</time>
      </trkpt>
      <trkpt lat="45.83492" lon="4.70984">
        <ele>301.01244</ele>
        <time>2022-09-18T15:15:23.000Z</time>
      </trkpt>
      <trkpt lat="45.83488" lon="4.70984">
        <ele>301.24603</ele>
        <time>2022-09-18T15:15:24.000Z</time>
      </trkpt>
      <trkpt lat="45.83484" lon="4.70985">
        <ele>301.48987</ele>
        <time>2022-09-18T15:15:25.000Z</time>
      </trkpt>
      <trkpt lat="45.8348" lon="4.70986">
        <ele>301.73687</ele>
        <time>2022-09-18T15:15:26.000Z</time>
      </trkpt>
      <trkpt lat="45.83475" lon="4.70986">
        <ele>301.9914</ele>
        <time>2022-09-18T15:15:27.000Z</time>
      </trkpt>
      <trkpt lat="45.8347" lon="4.70987">
        <ele>302.23168</ele>
        <time>2022-09-18T15:15:28.000Z</time>
      </trkpt>
      <trkpt lat="45.83466" lon="4.70986">
        <ele>302.43162</ele>
        <time>2022-09-18T15:15:29.000Z</time>
      </trkpt>
      <trkpt lat="45.83462" lon="4.70987">
        <ele>302.57542</ele>
        <time>2022-09-18T15:15:30.000Z</time>
      </trkpt>
      <trkpt lat="45.83458" lon="4.70987">
        <ele>302.68862</ele>
        <time>2022-09-18T15:15:31.000Z</time>
      </trkpt>
      <trkpt lat="45.83454" lon="4.70987">
        <ele>302.79366</ele>
        <time>2022-09-18T15:15:32.000Z</time>
      </trkpt>
      <trkpt lat="45.8345" lon="4.70987">
        <ele>302.88791</ele>
        <time>2022-09-18T15:15:33.000Z</time>
      </trkpt>
      <trkpt lat="45.83446" lon="4.70988">
        <ele>302.98521</ele>
        <time>2022-09-18T15:15:34.000Z</time>
      </trkpt>
      <trkpt lat="45.83442" lon="4.70989">
        <ele>303.10181</ele>
        <time>2022-09-18T15:15:35.000Z</time>
      </trkpt>
      <trkpt lat="45.83438" lon="4.7099">
        <ele>303.21612</ele>
        <time>2022-09-18T15:15:36.000Z</time>
      </trkpt>
      <trkpt lat="45.83434" lon="4.7099">
        <ele>303.34347</ele>
        <time>2022-09-18T15:15:37.000Z</time>
      </trkpt>
      <trkpt lat="45.8343" lon="4.70991">
        <ele>303.46139</ele>
        <time>2022-09-18T15:15:38.000Z</time>
      </trkpt>
      <trkpt lat="45.83427" lon="4.70992">
        <ele>303.58455</ele>
        <time>2022-09-18T15:15:39.000Z</time>
      </trkpt>
      <trkpt lat="45.83423" lon="4.70992">
        <ele>303.71566</ele>
        <time>2022-09-18T15:15:40.000Z</time>
      </trkpt>
      <trkpt lat="45.83419" lon="4.70993">
        <ele>303.88595</ele>
        <time>2022-09-18T15:15:41.000Z</time>
      </trkpt>
      <trkpt lat="45.83415" lon="4.70993">
        <ele>304.0955</ele>
        <time>2022-09-18T15:15:42.000Z</time>
      </trkpt>
      <trkpt lat="45.8341" lon="4.70993">
        <ele>304.33994</ele>
        <time>2022-09-18T15:15:43.000Z</time>
      </trkpt>
      <trkpt lat="45.83406" lon="4.70993">
        <ele>304.55465</ele>
        <time>2022-09-18T15:15:44.000Z</time>
      </trkpt>
      <trkpt lat="45.83402" lon="4.70994">
        <ele>304.73139</ele>
        <time>2022-09-18T15:15:45.000Z</time>
      </trkpt>
      <trkpt lat="45.83398" lon="4.70995">
        <ele>304.87714</ele>
        <time>2022-09-18T15:15:46.000Z</time>
      </trkpt>
      <trkpt lat="45.83393" lon="4.70996">
        <ele>304.99502</ele>
        <time>2022-09-18T15:15:47.000Z</time>
      </trkpt>
      <trkpt lat="45.83388" lon="4.70998">
        <ele>305.08899</ele>
        <time>2022-09-18T15:15:48.000Z</time>
      </trkpt>
      <trkpt lat="45.83383" lon="4.70999">
        <ele>305.16624</ele>
        <time>2022-09-18T15:15:49.000Z</time>
      </trkpt>
      <trkpt lat="45.83378" lon="4.70999">
        <ele>305.22844</ele>
        <time>2022-09-18T15:15:50.000Z</time>
      </trkpt>
      <trkpt lat="45.8337" lon="4.70997">
        <ele>305.34053</ele>
        <time>2022-09-18T15:15:51.000Z</time>
      </trkpt>
      <trkpt lat="45.83366" lon="4.70996">
        <ele>305.3564</ele>
        <time>2022-09-18T15:15:52.000Z</time>
      </trkpt>
      <trkpt lat="45.83361" lon="4.70995">
        <ele>305.361</ele>
        <time>2022-09-18T15:15:53.000Z</time>
      </trkpt>
      <trkpt lat="45.83358" lon="4.70995">
        <ele>305.34682</ele>
        <time>2022-09-18T15:15:54.000Z</time>
      </trkpt>
      <trkpt lat="45.83353" lon="4.70995">
        <ele>305.32804</ele>
        <time>2022-09-18T15:15:55.000Z</time>
      </trkpt>
      <trkpt lat="45.83349" lon="4.70995">
        <ele>305.30707</ele>
        <time>2022-09-18T15:15:56.000Z</time>
      </trkpt>
      <trkpt lat="45.83345" lon="4.70994">
        <ele>305.28346</ele>
        <time>2022-09-18T15:15:57.000Z</time>
      </trkpt>
      <trkpt lat="45.83343" lon="4.70996">
        <ele>305.24538</ele>
        <time>2022-09-18T15:15:58.000Z</time>
      </trkpt>
      <trkpt lat="45.8334" lon="4.70996">
        <ele>305.21595</ele>
        <time>2022-09-18T15:15:59.000Z</time>
      </trkpt>
      <trkpt lat="45.83338" lon="4.70997">
        <ele>305.19369</ele>
        <time>2022-09-18T15:16:00.000Z</time>
      </trkpt>
      <trkpt lat="45.83335" lon="4.70998">
        <ele>305.16963</ele>
        <time>2022-09-18T15:16:01.000Z</time>
      </trkpt>
      <trkpt lat="45.83332" lon="4.70998">
        <ele>305.15103</ele>
        <time>2022-09-18T15:16:02.000Z</time>
      </trkpt>
      <trkpt lat="45.83329" lon="4.70997">
        <ele>305.12652</ele>
        <time>2022-09-18T15:16:03.000Z</time>
      </trkpt>
      <trkpt lat="45.83326" lon="4.70997">
        <ele>305.08571</ele>
        <time>2022-09-18T15:16:04.000Z</time>
      </trkpt>
      <trkpt lat="45.83323" lon="4.70997">
        <ele>305.03814</ele>
        <time>2022-09-18T15:16:05.000Z</time>
      </trkpt>
      <trkpt lat="45.8332" lon="4.70997">
        <ele>304.99453</ele>
        <time>2022-09-18T15:16:06.000Z</time>
      </trkpt>
    </trkseg>
  </trk>
</gpx>